<?xml version="1.0" encoding="utf-8"?>
<gpx xmlns:xsi="http://www.w3.org/2001/XMLSchema-instance" xmlns:xsd="http://www.w3.org/2001/XMLSchema" version="1.1" creator="Shapelink.com" xmlns="http://www.topografix.com/GPX/1/1" xmlns:gpxtpx="http://www.garmin.com/xmlschemas/TrackPointExtension/v1">
  <metadata>
    <name>Ciclismo 35.24 km, 2015-04-27</name>
    <desc></desc>
    <author><name>Henrik Amren</name></author> 
    <time>2015-04-27T18:08:37Z</time>
  </metadata>
  <trk>
    <name>Ciclismo 35.24 km, 2015-04-27</name>
    <trkseg>
      <trkpt lat="37.39007" lon="-122.123448">
        <ele>42.6</ele>
        <time>2015-04-27T18:08:37Z</time>
      </trkpt>
      <trkpt lat="37.390101" lon="-122.123425">
        <ele>42.7</ele>
        <time>2015-04-27T18:08:39Z</time>
      </trkpt>
      <trkpt lat="37.390139" lon="-122.123423">
        <ele>42.7</ele>
        <time>2015-04-27T18:08:41Z</time>
      </trkpt>
      <trkpt lat="37.390174" lon="-122.123438">
        <ele>42.7</ele>
        <time>2015-04-27T18:08:43Z</time>
      </trkpt>
      <trkpt lat="37.390149" lon="-122.123466">
        <ele>42.7</ele>
        <time>2015-04-27T18:08:47Z</time>
      </trkpt>
      <trkpt lat="37.390106" lon="-122.12345">
        <ele>42.7</ele>
        <time>2015-04-27T18:08:49Z</time>
      </trkpt>
      <trkpt lat="37.390079" lon="-122.123428">
        <ele>42.6</ele>
        <time>2015-04-27T18:08:51Z</time>
      </trkpt>
      <trkpt lat="37.390068" lon="-122.123368">
        <ele>42.5</ele>
        <time>2015-04-27T18:08:53Z</time>
      </trkpt>
      <trkpt lat="37.390068" lon="-122.123325">
        <ele>42.4</ele>
        <time>2015-04-27T18:08:54Z</time>
      </trkpt>
      <trkpt lat="37.390068" lon="-122.123282">
        <ele>42.4</ele>
        <time>2015-04-27T18:08:55Z</time>
      </trkpt>
      <trkpt lat="37.390068" lon="-122.123236">
        <ele>42.3</ele>
        <time>2015-04-27T18:08:56Z</time>
      </trkpt>
      <trkpt lat="37.390069" lon="-122.123191">
        <ele>42.2</ele>
        <time>2015-04-27T18:08:57Z</time>
      </trkpt>
      <trkpt lat="37.390071" lon="-122.123147">
        <ele>42.1</ele>
        <time>2015-04-27T18:08:58Z</time>
      </trkpt>
      <trkpt lat="37.390074" lon="-122.123104">
        <ele>42.1</ele>
        <time>2015-04-27T18:08:59Z</time>
      </trkpt>
      <trkpt lat="37.390076" lon="-122.123062">
        <ele>42.1</ele>
        <time>2015-04-27T18:09:00Z</time>
      </trkpt>
      <trkpt lat="37.390079" lon="-122.123018">
        <ele>42.1</ele>
        <time>2015-04-27T18:09:01Z</time>
      </trkpt>
      <trkpt lat="37.390087" lon="-122.122967">
        <ele>42</ele>
        <time>2015-04-27T18:09:02Z</time>
      </trkpt>
      <trkpt lat="37.390095" lon="-122.122914">
        <ele>41.9</ele>
        <time>2015-04-27T18:09:03Z</time>
      </trkpt>
      <trkpt lat="37.390112" lon="-122.122861">
        <ele>41.8</ele>
        <time>2015-04-27T18:09:04Z</time>
      </trkpt>
      <trkpt lat="37.390131" lon="-122.122811">
        <ele>41.7</ele>
        <time>2015-04-27T18:09:05Z</time>
      </trkpt>
      <trkpt lat="37.390157" lon="-122.122761">
        <ele>41.7</ele>
        <time>2015-04-27T18:09:06Z</time>
      </trkpt>
      <trkpt lat="37.390184" lon="-122.122712">
        <ele>41.6</ele>
        <time>2015-04-27T18:09:07Z</time>
      </trkpt>
      <trkpt lat="37.390222" lon="-122.122655">
        <ele>41.4</ele>
        <time>2015-04-27T18:09:08Z</time>
      </trkpt>
      <trkpt lat="37.39024" lon="-122.122605">
        <ele>41.3</ele>
        <time>2015-04-27T18:09:09Z</time>
      </trkpt>
      <trkpt lat="37.390264" lon="-122.122559">
        <ele>41.2</ele>
        <time>2015-04-27T18:09:10Z</time>
      </trkpt>
      <trkpt lat="37.390297" lon="-122.122511">
        <ele>41.1</ele>
        <time>2015-04-27T18:09:11Z</time>
      </trkpt>
      <trkpt lat="37.390335" lon="-122.12247">
        <ele>41.1</ele>
        <time>2015-04-27T18:09:12Z</time>
      </trkpt>
      <trkpt lat="37.390362" lon="-122.12241">
        <ele>41</ele>
        <time>2015-04-27T18:09:13Z</time>
      </trkpt>
      <trkpt lat="37.390393" lon="-122.122363">
        <ele>40.8</ele>
        <time>2015-04-27T18:09:14Z</time>
      </trkpt>
      <trkpt lat="37.390421" lon="-122.122314">
        <ele>40.7</ele>
        <time>2015-04-27T18:09:15Z</time>
      </trkpt>
      <trkpt lat="37.390449" lon="-122.122255">
        <ele>40.7</ele>
        <time>2015-04-27T18:09:16Z</time>
      </trkpt>
      <trkpt lat="37.390438" lon="-122.12221">
        <ele>40.6</ele>
        <time>2015-04-27T18:09:17Z</time>
      </trkpt>
      <trkpt lat="37.390445" lon="-122.122102">
        <ele>40.4</ele>
        <time>2015-04-27T18:09:18Z</time>
      </trkpt>
      <trkpt lat="37.39045" lon="-122.12202">
        <ele>40.3</ele>
        <time>2015-04-27T18:09:19Z</time>
      </trkpt>
      <trkpt lat="37.390454" lon="-122.121956">
        <ele>40.2</ele>
        <time>2015-04-27T18:09:20Z</time>
      </trkpt>
      <trkpt lat="37.390457" lon="-122.121894">
        <ele>40.1</ele>
        <time>2015-04-27T18:09:21Z</time>
      </trkpt>
      <trkpt lat="37.390461" lon="-122.121829">
        <ele>40.2</ele>
        <time>2015-04-27T18:09:22Z</time>
      </trkpt>
      <trkpt lat="37.39047" lon="-122.121564">
        <ele>40.1</ele>
        <time>2015-04-27T18:09:26Z</time>
      </trkpt>
      <trkpt lat="37.390472" lon="-122.121496">
        <ele>40.2</ele>
        <time>2015-04-27T18:09:27Z</time>
      </trkpt>
      <trkpt lat="37.390474" lon="-122.121423">
        <ele>40.2</ele>
        <time>2015-04-27T18:09:28Z</time>
      </trkpt>
      <trkpt lat="37.390475" lon="-122.121361">
        <ele>40.2</ele>
        <time>2015-04-27T18:09:29Z</time>
      </trkpt>
      <trkpt lat="37.390477" lon="-122.121295">
        <ele>40.2</ele>
        <time>2015-04-27T18:09:30Z</time>
      </trkpt>
      <trkpt lat="37.390479" lon="-122.121226">
        <ele>40.2</ele>
        <time>2015-04-27T18:09:31Z</time>
      </trkpt>
      <trkpt lat="37.390481" lon="-122.121157">
        <ele>40.2</ele>
        <time>2015-04-27T18:09:32Z</time>
      </trkpt>
      <trkpt lat="37.390483" lon="-122.121095">
        <ele>40.2</ele>
        <time>2015-04-27T18:09:33Z</time>
      </trkpt>
      <trkpt lat="37.390485" lon="-122.12104">
        <ele>40.2</ele>
        <time>2015-04-27T18:09:34Z</time>
      </trkpt>
      <trkpt lat="37.390486" lon="-122.120986">
        <ele>40.1</ele>
        <time>2015-04-27T18:09:36Z</time>
      </trkpt>
      <trkpt lat="37.39043" lon="-122.120897">
        <ele>40.1</ele>
        <time>2015-04-27T18:09:38Z</time>
      </trkpt>
      <trkpt lat="37.390373" lon="-122.120843">
        <ele>40.2</ele>
        <time>2015-04-27T18:09:41Z</time>
      </trkpt>
      <trkpt lat="37.390315" lon="-122.120788">
        <ele>40.3</ele>
        <time>2015-04-27T18:09:43Z</time>
      </trkpt>
      <trkpt lat="37.390268" lon="-122.120788">
        <ele>40.4</ele>
        <time>2015-04-27T18:09:44Z</time>
      </trkpt>
      <trkpt lat="37.390231" lon="-122.120788">
        <ele>40.4</ele>
        <time>2015-04-27T18:09:45Z</time>
      </trkpt>
      <trkpt lat="37.390185" lon="-122.120788">
        <ele>40.6</ele>
        <time>2015-04-27T18:09:46Z</time>
      </trkpt>
      <trkpt lat="37.390134" lon="-122.120788">
        <ele>40.7</ele>
        <time>2015-04-27T18:09:47Z</time>
      </trkpt>
      <trkpt lat="37.390072" lon="-122.120788">
        <ele>40.8</ele>
        <time>2015-04-27T18:09:48Z</time>
      </trkpt>
      <trkpt lat="37.390026" lon="-122.120788">
        <ele>40.8</ele>
        <time>2015-04-27T18:09:49Z</time>
      </trkpt>
      <trkpt lat="37.389993" lon="-122.120788">
        <ele>40.8</ele>
        <time>2015-04-27T18:09:50Z</time>
      </trkpt>
      <trkpt lat="37.389926" lon="-122.120788">
        <ele>40.9</ele>
        <time>2015-04-27T18:09:51Z</time>
      </trkpt>
      <trkpt lat="37.38988" lon="-122.120788">
        <ele>41</ele>
        <time>2015-04-27T18:09:52Z</time>
      </trkpt>
      <trkpt lat="37.389827" lon="-122.120788">
        <ele>41</ele>
        <time>2015-04-27T18:09:53Z</time>
      </trkpt>
      <trkpt lat="37.389773" lon="-122.120788">
        <ele>41</ele>
        <time>2015-04-27T18:09:54Z</time>
      </trkpt>
      <trkpt lat="37.389715" lon="-122.120863">
        <ele>41</ele>
        <time>2015-04-27T18:09:55Z</time>
      </trkpt>
      <trkpt lat="37.389662" lon="-122.12087">
        <ele>41</ele>
        <time>2015-04-27T18:09:56Z</time>
      </trkpt>
      <trkpt lat="37.389613" lon="-122.120788">
        <ele>41.1</ele>
        <time>2015-04-27T18:09:57Z</time>
      </trkpt>
      <trkpt lat="37.389547" lon="-122.120788">
        <ele>41.2</ele>
        <time>2015-04-27T18:09:58Z</time>
      </trkpt>
      <trkpt lat="37.389494" lon="-122.120788">
        <ele>41.3</ele>
        <time>2015-04-27T18:09:59Z</time>
      </trkpt>
      <trkpt lat="37.389439" lon="-122.120788">
        <ele>41.4</ele>
        <time>2015-04-27T18:10:00Z</time>
      </trkpt>
      <trkpt lat="37.389391" lon="-122.120788">
        <ele>41.4</ele>
        <time>2015-04-27T18:10:01Z</time>
      </trkpt>
      <trkpt lat="37.389183" lon="-122.120851">
        <ele>41.4</ele>
        <time>2015-04-27T18:10:05Z</time>
      </trkpt>
      <trkpt lat="37.389131" lon="-122.120792">
        <ele>41.7</ele>
        <time>2015-04-27T18:10:06Z</time>
      </trkpt>
      <trkpt lat="37.389077" lon="-122.120793">
        <ele>41.7</ele>
        <time>2015-04-27T18:10:07Z</time>
      </trkpt>
      <trkpt lat="37.389029" lon="-122.120793">
        <ele>41.7</ele>
        <time>2015-04-27T18:10:08Z</time>
      </trkpt>
      <trkpt lat="37.388979" lon="-122.120844">
        <ele>41.7</ele>
        <time>2015-04-27T18:10:09Z</time>
      </trkpt>
      <trkpt lat="37.38893" lon="-122.120845">
        <ele>41.8</ele>
        <time>2015-04-27T18:10:11Z</time>
      </trkpt>
      <trkpt lat="37.388837" lon="-122.120845">
        <ele>41.9</ele>
        <time>2015-04-27T18:10:12Z</time>
      </trkpt>
      <trkpt lat="37.388791" lon="-122.120845">
        <ele>41.9</ele>
        <time>2015-04-27T18:10:13Z</time>
      </trkpt>
      <trkpt lat="37.388745" lon="-122.120847">
        <ele>41.9</ele>
        <time>2015-04-27T18:10:14Z</time>
      </trkpt>
      <trkpt lat="37.388694" lon="-122.120847">
        <ele>42</ele>
        <time>2015-04-27T18:10:15Z</time>
      </trkpt>
      <trkpt lat="37.388646" lon="-122.120845">
        <ele>42.1</ele>
        <time>2015-04-27T18:10:16Z</time>
      </trkpt>
      <trkpt lat="37.388594" lon="-122.120848">
        <ele>42.1</ele>
        <time>2015-04-27T18:10:17Z</time>
      </trkpt>
      <trkpt lat="37.388542" lon="-122.120845">
        <ele>42.1</ele>
        <time>2015-04-27T18:10:18Z</time>
      </trkpt>
      <trkpt lat="37.388563" lon="-122.120799">
        <ele>42.3</ele>
        <time>2015-04-27T18:10:19Z</time>
      </trkpt>
      <trkpt lat="37.388389" lon="-122.120799">
        <ele>42.4</ele>
        <time>2015-04-27T18:10:21Z</time>
      </trkpt>
      <trkpt lat="37.388344" lon="-122.120799">
        <ele>42.4</ele>
        <time>2015-04-27T18:10:22Z</time>
      </trkpt>
      <trkpt lat="37.388289" lon="-122.120799">
        <ele>42.4</ele>
        <time>2015-04-27T18:10:23Z</time>
      </trkpt>
      <trkpt lat="37.38824" lon="-122.120799">
        <ele>42.6</ele>
        <time>2015-04-27T18:10:24Z</time>
      </trkpt>
      <trkpt lat="37.388187" lon="-122.120799">
        <ele>42.6</ele>
        <time>2015-04-27T18:10:25Z</time>
      </trkpt>
      <trkpt lat="37.388131" lon="-122.120799">
        <ele>42.7</ele>
        <time>2015-04-27T18:10:26Z</time>
      </trkpt>
      <trkpt lat="37.388077" lon="-122.120799">
        <ele>42.8</ele>
        <time>2015-04-27T18:10:27Z</time>
      </trkpt>
      <trkpt lat="37.388022" lon="-122.120799">
        <ele>42.8</ele>
        <time>2015-04-27T18:10:28Z</time>
      </trkpt>
      <trkpt lat="37.387963" lon="-122.120799">
        <ele>42.9</ele>
        <time>2015-04-27T18:10:29Z</time>
      </trkpt>
      <trkpt lat="37.387913" lon="-122.120799">
        <ele>43</ele>
        <time>2015-04-27T18:10:30Z</time>
      </trkpt>
      <trkpt lat="37.387695" lon="-122.120802">
        <ele>43.3</ele>
        <time>2015-04-27T18:10:34Z</time>
      </trkpt>
      <trkpt lat="37.387608" lon="-122.120803">
        <ele>43.4</ele>
        <time>2015-04-27T18:10:35Z</time>
      </trkpt>
      <trkpt lat="37.387555" lon="-122.120804">
        <ele>43.4</ele>
        <time>2015-04-27T18:10:36Z</time>
      </trkpt>
      <trkpt lat="37.387494" lon="-122.120804">
        <ele>43.5</ele>
        <time>2015-04-27T18:10:37Z</time>
      </trkpt>
      <trkpt lat="37.387425" lon="-122.120804">
        <ele>43.6</ele>
        <time>2015-04-27T18:10:38Z</time>
      </trkpt>
      <trkpt lat="37.387369" lon="-122.120805">
        <ele>43.7</ele>
        <time>2015-04-27T18:10:39Z</time>
      </trkpt>
      <trkpt lat="37.387306" lon="-122.120805">
        <ele>43.8</ele>
        <time>2015-04-27T18:10:40Z</time>
      </trkpt>
      <trkpt lat="37.387248" lon="-122.120806">
        <ele>43.8</ele>
        <time>2015-04-27T18:10:42Z</time>
      </trkpt>
      <trkpt lat="37.387193" lon="-122.120806">
        <ele>43.9</ele>
        <time>2015-04-27T18:10:43Z</time>
      </trkpt>
      <trkpt lat="37.387084" lon="-122.120807">
        <ele>43.9</ele>
        <time>2015-04-27T18:10:44Z</time>
      </trkpt>
      <trkpt lat="37.387024" lon="-122.120807">
        <ele>43.9</ele>
        <time>2015-04-27T18:10:46Z</time>
      </trkpt>
      <trkpt lat="37.386905" lon="-122.120808">
        <ele>44</ele>
        <time>2015-04-27T18:10:47Z</time>
      </trkpt>
      <trkpt lat="37.386873" lon="-122.120808">
        <ele>44</ele>
        <time>2015-04-27T18:10:48Z</time>
      </trkpt>
      <trkpt lat="37.386646" lon="-122.120808">
        <ele>44.3</ele>
        <time>2015-04-27T18:10:51Z</time>
      </trkpt>
      <trkpt lat="37.386585" lon="-122.120808">
        <ele>44.4</ele>
        <time>2015-04-27T18:10:52Z</time>
      </trkpt>
      <trkpt lat="37.386528" lon="-122.120808">
        <ele>44.6</ele>
        <time>2015-04-27T18:10:53Z</time>
      </trkpt>
      <trkpt lat="37.38647" lon="-122.120808">
        <ele>44.6</ele>
        <time>2015-04-27T18:10:54Z</time>
      </trkpt>
      <trkpt lat="37.386419" lon="-122.120808">
        <ele>44.7</ele>
        <time>2015-04-27T18:10:55Z</time>
      </trkpt>
      <trkpt lat="37.386354" lon="-122.120807">
        <ele>44.8</ele>
        <time>2015-04-27T18:10:57Z</time>
      </trkpt>
      <trkpt lat="37.38624" lon="-122.120807">
        <ele>45</ele>
        <time>2015-04-27T18:10:58Z</time>
      </trkpt>
      <trkpt lat="37.386183" lon="-122.120808">
        <ele>45.2</ele>
        <time>2015-04-27T18:10:59Z</time>
      </trkpt>
      <trkpt lat="37.386119" lon="-122.120809">
        <ele>45.2</ele>
        <time>2015-04-27T18:11:00Z</time>
      </trkpt>
      <trkpt lat="37.385893" lon="-122.12081">
        <ele>45.6</ele>
        <time>2015-04-27T18:11:04Z</time>
      </trkpt>
      <trkpt lat="37.385704" lon="-122.120807">
        <ele>45.9</ele>
        <time>2015-04-27T18:11:07Z</time>
      </trkpt>
      <trkpt lat="37.385649" lon="-122.120806">
        <ele>46.1</ele>
        <time>2015-04-27T18:11:08Z</time>
      </trkpt>
      <trkpt lat="37.3856" lon="-122.120805">
        <ele>46.1</ele>
        <time>2015-04-27T18:11:09Z</time>
      </trkpt>
      <trkpt lat="37.385537" lon="-122.120804">
        <ele>46.3</ele>
        <time>2015-04-27T18:11:10Z</time>
      </trkpt>
      <trkpt lat="37.385484" lon="-122.120803">
        <ele>46.4</ele>
        <time>2015-04-27T18:11:11Z</time>
      </trkpt>
      <trkpt lat="37.385425" lon="-122.120802">
        <ele>46.6</ele>
        <time>2015-04-27T18:11:12Z</time>
      </trkpt>
      <trkpt lat="37.385366" lon="-122.120801">
        <ele>46.7</ele>
        <time>2015-04-27T18:11:13Z</time>
      </trkpt>
      <trkpt lat="37.385311" lon="-122.1208">
        <ele>46.9</ele>
        <time>2015-04-27T18:11:14Z</time>
      </trkpt>
      <trkpt lat="37.385256" lon="-122.120799">
        <ele>47</ele>
        <time>2015-04-27T18:11:15Z</time>
      </trkpt>
      <trkpt lat="37.385013" lon="-122.120798">
        <ele>47.7</ele>
        <time>2015-04-27T18:11:20Z</time>
      </trkpt>
      <trkpt lat="37.38492" lon="-122.120798">
        <ele>48.1</ele>
        <time>2015-04-27T18:11:21Z</time>
      </trkpt>
      <trkpt lat="37.38467" lon="-122.120798">
        <ele>48.8</ele>
        <time>2015-04-27T18:11:25Z</time>
      </trkpt>
      <trkpt lat="37.384615" lon="-122.120798">
        <ele>48.9</ele>
        <time>2015-04-27T18:11:26Z</time>
      </trkpt>
      <trkpt lat="37.384565" lon="-122.120798">
        <ele>49</ele>
        <time>2015-04-27T18:11:27Z</time>
      </trkpt>
      <trkpt lat="37.384344" lon="-122.120797">
        <ele>49.7</ele>
        <time>2015-04-27T18:11:31Z</time>
      </trkpt>
      <trkpt lat="37.384292" lon="-122.120797">
        <ele>49.9</ele>
        <time>2015-04-27T18:11:32Z</time>
      </trkpt>
      <trkpt lat="37.384249" lon="-122.120797">
        <ele>50</ele>
        <time>2015-04-27T18:11:33Z</time>
      </trkpt>
      <trkpt lat="37.384195" lon="-122.120797">
        <ele>50.1</ele>
        <time>2015-04-27T18:11:34Z</time>
      </trkpt>
      <trkpt lat="37.384143" lon="-122.120797">
        <ele>50.3</ele>
        <time>2015-04-27T18:11:35Z</time>
      </trkpt>
      <trkpt lat="37.384085" lon="-122.120797">
        <ele>50.3</ele>
        <time>2015-04-27T18:11:37Z</time>
      </trkpt>
      <trkpt lat="37.384023" lon="-122.120797">
        <ele>50.5</ele>
        <time>2015-04-27T18:11:38Z</time>
      </trkpt>
      <trkpt lat="37.383923" lon="-122.120796">
        <ele>50.8</ele>
        <time>2015-04-27T18:11:39Z</time>
      </trkpt>
      <trkpt lat="37.383859" lon="-122.120796">
        <ele>50.9</ele>
        <time>2015-04-27T18:11:40Z</time>
      </trkpt>
      <trkpt lat="37.383802" lon="-122.120796">
        <ele>51</ele>
        <time>2015-04-27T18:11:42Z</time>
      </trkpt>
      <trkpt lat="37.383681" lon="-122.120796">
        <ele>51.3</ele>
        <time>2015-04-27T18:11:43Z</time>
      </trkpt>
      <trkpt lat="37.383622" lon="-122.120796">
        <ele>51.5</ele>
        <time>2015-04-27T18:11:44Z</time>
      </trkpt>
      <trkpt lat="37.383571" lon="-122.120796">
        <ele>51.6</ele>
        <time>2015-04-27T18:11:45Z</time>
      </trkpt>
      <trkpt lat="37.383515" lon="-122.120795">
        <ele>51.8</ele>
        <time>2015-04-27T18:11:46Z</time>
      </trkpt>
      <trkpt lat="37.383479" lon="-122.120795">
        <ele>51.9</ele>
        <time>2015-04-27T18:11:47Z</time>
      </trkpt>
      <trkpt lat="37.383423" lon="-122.120795">
        <ele>52</ele>
        <time>2015-04-27T18:11:48Z</time>
      </trkpt>
      <trkpt lat="37.383365" lon="-122.120795">
        <ele>52.1</ele>
        <time>2015-04-27T18:11:49Z</time>
      </trkpt>
      <trkpt lat="37.383311" lon="-122.120795">
        <ele>52.2</ele>
        <time>2015-04-27T18:11:50Z</time>
      </trkpt>
      <trkpt lat="37.383269" lon="-122.120853">
        <ele>52.4</ele>
        <time>2015-04-27T18:11:51Z</time>
      </trkpt>
      <trkpt lat="37.383288" lon="-122.120795">
        <ele>52.3</ele>
        <time>2015-04-27T18:11:52Z</time>
      </trkpt>
      <trkpt lat="37.383062" lon="-122.120794">
        <ele>52.9</ele>
        <time>2015-04-27T18:11:55Z</time>
      </trkpt>
      <trkpt lat="37.383006" lon="-122.120793">
        <ele>53</ele>
        <time>2015-04-27T18:11:56Z</time>
      </trkpt>
      <trkpt lat="37.382951" lon="-122.120793">
        <ele>53.2</ele>
        <time>2015-04-27T18:11:57Z</time>
      </trkpt>
      <trkpt lat="37.382897" lon="-122.120792">
        <ele>53.3</ele>
        <time>2015-04-27T18:11:58Z</time>
      </trkpt>
      <trkpt lat="37.382843" lon="-122.120792">
        <ele>53.5</ele>
        <time>2015-04-27T18:11:59Z</time>
      </trkpt>
      <trkpt lat="37.382789" lon="-122.120792">
        <ele>53.6</ele>
        <time>2015-04-27T18:12:00Z</time>
      </trkpt>
      <trkpt lat="37.382732" lon="-122.120791">
        <ele>53.7</ele>
        <time>2015-04-27T18:12:01Z</time>
      </trkpt>
      <trkpt lat="37.382677" lon="-122.120791">
        <ele>53.8</ele>
        <time>2015-04-27T18:12:02Z</time>
      </trkpt>
      <trkpt lat="37.38262" lon="-122.120791">
        <ele>53.9</ele>
        <time>2015-04-27T18:12:03Z</time>
      </trkpt>
      <trkpt lat="37.382563" lon="-122.12079">
        <ele>53.9</ele>
        <time>2015-04-27T18:12:04Z</time>
      </trkpt>
      <trkpt lat="37.38251" lon="-122.12079">
        <ele>54.1</ele>
        <time>2015-04-27T18:12:05Z</time>
      </trkpt>
      <trkpt lat="37.382266" lon="-122.120785">
        <ele>54.6</ele>
        <time>2015-04-27T18:12:10Z</time>
      </trkpt>
      <trkpt lat="37.38221" lon="-122.120784">
        <ele>54.8</ele>
        <time>2015-04-27T18:12:11Z</time>
      </trkpt>
      <trkpt lat="37.382153" lon="-122.120783">
        <ele>55</ele>
        <time>2015-04-27T18:12:12Z</time>
      </trkpt>
      <trkpt lat="37.382103" lon="-122.120782">
        <ele>55.1</ele>
        <time>2015-04-27T18:12:13Z</time>
      </trkpt>
      <trkpt lat="37.382056" lon="-122.120781">
        <ele>55.3</ele>
        <time>2015-04-27T18:12:14Z</time>
      </trkpt>
      <trkpt lat="37.382008" lon="-122.12078">
        <ele>55.4</ele>
        <time>2015-04-27T18:12:15Z</time>
      </trkpt>
      <trkpt lat="37.381965" lon="-122.120777">
        <ele>55.4</ele>
        <time>2015-04-27T18:12:16Z</time>
      </trkpt>
      <trkpt lat="37.381924" lon="-122.120772">
        <ele>55.5</ele>
        <time>2015-04-27T18:12:17Z</time>
      </trkpt>
      <trkpt lat="37.381891" lon="-122.120764">
        <ele>55.6</ele>
        <time>2015-04-27T18:12:18Z</time>
      </trkpt>
      <trkpt lat="37.381848" lon="-122.120753">
        <ele>55.7</ele>
        <time>2015-04-27T18:12:19Z</time>
      </trkpt>
      <trkpt lat="37.381805" lon="-122.120738">
        <ele>55.8</ele>
        <time>2015-04-27T18:12:20Z</time>
      </trkpt>
      <trkpt lat="37.381758" lon="-122.120721">
        <ele>55.9</ele>
        <time>2015-04-27T18:12:21Z</time>
      </trkpt>
      <trkpt lat="37.381715" lon="-122.120706">
        <ele>56</ele>
        <time>2015-04-27T18:12:22Z</time>
      </trkpt>
      <trkpt lat="37.381675" lon="-122.120686">
        <ele>56.1</ele>
        <time>2015-04-27T18:12:23Z</time>
      </trkpt>
      <trkpt lat="37.381447" lon="-122.120716">
        <ele>56.5</ele>
        <time>2015-04-27T18:12:28Z</time>
      </trkpt>
      <trkpt lat="37.381412" lon="-122.120745">
        <ele>56.6</ele>
        <time>2015-04-27T18:12:29Z</time>
      </trkpt>
      <trkpt lat="37.381386" lon="-122.12078">
        <ele>56.8</ele>
        <time>2015-04-27T18:12:30Z</time>
      </trkpt>
      <trkpt lat="37.381359" lon="-122.120823">
        <ele>57</ele>
        <time>2015-04-27T18:12:31Z</time>
      </trkpt>
      <trkpt lat="37.38141" lon="-122.120894">
        <ele>56.7</ele>
        <time>2015-04-27T18:12:32Z</time>
      </trkpt>
      <trkpt lat="37.381406" lon="-122.120939">
        <ele>56.8</ele>
        <time>2015-04-27T18:12:33Z</time>
      </trkpt>
      <trkpt lat="37.3814" lon="-122.120985">
        <ele>56.9</ele>
        <time>2015-04-27T18:12:34Z</time>
      </trkpt>
      <trkpt lat="37.381396" lon="-122.121026">
        <ele>57</ele>
        <time>2015-04-27T18:12:35Z</time>
      </trkpt>
      <trkpt lat="37.381337" lon="-122.121055">
        <ele>57.2</ele>
        <time>2015-04-27T18:12:36Z</time>
      </trkpt>
      <trkpt lat="37.38139" lon="-122.121091">
        <ele>57.1</ele>
        <time>2015-04-27T18:12:37Z</time>
      </trkpt>
      <trkpt lat="37.381391" lon="-122.12114">
        <ele>57.2</ele>
        <time>2015-04-27T18:12:39Z</time>
      </trkpt>
      <trkpt lat="37.381394" lon="-122.121192">
        <ele>57.3</ele>
        <time>2015-04-27T18:12:42Z</time>
      </trkpt>
      <trkpt lat="37.381396" lon="-122.121233">
        <ele>57.3</ele>
        <time>2015-04-27T18:12:43Z</time>
      </trkpt>
      <trkpt lat="37.381398" lon="-122.121268">
        <ele>57.4</ele>
        <time>2015-04-27T18:12:44Z</time>
      </trkpt>
      <trkpt lat="37.381409" lon="-122.121316">
        <ele>57.4</ele>
        <time>2015-04-27T18:12:45Z</time>
      </trkpt>
      <trkpt lat="37.381409" lon="-122.121366">
        <ele>57.4</ele>
        <time>2015-04-27T18:12:46Z</time>
      </trkpt>
      <trkpt lat="37.381407" lon="-122.121422">
        <ele>57.2</ele>
        <time>2015-04-27T18:12:47Z</time>
      </trkpt>
      <trkpt lat="37.381404" lon="-122.121481">
        <ele>57.2</ele>
        <time>2015-04-27T18:12:48Z</time>
      </trkpt>
      <trkpt lat="37.381398" lon="-122.121553">
        <ele>57</ele>
        <time>2015-04-27T18:12:49Z</time>
      </trkpt>
      <trkpt lat="37.381318" lon="-122.121622">
        <ele>57.3</ele>
        <time>2015-04-27T18:12:51Z</time>
      </trkpt>
      <trkpt lat="37.381318" lon="-122.121692">
        <ele>57.3</ele>
        <time>2015-04-27T18:12:52Z</time>
      </trkpt>
      <trkpt lat="37.381322" lon="-122.12186">
        <ele>57.4</ele>
        <time>2015-04-27T18:12:54Z</time>
      </trkpt>
      <trkpt lat="37.381323" lon="-122.122132">
        <ele>57.2</ele>
        <time>2015-04-27T18:12:57Z</time>
      </trkpt>
      <trkpt lat="37.381323" lon="-122.122205">
        <ele>57.1</ele>
        <time>2015-04-27T18:12:58Z</time>
      </trkpt>
      <trkpt lat="37.381323" lon="-122.122278">
        <ele>57</ele>
        <time>2015-04-27T18:12:59Z</time>
      </trkpt>
      <trkpt lat="37.381323" lon="-122.122353">
        <ele>56.9</ele>
        <time>2015-04-27T18:13:00Z</time>
      </trkpt>
      <trkpt lat="37.381323" lon="-122.122413">
        <ele>56.8</ele>
        <time>2015-04-27T18:13:01Z</time>
      </trkpt>
      <trkpt lat="37.381323" lon="-122.122494">
        <ele>56.6</ele>
        <time>2015-04-27T18:13:02Z</time>
      </trkpt>
      <trkpt lat="37.381323" lon="-122.122567">
        <ele>56.5</ele>
        <time>2015-04-27T18:13:03Z</time>
      </trkpt>
      <trkpt lat="37.381324" lon="-122.122636">
        <ele>56.4</ele>
        <time>2015-04-27T18:13:04Z</time>
      </trkpt>
      <trkpt lat="37.381324" lon="-122.122708">
        <ele>56.1</ele>
        <time>2015-04-27T18:13:05Z</time>
      </trkpt>
      <trkpt lat="37.381324" lon="-122.122787">
        <ele>55.9</ele>
        <time>2015-04-27T18:13:06Z</time>
      </trkpt>
      <trkpt lat="37.381324" lon="-122.122874">
        <ele>55.6</ele>
        <time>2015-04-27T18:13:07Z</time>
      </trkpt>
      <trkpt lat="37.381324" lon="-122.12295">
        <ele>55.5</ele>
        <time>2015-04-27T18:13:08Z</time>
      </trkpt>
      <trkpt lat="37.381324" lon="-122.122984">
        <ele>55.3</ele>
        <time>2015-04-27T18:13:09Z</time>
      </trkpt>
      <trkpt lat="37.381325" lon="-122.123085">
        <ele>55</ele>
        <time>2015-04-27T18:13:10Z</time>
      </trkpt>
      <trkpt lat="37.381313" lon="-122.123173">
        <ele>54.8</ele>
        <time>2015-04-27T18:13:11Z</time>
      </trkpt>
      <trkpt lat="37.3813" lon="-122.123263">
        <ele>54.6</ele>
        <time>2015-04-27T18:13:12Z</time>
      </trkpt>
      <trkpt lat="37.381288" lon="-122.123302">
        <ele>54.5</ele>
        <time>2015-04-27T18:13:13Z</time>
      </trkpt>
      <trkpt lat="37.381246" lon="-122.123403">
        <ele>54.4</ele>
        <time>2015-04-27T18:13:14Z</time>
      </trkpt>
      <trkpt lat="37.381208" lon="-122.123475">
        <ele>54.3</ele>
        <time>2015-04-27T18:13:15Z</time>
      </trkpt>
      <trkpt lat="37.38117" lon="-122.123537">
        <ele>54.2</ele>
        <time>2015-04-27T18:13:16Z</time>
      </trkpt>
      <trkpt lat="37.381125" lon="-122.123607">
        <ele>53.9</ele>
        <time>2015-04-27T18:13:17Z</time>
      </trkpt>
      <trkpt lat="37.381085" lon="-122.12367">
        <ele>53.7</ele>
        <time>2015-04-27T18:13:18Z</time>
      </trkpt>
      <trkpt lat="37.381037" lon="-122.123743">
        <ele>53.5</ele>
        <time>2015-04-27T18:13:19Z</time>
      </trkpt>
      <trkpt lat="37.380985" lon="-122.123819">
        <ele>53.3</ele>
        <time>2015-04-27T18:13:20Z</time>
      </trkpt>
      <trkpt lat="37.380938" lon="-122.123886">
        <ele>53.3</ele>
        <time>2015-04-27T18:13:21Z</time>
      </trkpt>
      <trkpt lat="37.380889" lon="-122.123954">
        <ele>53.5</ele>
        <time>2015-04-27T18:13:22Z</time>
      </trkpt>
      <trkpt lat="37.380847" lon="-122.124011">
        <ele>53.5</ele>
        <time>2015-04-27T18:13:23Z</time>
      </trkpt>
      <trkpt lat="37.380783" lon="-122.124101">
        <ele>53.4</ele>
        <time>2015-04-27T18:13:24Z</time>
      </trkpt>
      <trkpt lat="37.380743" lon="-122.124156">
        <ele>53.5</ele>
        <time>2015-04-27T18:13:25Z</time>
      </trkpt>
      <trkpt lat="37.380705" lon="-122.124209">
        <ele>53.6</ele>
        <time>2015-04-27T18:13:26Z</time>
      </trkpt>
      <trkpt lat="37.380647" lon="-122.12429">
        <ele>53.7</ele>
        <time>2015-04-27T18:13:27Z</time>
      </trkpt>
      <trkpt lat="37.38061" lon="-122.124342">
        <ele>53.8</ele>
        <time>2015-04-27T18:13:28Z</time>
      </trkpt>
      <trkpt lat="37.380578" lon="-122.124386">
        <ele>54</ele>
        <time>2015-04-27T18:13:29Z</time>
      </trkpt>
      <trkpt lat="37.380545" lon="-122.124432">
        <ele>54.1</ele>
        <time>2015-04-27T18:13:30Z</time>
      </trkpt>
      <trkpt lat="37.380508" lon="-122.124483">
        <ele>54.2</ele>
        <time>2015-04-27T18:13:31Z</time>
      </trkpt>
      <trkpt lat="37.380477" lon="-122.124527">
        <ele>54.3</ele>
        <time>2015-04-27T18:13:32Z</time>
      </trkpt>
      <trkpt lat="37.380444" lon="-122.124573">
        <ele>54.5</ele>
        <time>2015-04-27T18:13:34Z</time>
      </trkpt>
      <trkpt lat="37.380488" lon="-122.124681">
        <ele>54.3</ele>
        <time>2015-04-27T18:13:35Z</time>
      </trkpt>
      <trkpt lat="37.380519" lon="-122.124746">
        <ele>54.2</ele>
        <time>2015-04-27T18:13:36Z</time>
      </trkpt>
      <trkpt lat="37.380548" lon="-122.124806">
        <ele>54.2</ele>
        <time>2015-04-27T18:13:37Z</time>
      </trkpt>
      <trkpt lat="37.380574" lon="-122.124861">
        <ele>54.2</ele>
        <time>2015-04-27T18:13:38Z</time>
      </trkpt>
      <trkpt lat="37.380602" lon="-122.124922">
        <ele>54.1</ele>
        <time>2015-04-27T18:13:39Z</time>
      </trkpt>
      <trkpt lat="37.380628" lon="-122.12498">
        <ele>54.1</ele>
        <time>2015-04-27T18:13:40Z</time>
      </trkpt>
      <trkpt lat="37.380654" lon="-122.125035">
        <ele>54</ele>
        <time>2015-04-27T18:13:41Z</time>
      </trkpt>
      <trkpt lat="37.38068" lon="-122.125092">
        <ele>54</ele>
        <time>2015-04-27T18:13:42Z</time>
      </trkpt>
      <trkpt lat="37.380708" lon="-122.125151">
        <ele>54</ele>
        <time>2015-04-27T18:13:43Z</time>
      </trkpt>
      <trkpt lat="37.380735" lon="-122.125212">
        <ele>54.1</ele>
        <time>2015-04-27T18:13:44Z</time>
      </trkpt>
      <trkpt lat="37.38076" lon="-122.12527">
        <ele>54.2</ele>
        <time>2015-04-27T18:13:45Z</time>
      </trkpt>
      <trkpt lat="37.380784" lon="-122.125328">
        <ele>54.4</ele>
        <time>2015-04-27T18:13:46Z</time>
      </trkpt>
      <trkpt lat="37.380811" lon="-122.125394">
        <ele>54.5</ele>
        <time>2015-04-27T18:13:47Z</time>
      </trkpt>
      <trkpt lat="37.380834" lon="-122.125451">
        <ele>54.8</ele>
        <time>2015-04-27T18:13:48Z</time>
      </trkpt>
      <trkpt lat="37.380856" lon="-122.125508">
        <ele>55</ele>
        <time>2015-04-27T18:13:49Z</time>
      </trkpt>
      <trkpt lat="37.380878" lon="-122.125562">
        <ele>55.3</ele>
        <time>2015-04-27T18:13:50Z</time>
      </trkpt>
      <trkpt lat="37.380896" lon="-122.125609">
        <ele>55.4</ele>
        <time>2015-04-27T18:13:51Z</time>
      </trkpt>
      <trkpt lat="37.380924" lon="-122.125677">
        <ele>55.7</ele>
        <time>2015-04-27T18:13:52Z</time>
      </trkpt>
      <trkpt lat="37.380943" lon="-122.125731">
        <ele>56</ele>
        <time>2015-04-27T18:13:54Z</time>
      </trkpt>
      <trkpt lat="37.380966" lon="-122.125798">
        <ele>56.3</ele>
        <time>2015-04-27T18:13:55Z</time>
      </trkpt>
      <trkpt lat="37.380983" lon="-122.125845">
        <ele>56.5</ele>
        <time>2015-04-27T18:13:56Z</time>
      </trkpt>
      <trkpt lat="37.380996" lon="-122.125883">
        <ele>56.6</ele>
        <time>2015-04-27T18:13:57Z</time>
      </trkpt>
      <trkpt lat="37.381014" lon="-122.125933">
        <ele>56.7</ele>
        <time>2015-04-27T18:13:58Z</time>
      </trkpt>
      <trkpt lat="37.381031" lon="-122.125985">
        <ele>57</ele>
        <time>2015-04-27T18:13:59Z</time>
      </trkpt>
      <trkpt lat="37.381048" lon="-122.12604">
        <ele>57.3</ele>
        <time>2015-04-27T18:14:00Z</time>
      </trkpt>
      <trkpt lat="37.381061" lon="-122.126084">
        <ele>57.5</ele>
        <time>2015-04-27T18:14:01Z</time>
      </trkpt>
      <trkpt lat="37.381077" lon="-122.126131">
        <ele>57.7</ele>
        <time>2015-04-27T18:14:02Z</time>
      </trkpt>
      <trkpt lat="37.381095" lon="-122.126177">
        <ele>58</ele>
        <time>2015-04-27T18:14:03Z</time>
      </trkpt>
      <trkpt lat="37.381138" lon="-122.126256">
        <ele>58.5</ele>
        <time>2015-04-27T18:14:05Z</time>
      </trkpt>
      <trkpt lat="37.381191" lon="-122.12631">
        <ele>59</ele>
        <time>2015-04-27T18:14:06Z</time>
      </trkpt>
      <trkpt lat="37.381272" lon="-122.126347">
        <ele>59.9</ele>
        <time>2015-04-27T18:14:08Z</time>
      </trkpt>
      <trkpt lat="37.381329" lon="-122.126364">
        <ele>60.4</ele>
        <time>2015-04-27T18:14:09Z</time>
      </trkpt>
      <trkpt lat="37.381406" lon="-122.126361">
        <ele>60.9</ele>
        <time>2015-04-27T18:14:11Z</time>
      </trkpt>
      <trkpt lat="37.381447" lon="-122.126359">
        <ele>61.2</ele>
        <time>2015-04-27T18:14:13Z</time>
      </trkpt>
      <trkpt lat="37.381529" lon="-122.126353">
        <ele>61.8</ele>
        <time>2015-04-27T18:14:14Z</time>
      </trkpt>
      <trkpt lat="37.381569" lon="-122.126351">
        <ele>62</ele>
        <time>2015-04-27T18:14:15Z</time>
      </trkpt>
      <trkpt lat="37.3816" lon="-122.126352">
        <ele>62.3</ele>
        <time>2015-04-27T18:14:16Z</time>
      </trkpt>
      <trkpt lat="37.381656" lon="-122.126366">
        <ele>62.8</ele>
        <time>2015-04-27T18:14:18Z</time>
      </trkpt>
      <trkpt lat="37.381701" lon="-122.126392">
        <ele>63.1</ele>
        <time>2015-04-27T18:14:21Z</time>
      </trkpt>
      <trkpt lat="37.381734" lon="-122.126416">
        <ele>63.4</ele>
        <time>2015-04-27T18:14:22Z</time>
      </trkpt>
      <trkpt lat="37.381761" lon="-122.126443">
        <ele>63.7</ele>
        <time>2015-04-27T18:14:23Z</time>
      </trkpt>
      <trkpt lat="37.381793" lon="-122.126485">
        <ele>64.1</ele>
        <time>2015-04-27T18:14:24Z</time>
      </trkpt>
      <trkpt lat="37.381812" lon="-122.126518">
        <ele>64.4</ele>
        <time>2015-04-27T18:14:26Z</time>
      </trkpt>
      <trkpt lat="37.381828" lon="-122.126559">
        <ele>64.7</ele>
        <time>2015-04-27T18:14:27Z</time>
      </trkpt>
      <trkpt lat="37.38184" lon="-122.126606">
        <ele>64.9</ele>
        <time>2015-04-27T18:14:29Z</time>
      </trkpt>
      <trkpt lat="37.381846" lon="-122.126647">
        <ele>65.1</ele>
        <time>2015-04-27T18:14:30Z</time>
      </trkpt>
      <trkpt lat="37.381855" lon="-122.126726">
        <ele>65.5</ele>
        <time>2015-04-27T18:14:32Z</time>
      </trkpt>
      <trkpt lat="37.381859" lon="-122.126773">
        <ele>65.7</ele>
        <time>2015-04-27T18:14:33Z</time>
      </trkpt>
      <trkpt lat="37.381862" lon="-122.126816">
        <ele>66</ele>
        <time>2015-04-27T18:14:34Z</time>
      </trkpt>
      <trkpt lat="37.381866" lon="-122.126885">
        <ele>66.5</ele>
        <time>2015-04-27T18:14:36Z</time>
      </trkpt>
      <trkpt lat="37.381984" lon="-122.126955">
        <ele>64.9</ele>
        <time>2015-04-27T18:14:38Z</time>
      </trkpt>
      <trkpt lat="37.381977" lon="-122.126994">
        <ele>64.9</ele>
        <time>2015-04-27T18:14:39Z</time>
      </trkpt>
      <trkpt lat="37.381874" lon="-122.12708">
        <ele>67.6</ele>
        <time>2015-04-27T18:14:41Z</time>
      </trkpt>
      <trkpt lat="37.381875" lon="-122.127119">
        <ele>67.9</ele>
        <time>2015-04-27T18:14:42Z</time>
      </trkpt>
      <trkpt lat="37.381877" lon="-122.127155">
        <ele>68.2</ele>
        <time>2015-04-27T18:14:44Z</time>
      </trkpt>
      <trkpt lat="37.381878" lon="-122.12719">
        <ele>68.4</ele>
        <time>2015-04-27T18:14:45Z</time>
      </trkpt>
      <trkpt lat="37.381881" lon="-122.127253">
        <ele>68.8</ele>
        <time>2015-04-27T18:14:46Z</time>
      </trkpt>
      <trkpt lat="37.381883" lon="-122.127295">
        <ele>69.1</ele>
        <time>2015-04-27T18:14:47Z</time>
      </trkpt>
      <trkpt lat="37.381884" lon="-122.127335">
        <ele>69.3</ele>
        <time>2015-04-27T18:14:49Z</time>
      </trkpt>
      <trkpt lat="37.381886" lon="-122.127373">
        <ele>69.5</ele>
        <time>2015-04-27T18:14:50Z</time>
      </trkpt>
      <trkpt lat="37.38189" lon="-122.127456">
        <ele>70.1</ele>
        <time>2015-04-27T18:14:51Z</time>
      </trkpt>
      <trkpt lat="37.381892" lon="-122.127504">
        <ele>70.4</ele>
        <time>2015-04-27T18:14:52Z</time>
      </trkpt>
      <trkpt lat="37.381894" lon="-122.12755">
        <ele>70.7</ele>
        <time>2015-04-27T18:14:53Z</time>
      </trkpt>
      <trkpt lat="37.381897" lon="-122.12764">
        <ele>71.2</ele>
        <time>2015-04-27T18:14:55Z</time>
      </trkpt>
      <trkpt lat="37.381899" lon="-122.127686">
        <ele>71.5</ele>
        <time>2015-04-27T18:14:56Z</time>
      </trkpt>
      <trkpt lat="37.381901" lon="-122.127729">
        <ele>71.8</ele>
        <time>2015-04-27T18:14:57Z</time>
      </trkpt>
      <trkpt lat="37.381905" lon="-122.12781">
        <ele>72.3</ele>
        <time>2015-04-27T18:14:59Z</time>
      </trkpt>
      <trkpt lat="37.381907" lon="-122.12785">
        <ele>72.6</ele>
        <time>2015-04-27T18:15:00Z</time>
      </trkpt>
      <trkpt lat="37.38191" lon="-122.12789">
        <ele>72.8</ele>
        <time>2015-04-27T18:15:01Z</time>
      </trkpt>
      <trkpt lat="37.381912" lon="-122.127929">
        <ele>73</ele>
        <time>2015-04-27T18:15:02Z</time>
      </trkpt>
      <trkpt lat="37.381916" lon="-122.128013">
        <ele>73.4</ele>
        <time>2015-04-27T18:15:04Z</time>
      </trkpt>
      <trkpt lat="37.381919" lon="-122.12806">
        <ele>73.6</ele>
        <time>2015-04-27T18:15:05Z</time>
      </trkpt>
      <trkpt lat="37.381923" lon="-122.128106">
        <ele>73.7</ele>
        <time>2015-04-27T18:15:06Z</time>
      </trkpt>
      <trkpt lat="37.381927" lon="-122.128149">
        <ele>73.9</ele>
        <time>2015-04-27T18:15:07Z</time>
      </trkpt>
      <trkpt lat="37.381933" lon="-122.128195">
        <ele>73.9</ele>
        <time>2015-04-27T18:15:08Z</time>
      </trkpt>
      <trkpt lat="37.38194" lon="-122.128237">
        <ele>74</ele>
        <time>2015-04-27T18:15:09Z</time>
      </trkpt>
      <trkpt lat="37.381955" lon="-122.128327">
        <ele>74</ele>
        <time>2015-04-27T18:15:10Z</time>
      </trkpt>
      <trkpt lat="37.381964" lon="-122.128363">
        <ele>73.9</ele>
        <time>2015-04-27T18:15:12Z</time>
      </trkpt>
      <trkpt lat="37.381974" lon="-122.128402">
        <ele>73.8</ele>
        <time>2015-04-27T18:15:13Z</time>
      </trkpt>
      <trkpt lat="37.381985" lon="-122.128442">
        <ele>73.8</ele>
        <time>2015-04-27T18:15:14Z</time>
      </trkpt>
      <trkpt lat="37.381997" lon="-122.128483">
        <ele>73.7</ele>
        <time>2015-04-27T18:15:15Z</time>
      </trkpt>
      <trkpt lat="37.382008" lon="-122.128523">
        <ele>73.6</ele>
        <time>2015-04-27T18:15:16Z</time>
      </trkpt>
      <trkpt lat="37.382023" lon="-122.128566">
        <ele>73.5</ele>
        <time>2015-04-27T18:15:17Z</time>
      </trkpt>
      <trkpt lat="37.382038" lon="-122.128609">
        <ele>73.3</ele>
        <time>2015-04-27T18:15:18Z</time>
      </trkpt>
      <trkpt lat="37.382053" lon="-122.128652">
        <ele>73.2</ele>
        <time>2015-04-27T18:15:19Z</time>
      </trkpt>
      <trkpt lat="37.382066" lon="-122.128689">
        <ele>73</ele>
        <time>2015-04-27T18:15:20Z</time>
      </trkpt>
      <trkpt lat="37.382078" lon="-122.12872">
        <ele>72.9</ele>
        <time>2015-04-27T18:15:21Z</time>
      </trkpt>
      <trkpt lat="37.382198" lon="-122.129063">
        <ele>70.7</ele>
        <time>2015-04-27T18:15:27Z</time>
      </trkpt>
      <trkpt lat="37.382221" lon="-122.129135">
        <ele>70.2</ele>
        <time>2015-04-27T18:15:28Z</time>
      </trkpt>
      <trkpt lat="37.382242" lon="-122.12921">
        <ele>69.8</ele>
        <time>2015-04-27T18:15:30Z</time>
      </trkpt>
      <trkpt lat="37.382261" lon="-122.129284">
        <ele>69.4</ele>
        <time>2015-04-27T18:15:31Z</time>
      </trkpt>
      <trkpt lat="37.382299" lon="-122.129474">
        <ele>68.4</ele>
        <time>2015-04-27T18:15:32Z</time>
      </trkpt>
      <trkpt lat="37.382312" lon="-122.129596">
        <ele>67.9</ele>
        <time>2015-04-27T18:15:33Z</time>
      </trkpt>
      <trkpt lat="37.382317" lon="-122.129695">
        <ele>67.5</ele>
        <time>2015-04-27T18:15:35Z</time>
      </trkpt>
      <trkpt lat="37.382327" lon="-122.129925">
        <ele>66.8</ele>
        <time>2015-04-27T18:15:36Z</time>
      </trkpt>
      <trkpt lat="37.382332" lon="-122.13003">
        <ele>66.7</ele>
        <time>2015-04-27T18:15:37Z</time>
      </trkpt>
      <trkpt lat="37.382337" lon="-122.130144">
        <ele>66.4</ele>
        <time>2015-04-27T18:15:39Z</time>
      </trkpt>
      <trkpt lat="37.382341" lon="-122.130246">
        <ele>66.3</ele>
        <time>2015-04-27T18:15:40Z</time>
      </trkpt>
      <trkpt lat="37.38235" lon="-122.130446">
        <ele>65.9</ele>
        <time>2015-04-27T18:15:41Z</time>
      </trkpt>
      <trkpt lat="37.382354" lon="-122.130555">
        <ele>65.6</ele>
        <time>2015-04-27T18:15:42Z</time>
      </trkpt>
      <trkpt lat="37.382359" lon="-122.130656">
        <ele>65.4</ele>
        <time>2015-04-27T18:15:44Z</time>
      </trkpt>
      <trkpt lat="37.382367" lon="-122.130848">
        <ele>65.1</ele>
        <time>2015-04-27T18:15:45Z</time>
      </trkpt>
      <trkpt lat="37.382371" lon="-122.130951">
        <ele>65</ele>
        <time>2015-04-27T18:15:46Z</time>
      </trkpt>
      <trkpt lat="37.382376" lon="-122.131054">
        <ele>64.8</ele>
        <time>2015-04-27T18:15:47Z</time>
      </trkpt>
      <trkpt lat="37.382379" lon="-122.13114">
        <ele>64.7</ele>
        <time>2015-04-27T18:15:48Z</time>
      </trkpt>
      <trkpt lat="37.382383" lon="-122.131251">
        <ele>64.6</ele>
        <time>2015-04-27T18:15:49Z</time>
      </trkpt>
      <trkpt lat="37.382387" lon="-122.131352">
        <ele>64.6</ele>
        <time>2015-04-27T18:15:50Z</time>
      </trkpt>
      <trkpt lat="37.382391" lon="-122.131451">
        <ele>64.5</ele>
        <time>2015-04-27T18:15:51Z</time>
      </trkpt>
      <trkpt lat="37.382394" lon="-122.13155">
        <ele>64.5</ele>
        <time>2015-04-27T18:15:52Z</time>
      </trkpt>
      <trkpt lat="37.382398" lon="-122.131648">
        <ele>64.5</ele>
        <time>2015-04-27T18:15:53Z</time>
      </trkpt>
      <trkpt lat="37.382402" lon="-122.131752">
        <ele>64.7</ele>
        <time>2015-04-27T18:15:54Z</time>
      </trkpt>
      <trkpt lat="37.382406" lon="-122.131863">
        <ele>64.9</ele>
        <time>2015-04-27T18:15:55Z</time>
      </trkpt>
      <trkpt lat="37.38241" lon="-122.131957">
        <ele>65.2</ele>
        <time>2015-04-27T18:15:56Z</time>
      </trkpt>
      <trkpt lat="37.382413" lon="-122.132061">
        <ele>65.6</ele>
        <time>2015-04-27T18:15:57Z</time>
      </trkpt>
      <trkpt lat="37.382417" lon="-122.132147">
        <ele>65.8</ele>
        <time>2015-04-27T18:15:58Z</time>
      </trkpt>
      <trkpt lat="37.38242" lon="-122.132225">
        <ele>66</ele>
        <time>2015-04-27T18:15:59Z</time>
      </trkpt>
      <trkpt lat="37.382423" lon="-122.132315">
        <ele>66.3</ele>
        <time>2015-04-27T18:16:00Z</time>
      </trkpt>
      <trkpt lat="37.382426" lon="-122.132391">
        <ele>66.4</ele>
        <time>2015-04-27T18:16:01Z</time>
      </trkpt>
      <trkpt lat="37.382428" lon="-122.132458">
        <ele>66.6</ele>
        <time>2015-04-27T18:16:02Z</time>
      </trkpt>
      <trkpt lat="37.382431" lon="-122.132538">
        <ele>66.8</ele>
        <time>2015-04-27T18:16:03Z</time>
      </trkpt>
      <trkpt lat="37.382434" lon="-122.132614">
        <ele>67</ele>
        <time>2015-04-27T18:16:04Z</time>
      </trkpt>
      <trkpt lat="37.382437" lon="-122.132686">
        <ele>67.1</ele>
        <time>2015-04-27T18:16:05Z</time>
      </trkpt>
      <trkpt lat="37.38244" lon="-122.132763">
        <ele>67.3</ele>
        <time>2015-04-27T18:16:06Z</time>
      </trkpt>
      <trkpt lat="37.382443" lon="-122.132835">
        <ele>67.4</ele>
        <time>2015-04-27T18:16:07Z</time>
      </trkpt>
      <trkpt lat="37.382445" lon="-122.132897">
        <ele>67.5</ele>
        <time>2015-04-27T18:16:08Z</time>
      </trkpt>
      <trkpt lat="37.382448" lon="-122.132969">
        <ele>67.6</ele>
        <time>2015-04-27T18:16:09Z</time>
      </trkpt>
      <trkpt lat="37.38245" lon="-122.133036">
        <ele>67.7</ele>
        <time>2015-04-27T18:16:10Z</time>
      </trkpt>
      <trkpt lat="37.382453" lon="-122.133102">
        <ele>67.8</ele>
        <time>2015-04-27T18:16:11Z</time>
      </trkpt>
      <trkpt lat="37.382455" lon="-122.133171">
        <ele>67.8</ele>
        <time>2015-04-27T18:16:12Z</time>
      </trkpt>
      <trkpt lat="37.382457" lon="-122.133222">
        <ele>68</ele>
        <time>2015-04-27T18:16:13Z</time>
      </trkpt>
      <trkpt lat="37.382469" lon="-122.133519">
        <ele>68.1</ele>
        <time>2015-04-27T18:16:17Z</time>
      </trkpt>
      <trkpt lat="37.382472" lon="-122.133592">
        <ele>68.1</ele>
        <time>2015-04-27T18:16:18Z</time>
      </trkpt>
      <trkpt lat="37.382475" lon="-122.133661">
        <ele>68.2</ele>
        <time>2015-04-27T18:16:19Z</time>
      </trkpt>
      <trkpt lat="37.382478" lon="-122.133724">
        <ele>68.3</ele>
        <time>2015-04-27T18:16:20Z</time>
      </trkpt>
      <trkpt lat="37.38248" lon="-122.133793">
        <ele>68.3</ele>
        <time>2015-04-27T18:16:21Z</time>
      </trkpt>
      <trkpt lat="37.382483" lon="-122.133861">
        <ele>68.4</ele>
        <time>2015-04-27T18:16:22Z</time>
      </trkpt>
      <trkpt lat="37.382486" lon="-122.133924">
        <ele>68.5</ele>
        <time>2015-04-27T18:16:23Z</time>
      </trkpt>
      <trkpt lat="37.382489" lon="-122.133991">
        <ele>68.5</ele>
        <time>2015-04-27T18:16:24Z</time>
      </trkpt>
      <trkpt lat="37.382491" lon="-122.134054">
        <ele>68.6</ele>
        <time>2015-04-27T18:16:25Z</time>
      </trkpt>
      <trkpt lat="37.382495" lon="-122.134148">
        <ele>68.6</ele>
        <time>2015-04-27T18:16:26Z</time>
      </trkpt>
      <trkpt lat="37.382497" lon="-122.134207">
        <ele>68.6</ele>
        <time>2015-04-27T18:16:27Z</time>
      </trkpt>
      <trkpt lat="37.3825" lon="-122.134272">
        <ele>68.6</ele>
        <time>2015-04-27T18:16:28Z</time>
      </trkpt>
      <trkpt lat="37.382503" lon="-122.13434">
        <ele>68.5</ele>
        <time>2015-04-27T18:16:29Z</time>
      </trkpt>
      <trkpt lat="37.38254" lon="-122.134607">
        <ele>67.7</ele>
        <time>2015-04-27T18:16:33Z</time>
      </trkpt>
      <trkpt lat="37.382546" lon="-122.134677">
        <ele>67.5</ele>
        <time>2015-04-27T18:16:34Z</time>
      </trkpt>
      <trkpt lat="37.382554" lon="-122.134762">
        <ele>67.3</ele>
        <time>2015-04-27T18:16:35Z</time>
      </trkpt>
      <trkpt lat="37.382562" lon="-122.134846">
        <ele>67.2</ele>
        <time>2015-04-27T18:16:36Z</time>
      </trkpt>
      <trkpt lat="37.382557" lon="-122.134954">
        <ele>66.7</ele>
        <time>2015-04-27T18:16:37Z</time>
      </trkpt>
      <trkpt lat="37.382565" lon="-122.135043">
        <ele>66.4</ele>
        <time>2015-04-27T18:16:38Z</time>
      </trkpt>
      <trkpt lat="37.382561" lon="-122.135147">
        <ele>66.1</ele>
        <time>2015-04-27T18:16:39Z</time>
      </trkpt>
      <trkpt lat="37.382545" lon="-122.135234">
        <ele>65.8</ele>
        <time>2015-04-27T18:16:40Z</time>
      </trkpt>
      <trkpt lat="37.38255" lon="-122.135319">
        <ele>65.5</ele>
        <time>2015-04-27T18:16:41Z</time>
      </trkpt>
      <trkpt lat="37.382555" lon="-122.135418">
        <ele>65</ele>
        <time>2015-04-27T18:16:42Z</time>
      </trkpt>
      <trkpt lat="37.382558" lon="-122.135509">
        <ele>64.5</ele>
        <time>2015-04-27T18:16:43Z</time>
      </trkpt>
      <trkpt lat="37.382561" lon="-122.135607">
        <ele>64</ele>
        <time>2015-04-27T18:16:44Z</time>
      </trkpt>
      <trkpt lat="37.382567" lon="-122.135705">
        <ele>63.7</ele>
        <time>2015-04-27T18:16:45Z</time>
      </trkpt>
      <trkpt lat="37.382579" lon="-122.135838">
        <ele>63.6</ele>
        <time>2015-04-27T18:16:46Z</time>
      </trkpt>
      <trkpt lat="37.382602" lon="-122.135952">
        <ele>63.5</ele>
        <time>2015-04-27T18:16:47Z</time>
      </trkpt>
      <trkpt lat="37.382614" lon="-122.136044">
        <ele>63.6</ele>
        <time>2015-04-27T18:16:48Z</time>
      </trkpt>
      <trkpt lat="37.382618" lon="-122.136144">
        <ele>63.8</ele>
        <time>2015-04-27T18:16:49Z</time>
      </trkpt>
      <trkpt lat="37.382604" lon="-122.136229">
        <ele>63.9</ele>
        <time>2015-04-27T18:16:50Z</time>
      </trkpt>
      <trkpt lat="37.382607" lon="-122.136321">
        <ele>64</ele>
        <time>2015-04-27T18:16:51Z</time>
      </trkpt>
      <trkpt lat="37.382615" lon="-122.136419">
        <ele>64.2</ele>
        <time>2015-04-27T18:16:52Z</time>
      </trkpt>
      <trkpt lat="37.382611" lon="-122.136488">
        <ele>64.4</ele>
        <time>2015-04-27T18:16:53Z</time>
      </trkpt>
      <trkpt lat="37.382613" lon="-122.13657">
        <ele>64.6</ele>
        <time>2015-04-27T18:16:54Z</time>
      </trkpt>
      <trkpt lat="37.382616" lon="-122.136643">
        <ele>64.7</ele>
        <time>2015-04-27T18:16:55Z</time>
      </trkpt>
      <trkpt lat="37.382607" lon="-122.136723">
        <ele>64.9</ele>
        <time>2015-04-27T18:16:56Z</time>
      </trkpt>
      <trkpt lat="37.38262" lon="-122.136788">
        <ele>64.8</ele>
        <time>2015-04-27T18:16:57Z</time>
      </trkpt>
      <trkpt lat="37.382623" lon="-122.136859">
        <ele>64.9</ele>
        <time>2015-04-27T18:16:58Z</time>
      </trkpt>
      <trkpt lat="37.382638" lon="-122.136943">
        <ele>64.9</ele>
        <time>2015-04-27T18:16:59Z</time>
      </trkpt>
      <trkpt lat="37.382629" lon="-122.137013">
        <ele>65</ele>
        <time>2015-04-27T18:17:00Z</time>
      </trkpt>
      <trkpt lat="37.382635" lon="-122.137084">
        <ele>65.1</ele>
        <time>2015-04-27T18:17:01Z</time>
      </trkpt>
      <trkpt lat="37.382639" lon="-122.137145">
        <ele>65.2</ele>
        <time>2015-04-27T18:17:02Z</time>
      </trkpt>
      <trkpt lat="37.382641" lon="-122.137213">
        <ele>65.2</ele>
        <time>2015-04-27T18:17:03Z</time>
      </trkpt>
      <trkpt lat="37.382652" lon="-122.137275">
        <ele>65.3</ele>
        <time>2015-04-27T18:17:04Z</time>
      </trkpt>
      <trkpt lat="37.38266" lon="-122.137331">
        <ele>65.3</ele>
        <time>2015-04-27T18:17:05Z</time>
      </trkpt>
      <trkpt lat="37.382675" lon="-122.137383">
        <ele>65.3</ele>
        <time>2015-04-27T18:17:06Z</time>
      </trkpt>
      <trkpt lat="37.382681" lon="-122.13744">
        <ele>65.4</ele>
        <time>2015-04-27T18:17:07Z</time>
      </trkpt>
      <trkpt lat="37.382686" lon="-122.137498">
        <ele>65.5</ele>
        <time>2015-04-27T18:17:08Z</time>
      </trkpt>
      <trkpt lat="37.382701" lon="-122.137556">
        <ele>65.4</ele>
        <time>2015-04-27T18:17:09Z</time>
      </trkpt>
      <trkpt lat="37.382711" lon="-122.13762">
        <ele>65.6</ele>
        <time>2015-04-27T18:17:10Z</time>
      </trkpt>
      <trkpt lat="37.38274" lon="-122.137664">
        <ele>65.5</ele>
        <time>2015-04-27T18:17:11Z</time>
      </trkpt>
      <trkpt lat="37.382763" lon="-122.137721">
        <ele>65.6</ele>
        <time>2015-04-27T18:17:12Z</time>
      </trkpt>
      <trkpt lat="37.382796" lon="-122.137771">
        <ele>65.6</ele>
        <time>2015-04-27T18:17:13Z</time>
      </trkpt>
      <trkpt lat="37.38284" lon="-122.137792">
        <ele>65.6</ele>
        <time>2015-04-27T18:17:14Z</time>
      </trkpt>
      <trkpt lat="37.382889" lon="-122.137804">
        <ele>65.4</ele>
        <time>2015-04-27T18:17:15Z</time>
      </trkpt>
      <trkpt lat="37.382953" lon="-122.137828">
        <ele>65.3</ele>
        <time>2015-04-27T18:17:16Z</time>
      </trkpt>
      <trkpt lat="37.383006" lon="-122.137858">
        <ele>65.3</ele>
        <time>2015-04-27T18:17:17Z</time>
      </trkpt>
      <trkpt lat="37.38308" lon="-122.137897">
        <ele>65</ele>
        <time>2015-04-27T18:17:18Z</time>
      </trkpt>
      <trkpt lat="37.383124" lon="-122.137939">
        <ele>65</ele>
        <time>2015-04-27T18:17:19Z</time>
      </trkpt>
      <trkpt lat="37.383185" lon="-122.137961">
        <ele>64.9</ele>
        <time>2015-04-27T18:17:20Z</time>
      </trkpt>
      <trkpt lat="37.383258" lon="-122.137979">
        <ele>64.6</ele>
        <time>2015-04-27T18:17:21Z</time>
      </trkpt>
      <trkpt lat="37.383319" lon="-122.138019">
        <ele>64.5</ele>
        <time>2015-04-27T18:17:22Z</time>
      </trkpt>
      <trkpt lat="37.383381" lon="-122.138046">
        <ele>64.3</ele>
        <time>2015-04-27T18:17:23Z</time>
      </trkpt>
      <trkpt lat="37.383448" lon="-122.138074">
        <ele>64.1</ele>
        <time>2015-04-27T18:17:24Z</time>
      </trkpt>
      <trkpt lat="37.383505" lon="-122.138094">
        <ele>64</ele>
        <time>2015-04-27T18:17:25Z</time>
      </trkpt>
      <trkpt lat="37.38358" lon="-122.138123">
        <ele>63.7</ele>
        <time>2015-04-27T18:17:26Z</time>
      </trkpt>
      <trkpt lat="37.383655" lon="-122.138154">
        <ele>63.5</ele>
        <time>2015-04-27T18:17:27Z</time>
      </trkpt>
      <trkpt lat="37.383718" lon="-122.13819">
        <ele>63.4</ele>
        <time>2015-04-27T18:17:28Z</time>
      </trkpt>
      <trkpt lat="37.383782" lon="-122.138218">
        <ele>63.2</ele>
        <time>2015-04-27T18:17:29Z</time>
      </trkpt>
      <trkpt lat="37.383854" lon="-122.138253">
        <ele>63</ele>
        <time>2015-04-27T18:17:30Z</time>
      </trkpt>
      <trkpt lat="37.383925" lon="-122.138274">
        <ele>62.9</ele>
        <time>2015-04-27T18:17:31Z</time>
      </trkpt>
      <trkpt lat="37.384007" lon="-122.1383">
        <ele>62.7</ele>
        <time>2015-04-27T18:17:32Z</time>
      </trkpt>
      <trkpt lat="37.384078" lon="-122.138317">
        <ele>62.6</ele>
        <time>2015-04-27T18:17:33Z</time>
      </trkpt>
      <trkpt lat="37.384146" lon="-122.138353">
        <ele>62.4</ele>
        <time>2015-04-27T18:17:34Z</time>
      </trkpt>
      <trkpt lat="37.384209" lon="-122.138383">
        <ele>62.3</ele>
        <time>2015-04-27T18:17:35Z</time>
      </trkpt>
      <trkpt lat="37.384287" lon="-122.138429">
        <ele>62.2</ele>
        <time>2015-04-27T18:17:36Z</time>
      </trkpt>
      <trkpt lat="37.384344" lon="-122.138477">
        <ele>62.1</ele>
        <time>2015-04-27T18:17:37Z</time>
      </trkpt>
      <trkpt lat="37.384407" lon="-122.138511">
        <ele>62</ele>
        <time>2015-04-27T18:17:38Z</time>
      </trkpt>
      <trkpt lat="37.38448" lon="-122.138539">
        <ele>61.9</ele>
        <time>2015-04-27T18:17:39Z</time>
      </trkpt>
      <trkpt lat="37.384553" lon="-122.138574">
        <ele>61.7</ele>
        <time>2015-04-27T18:17:40Z</time>
      </trkpt>
      <trkpt lat="37.384642" lon="-122.138606">
        <ele>61.5</ele>
        <time>2015-04-27T18:17:41Z</time>
      </trkpt>
      <trkpt lat="37.384707" lon="-122.138639">
        <ele>61.3</ele>
        <time>2015-04-27T18:17:42Z</time>
      </trkpt>
      <trkpt lat="37.384783" lon="-122.13868">
        <ele>61</ele>
        <time>2015-04-27T18:17:43Z</time>
      </trkpt>
      <trkpt lat="37.384854" lon="-122.138716">
        <ele>60.9</ele>
        <time>2015-04-27T18:17:44Z</time>
      </trkpt>
      <trkpt lat="37.384918" lon="-122.138745">
        <ele>60.8</ele>
        <time>2015-04-27T18:17:45Z</time>
      </trkpt>
      <trkpt lat="37.384985" lon="-122.138785">
        <ele>60.6</ele>
        <time>2015-04-27T18:17:46Z</time>
      </trkpt>
      <trkpt lat="37.38505" lon="-122.138813">
        <ele>60.5</ele>
        <time>2015-04-27T18:17:47Z</time>
      </trkpt>
      <trkpt lat="37.385124" lon="-122.138845">
        <ele>60.3</ele>
        <time>2015-04-27T18:17:48Z</time>
      </trkpt>
      <trkpt lat="37.385161" lon="-122.138911">
        <ele>60.2</ele>
        <time>2015-04-27T18:17:49Z</time>
      </trkpt>
      <trkpt lat="37.385234" lon="-122.138948">
        <ele>60</ele>
        <time>2015-04-27T18:17:50Z</time>
      </trkpt>
      <trkpt lat="37.385314" lon="-122.13899">
        <ele>59.9</ele>
        <time>2015-04-27T18:17:51Z</time>
      </trkpt>
      <trkpt lat="37.385397" lon="-122.139034">
        <ele>59.6</ele>
        <time>2015-04-27T18:17:52Z</time>
      </trkpt>
      <trkpt lat="37.385474" lon="-122.139074">
        <ele>59.4</ele>
        <time>2015-04-27T18:17:53Z</time>
      </trkpt>
      <trkpt lat="37.385554" lon="-122.139113">
        <ele>59.2</ele>
        <time>2015-04-27T18:17:54Z</time>
      </trkpt>
      <trkpt lat="37.385623" lon="-122.139143">
        <ele>59</ele>
        <time>2015-04-27T18:17:55Z</time>
      </trkpt>
      <trkpt lat="37.385702" lon="-122.139164">
        <ele>58.7</ele>
        <time>2015-04-27T18:17:56Z</time>
      </trkpt>
      <trkpt lat="37.385767" lon="-122.139196">
        <ele>58.5</ele>
        <time>2015-04-27T18:17:57Z</time>
      </trkpt>
      <trkpt lat="37.385842" lon="-122.139239">
        <ele>58.4</ele>
        <time>2015-04-27T18:17:58Z</time>
      </trkpt>
      <trkpt lat="37.38591" lon="-122.139272">
        <ele>58.3</ele>
        <time>2015-04-27T18:17:59Z</time>
      </trkpt>
      <trkpt lat="37.385978" lon="-122.13931">
        <ele>58.2</ele>
        <time>2015-04-27T18:18:00Z</time>
      </trkpt>
      <trkpt lat="37.386048" lon="-122.139347">
        <ele>58.1</ele>
        <time>2015-04-27T18:18:01Z</time>
      </trkpt>
      <trkpt lat="37.386131" lon="-122.139364">
        <ele>58</ele>
        <time>2015-04-27T18:18:02Z</time>
      </trkpt>
      <trkpt lat="37.3862" lon="-122.139389">
        <ele>58</ele>
        <time>2015-04-27T18:18:03Z</time>
      </trkpt>
      <trkpt lat="37.386271" lon="-122.13942">
        <ele>57.8</ele>
        <time>2015-04-27T18:18:04Z</time>
      </trkpt>
      <trkpt lat="37.386341" lon="-122.139461">
        <ele>57.9</ele>
        <time>2015-04-27T18:18:05Z</time>
      </trkpt>
      <trkpt lat="37.386407" lon="-122.139494">
        <ele>57.9</ele>
        <time>2015-04-27T18:18:06Z</time>
      </trkpt>
      <trkpt lat="37.386476" lon="-122.139535">
        <ele>58</ele>
        <time>2015-04-27T18:18:07Z</time>
      </trkpt>
      <trkpt lat="37.386544" lon="-122.139558">
        <ele>58.1</ele>
        <time>2015-04-27T18:18:08Z</time>
      </trkpt>
      <trkpt lat="37.386618" lon="-122.139595">
        <ele>58.3</ele>
        <time>2015-04-27T18:18:09Z</time>
      </trkpt>
      <trkpt lat="37.386686" lon="-122.139631">
        <ele>58.4</ele>
        <time>2015-04-27T18:18:10Z</time>
      </trkpt>
      <trkpt lat="37.386776" lon="-122.139656">
        <ele>58.7</ele>
        <time>2015-04-27T18:18:11Z</time>
      </trkpt>
      <trkpt lat="37.386843" lon="-122.1397">
        <ele>58.7</ele>
        <time>2015-04-27T18:18:12Z</time>
      </trkpt>
      <trkpt lat="37.3869" lon="-122.139719">
        <ele>58.8</ele>
        <time>2015-04-27T18:18:13Z</time>
      </trkpt>
      <trkpt lat="37.386975" lon="-122.139743">
        <ele>58.9</ele>
        <time>2015-04-27T18:18:14Z</time>
      </trkpt>
      <trkpt lat="37.387037" lon="-122.139776">
        <ele>59</ele>
        <time>2015-04-27T18:18:15Z</time>
      </trkpt>
      <trkpt lat="37.387088" lon="-122.139827">
        <ele>59.1</ele>
        <time>2015-04-27T18:18:16Z</time>
      </trkpt>
      <trkpt lat="37.387152" lon="-122.139856">
        <ele>59.3</ele>
        <time>2015-04-27T18:18:17Z</time>
      </trkpt>
      <trkpt lat="37.387236" lon="-122.139884">
        <ele>59.5</ele>
        <time>2015-04-27T18:18:18Z</time>
      </trkpt>
      <trkpt lat="37.387302" lon="-122.139917">
        <ele>59.6</ele>
        <time>2015-04-27T18:18:20Z</time>
      </trkpt>
      <trkpt lat="37.387404" lon="-122.13999">
        <ele>59.8</ele>
        <time>2015-04-27T18:18:21Z</time>
      </trkpt>
      <trkpt lat="37.387462" lon="-122.140019">
        <ele>59.9</ele>
        <time>2015-04-27T18:18:22Z</time>
      </trkpt>
      <trkpt lat="37.387514" lon="-122.140056">
        <ele>60.1</ele>
        <time>2015-04-27T18:18:24Z</time>
      </trkpt>
      <trkpt lat="37.387576" lon="-122.140098">
        <ele>60.3</ele>
        <time>2015-04-27T18:18:25Z</time>
      </trkpt>
      <trkpt lat="37.387682" lon="-122.140189">
        <ele>60.6</ele>
        <time>2015-04-27T18:18:26Z</time>
      </trkpt>
      <trkpt lat="37.38773" lon="-122.140246">
        <ele>60.7</ele>
        <time>2015-04-27T18:18:27Z</time>
      </trkpt>
      <trkpt lat="37.387772" lon="-122.140308">
        <ele>60.7</ele>
        <time>2015-04-27T18:18:28Z</time>
      </trkpt>
      <trkpt lat="37.387822" lon="-122.140365">
        <ele>60.6</ele>
        <time>2015-04-27T18:18:29Z</time>
      </trkpt>
      <trkpt lat="37.387872" lon="-122.140397">
        <ele>60.8</ele>
        <time>2015-04-27T18:18:30Z</time>
      </trkpt>
      <trkpt lat="37.38792" lon="-122.14046">
        <ele>60.6</ele>
        <time>2015-04-27T18:18:31Z</time>
      </trkpt>
      <trkpt lat="37.387974" lon="-122.140525">
        <ele>60.3</ele>
        <time>2015-04-27T18:18:32Z</time>
      </trkpt>
      <trkpt lat="37.388005" lon="-122.14058">
        <ele>60.2</ele>
        <time>2015-04-27T18:18:33Z</time>
      </trkpt>
      <trkpt lat="37.388046" lon="-122.140659">
        <ele>60.1</ele>
        <time>2015-04-27T18:18:34Z</time>
      </trkpt>
      <trkpt lat="37.388058" lon="-122.140744">
        <ele>60.1</ele>
        <time>2015-04-27T18:18:35Z</time>
      </trkpt>
      <trkpt lat="37.388107" lon="-122.14082">
        <ele>60</ele>
        <time>2015-04-27T18:18:36Z</time>
      </trkpt>
      <trkpt lat="37.388144" lon="-122.140894">
        <ele>60</ele>
        <time>2015-04-27T18:18:37Z</time>
      </trkpt>
      <trkpt lat="37.388189" lon="-122.140955">
        <ele>60.1</ele>
        <time>2015-04-27T18:18:38Z</time>
      </trkpt>
      <trkpt lat="37.388222" lon="-122.141036">
        <ele>60.1</ele>
        <time>2015-04-27T18:18:39Z</time>
      </trkpt>
      <trkpt lat="37.388256" lon="-122.141122">
        <ele>60</ele>
        <time>2015-04-27T18:18:40Z</time>
      </trkpt>
      <trkpt lat="37.388283" lon="-122.141184">
        <ele>60.1</ele>
        <time>2015-04-27T18:18:41Z</time>
      </trkpt>
      <trkpt lat="37.388312" lon="-122.141279">
        <ele>60</ele>
        <time>2015-04-27T18:18:42Z</time>
      </trkpt>
      <trkpt lat="37.388332" lon="-122.141373">
        <ele>59.9</ele>
        <time>2015-04-27T18:18:43Z</time>
      </trkpt>
      <trkpt lat="37.388385" lon="-122.141457">
        <ele>59.8</ele>
        <time>2015-04-27T18:18:44Z</time>
      </trkpt>
      <trkpt lat="37.388408" lon="-122.141534">
        <ele>59.8</ele>
        <time>2015-04-27T18:18:45Z</time>
      </trkpt>
      <trkpt lat="37.388438" lon="-122.141636">
        <ele>59.6</ele>
        <time>2015-04-27T18:18:46Z</time>
      </trkpt>
      <trkpt lat="37.388471" lon="-122.141707">
        <ele>59.4</ele>
        <time>2015-04-27T18:18:48Z</time>
      </trkpt>
      <trkpt lat="37.388552" lon="-122.141855">
        <ele>59.1</ele>
        <time>2015-04-27T18:18:49Z</time>
      </trkpt>
      <trkpt lat="37.388586" lon="-122.141925">
        <ele>59</ele>
        <time>2015-04-27T18:18:50Z</time>
      </trkpt>
      <trkpt lat="37.388626" lon="-122.141997">
        <ele>58.8</ele>
        <time>2015-04-27T18:18:51Z</time>
      </trkpt>
      <trkpt lat="37.388663" lon="-122.142075">
        <ele>58.6</ele>
        <time>2015-04-27T18:18:52Z</time>
      </trkpt>
      <trkpt lat="37.388702" lon="-122.14216">
        <ele>58.4</ele>
        <time>2015-04-27T18:18:53Z</time>
      </trkpt>
      <trkpt lat="37.388745" lon="-122.142238">
        <ele>58.1</ele>
        <time>2015-04-27T18:18:54Z</time>
      </trkpt>
      <trkpt lat="37.38877" lon="-122.142329">
        <ele>57.9</ele>
        <time>2015-04-27T18:18:55Z</time>
      </trkpt>
      <trkpt lat="37.388812" lon="-122.142409">
        <ele>57.7</ele>
        <time>2015-04-27T18:18:56Z</time>
      </trkpt>
      <trkpt lat="37.388853" lon="-122.142471">
        <ele>57.5</ele>
        <time>2015-04-27T18:18:57Z</time>
      </trkpt>
      <trkpt lat="37.388902" lon="-122.142559">
        <ele>57.2</ele>
        <time>2015-04-27T18:18:58Z</time>
      </trkpt>
      <trkpt lat="37.388961" lon="-122.142628">
        <ele>56.9</ele>
        <time>2015-04-27T18:18:59Z</time>
      </trkpt>
      <trkpt lat="37.389022" lon="-122.142688">
        <ele>56.6</ele>
        <time>2015-04-27T18:19:00Z</time>
      </trkpt>
      <trkpt lat="37.389085" lon="-122.142754">
        <ele>56.4</ele>
        <time>2015-04-27T18:19:01Z</time>
      </trkpt>
      <trkpt lat="37.389152" lon="-122.142809">
        <ele>56.2</ele>
        <time>2015-04-27T18:19:02Z</time>
      </trkpt>
      <trkpt lat="37.389228" lon="-122.142859">
        <ele>56.2</ele>
        <time>2015-04-27T18:19:03Z</time>
      </trkpt>
      <trkpt lat="37.389303" lon="-122.142901">
        <ele>56.1</ele>
        <time>2015-04-27T18:19:04Z</time>
      </trkpt>
      <trkpt lat="37.389378" lon="-122.142923">
        <ele>56</ele>
        <time>2015-04-27T18:19:05Z</time>
      </trkpt>
      <trkpt lat="37.389477" lon="-122.142926">
        <ele>55.8</ele>
        <time>2015-04-27T18:19:06Z</time>
      </trkpt>
      <trkpt lat="37.389566" lon="-122.142923">
        <ele>55.6</ele>
        <time>2015-04-27T18:19:07Z</time>
      </trkpt>
      <trkpt lat="37.38967" lon="-122.14293">
        <ele>55.4</ele>
        <time>2015-04-27T18:19:08Z</time>
      </trkpt>
      <trkpt lat="37.389736" lon="-122.142944">
        <ele>55.3</ele>
        <time>2015-04-27T18:19:09Z</time>
      </trkpt>
      <trkpt lat="37.389814" lon="-122.14294">
        <ele>55.1</ele>
        <time>2015-04-27T18:19:10Z</time>
      </trkpt>
      <trkpt lat="37.389893" lon="-122.142936">
        <ele>54.9</ele>
        <time>2015-04-27T18:19:11Z</time>
      </trkpt>
      <trkpt lat="37.389976" lon="-122.142923">
        <ele>54.6</ele>
        <time>2015-04-27T18:19:12Z</time>
      </trkpt>
      <trkpt lat="37.390068" lon="-122.142915">
        <ele>54.3</ele>
        <time>2015-04-27T18:19:14Z</time>
      </trkpt>
      <trkpt lat="37.390156" lon="-122.142917">
        <ele>54</ele>
        <time>2015-04-27T18:19:15Z</time>
      </trkpt>
      <trkpt lat="37.390325" lon="-122.142908">
        <ele>53.5</ele>
        <time>2015-04-27T18:19:16Z</time>
      </trkpt>
      <trkpt lat="37.390407" lon="-122.142911">
        <ele>53.3</ele>
        <time>2015-04-27T18:19:17Z</time>
      </trkpt>
      <trkpt lat="37.390471" lon="-122.142929">
        <ele>53.1</ele>
        <time>2015-04-27T18:19:18Z</time>
      </trkpt>
      <trkpt lat="37.390555" lon="-122.142921">
        <ele>52.9</ele>
        <time>2015-04-27T18:19:19Z</time>
      </trkpt>
      <trkpt lat="37.390645" lon="-122.14294">
        <ele>52.8</ele>
        <time>2015-04-27T18:19:20Z</time>
      </trkpt>
      <trkpt lat="37.390714" lon="-122.14295">
        <ele>52.7</ele>
        <time>2015-04-27T18:19:21Z</time>
      </trkpt>
      <trkpt lat="37.390797" lon="-122.142973">
        <ele>52.6</ele>
        <time>2015-04-27T18:19:22Z</time>
      </trkpt>
      <trkpt lat="37.390894" lon="-122.142982">
        <ele>52.6</ele>
        <time>2015-04-27T18:19:23Z</time>
      </trkpt>
      <trkpt lat="37.390965" lon="-122.14299">
        <ele>52.5</ele>
        <time>2015-04-27T18:19:24Z</time>
      </trkpt>
      <trkpt lat="37.39104" lon="-122.142986">
        <ele>52.3</ele>
        <time>2015-04-27T18:19:25Z</time>
      </trkpt>
      <trkpt lat="37.391116" lon="-122.142983">
        <ele>51.9</ele>
        <time>2015-04-27T18:19:26Z</time>
      </trkpt>
      <trkpt lat="37.391195" lon="-122.142989">
        <ele>51.4</ele>
        <time>2015-04-27T18:19:27Z</time>
      </trkpt>
      <trkpt lat="37.391267" lon="-122.142983">
        <ele>51</ele>
        <time>2015-04-27T18:19:28Z</time>
      </trkpt>
      <trkpt lat="37.391351" lon="-122.142985">
        <ele>50.6</ele>
        <time>2015-04-27T18:19:29Z</time>
      </trkpt>
      <trkpt lat="37.391436" lon="-122.14299">
        <ele>50.1</ele>
        <time>2015-04-27T18:19:30Z</time>
      </trkpt>
      <trkpt lat="37.391524" lon="-122.142999">
        <ele>49.7</ele>
        <time>2015-04-27T18:19:31Z</time>
      </trkpt>
      <trkpt lat="37.391615" lon="-122.142993">
        <ele>49.4</ele>
        <time>2015-04-27T18:19:32Z</time>
      </trkpt>
      <trkpt lat="37.3917" lon="-122.143">
        <ele>49</ele>
        <time>2015-04-27T18:19:33Z</time>
      </trkpt>
      <trkpt lat="37.391783" lon="-122.143002">
        <ele>48.6</ele>
        <time>2015-04-27T18:19:34Z</time>
      </trkpt>
      <trkpt lat="37.391882" lon="-122.142994">
        <ele>48.2</ele>
        <time>2015-04-27T18:19:35Z</time>
      </trkpt>
      <trkpt lat="37.391977" lon="-122.142979">
        <ele>47.8</ele>
        <time>2015-04-27T18:19:36Z</time>
      </trkpt>
      <trkpt lat="37.392075" lon="-122.142979">
        <ele>47.4</ele>
        <time>2015-04-27T18:19:37Z</time>
      </trkpt>
      <trkpt lat="37.392171" lon="-122.142976">
        <ele>47.1</ele>
        <time>2015-04-27T18:19:38Z</time>
      </trkpt>
      <trkpt lat="37.392253" lon="-122.142975">
        <ele>46.9</ele>
        <time>2015-04-27T18:19:39Z</time>
      </trkpt>
      <trkpt lat="37.39235" lon="-122.142969">
        <ele>46.7</ele>
        <time>2015-04-27T18:19:40Z</time>
      </trkpt>
      <trkpt lat="37.392448" lon="-122.142968">
        <ele>46.5</ele>
        <time>2015-04-27T18:19:41Z</time>
      </trkpt>
      <trkpt lat="37.392538" lon="-122.142971">
        <ele>46.2</ele>
        <time>2015-04-27T18:19:42Z</time>
      </trkpt>
      <trkpt lat="37.392635" lon="-122.142978">
        <ele>45.9</ele>
        <time>2015-04-27T18:19:43Z</time>
      </trkpt>
      <trkpt lat="37.392729" lon="-122.142989">
        <ele>45.8</ele>
        <time>2015-04-27T18:19:44Z</time>
      </trkpt>
      <trkpt lat="37.392818" lon="-122.142982">
        <ele>45.6</ele>
        <time>2015-04-27T18:19:45Z</time>
      </trkpt>
      <trkpt lat="37.392909" lon="-122.142988">
        <ele>45.4</ele>
        <time>2015-04-27T18:19:46Z</time>
      </trkpt>
      <trkpt lat="37.392996" lon="-122.142981">
        <ele>45.2</ele>
        <time>2015-04-27T18:19:47Z</time>
      </trkpt>
      <trkpt lat="37.393082" lon="-122.142973">
        <ele>45.1</ele>
        <time>2015-04-27T18:19:48Z</time>
      </trkpt>
      <trkpt lat="37.393178" lon="-122.142983">
        <ele>44.8</ele>
        <time>2015-04-27T18:19:49Z</time>
      </trkpt>
      <trkpt lat="37.39326" lon="-122.142991">
        <ele>44.5</ele>
        <time>2015-04-27T18:19:50Z</time>
      </trkpt>
      <trkpt lat="37.393335" lon="-122.143002">
        <ele>44.2</ele>
        <time>2015-04-27T18:19:51Z</time>
      </trkpt>
      <trkpt lat="37.393423" lon="-122.143009">
        <ele>43.9</ele>
        <time>2015-04-27T18:19:52Z</time>
      </trkpt>
      <trkpt lat="37.393503" lon="-122.143021">
        <ele>43.6</ele>
        <time>2015-04-27T18:19:53Z</time>
      </trkpt>
      <trkpt lat="37.393583" lon="-122.143035">
        <ele>43.2</ele>
        <time>2015-04-27T18:19:54Z</time>
      </trkpt>
      <trkpt lat="37.393652" lon="-122.143047">
        <ele>43.1</ele>
        <time>2015-04-27T18:19:55Z</time>
      </trkpt>
      <trkpt lat="37.393745" lon="-122.143062">
        <ele>43</ele>
        <time>2015-04-27T18:19:56Z</time>
      </trkpt>
      <trkpt lat="37.393846" lon="-122.143059">
        <ele>42.9</ele>
        <time>2015-04-27T18:19:57Z</time>
      </trkpt>
      <trkpt lat="37.393921" lon="-122.143093">
        <ele>42.8</ele>
        <time>2015-04-27T18:19:58Z</time>
      </trkpt>
      <trkpt lat="37.394006" lon="-122.143113">
        <ele>42.7</ele>
        <time>2015-04-27T18:19:59Z</time>
      </trkpt>
      <trkpt lat="37.394094" lon="-122.143122">
        <ele>42.7</ele>
        <time>2015-04-27T18:20:00Z</time>
      </trkpt>
      <trkpt lat="37.394166" lon="-122.143141">
        <ele>42.7</ele>
        <time>2015-04-27T18:20:01Z</time>
      </trkpt>
      <trkpt lat="37.394252" lon="-122.14316">
        <ele>42.7</ele>
        <time>2015-04-27T18:20:02Z</time>
      </trkpt>
      <trkpt lat="37.394292" lon="-122.143179">
        <ele>42.7</ele>
        <time>2015-04-27T18:20:03Z</time>
      </trkpt>
      <trkpt lat="37.394343" lon="-122.143192">
        <ele>42.8</ele>
        <time>2015-04-27T18:20:04Z</time>
      </trkpt>
      <trkpt lat="37.39438" lon="-122.143207">
        <ele>42.7</ele>
        <time>2015-04-27T18:20:05Z</time>
      </trkpt>
      <trkpt lat="37.39441" lon="-122.143212">
        <ele>42.7</ele>
        <time>2015-04-27T18:20:07Z</time>
      </trkpt>
      <trkpt lat="37.394446" lon="-122.143228">
        <ele>42.7</ele>
        <time>2015-04-27T18:20:11Z</time>
      </trkpt>
      <trkpt lat="37.394487" lon="-122.143255">
        <ele>42.7</ele>
        <time>2015-04-27T18:20:13Z</time>
      </trkpt>
      <trkpt lat="37.394508" lon="-122.143294">
        <ele>42.7</ele>
        <time>2015-04-27T18:20:14Z</time>
      </trkpt>
      <trkpt lat="37.394528" lon="-122.143331">
        <ele>42.6</ele>
        <time>2015-04-27T18:20:15Z</time>
      </trkpt>
      <trkpt lat="37.394544" lon="-122.143377">
        <ele>42.9</ele>
        <time>2015-04-27T18:20:16Z</time>
      </trkpt>
      <trkpt lat="37.394553" lon="-122.143421">
        <ele>43.2</ele>
        <time>2015-04-27T18:20:17Z</time>
      </trkpt>
      <trkpt lat="37.394553" lon="-122.143465">
        <ele>43.7</ele>
        <time>2015-04-27T18:20:18Z</time>
      </trkpt>
      <trkpt lat="37.394547" lon="-122.143512">
        <ele>44.1</ele>
        <time>2015-04-27T18:20:19Z</time>
      </trkpt>
      <trkpt lat="37.394531" lon="-122.143568">
        <ele>44.3</ele>
        <time>2015-04-27T18:20:20Z</time>
      </trkpt>
      <trkpt lat="37.394482" lon="-122.143655">
        <ele>44.5</ele>
        <time>2015-04-27T18:20:21Z</time>
      </trkpt>
      <trkpt lat="37.394455" lon="-122.143726">
        <ele>45.1</ele>
        <time>2015-04-27T18:20:22Z</time>
      </trkpt>
      <trkpt lat="37.394442" lon="-122.143771">
        <ele>45.5</ele>
        <time>2015-04-27T18:20:23Z</time>
      </trkpt>
      <trkpt lat="37.394425" lon="-122.143823">
        <ele>46</ele>
        <time>2015-04-27T18:20:24Z</time>
      </trkpt>
      <trkpt lat="37.3944" lon="-122.143869">
        <ele>46.2</ele>
        <time>2015-04-27T18:20:25Z</time>
      </trkpt>
      <trkpt lat="37.394375" lon="-122.143917">
        <ele>46.4</ele>
        <time>2015-04-27T18:20:27Z</time>
      </trkpt>
      <trkpt lat="37.394335" lon="-122.144016">
        <ele>47.1</ele>
        <time>2015-04-27T18:20:28Z</time>
      </trkpt>
      <trkpt lat="37.394306" lon="-122.144068">
        <ele>47.2</ele>
        <time>2015-04-27T18:20:29Z</time>
      </trkpt>
      <trkpt lat="37.394274" lon="-122.144128">
        <ele>47.3</ele>
        <time>2015-04-27T18:20:31Z</time>
      </trkpt>
      <trkpt lat="37.394256" lon="-122.144175">
        <ele>47.4</ele>
        <time>2015-04-27T18:20:32Z</time>
      </trkpt>
      <trkpt lat="37.394246" lon="-122.144225">
        <ele>47.9</ele>
        <time>2015-04-27T18:20:33Z</time>
      </trkpt>
      <trkpt lat="37.394225" lon="-122.144268">
        <ele>47.7</ele>
        <time>2015-04-27T18:20:34Z</time>
      </trkpt>
      <trkpt lat="37.394205" lon="-122.144307">
        <ele>47.8</ele>
        <time>2015-04-27T18:20:35Z</time>
      </trkpt>
      <trkpt lat="37.394197" lon="-122.144368">
        <ele>48.3</ele>
        <time>2015-04-27T18:20:36Z</time>
      </trkpt>
      <trkpt lat="37.394186" lon="-122.144417">
        <ele>48.5</ele>
        <time>2015-04-27T18:20:37Z</time>
      </trkpt>
      <trkpt lat="37.394174" lon="-122.144468">
        <ele>48.7</ele>
        <time>2015-04-27T18:20:38Z</time>
      </trkpt>
      <trkpt lat="37.394161" lon="-122.144519">
        <ele>48.7</ele>
        <time>2015-04-27T18:20:39Z</time>
      </trkpt>
      <trkpt lat="37.394149" lon="-122.144569">
        <ele>48.6</ele>
        <time>2015-04-27T18:20:40Z</time>
      </trkpt>
      <trkpt lat="37.394136" lon="-122.144614">
        <ele>48.7</ele>
        <time>2015-04-27T18:20:41Z</time>
      </trkpt>
      <trkpt lat="37.394121" lon="-122.144659">
        <ele>48.6</ele>
        <time>2015-04-27T18:20:42Z</time>
      </trkpt>
      <trkpt lat="37.394102" lon="-122.14471">
        <ele>48.4</ele>
        <time>2015-04-27T18:20:43Z</time>
      </trkpt>
      <trkpt lat="37.394081" lon="-122.144762">
        <ele>48.2</ele>
        <time>2015-04-27T18:20:44Z</time>
      </trkpt>
      <trkpt lat="37.394063" lon="-122.14481">
        <ele>48.1</ele>
        <time>2015-04-27T18:20:45Z</time>
      </trkpt>
      <trkpt lat="37.394045" lon="-122.144859">
        <ele>47.9</ele>
        <time>2015-04-27T18:20:46Z</time>
      </trkpt>
      <trkpt lat="37.394024" lon="-122.144911">
        <ele>47.8</ele>
        <time>2015-04-27T18:20:47Z</time>
      </trkpt>
      <trkpt lat="37.394" lon="-122.144976">
        <ele>47.7</ele>
        <time>2015-04-27T18:20:48Z</time>
      </trkpt>
      <trkpt lat="37.393961" lon="-122.14504">
        <ele>47.4</ele>
        <time>2015-04-27T18:20:49Z</time>
      </trkpt>
      <trkpt lat="37.39394" lon="-122.145112">
        <ele>47.3</ele>
        <time>2015-04-27T18:20:50Z</time>
      </trkpt>
      <trkpt lat="37.393901" lon="-122.145168">
        <ele>47.1</ele>
        <time>2015-04-27T18:20:51Z</time>
      </trkpt>
      <trkpt lat="37.393892" lon="-122.145235">
        <ele>47.1</ele>
        <time>2015-04-27T18:20:52Z</time>
      </trkpt>
      <trkpt lat="37.393876" lon="-122.145314">
        <ele>47</ele>
        <time>2015-04-27T18:20:53Z</time>
      </trkpt>
      <trkpt lat="37.393859" lon="-122.14539">
        <ele>47.1</ele>
        <time>2015-04-27T18:20:54Z</time>
      </trkpt>
      <trkpt lat="37.393851" lon="-122.14546">
        <ele>47.2</ele>
        <time>2015-04-27T18:20:55Z</time>
      </trkpt>
      <trkpt lat="37.39386" lon="-122.145526">
        <ele>47.4</ele>
        <time>2015-04-27T18:20:56Z</time>
      </trkpt>
      <trkpt lat="37.393849" lon="-122.145588">
        <ele>47.5</ele>
        <time>2015-04-27T18:20:57Z</time>
      </trkpt>
      <trkpt lat="37.393845" lon="-122.145629">
        <ele>47.8</ele>
        <time>2015-04-27T18:20:58Z</time>
      </trkpt>
      <trkpt lat="37.393825" lon="-122.145702">
        <ele>47.8</ele>
        <time>2015-04-27T18:20:59Z</time>
      </trkpt>
      <trkpt lat="37.393816" lon="-122.145755">
        <ele>47.9</ele>
        <time>2015-04-27T18:21:00Z</time>
      </trkpt>
      <trkpt lat="37.393781" lon="-122.145818">
        <ele>47.7</ele>
        <time>2015-04-27T18:21:01Z</time>
      </trkpt>
      <trkpt lat="37.393755" lon="-122.145884">
        <ele>48.2</ele>
        <time>2015-04-27T18:21:02Z</time>
      </trkpt>
      <trkpt lat="37.393742" lon="-122.145947">
        <ele>48.8</ele>
        <time>2015-04-27T18:21:03Z</time>
      </trkpt>
      <trkpt lat="37.393723" lon="-122.146001">
        <ele>49.1</ele>
        <time>2015-04-27T18:21:04Z</time>
      </trkpt>
      <trkpt lat="37.3937" lon="-122.146051">
        <ele>49.5</ele>
        <time>2015-04-27T18:21:05Z</time>
      </trkpt>
      <trkpt lat="37.393674" lon="-122.146085">
        <ele>49.7</ele>
        <time>2015-04-27T18:21:06Z</time>
      </trkpt>
      <trkpt lat="37.393652" lon="-122.14612">
        <ele>50</ele>
        <time>2015-04-27T18:21:08Z</time>
      </trkpt>
      <trkpt lat="37.393633" lon="-122.146162">
        <ele>50.2</ele>
        <time>2015-04-27T18:21:09Z</time>
      </trkpt>
      <trkpt lat="37.393582" lon="-122.146228">
        <ele>50.4</ele>
        <time>2015-04-27T18:21:10Z</time>
      </trkpt>
      <trkpt lat="37.393557" lon="-122.146269">
        <ele>50.6</ele>
        <time>2015-04-27T18:21:11Z</time>
      </trkpt>
      <trkpt lat="37.393541" lon="-122.146316">
        <ele>50.9</ele>
        <time>2015-04-27T18:21:12Z</time>
      </trkpt>
      <trkpt lat="37.393527" lon="-122.146354">
        <ele>51.2</ele>
        <time>2015-04-27T18:21:13Z</time>
      </trkpt>
      <trkpt lat="37.393515" lon="-122.146393">
        <ele>51.5</ele>
        <time>2015-04-27T18:21:14Z</time>
      </trkpt>
      <trkpt lat="37.393506" lon="-122.14643">
        <ele>51.8</ele>
        <time>2015-04-27T18:21:15Z</time>
      </trkpt>
      <trkpt lat="37.393496" lon="-122.146466">
        <ele>51.9</ele>
        <time>2015-04-27T18:21:16Z</time>
      </trkpt>
      <trkpt lat="37.393484" lon="-122.146507">
        <ele>52.2</ele>
        <time>2015-04-27T18:21:17Z</time>
      </trkpt>
      <trkpt lat="37.39347" lon="-122.14655">
        <ele>52.6</ele>
        <time>2015-04-27T18:21:19Z</time>
      </trkpt>
      <trkpt lat="37.393441" lon="-122.146637">
        <ele>53.1</ele>
        <time>2015-04-27T18:21:20Z</time>
      </trkpt>
      <trkpt lat="37.393424" lon="-122.146676">
        <ele>53.2</ele>
        <time>2015-04-27T18:21:21Z</time>
      </trkpt>
      <trkpt lat="37.393395" lon="-122.146752">
        <ele>53.7</ele>
        <time>2015-04-27T18:21:23Z</time>
      </trkpt>
      <trkpt lat="37.393378" lon="-122.14679">
        <ele>54</ele>
        <time>2015-04-27T18:21:24Z</time>
      </trkpt>
      <trkpt lat="37.39336" lon="-122.146829">
        <ele>54.4</ele>
        <time>2015-04-27T18:21:26Z</time>
      </trkpt>
      <trkpt lat="37.39334" lon="-122.146871">
        <ele>54.7</ele>
        <time>2015-04-27T18:21:27Z</time>
      </trkpt>
      <trkpt lat="37.393324" lon="-122.146915">
        <ele>55.2</ele>
        <time>2015-04-27T18:21:28Z</time>
      </trkpt>
      <trkpt lat="37.393292" lon="-122.146993">
        <ele>55.7</ele>
        <time>2015-04-27T18:21:29Z</time>
      </trkpt>
      <trkpt lat="37.393275" lon="-122.147032">
        <ele>56</ele>
        <time>2015-04-27T18:21:31Z</time>
      </trkpt>
      <trkpt lat="37.393256" lon="-122.147065">
        <ele>56.2</ele>
        <time>2015-04-27T18:21:32Z</time>
      </trkpt>
      <trkpt lat="37.393224" lon="-122.147129">
        <ele>56.4</ele>
        <time>2015-04-27T18:21:33Z</time>
      </trkpt>
      <trkpt lat="37.393211" lon="-122.147164">
        <ele>56.5</ele>
        <time>2015-04-27T18:21:34Z</time>
      </trkpt>
      <trkpt lat="37.393203" lon="-122.147197">
        <ele>56.6</ele>
        <time>2015-04-27T18:21:35Z</time>
      </trkpt>
      <trkpt lat="37.393191" lon="-122.147263">
        <ele>56.7</ele>
        <time>2015-04-27T18:21:37Z</time>
      </trkpt>
      <trkpt lat="37.393173" lon="-122.14732">
        <ele>56.7</ele>
        <time>2015-04-27T18:21:39Z</time>
      </trkpt>
      <trkpt lat="37.393163" lon="-122.147353">
        <ele>56.6</ele>
        <time>2015-04-27T18:21:40Z</time>
      </trkpt>
      <trkpt lat="37.39315" lon="-122.147393">
        <ele>56.4</ele>
        <time>2015-04-27T18:21:41Z</time>
      </trkpt>
      <trkpt lat="37.393136" lon="-122.147432">
        <ele>56.2</ele>
        <time>2015-04-27T18:21:42Z</time>
      </trkpt>
      <trkpt lat="37.393121" lon="-122.147472">
        <ele>56</ele>
        <time>2015-04-27T18:21:43Z</time>
      </trkpt>
      <trkpt lat="37.393103" lon="-122.147516">
        <ele>55.7</ele>
        <time>2015-04-27T18:21:44Z</time>
      </trkpt>
      <trkpt lat="37.393086" lon="-122.14756">
        <ele>55.5</ele>
        <time>2015-04-27T18:21:45Z</time>
      </trkpt>
      <trkpt lat="37.393067" lon="-122.147585">
        <ele>55.3</ele>
        <time>2015-04-27T18:21:46Z</time>
      </trkpt>
      <trkpt lat="37.393032" lon="-122.147666">
        <ele>55</ele>
        <time>2015-04-27T18:21:47Z</time>
      </trkpt>
      <trkpt lat="37.393011" lon="-122.147724">
        <ele>54.9</ele>
        <time>2015-04-27T18:21:48Z</time>
      </trkpt>
      <trkpt lat="37.392977" lon="-122.147786">
        <ele>54.8</ele>
        <time>2015-04-27T18:21:49Z</time>
      </trkpt>
      <trkpt lat="37.392952" lon="-122.147837">
        <ele>54.8</ele>
        <time>2015-04-27T18:21:50Z</time>
      </trkpt>
      <trkpt lat="37.392928" lon="-122.147895">
        <ele>54.7</ele>
        <time>2015-04-27T18:21:51Z</time>
      </trkpt>
      <trkpt lat="37.392911" lon="-122.147929">
        <ele>54.6</ele>
        <time>2015-04-27T18:21:52Z</time>
      </trkpt>
      <trkpt lat="37.392901" lon="-122.147972">
        <ele>54.6</ele>
        <time>2015-04-27T18:21:55Z</time>
      </trkpt>
      <trkpt lat="37.392881" lon="-122.148027">
        <ele>54.7</ele>
        <time>2015-04-27T18:21:57Z</time>
      </trkpt>
      <trkpt lat="37.392876" lon="-122.148071">
        <ele>54.8</ele>
        <time>2015-04-27T18:21:58Z</time>
      </trkpt>
      <trkpt lat="37.392882" lon="-122.148115">
        <ele>55</ele>
        <time>2015-04-27T18:21:59Z</time>
      </trkpt>
      <trkpt lat="37.392896" lon="-122.148163">
        <ele>55.1</ele>
        <time>2015-04-27T18:22:00Z</time>
      </trkpt>
      <trkpt lat="37.392909" lon="-122.148205">
        <ele>55.3</ele>
        <time>2015-04-27T18:22:01Z</time>
      </trkpt>
      <trkpt lat="37.392917" lon="-122.148241">
        <ele>55.4</ele>
        <time>2015-04-27T18:22:02Z</time>
      </trkpt>
      <trkpt lat="37.392848" lon="-122.148321">
        <ele>56.8</ele>
        <time>2015-04-27T18:22:05Z</time>
      </trkpt>
      <trkpt lat="37.392817" lon="-122.148344">
        <ele>57.2</ele>
        <time>2015-04-27T18:22:06Z</time>
      </trkpt>
      <trkpt lat="37.392775" lon="-122.148406">
        <ele>57.8</ele>
        <time>2015-04-27T18:22:08Z</time>
      </trkpt>
      <trkpt lat="37.392758" lon="-122.148441">
        <ele>58.1</ele>
        <time>2015-04-27T18:22:09Z</time>
      </trkpt>
      <trkpt lat="37.392743" lon="-122.148477">
        <ele>58.2</ele>
        <time>2015-04-27T18:22:10Z</time>
      </trkpt>
      <trkpt lat="37.392727" lon="-122.148515">
        <ele>58.4</ele>
        <time>2015-04-27T18:22:11Z</time>
      </trkpt>
      <trkpt lat="37.392712" lon="-122.148561">
        <ele>58.5</ele>
        <time>2015-04-27T18:22:13Z</time>
      </trkpt>
      <trkpt lat="37.392682" lon="-122.148655">
        <ele>58.8</ele>
        <time>2015-04-27T18:22:14Z</time>
      </trkpt>
      <trkpt lat="37.392669" lon="-122.1487">
        <ele>59</ele>
        <time>2015-04-27T18:22:15Z</time>
      </trkpt>
      <trkpt lat="37.392656" lon="-122.148743">
        <ele>59.2</ele>
        <time>2015-04-27T18:22:16Z</time>
      </trkpt>
      <trkpt lat="37.392643" lon="-122.148785">
        <ele>59.4</ele>
        <time>2015-04-27T18:22:17Z</time>
      </trkpt>
      <trkpt lat="37.392629" lon="-122.148828">
        <ele>59.6</ele>
        <time>2015-04-27T18:22:18Z</time>
      </trkpt>
      <trkpt lat="37.392617" lon="-122.148871">
        <ele>59.8</ele>
        <time>2015-04-27T18:22:19Z</time>
      </trkpt>
      <trkpt lat="37.392606" lon="-122.148916">
        <ele>59.9</ele>
        <time>2015-04-27T18:22:20Z</time>
      </trkpt>
      <trkpt lat="37.392597" lon="-122.14896">
        <ele>60.1</ele>
        <time>2015-04-27T18:22:21Z</time>
      </trkpt>
      <trkpt lat="37.392588" lon="-122.149009">
        <ele>60.4</ele>
        <time>2015-04-27T18:22:22Z</time>
      </trkpt>
      <trkpt lat="37.392579" lon="-122.149055">
        <ele>60.6</ele>
        <time>2015-04-27T18:22:23Z</time>
      </trkpt>
      <trkpt lat="37.392572" lon="-122.149099">
        <ele>61</ele>
        <time>2015-04-27T18:22:24Z</time>
      </trkpt>
      <trkpt lat="37.392566" lon="-122.149145">
        <ele>61.4</ele>
        <time>2015-04-27T18:22:25Z</time>
      </trkpt>
      <trkpt lat="37.392558" lon="-122.149185">
        <ele>61.7</ele>
        <time>2015-04-27T18:22:26Z</time>
      </trkpt>
      <trkpt lat="37.392548" lon="-122.149226">
        <ele>61.9</ele>
        <time>2015-04-27T18:22:27Z</time>
      </trkpt>
      <trkpt lat="37.392537" lon="-122.149271">
        <ele>62.2</ele>
        <time>2015-04-27T18:22:28Z</time>
      </trkpt>
      <trkpt lat="37.392525" lon="-122.14932">
        <ele>62.3</ele>
        <time>2015-04-27T18:22:29Z</time>
      </trkpt>
      <trkpt lat="37.392513" lon="-122.149369">
        <ele>62.3</ele>
        <time>2015-04-27T18:22:30Z</time>
      </trkpt>
      <trkpt lat="37.392499" lon="-122.149416">
        <ele>62.2</ele>
        <time>2015-04-27T18:22:32Z</time>
      </trkpt>
      <trkpt lat="37.392473" lon="-122.149506">
        <ele>62.2</ele>
        <time>2015-04-27T18:22:33Z</time>
      </trkpt>
      <trkpt lat="37.392457" lon="-122.149553">
        <ele>61.9</ele>
        <time>2015-04-27T18:22:35Z</time>
      </trkpt>
      <trkpt lat="37.392443" lon="-122.149604">
        <ele>62.1</ele>
        <time>2015-04-27T18:22:36Z</time>
      </trkpt>
      <trkpt lat="37.392415" lon="-122.149707">
        <ele>62</ele>
        <time>2015-04-27T18:22:37Z</time>
      </trkpt>
      <trkpt lat="37.392399" lon="-122.149759">
        <ele>61.7</ele>
        <time>2015-04-27T18:22:38Z</time>
      </trkpt>
      <trkpt lat="37.392382" lon="-122.149813">
        <ele>61.5</ele>
        <time>2015-04-27T18:22:39Z</time>
      </trkpt>
      <trkpt lat="37.392347" lon="-122.149884">
        <ele>61.1</ele>
        <time>2015-04-27T18:22:41Z</time>
      </trkpt>
      <trkpt lat="37.392319" lon="-122.14998">
        <ele>60.8</ele>
        <time>2015-04-27T18:22:42Z</time>
      </trkpt>
      <trkpt lat="37.392298" lon="-122.150038">
        <ele>60.5</ele>
        <time>2015-04-27T18:22:43Z</time>
      </trkpt>
      <trkpt lat="37.39229" lon="-122.150082">
        <ele>60.4</ele>
        <time>2015-04-27T18:22:45Z</time>
      </trkpt>
      <trkpt lat="37.39226" lon="-122.150203">
        <ele>60.2</ele>
        <time>2015-04-27T18:22:46Z</time>
      </trkpt>
      <trkpt lat="37.392231" lon="-122.150266">
        <ele>59.8</ele>
        <time>2015-04-27T18:22:47Z</time>
      </trkpt>
      <trkpt lat="37.392211" lon="-122.150321">
        <ele>59.4</ele>
        <time>2015-04-27T18:22:48Z</time>
      </trkpt>
      <trkpt lat="37.392177" lon="-122.1504">
        <ele>58.7</ele>
        <time>2015-04-27T18:22:49Z</time>
      </trkpt>
      <trkpt lat="37.39215" lon="-122.150464">
        <ele>57.9</ele>
        <time>2015-04-27T18:22:50Z</time>
      </trkpt>
      <trkpt lat="37.392106" lon="-122.150522">
        <ele>56.7</ele>
        <time>2015-04-27T18:22:51Z</time>
      </trkpt>
      <trkpt lat="37.392055" lon="-122.150585">
        <ele>56.3</ele>
        <time>2015-04-27T18:22:52Z</time>
      </trkpt>
      <trkpt lat="37.391999" lon="-122.150648">
        <ele>56</ele>
        <time>2015-04-27T18:22:53Z</time>
      </trkpt>
      <trkpt lat="37.391946" lon="-122.150722">
        <ele>54.9</ele>
        <time>2015-04-27T18:22:54Z</time>
      </trkpt>
      <trkpt lat="37.391877" lon="-122.150766">
        <ele>55.1</ele>
        <time>2015-04-27T18:22:55Z</time>
      </trkpt>
      <trkpt lat="37.391811" lon="-122.150823">
        <ele>55.6</ele>
        <time>2015-04-27T18:22:56Z</time>
      </trkpt>
      <trkpt lat="37.391746" lon="-122.150866">
        <ele>55.7</ele>
        <time>2015-04-27T18:22:57Z</time>
      </trkpt>
      <trkpt lat="37.391679" lon="-122.150902">
        <ele>55.6</ele>
        <time>2015-04-27T18:22:58Z</time>
      </trkpt>
      <trkpt lat="37.391611" lon="-122.150938">
        <ele>55.8</ele>
        <time>2015-04-27T18:22:59Z</time>
      </trkpt>
      <trkpt lat="37.391546" lon="-122.150975">
        <ele>56</ele>
        <time>2015-04-27T18:23:00Z</time>
      </trkpt>
      <trkpt lat="37.391489" lon="-122.151005">
        <ele>55.7</ele>
        <time>2015-04-27T18:23:01Z</time>
      </trkpt>
      <trkpt lat="37.39142" lon="-122.151034">
        <ele>56.3</ele>
        <time>2015-04-27T18:23:03Z</time>
      </trkpt>
      <trkpt lat="37.391301" lon="-122.151103">
        <ele>55</ele>
        <time>2015-04-27T18:23:04Z</time>
      </trkpt>
      <trkpt lat="37.391271" lon="-122.151149">
        <ele>54.9</ele>
        <time>2015-04-27T18:23:05Z</time>
      </trkpt>
      <trkpt lat="37.391256" lon="-122.151203">
        <ele>57.3</ele>
        <time>2015-04-27T18:23:06Z</time>
      </trkpt>
      <trkpt lat="37.391239" lon="-122.151263">
        <ele>58.1</ele>
        <time>2015-04-27T18:23:07Z</time>
      </trkpt>
      <trkpt lat="37.39123" lon="-122.151336">
        <ele>58.9</ele>
        <time>2015-04-27T18:23:08Z</time>
      </trkpt>
      <trkpt lat="37.39122" lon="-122.151399">
        <ele>59.9</ele>
        <time>2015-04-27T18:23:09Z</time>
      </trkpt>
      <trkpt lat="37.391212" lon="-122.151445">
        <ele>60.5</ele>
        <time>2015-04-27T18:23:10Z</time>
      </trkpt>
      <trkpt lat="37.391177" lon="-122.151496">
        <ele>61</ele>
        <time>2015-04-27T18:23:11Z</time>
      </trkpt>
      <trkpt lat="37.391131" lon="-122.151531">
        <ele>61.5</ele>
        <time>2015-04-27T18:23:12Z</time>
      </trkpt>
      <trkpt lat="37.39108" lon="-122.151562">
        <ele>61.7</ele>
        <time>2015-04-27T18:23:13Z</time>
      </trkpt>
      <trkpt lat="37.391026" lon="-122.151596">
        <ele>62.1</ele>
        <time>2015-04-27T18:23:14Z</time>
      </trkpt>
      <trkpt lat="37.390971" lon="-122.151621">
        <ele>62.2</ele>
        <time>2015-04-27T18:23:15Z</time>
      </trkpt>
      <trkpt lat="37.390937" lon="-122.151642">
        <ele>62.4</ele>
        <time>2015-04-27T18:23:16Z</time>
      </trkpt>
      <trkpt lat="37.390886" lon="-122.151661">
        <ele>62.4</ele>
        <time>2015-04-27T18:23:17Z</time>
      </trkpt>
      <trkpt lat="37.390829" lon="-122.151693">
        <ele>62.5</ele>
        <time>2015-04-27T18:23:18Z</time>
      </trkpt>
      <trkpt lat="37.390778" lon="-122.151717">
        <ele>62.6</ele>
        <time>2015-04-27T18:23:19Z</time>
      </trkpt>
      <trkpt lat="37.390729" lon="-122.151736">
        <ele>62.4</ele>
        <time>2015-04-27T18:23:20Z</time>
      </trkpt>
      <trkpt lat="37.39067" lon="-122.151777">
        <ele>62.7</ele>
        <time>2015-04-27T18:23:21Z</time>
      </trkpt>
      <trkpt lat="37.390621" lon="-122.151804">
        <ele>62.8</ele>
        <time>2015-04-27T18:23:22Z</time>
      </trkpt>
      <trkpt lat="37.390569" lon="-122.151826">
        <ele>62.8</ele>
        <time>2015-04-27T18:23:23Z</time>
      </trkpt>
      <trkpt lat="37.390518" lon="-122.15185">
        <ele>62.7</ele>
        <time>2015-04-27T18:23:24Z</time>
      </trkpt>
      <trkpt lat="37.390468" lon="-122.15187">
        <ele>62.7</ele>
        <time>2015-04-27T18:23:25Z</time>
      </trkpt>
      <trkpt lat="37.390412" lon="-122.151885">
        <ele>62.6</ele>
        <time>2015-04-27T18:23:26Z</time>
      </trkpt>
      <trkpt lat="37.390361" lon="-122.151903">
        <ele>62.8</ele>
        <time>2015-04-27T18:23:27Z</time>
      </trkpt>
      <trkpt lat="37.390303" lon="-122.151911">
        <ele>62.6</ele>
        <time>2015-04-27T18:23:28Z</time>
      </trkpt>
      <trkpt lat="37.390251" lon="-122.151924">
        <ele>62.5</ele>
        <time>2015-04-27T18:23:29Z</time>
      </trkpt>
      <trkpt lat="37.390203" lon="-122.151939">
        <ele>62.3</ele>
        <time>2015-04-27T18:23:30Z</time>
      </trkpt>
      <trkpt lat="37.390153" lon="-122.151954">
        <ele>62</ele>
        <time>2015-04-27T18:23:31Z</time>
      </trkpt>
      <trkpt lat="37.390106" lon="-122.15197">
        <ele>61.7</ele>
        <time>2015-04-27T18:23:32Z</time>
      </trkpt>
      <trkpt lat="37.390051" lon="-122.151984">
        <ele>61.8</ele>
        <time>2015-04-27T18:23:33Z</time>
      </trkpt>
      <trkpt lat="37.390002" lon="-122.152002">
        <ele>62.1</ele>
        <time>2015-04-27T18:23:34Z</time>
      </trkpt>
      <trkpt lat="37.389967" lon="-122.152012">
        <ele>62.3</ele>
        <time>2015-04-27T18:23:35Z</time>
      </trkpt>
      <trkpt lat="37.389924" lon="-122.152023">
        <ele>62.5</ele>
        <time>2015-04-27T18:23:36Z</time>
      </trkpt>
      <trkpt lat="37.389884" lon="-122.152037">
        <ele>62.8</ele>
        <time>2015-04-27T18:23:37Z</time>
      </trkpt>
      <trkpt lat="37.389858" lon="-122.15205">
        <ele>63.1</ele>
        <time>2015-04-27T18:23:38Z</time>
      </trkpt>
      <trkpt lat="37.389817" lon="-122.152059">
        <ele>63.7</ele>
        <time>2015-04-27T18:23:39Z</time>
      </trkpt>
      <trkpt lat="37.389764" lon="-122.152067">
        <ele>65.1</ele>
        <time>2015-04-27T18:23:40Z</time>
      </trkpt>
      <trkpt lat="37.389729" lon="-122.152081">
        <ele>66.4</ele>
        <time>2015-04-27T18:23:41Z</time>
      </trkpt>
      <trkpt lat="37.389692" lon="-122.152084">
        <ele>66.6</ele>
        <time>2015-04-27T18:23:42Z</time>
      </trkpt>
      <trkpt lat="37.389655" lon="-122.15209">
        <ele>66.5</ele>
        <time>2015-04-27T18:23:43Z</time>
      </trkpt>
      <trkpt lat="37.389621" lon="-122.152096">
        <ele>66.9</ele>
        <time>2015-04-27T18:23:44Z</time>
      </trkpt>
      <trkpt lat="37.389583" lon="-122.152104">
        <ele>67.3</ele>
        <time>2015-04-27T18:23:45Z</time>
      </trkpt>
      <trkpt lat="37.389542" lon="-122.15211">
        <ele>67.5</ele>
        <time>2015-04-27T18:23:46Z</time>
      </trkpt>
      <trkpt lat="37.389502" lon="-122.152116">
        <ele>67.7</ele>
        <time>2015-04-27T18:23:47Z</time>
      </trkpt>
      <trkpt lat="37.38946" lon="-122.152123">
        <ele>67.7</ele>
        <time>2015-04-27T18:23:48Z</time>
      </trkpt>
      <trkpt lat="37.389417" lon="-122.152131">
        <ele>67.9</ele>
        <time>2015-04-27T18:23:49Z</time>
      </trkpt>
      <trkpt lat="37.389376" lon="-122.152139">
        <ele>67.8</ele>
        <time>2015-04-27T18:23:50Z</time>
      </trkpt>
      <trkpt lat="37.389335" lon="-122.152148">
        <ele>67.9</ele>
        <time>2015-04-27T18:23:51Z</time>
      </trkpt>
      <trkpt lat="37.389293" lon="-122.152157">
        <ele>67.8</ele>
        <time>2015-04-27T18:23:52Z</time>
      </trkpt>
      <trkpt lat="37.389245" lon="-122.152166">
        <ele>67.7</ele>
        <time>2015-04-27T18:23:53Z</time>
      </trkpt>
      <trkpt lat="37.389188" lon="-122.152184">
        <ele>67.8</ele>
        <time>2015-04-27T18:23:54Z</time>
      </trkpt>
      <trkpt lat="37.389135" lon="-122.15219">
        <ele>67.5</ele>
        <time>2015-04-27T18:23:55Z</time>
      </trkpt>
      <trkpt lat="37.389083" lon="-122.152192">
        <ele>67.4</ele>
        <time>2015-04-27T18:23:57Z</time>
      </trkpt>
      <trkpt lat="37.389038" lon="-122.152196">
        <ele>67.4</ele>
        <time>2015-04-27T18:23:58Z</time>
      </trkpt>
      <trkpt lat="37.388935" lon="-122.152197">
        <ele>67.5</ele>
        <time>2015-04-27T18:23:59Z</time>
      </trkpt>
      <trkpt lat="37.388883" lon="-122.152193">
        <ele>67.6</ele>
        <time>2015-04-27T18:24:00Z</time>
      </trkpt>
      <trkpt lat="37.388833" lon="-122.152189">
        <ele>67.7</ele>
        <time>2015-04-27T18:24:01Z</time>
      </trkpt>
      <trkpt lat="37.388783" lon="-122.15219">
        <ele>67.9</ele>
        <time>2015-04-27T18:24:02Z</time>
      </trkpt>
      <trkpt lat="37.388743" lon="-122.152196">
        <ele>68.3</ele>
        <time>2015-04-27T18:24:03Z</time>
      </trkpt>
      <trkpt lat="37.388714" lon="-122.152204">
        <ele>68.7</ele>
        <time>2015-04-27T18:24:04Z</time>
      </trkpt>
      <trkpt lat="37.388669" lon="-122.152206">
        <ele>68.8</ele>
        <time>2015-04-27T18:24:05Z</time>
      </trkpt>
      <trkpt lat="37.388619" lon="-122.152203">
        <ele>68.7</ele>
        <time>2015-04-27T18:24:06Z</time>
      </trkpt>
      <trkpt lat="37.388575" lon="-122.152197">
        <ele>68.5</ele>
        <time>2015-04-27T18:24:07Z</time>
      </trkpt>
      <trkpt lat="37.388531" lon="-122.152198">
        <ele>68.6</ele>
        <time>2015-04-27T18:24:08Z</time>
      </trkpt>
      <trkpt lat="37.388486" lon="-122.152197">
        <ele>68.6</ele>
        <time>2015-04-27T18:24:09Z</time>
      </trkpt>
      <trkpt lat="37.388439" lon="-122.15219">
        <ele>68.5</ele>
        <time>2015-04-27T18:24:10Z</time>
      </trkpt>
      <trkpt lat="37.388389" lon="-122.152181">
        <ele>68.3</ele>
        <time>2015-04-27T18:24:11Z</time>
      </trkpt>
      <trkpt lat="37.388351" lon="-122.152187">
        <ele>68.4</ele>
        <time>2015-04-27T18:24:12Z</time>
      </trkpt>
      <trkpt lat="37.388299" lon="-122.152198">
        <ele>68.6</ele>
        <time>2015-04-27T18:24:13Z</time>
      </trkpt>
      <trkpt lat="37.388256" lon="-122.152201">
        <ele>68.6</ele>
        <time>2015-04-27T18:24:14Z</time>
      </trkpt>
      <trkpt lat="37.388225" lon="-122.152217">
        <ele>68.9</ele>
        <time>2015-04-27T18:24:15Z</time>
      </trkpt>
      <trkpt lat="37.388186" lon="-122.152244">
        <ele>69.2</ele>
        <time>2015-04-27T18:24:16Z</time>
      </trkpt>
      <trkpt lat="37.388143" lon="-122.152271">
        <ele>69.4</ele>
        <time>2015-04-27T18:24:17Z</time>
      </trkpt>
      <trkpt lat="37.388096" lon="-122.152292">
        <ele>69.5</ele>
        <time>2015-04-27T18:24:18Z</time>
      </trkpt>
      <trkpt lat="37.388058" lon="-122.152324">
        <ele>69.8</ele>
        <time>2015-04-27T18:24:19Z</time>
      </trkpt>
      <trkpt lat="37.388012" lon="-122.152349">
        <ele>70</ele>
        <time>2015-04-27T18:24:20Z</time>
      </trkpt>
      <trkpt lat="37.387968" lon="-122.152366">
        <ele>69.9</ele>
        <time>2015-04-27T18:24:21Z</time>
      </trkpt>
      <trkpt lat="37.387924" lon="-122.15239">
        <ele>70.1</ele>
        <time>2015-04-27T18:24:22Z</time>
      </trkpt>
      <trkpt lat="37.387875" lon="-122.152407">
        <ele>69.9</ele>
        <time>2015-04-27T18:24:23Z</time>
      </trkpt>
      <trkpt lat="37.38783" lon="-122.152418">
        <ele>69.7</ele>
        <time>2015-04-27T18:24:24Z</time>
      </trkpt>
      <trkpt lat="37.387779" lon="-122.152433">
        <ele>69.5</ele>
        <time>2015-04-27T18:24:25Z</time>
      </trkpt>
      <trkpt lat="37.387718" lon="-122.15244">
        <ele>68.8</ele>
        <time>2015-04-27T18:24:26Z</time>
      </trkpt>
      <trkpt lat="37.387662" lon="-122.152433">
        <ele>67.8</ele>
        <time>2015-04-27T18:24:27Z</time>
      </trkpt>
      <trkpt lat="37.387603" lon="-122.152417">
        <ele>67.1</ele>
        <time>2015-04-27T18:24:28Z</time>
      </trkpt>
      <trkpt lat="37.387543" lon="-122.152402">
        <ele>67.3</ele>
        <time>2015-04-27T18:24:29Z</time>
      </trkpt>
      <trkpt lat="37.387487" lon="-122.1524">
        <ele>66.6</ele>
        <time>2015-04-27T18:24:31Z</time>
      </trkpt>
      <trkpt lat="37.387376" lon="-122.152409">
        <ele>64.3</ele>
        <time>2015-04-27T18:24:32Z</time>
      </trkpt>
      <trkpt lat="37.387198" lon="-122.152338">
        <ele>67.1</ele>
        <time>2015-04-27T18:24:34Z</time>
      </trkpt>
      <trkpt lat="37.387162" lon="-122.152383">
        <ele>67.2</ele>
        <time>2015-04-27T18:24:35Z</time>
      </trkpt>
      <trkpt lat="37.387121" lon="-122.152438">
        <ele>67.3</ele>
        <time>2015-04-27T18:24:36Z</time>
      </trkpt>
      <trkpt lat="37.38709" lon="-122.152482">
        <ele>67.5</ele>
        <time>2015-04-27T18:24:37Z</time>
      </trkpt>
      <trkpt lat="37.387033" lon="-122.152533">
        <ele>67.9</ele>
        <time>2015-04-27T18:24:41Z</time>
      </trkpt>
      <trkpt lat="37.386964" lon="-122.152653">
        <ele>68.4</ele>
        <time>2015-04-27T18:24:43Z</time>
      </trkpt>
      <trkpt lat="37.386915" lon="-122.152664">
        <ele>68.9</ele>
        <time>2015-04-27T18:24:46Z</time>
      </trkpt>
      <trkpt lat="37.386898" lon="-122.152704">
        <ele>69</ele>
        <time>2015-04-27T18:24:47Z</time>
      </trkpt>
      <trkpt lat="37.386877" lon="-122.152751">
        <ele>69.2</ele>
        <time>2015-04-27T18:24:48Z</time>
      </trkpt>
      <trkpt lat="37.386851" lon="-122.152795">
        <ele>69.4</ele>
        <time>2015-04-27T18:24:49Z</time>
      </trkpt>
      <trkpt lat="37.386801" lon="-122.152886">
        <ele>70</ele>
        <time>2015-04-27T18:24:50Z</time>
      </trkpt>
      <trkpt lat="37.386781" lon="-122.152922">
        <ele>70.1</ele>
        <time>2015-04-27T18:24:51Z</time>
      </trkpt>
      <trkpt lat="37.38676" lon="-122.152962">
        <ele>70.4</ele>
        <time>2015-04-27T18:24:52Z</time>
      </trkpt>
      <trkpt lat="37.386737" lon="-122.153005">
        <ele>70.7</ele>
        <time>2015-04-27T18:24:53Z</time>
      </trkpt>
      <trkpt lat="37.386716" lon="-122.153048">
        <ele>70.9</ele>
        <time>2015-04-27T18:24:54Z</time>
      </trkpt>
      <trkpt lat="37.386696" lon="-122.15309">
        <ele>71.2</ele>
        <time>2015-04-27T18:24:55Z</time>
      </trkpt>
      <trkpt lat="37.386673" lon="-122.153136">
        <ele>71.5</ele>
        <time>2015-04-27T18:24:56Z</time>
      </trkpt>
      <trkpt lat="37.386656" lon="-122.153173">
        <ele>71.7</ele>
        <time>2015-04-27T18:24:57Z</time>
      </trkpt>
      <trkpt lat="37.386638" lon="-122.153212">
        <ele>71.9</ele>
        <time>2015-04-27T18:24:58Z</time>
      </trkpt>
      <trkpt lat="37.38662" lon="-122.153251">
        <ele>72.1</ele>
        <time>2015-04-27T18:24:59Z</time>
      </trkpt>
      <trkpt lat="37.386601" lon="-122.153294">
        <ele>72.3</ele>
        <time>2015-04-27T18:25:00Z</time>
      </trkpt>
      <trkpt lat="37.386579" lon="-122.153341">
        <ele>72.7</ele>
        <time>2015-04-27T18:25:01Z</time>
      </trkpt>
      <trkpt lat="37.38656" lon="-122.153383">
        <ele>74.1</ele>
        <time>2015-04-27T18:25:02Z</time>
      </trkpt>
      <trkpt lat="37.386541" lon="-122.153429">
        <ele>74.9</ele>
        <time>2015-04-27T18:25:03Z</time>
      </trkpt>
      <trkpt lat="37.386524" lon="-122.153468">
        <ele>75</ele>
        <time>2015-04-27T18:25:04Z</time>
      </trkpt>
      <trkpt lat="37.38651" lon="-122.153499">
        <ele>74.6</ele>
        <time>2015-04-27T18:25:05Z</time>
      </trkpt>
      <trkpt lat="37.386487" lon="-122.153557">
        <ele>73.8</ele>
        <time>2015-04-27T18:25:06Z</time>
      </trkpt>
      <trkpt lat="37.386475" lon="-122.153594">
        <ele>74.1</ele>
        <time>2015-04-27T18:25:07Z</time>
      </trkpt>
      <trkpt lat="37.386466" lon="-122.153642">
        <ele>74.4</ele>
        <time>2015-04-27T18:25:08Z</time>
      </trkpt>
      <trkpt lat="37.38646" lon="-122.153688">
        <ele>75.3</ele>
        <time>2015-04-27T18:25:09Z</time>
      </trkpt>
      <trkpt lat="37.386455" lon="-122.153729">
        <ele>76.1</ele>
        <time>2015-04-27T18:25:10Z</time>
      </trkpt>
      <trkpt lat="37.38645" lon="-122.153772">
        <ele>76.6</ele>
        <time>2015-04-27T18:25:11Z</time>
      </trkpt>
      <trkpt lat="37.386446" lon="-122.153811">
        <ele>76.8</ele>
        <time>2015-04-27T18:25:12Z</time>
      </trkpt>
      <trkpt lat="37.386442" lon="-122.153855">
        <ele>76.3</ele>
        <time>2015-04-27T18:25:13Z</time>
      </trkpt>
      <trkpt lat="37.386441" lon="-122.153893">
        <ele>76</ele>
        <time>2015-04-27T18:25:14Z</time>
      </trkpt>
      <trkpt lat="37.386446" lon="-122.153953">
        <ele>76.2</ele>
        <time>2015-04-27T18:25:16Z</time>
      </trkpt>
      <trkpt lat="37.386451" lon="-122.153995">
        <ele>76.5</ele>
        <time>2015-04-27T18:25:17Z</time>
      </trkpt>
      <trkpt lat="37.386453" lon="-122.154033">
        <ele>76.9</ele>
        <time>2015-04-27T18:25:18Z</time>
      </trkpt>
      <trkpt lat="37.38646" lon="-122.154078">
        <ele>77.2</ele>
        <time>2015-04-27T18:25:19Z</time>
      </trkpt>
      <trkpt lat="37.386466" lon="-122.154114">
        <ele>77.6</ele>
        <time>2015-04-27T18:25:20Z</time>
      </trkpt>
      <trkpt lat="37.386472" lon="-122.154147">
        <ele>77.9</ele>
        <time>2015-04-27T18:25:21Z</time>
      </trkpt>
      <trkpt lat="37.386476" lon="-122.15419">
        <ele>78.3</ele>
        <time>2015-04-27T18:25:23Z</time>
      </trkpt>
      <trkpt lat="37.386487" lon="-122.15423">
        <ele>78.6</ele>
        <time>2015-04-27T18:25:24Z</time>
      </trkpt>
      <trkpt lat="37.386503" lon="-122.154283">
        <ele>79.2</ele>
        <time>2015-04-27T18:25:26Z</time>
      </trkpt>
      <trkpt lat="37.386521" lon="-122.154329">
        <ele>79.6</ele>
        <time>2015-04-27T18:25:28Z</time>
      </trkpt>
      <trkpt lat="37.386541" lon="-122.154371">
        <ele>80</ele>
        <time>2015-04-27T18:25:30Z</time>
      </trkpt>
      <trkpt lat="37.386563" lon="-122.154411">
        <ele>80.5</ele>
        <time>2015-04-27T18:25:32Z</time>
      </trkpt>
      <trkpt lat="37.38658" lon="-122.154438">
        <ele>80.8</ele>
        <time>2015-04-27T18:25:33Z</time>
      </trkpt>
      <trkpt lat="37.386616" lon="-122.154477">
        <ele>81.2</ele>
        <time>2015-04-27T18:25:35Z</time>
      </trkpt>
      <trkpt lat="37.386649" lon="-122.154519">
        <ele>81.7</ele>
        <time>2015-04-27T18:25:37Z</time>
      </trkpt>
      <trkpt lat="37.386679" lon="-122.15457">
        <ele>82.4</ele>
        <time>2015-04-27T18:25:40Z</time>
      </trkpt>
      <trkpt lat="37.386704" lon="-122.154617">
        <ele>82.9</ele>
        <time>2015-04-27T18:25:41Z</time>
      </trkpt>
      <trkpt lat="37.386734" lon="-122.154662">
        <ele>83.5</ele>
        <time>2015-04-27T18:25:43Z</time>
      </trkpt>
      <trkpt lat="37.386761" lon="-122.154698">
        <ele>83.9</ele>
        <time>2015-04-27T18:25:45Z</time>
      </trkpt>
      <trkpt lat="37.386792" lon="-122.154733">
        <ele>84.4</ele>
        <time>2015-04-27T18:25:47Z</time>
      </trkpt>
      <trkpt lat="37.386829" lon="-122.154761">
        <ele>84.8</ele>
        <time>2015-04-27T18:25:49Z</time>
      </trkpt>
      <trkpt lat="37.386867" lon="-122.154792">
        <ele>85.3</ele>
        <time>2015-04-27T18:25:51Z</time>
      </trkpt>
      <trkpt lat="37.3869" lon="-122.154829">
        <ele>85.9</ele>
        <time>2015-04-27T18:25:53Z</time>
      </trkpt>
      <trkpt lat="37.386933" lon="-122.154859">
        <ele>86.3</ele>
        <time>2015-04-27T18:25:55Z</time>
      </trkpt>
      <trkpt lat="37.386961" lon="-122.154895">
        <ele>86.8</ele>
        <time>2015-04-27T18:25:57Z</time>
      </trkpt>
      <trkpt lat="37.38699" lon="-122.154937">
        <ele>87.3</ele>
        <time>2015-04-27T18:26:00Z</time>
      </trkpt>
      <trkpt lat="37.387023" lon="-122.154984">
        <ele>87.9</ele>
        <time>2015-04-27T18:26:01Z</time>
      </trkpt>
      <trkpt lat="37.387048" lon="-122.155021">
        <ele>88.4</ele>
        <time>2015-04-27T18:26:03Z</time>
      </trkpt>
      <trkpt lat="37.387072" lon="-122.155067">
        <ele>88.9</ele>
        <time>2015-04-27T18:26:05Z</time>
      </trkpt>
      <trkpt lat="37.387095" lon="-122.155115">
        <ele>89.5</ele>
        <time>2015-04-27T18:26:07Z</time>
      </trkpt>
      <trkpt lat="37.387118" lon="-122.155164">
        <ele>90</ele>
        <time>2015-04-27T18:26:09Z</time>
      </trkpt>
      <trkpt lat="37.387144" lon="-122.155208">
        <ele>90.6</ele>
        <time>2015-04-27T18:26:11Z</time>
      </trkpt>
      <trkpt lat="37.387177" lon="-122.15524">
        <ele>90.9</ele>
        <time>2015-04-27T18:26:13Z</time>
      </trkpt>
      <trkpt lat="37.387214" lon="-122.155268">
        <ele>91.2</ele>
        <time>2015-04-27T18:26:15Z</time>
      </trkpt>
      <trkpt lat="37.387247" lon="-122.155296">
        <ele>91.5</ele>
        <time>2015-04-27T18:26:17Z</time>
      </trkpt>
      <trkpt lat="37.387277" lon="-122.155336">
        <ele>91.9</ele>
        <time>2015-04-27T18:26:19Z</time>
      </trkpt>
      <trkpt lat="37.387303" lon="-122.155371">
        <ele>92.3</ele>
        <time>2015-04-27T18:26:21Z</time>
      </trkpt>
      <trkpt lat="37.38733" lon="-122.1554">
        <ele>92.5</ele>
        <time>2015-04-27T18:26:24Z</time>
      </trkpt>
      <trkpt lat="37.38738" lon="-122.155471">
        <ele>92.9</ele>
        <time>2015-04-27T18:26:26Z</time>
      </trkpt>
      <trkpt lat="37.387393" lon="-122.155498">
        <ele>93.1</ele>
        <time>2015-04-27T18:26:27Z</time>
      </trkpt>
      <trkpt lat="37.38742" lon="-122.155565">
        <ele>93.9</ele>
        <time>2015-04-27T18:26:30Z</time>
      </trkpt>
      <trkpt lat="37.387434" lon="-122.155585">
        <ele>94</ele>
        <time>2015-04-27T18:26:31Z</time>
      </trkpt>
      <trkpt lat="37.387468" lon="-122.155626">
        <ele>94.1</ele>
        <time>2015-04-27T18:26:33Z</time>
      </trkpt>
      <trkpt lat="37.387497" lon="-122.155676">
        <ele>94.3</ele>
        <time>2015-04-27T18:26:35Z</time>
      </trkpt>
      <trkpt lat="37.387526" lon="-122.155731">
        <ele>94.6</ele>
        <time>2015-04-27T18:26:37Z</time>
      </trkpt>
      <trkpt lat="37.387568" lon="-122.155821">
        <ele>95.1</ele>
        <time>2015-04-27T18:26:40Z</time>
      </trkpt>
      <trkpt lat="37.38758" lon="-122.155855">
        <ele>95.4</ele>
        <time>2015-04-27T18:26:41Z</time>
      </trkpt>
      <trkpt lat="37.387594" lon="-122.155887">
        <ele>95.6</ele>
        <time>2015-04-27T18:26:42Z</time>
      </trkpt>
      <trkpt lat="37.38761" lon="-122.155919">
        <ele>95.8</ele>
        <time>2015-04-27T18:26:43Z</time>
      </trkpt>
      <trkpt lat="37.387625" lon="-122.15595">
        <ele>95.8</ele>
        <time>2015-04-27T18:26:44Z</time>
      </trkpt>
      <trkpt lat="37.387647" lon="-122.156008">
        <ele>96.2</ele>
        <time>2015-04-27T18:26:46Z</time>
      </trkpt>
      <trkpt lat="37.387665" lon="-122.156064">
        <ele>96.7</ele>
        <time>2015-04-27T18:26:48Z</time>
      </trkpt>
      <trkpt lat="37.387678" lon="-122.156095">
        <ele>96.8</ele>
        <time>2015-04-27T18:26:49Z</time>
      </trkpt>
      <trkpt lat="37.387702" lon="-122.156149">
        <ele>97</ele>
        <time>2015-04-27T18:26:52Z</time>
      </trkpt>
      <trkpt lat="37.387721" lon="-122.156206">
        <ele>97.1</ele>
        <time>2015-04-27T18:26:53Z</time>
      </trkpt>
      <trkpt lat="37.38774" lon="-122.156267">
        <ele>97.4</ele>
        <time>2015-04-27T18:26:56Z</time>
      </trkpt>
      <trkpt lat="37.38775" lon="-122.156302">
        <ele>97.7</ele>
        <time>2015-04-27T18:26:57Z</time>
      </trkpt>
      <trkpt lat="37.387769" lon="-122.15637">
        <ele>98.1</ele>
        <time>2015-04-27T18:26:58Z</time>
      </trkpt>
      <trkpt lat="37.387779" lon="-122.156403">
        <ele>98.2</ele>
        <time>2015-04-27T18:26:59Z</time>
      </trkpt>
      <trkpt lat="37.387791" lon="-122.156435">
        <ele>98.3</ele>
        <time>2015-04-27T18:27:00Z</time>
      </trkpt>
      <trkpt lat="37.387804" lon="-122.156467">
        <ele>98.1</ele>
        <time>2015-04-27T18:27:01Z</time>
      </trkpt>
      <trkpt lat="37.387818" lon="-122.1565">
        <ele>98.1</ele>
        <time>2015-04-27T18:27:02Z</time>
      </trkpt>
      <trkpt lat="37.38783" lon="-122.156535">
        <ele>98.1</ele>
        <time>2015-04-27T18:27:03Z</time>
      </trkpt>
      <trkpt lat="37.387842" lon="-122.156574">
        <ele>98</ele>
        <time>2015-04-27T18:27:04Z</time>
      </trkpt>
      <trkpt lat="37.38782" lon="-122.156629">
        <ele>99.3</ele>
        <time>2015-04-27T18:27:05Z</time>
      </trkpt>
      <trkpt lat="37.38783" lon="-122.156667">
        <ele>99.4</ele>
        <time>2015-04-27T18:27:06Z</time>
      </trkpt>
      <trkpt lat="37.38784" lon="-122.156707">
        <ele>99.4</ele>
        <time>2015-04-27T18:27:07Z</time>
      </trkpt>
      <trkpt lat="37.38785" lon="-122.156747">
        <ele>99.6</ele>
        <time>2015-04-27T18:27:08Z</time>
      </trkpt>
      <trkpt lat="37.387859" lon="-122.156784">
        <ele>99.6</ele>
        <time>2015-04-27T18:27:09Z</time>
      </trkpt>
      <trkpt lat="37.387877" lon="-122.156868">
        <ele>99.8</ele>
        <time>2015-04-27T18:27:11Z</time>
      </trkpt>
      <trkpt lat="37.387886" lon="-122.156911">
        <ele>99.9</ele>
        <time>2015-04-27T18:27:12Z</time>
      </trkpt>
      <trkpt lat="37.387895" lon="-122.156954">
        <ele>99.8</ele>
        <time>2015-04-27T18:27:13Z</time>
      </trkpt>
      <trkpt lat="37.387903" lon="-122.156992">
        <ele>99.8</ele>
        <time>2015-04-27T18:27:14Z</time>
      </trkpt>
      <trkpt lat="37.387914" lon="-122.157042">
        <ele>99.9</ele>
        <time>2015-04-27T18:27:15Z</time>
      </trkpt>
      <trkpt lat="37.387922" lon="-122.157079">
        <ele>99.9</ele>
        <time>2015-04-27T18:27:16Z</time>
      </trkpt>
      <trkpt lat="37.387966" lon="-122.157314">
        <ele>99.7</ele>
        <time>2015-04-27T18:27:21Z</time>
      </trkpt>
      <trkpt lat="37.387976" lon="-122.157365">
        <ele>99.6</ele>
        <time>2015-04-27T18:27:22Z</time>
      </trkpt>
      <trkpt lat="37.387986" lon="-122.157416">
        <ele>99.5</ele>
        <time>2015-04-27T18:27:23Z</time>
      </trkpt>
      <trkpt lat="37.387996" lon="-122.157472">
        <ele>99.4</ele>
        <time>2015-04-27T18:27:24Z</time>
      </trkpt>
      <trkpt lat="37.388005" lon="-122.157522">
        <ele>99.4</ele>
        <time>2015-04-27T18:27:25Z</time>
      </trkpt>
      <trkpt lat="37.388015" lon="-122.157575">
        <ele>99.2</ele>
        <time>2015-04-27T18:27:26Z</time>
      </trkpt>
      <trkpt lat="37.388028" lon="-122.15764">
        <ele>99</ele>
        <time>2015-04-27T18:27:27Z</time>
      </trkpt>
      <trkpt lat="37.388038" lon="-122.157695">
        <ele>98.9</ele>
        <time>2015-04-27T18:27:28Z</time>
      </trkpt>
      <trkpt lat="37.388049" lon="-122.157746">
        <ele>98.7</ele>
        <time>2015-04-27T18:27:29Z</time>
      </trkpt>
      <trkpt lat="37.388059" lon="-122.157801">
        <ele>98.6</ele>
        <time>2015-04-27T18:27:30Z</time>
      </trkpt>
      <trkpt lat="37.388073" lon="-122.157866">
        <ele>98.5</ele>
        <time>2015-04-27T18:27:31Z</time>
      </trkpt>
      <trkpt lat="37.388092" lon="-122.157954">
        <ele>98.2</ele>
        <time>2015-04-27T18:27:32Z</time>
      </trkpt>
      <trkpt lat="37.388105" lon="-122.158013">
        <ele>98</ele>
        <time>2015-04-27T18:27:33Z</time>
      </trkpt>
      <trkpt lat="37.388119" lon="-122.158078">
        <ele>97.7</ele>
        <time>2015-04-27T18:27:34Z</time>
      </trkpt>
      <trkpt lat="37.38813" lon="-122.158142">
        <ele>97.5</ele>
        <time>2015-04-27T18:27:35Z</time>
      </trkpt>
      <trkpt lat="37.388141" lon="-122.158211">
        <ele>97.3</ele>
        <time>2015-04-27T18:27:36Z</time>
      </trkpt>
      <trkpt lat="37.388142" lon="-122.1583">
        <ele>96.9</ele>
        <time>2015-04-27T18:27:37Z</time>
      </trkpt>
      <trkpt lat="37.388165" lon="-122.158367">
        <ele>96.5</ele>
        <time>2015-04-27T18:27:38Z</time>
      </trkpt>
      <trkpt lat="37.388187" lon="-122.158445">
        <ele>96.1</ele>
        <time>2015-04-27T18:27:39Z</time>
      </trkpt>
      <trkpt lat="37.388204" lon="-122.158525">
        <ele>95.8</ele>
        <time>2015-04-27T18:27:40Z</time>
      </trkpt>
      <trkpt lat="37.388228" lon="-122.158613">
        <ele>95.3</ele>
        <time>2015-04-27T18:27:41Z</time>
      </trkpt>
      <trkpt lat="37.388248" lon="-122.158708">
        <ele>94.8</ele>
        <time>2015-04-27T18:27:42Z</time>
      </trkpt>
      <trkpt lat="37.388267" lon="-122.158807">
        <ele>94.2</ele>
        <time>2015-04-27T18:27:43Z</time>
      </trkpt>
      <trkpt lat="37.388282" lon="-122.158907">
        <ele>93.7</ele>
        <time>2015-04-27T18:27:44Z</time>
      </trkpt>
      <trkpt lat="37.388308" lon="-122.159008">
        <ele>93</ele>
        <time>2015-04-27T18:27:45Z</time>
      </trkpt>
      <trkpt lat="37.388331" lon="-122.159113">
        <ele>92.6</ele>
        <time>2015-04-27T18:27:46Z</time>
      </trkpt>
      <trkpt lat="37.388347" lon="-122.159225">
        <ele>92</ele>
        <time>2015-04-27T18:27:47Z</time>
      </trkpt>
      <trkpt lat="37.388367" lon="-122.159333">
        <ele>91.3</ele>
        <time>2015-04-27T18:27:48Z</time>
      </trkpt>
      <trkpt lat="37.388379" lon="-122.159441">
        <ele>90.8</ele>
        <time>2015-04-27T18:27:49Z</time>
      </trkpt>
      <trkpt lat="37.388388" lon="-122.159562">
        <ele>90.1</ele>
        <time>2015-04-27T18:27:50Z</time>
      </trkpt>
      <trkpt lat="37.388401" lon="-122.159689">
        <ele>89.4</ele>
        <time>2015-04-27T18:27:51Z</time>
      </trkpt>
      <trkpt lat="37.388416" lon="-122.159825">
        <ele>88.7</ele>
        <time>2015-04-27T18:27:52Z</time>
      </trkpt>
      <trkpt lat="37.388423" lon="-122.159948">
        <ele>88.1</ele>
        <time>2015-04-27T18:27:53Z</time>
      </trkpt>
      <trkpt lat="37.388436" lon="-122.160071">
        <ele>87.5</ele>
        <time>2015-04-27T18:27:54Z</time>
      </trkpt>
      <trkpt lat="37.388451" lon="-122.160202">
        <ele>87</ele>
        <time>2015-04-27T18:27:55Z</time>
      </trkpt>
      <trkpt lat="37.388457" lon="-122.160338">
        <ele>86.5</ele>
        <time>2015-04-27T18:27:56Z</time>
      </trkpt>
      <trkpt lat="37.38848" lon="-122.160602">
        <ele>85.6</ele>
        <time>2015-04-27T18:27:58Z</time>
      </trkpt>
      <trkpt lat="37.388492" lon="-122.16073">
        <ele>85.2</ele>
        <time>2015-04-27T18:27:59Z</time>
      </trkpt>
      <trkpt lat="37.388506" lon="-122.160877">
        <ele>84.6</ele>
        <time>2015-04-27T18:28:00Z</time>
      </trkpt>
      <trkpt lat="37.388518" lon="-122.161011">
        <ele>84.3</ele>
        <time>2015-04-27T18:28:01Z</time>
      </trkpt>
      <trkpt lat="37.388535" lon="-122.161136">
        <ele>83.7</ele>
        <time>2015-04-27T18:28:02Z</time>
      </trkpt>
      <trkpt lat="37.388539" lon="-122.161262">
        <ele>83.4</ele>
        <time>2015-04-27T18:28:03Z</time>
      </trkpt>
      <trkpt lat="37.388541" lon="-122.161394">
        <ele>83.2</ele>
        <time>2015-04-27T18:28:04Z</time>
      </trkpt>
      <trkpt lat="37.388539" lon="-122.161547">
        <ele>82.8</ele>
        <time>2015-04-27T18:28:05Z</time>
      </trkpt>
      <trkpt lat="37.388536" lon="-122.161693">
        <ele>82.8</ele>
        <time>2015-04-27T18:28:06Z</time>
      </trkpt>
      <trkpt lat="37.388531" lon="-122.161819">
        <ele>82.8</ele>
        <time>2015-04-27T18:28:07Z</time>
      </trkpt>
      <trkpt lat="37.388524" lon="-122.161939">
        <ele>82.8</ele>
        <time>2015-04-27T18:28:08Z</time>
      </trkpt>
      <trkpt lat="37.388511" lon="-122.162065">
        <ele>83</ele>
        <time>2015-04-27T18:28:09Z</time>
      </trkpt>
      <trkpt lat="37.388508" lon="-122.162163">
        <ele>83.2</ele>
        <time>2015-04-27T18:28:10Z</time>
      </trkpt>
      <trkpt lat="37.388484" lon="-122.162267">
        <ele>83.3</ele>
        <time>2015-04-27T18:28:11Z</time>
      </trkpt>
      <trkpt lat="37.388469" lon="-122.162372">
        <ele>83.5</ele>
        <time>2015-04-27T18:28:12Z</time>
      </trkpt>
      <trkpt lat="37.388456" lon="-122.162462">
        <ele>83.2</ele>
        <time>2015-04-27T18:28:13Z</time>
      </trkpt>
      <trkpt lat="37.388426" lon="-122.162566">
        <ele>82.6</ele>
        <time>2015-04-27T18:28:14Z</time>
      </trkpt>
      <trkpt lat="37.388392" lon="-122.162666">
        <ele>81.7</ele>
        <time>2015-04-27T18:28:15Z</time>
      </trkpt>
      <trkpt lat="37.388357" lon="-122.16274">
        <ele>80.7</ele>
        <time>2015-04-27T18:28:16Z</time>
      </trkpt>
      <trkpt lat="37.388322" lon="-122.162832">
        <ele>79.6</ele>
        <time>2015-04-27T18:28:17Z</time>
      </trkpt>
      <trkpt lat="37.388284" lon="-122.162913">
        <ele>78.7</ele>
        <time>2015-04-27T18:28:18Z</time>
      </trkpt>
      <trkpt lat="37.388247" lon="-122.163003">
        <ele>77.7</ele>
        <time>2015-04-27T18:28:19Z</time>
      </trkpt>
      <trkpt lat="37.388212" lon="-122.163084">
        <ele>76.9</ele>
        <time>2015-04-27T18:28:20Z</time>
      </trkpt>
      <trkpt lat="37.388153" lon="-122.163387">
        <ele>74.2</ele>
        <time>2015-04-27T18:28:24Z</time>
      </trkpt>
      <trkpt lat="37.388155" lon="-122.163452">
        <ele>73.8</ele>
        <time>2015-04-27T18:28:25Z</time>
      </trkpt>
      <trkpt lat="37.388152" lon="-122.163525">
        <ele>73.5</ele>
        <time>2015-04-27T18:28:26Z</time>
      </trkpt>
      <trkpt lat="37.388168" lon="-122.163569">
        <ele>73.3</ele>
        <time>2015-04-27T18:28:27Z</time>
      </trkpt>
      <trkpt lat="37.388184" lon="-122.163627">
        <ele>73.2</ele>
        <time>2015-04-27T18:28:29Z</time>
      </trkpt>
      <trkpt lat="37.388189" lon="-122.163666">
        <ele>73.2</ele>
        <time>2015-04-27T18:28:33Z</time>
      </trkpt>
      <trkpt lat="37.388173" lon="-122.163705">
        <ele>73.3</ele>
        <time>2015-04-27T18:28:36Z</time>
      </trkpt>
      <trkpt lat="37.388135" lon="-122.163722">
        <ele>73.4</ele>
        <time>2015-04-27T18:28:38Z</time>
      </trkpt>
      <trkpt lat="37.388097" lon="-122.163733">
        <ele>73.4</ele>
        <time>2015-04-27T18:28:40Z</time>
      </trkpt>
      <trkpt lat="37.38796" lon="-122.163924">
        <ele>73.4</ele>
        <time>2015-04-27T18:28:42Z</time>
      </trkpt>
      <trkpt lat="37.387914" lon="-122.163925">
        <ele>73.5</ele>
        <time>2015-04-27T18:28:43Z</time>
      </trkpt>
      <trkpt lat="37.387858" lon="-122.163934">
        <ele>73.6</ele>
        <time>2015-04-27T18:28:44Z</time>
      </trkpt>
      <trkpt lat="37.387805" lon="-122.163968">
        <ele>73.5</ele>
        <time>2015-04-27T18:28:45Z</time>
      </trkpt>
      <trkpt lat="37.387753" lon="-122.163997">
        <ele>73.5</ele>
        <time>2015-04-27T18:28:46Z</time>
      </trkpt>
      <trkpt lat="37.387693" lon="-122.164012">
        <ele>73.5</ele>
        <time>2015-04-27T18:28:47Z</time>
      </trkpt>
      <trkpt lat="37.387638" lon="-122.164025">
        <ele>73.5</ele>
        <time>2015-04-27T18:28:48Z</time>
      </trkpt>
      <trkpt lat="37.387564" lon="-122.164026">
        <ele>73.4</ele>
        <time>2015-04-27T18:28:49Z</time>
      </trkpt>
      <trkpt lat="37.387525" lon="-122.16402">
        <ele>73.5</ele>
        <time>2015-04-27T18:28:50Z</time>
      </trkpt>
      <trkpt lat="37.387472" lon="-122.16403">
        <ele>73.4</ele>
        <time>2015-04-27T18:28:51Z</time>
      </trkpt>
      <trkpt lat="37.38746" lon="-122.163979">
        <ele>73.8</ele>
        <time>2015-04-27T18:28:52Z</time>
      </trkpt>
      <trkpt lat="37.387347" lon="-122.164046">
        <ele>73.6</ele>
        <time>2015-04-27T18:28:53Z</time>
      </trkpt>
      <trkpt lat="37.387308" lon="-122.164068">
        <ele>73.6</ele>
        <time>2015-04-27T18:28:54Z</time>
      </trkpt>
      <trkpt lat="37.387257" lon="-122.164078">
        <ele>73.7</ele>
        <time>2015-04-27T18:28:55Z</time>
      </trkpt>
      <trkpt lat="37.387205" lon="-122.164103">
        <ele>73.7</ele>
        <time>2015-04-27T18:28:56Z</time>
      </trkpt>
      <trkpt lat="37.38717" lon="-122.164119">
        <ele>73.7</ele>
        <time>2015-04-27T18:28:57Z</time>
      </trkpt>
      <trkpt lat="37.387087" lon="-122.164153">
        <ele>73.9</ele>
        <time>2015-04-27T18:28:58Z</time>
      </trkpt>
      <trkpt lat="37.387047" lon="-122.164181">
        <ele>73.8</ele>
        <time>2015-04-27T18:28:59Z</time>
      </trkpt>
      <trkpt lat="37.386985" lon="-122.164214">
        <ele>73.8</ele>
        <time>2015-04-27T18:29:00Z</time>
      </trkpt>
      <trkpt lat="37.386937" lon="-122.164245">
        <ele>73.8</ele>
        <time>2015-04-27T18:29:01Z</time>
      </trkpt>
      <trkpt lat="37.386911" lon="-122.164261">
        <ele>73.8</ele>
        <time>2015-04-27T18:29:02Z</time>
      </trkpt>
      <trkpt lat="37.386878" lon="-122.164287">
        <ele>73.8</ele>
        <time>2015-04-27T18:29:04Z</time>
      </trkpt>
      <trkpt lat="37.386797" lon="-122.164359">
        <ele>73.7</ele>
        <time>2015-04-27T18:29:05Z</time>
      </trkpt>
      <trkpt lat="37.386757" lon="-122.164389">
        <ele>74</ele>
        <time>2015-04-27T18:29:06Z</time>
      </trkpt>
      <trkpt lat="37.386697" lon="-122.164421">
        <ele>74.3</ele>
        <time>2015-04-27T18:29:07Z</time>
      </trkpt>
      <trkpt lat="37.386644" lon="-122.164468">
        <ele>74.4</ele>
        <time>2015-04-27T18:29:08Z</time>
      </trkpt>
      <trkpt lat="37.386591" lon="-122.164512">
        <ele>74.5</ele>
        <time>2015-04-27T18:29:09Z</time>
      </trkpt>
      <trkpt lat="37.386551" lon="-122.16456">
        <ele>74.5</ele>
        <time>2015-04-27T18:29:10Z</time>
      </trkpt>
      <trkpt lat="37.386509" lon="-122.164589">
        <ele>74.6</ele>
        <time>2015-04-27T18:29:11Z</time>
      </trkpt>
      <trkpt lat="37.386308" lon="-122.164748">
        <ele>74.8</ele>
        <time>2015-04-27T18:29:16Z</time>
      </trkpt>
      <trkpt lat="37.386269" lon="-122.164784">
        <ele>74.8</ele>
        <time>2015-04-27T18:29:17Z</time>
      </trkpt>
      <trkpt lat="37.386232" lon="-122.164819">
        <ele>74.9</ele>
        <time>2015-04-27T18:29:18Z</time>
      </trkpt>
      <trkpt lat="37.386187" lon="-122.164858">
        <ele>74.9</ele>
        <time>2015-04-27T18:29:19Z</time>
      </trkpt>
      <trkpt lat="37.386117" lon="-122.164913">
        <ele>74.9</ele>
        <time>2015-04-27T18:29:20Z</time>
      </trkpt>
      <trkpt lat="37.386073" lon="-122.164957">
        <ele>74.9</ele>
        <time>2015-04-27T18:29:21Z</time>
      </trkpt>
      <trkpt lat="37.38602" lon="-122.165022">
        <ele>74.9</ele>
        <time>2015-04-27T18:29:22Z</time>
      </trkpt>
      <trkpt lat="37.385982" lon="-122.165063">
        <ele>74.9</ele>
        <time>2015-04-27T18:29:23Z</time>
      </trkpt>
      <trkpt lat="37.385941" lon="-122.165103">
        <ele>75.2</ele>
        <time>2015-04-27T18:29:24Z</time>
      </trkpt>
      <trkpt lat="37.385894" lon="-122.165139">
        <ele>75.3</ele>
        <time>2015-04-27T18:29:25Z</time>
      </trkpt>
      <trkpt lat="37.38585" lon="-122.165166">
        <ele>75.4</ele>
        <time>2015-04-27T18:29:26Z</time>
      </trkpt>
      <trkpt lat="37.38581" lon="-122.165201">
        <ele>75.4</ele>
        <time>2015-04-27T18:29:27Z</time>
      </trkpt>
      <trkpt lat="37.385768" lon="-122.165243">
        <ele>75.4</ele>
        <time>2015-04-27T18:29:28Z</time>
      </trkpt>
      <trkpt lat="37.385724" lon="-122.165277">
        <ele>75.7</ele>
        <time>2015-04-27T18:29:29Z</time>
      </trkpt>
      <trkpt lat="37.38567" lon="-122.165307">
        <ele>75.8</ele>
        <time>2015-04-27T18:29:30Z</time>
      </trkpt>
      <trkpt lat="37.385643" lon="-122.165317">
        <ele>75.8</ele>
        <time>2015-04-27T18:29:31Z</time>
      </trkpt>
      <trkpt lat="37.385581" lon="-122.165349">
        <ele>76</ele>
        <time>2015-04-27T18:29:32Z</time>
      </trkpt>
      <trkpt lat="37.38554" lon="-122.165369">
        <ele>76</ele>
        <time>2015-04-27T18:29:33Z</time>
      </trkpt>
      <trkpt lat="37.385514" lon="-122.165397">
        <ele>76.1</ele>
        <time>2015-04-27T18:29:34Z</time>
      </trkpt>
      <trkpt lat="37.38546" lon="-122.16542">
        <ele>76.2</ele>
        <time>2015-04-27T18:29:35Z</time>
      </trkpt>
      <trkpt lat="37.385402" lon="-122.165446">
        <ele>76.4</ele>
        <time>2015-04-27T18:29:36Z</time>
      </trkpt>
      <trkpt lat="37.385356" lon="-122.16547">
        <ele>76.5</ele>
        <time>2015-04-27T18:29:37Z</time>
      </trkpt>
      <trkpt lat="37.385318" lon="-122.165489">
        <ele>76.6</ele>
        <time>2015-04-27T18:29:38Z</time>
      </trkpt>
      <trkpt lat="37.385255" lon="-122.165505">
        <ele>76.7</ele>
        <time>2015-04-27T18:29:39Z</time>
      </trkpt>
      <trkpt lat="37.385182" lon="-122.165524">
        <ele>76.8</ele>
        <time>2015-04-27T18:29:40Z</time>
      </trkpt>
      <trkpt lat="37.385126" lon="-122.165537">
        <ele>77</ele>
        <time>2015-04-27T18:29:41Z</time>
      </trkpt>
      <trkpt lat="37.385068" lon="-122.165558">
        <ele>77.1</ele>
        <time>2015-04-27T18:29:42Z</time>
      </trkpt>
      <trkpt lat="37.385004" lon="-122.165582">
        <ele>77.3</ele>
        <time>2015-04-27T18:29:43Z</time>
      </trkpt>
      <trkpt lat="37.384961" lon="-122.165626">
        <ele>77.6</ele>
        <time>2015-04-27T18:29:44Z</time>
      </trkpt>
      <trkpt lat="37.384909" lon="-122.165837">
        <ele>78.4</ele>
        <time>2015-04-27T18:29:47Z</time>
      </trkpt>
      <trkpt lat="37.384911" lon="-122.165901">
        <ele>78.7</ele>
        <time>2015-04-27T18:29:48Z</time>
      </trkpt>
      <trkpt lat="37.384913" lon="-122.165969">
        <ele>79</ele>
        <time>2015-04-27T18:29:49Z</time>
      </trkpt>
      <trkpt lat="37.384915" lon="-122.166034">
        <ele>79.5</ele>
        <time>2015-04-27T18:29:50Z</time>
      </trkpt>
      <trkpt lat="37.384917" lon="-122.166106">
        <ele>80.1</ele>
        <time>2015-04-27T18:29:51Z</time>
      </trkpt>
      <trkpt lat="37.384919" lon="-122.166169">
        <ele>80.5</ele>
        <time>2015-04-27T18:29:52Z</time>
      </trkpt>
      <trkpt lat="37.384921" lon="-122.166228">
        <ele>80.9</ele>
        <time>2015-04-27T18:29:53Z</time>
      </trkpt>
      <trkpt lat="37.384923" lon="-122.16629">
        <ele>81.1</ele>
        <time>2015-04-27T18:29:55Z</time>
      </trkpt>
      <trkpt lat="37.384927" lon="-122.166429">
        <ele>81.6</ele>
        <time>2015-04-27T18:29:56Z</time>
      </trkpt>
      <trkpt lat="37.38493" lon="-122.166512">
        <ele>81.6</ele>
        <time>2015-04-27T18:29:57Z</time>
      </trkpt>
      <trkpt lat="37.384932" lon="-122.166562">
        <ele>81.6</ele>
        <time>2015-04-27T18:29:58Z</time>
      </trkpt>
      <trkpt lat="37.384933" lon="-122.166624">
        <ele>81.7</ele>
        <time>2015-04-27T18:29:59Z</time>
      </trkpt>
      <trkpt lat="37.384936" lon="-122.1667">
        <ele>81.8</ele>
        <time>2015-04-27T18:30:00Z</time>
      </trkpt>
      <trkpt lat="37.384938" lon="-122.166769">
        <ele>81.8</ele>
        <time>2015-04-27T18:30:01Z</time>
      </trkpt>
      <trkpt lat="37.384941" lon="-122.166855">
        <ele>81.8</ele>
        <time>2015-04-27T18:30:02Z</time>
      </trkpt>
      <trkpt lat="37.384943" lon="-122.166924">
        <ele>81.9</ele>
        <time>2015-04-27T18:30:03Z</time>
      </trkpt>
      <trkpt lat="37.384946" lon="-122.166988">
        <ele>82</ele>
        <time>2015-04-27T18:30:04Z</time>
      </trkpt>
      <trkpt lat="37.384978" lon="-122.167061">
        <ele>81.9</ele>
        <time>2015-04-27T18:30:05Z</time>
      </trkpt>
      <trkpt lat="37.384986" lon="-122.167117">
        <ele>81.9</ele>
        <time>2015-04-27T18:30:06Z</time>
      </trkpt>
      <trkpt lat="37.384988" lon="-122.167203">
        <ele>82</ele>
        <time>2015-04-27T18:30:07Z</time>
      </trkpt>
      <trkpt lat="37.384986" lon="-122.167296">
        <ele>82.3</ele>
        <time>2015-04-27T18:30:08Z</time>
      </trkpt>
      <trkpt lat="37.384982" lon="-122.167377">
        <ele>82.5</ele>
        <time>2015-04-27T18:30:09Z</time>
      </trkpt>
      <trkpt lat="37.384989" lon="-122.167434">
        <ele>82.5</ele>
        <time>2015-04-27T18:30:10Z</time>
      </trkpt>
      <trkpt lat="37.38498" lon="-122.167514">
        <ele>82.6</ele>
        <time>2015-04-27T18:30:11Z</time>
      </trkpt>
      <trkpt lat="37.384991" lon="-122.167557">
        <ele>82.7</ele>
        <time>2015-04-27T18:30:12Z</time>
      </trkpt>
      <trkpt lat="37.384995" lon="-122.167615">
        <ele>82.7</ele>
        <time>2015-04-27T18:30:13Z</time>
      </trkpt>
      <trkpt lat="37.384997" lon="-122.16769">
        <ele>82.8</ele>
        <time>2015-04-27T18:30:14Z</time>
      </trkpt>
      <trkpt lat="37.385021" lon="-122.167752">
        <ele>83</ele>
        <time>2015-04-27T18:30:15Z</time>
      </trkpt>
      <trkpt lat="37.385027" lon="-122.167819">
        <ele>83.2</ele>
        <time>2015-04-27T18:30:16Z</time>
      </trkpt>
      <trkpt lat="37.385034" lon="-122.167896">
        <ele>83.3</ele>
        <time>2015-04-27T18:30:17Z</time>
      </trkpt>
      <trkpt lat="37.385047" lon="-122.167953">
        <ele>83.6</ele>
        <time>2015-04-27T18:30:18Z</time>
      </trkpt>
      <trkpt lat="37.38506" lon="-122.16802">
        <ele>84</ele>
        <time>2015-04-27T18:30:19Z</time>
      </trkpt>
      <trkpt lat="37.385076" lon="-122.168085">
        <ele>84.1</ele>
        <time>2015-04-27T18:30:20Z</time>
      </trkpt>
      <trkpt lat="37.385093" lon="-122.168152">
        <ele>84</ele>
        <time>2015-04-27T18:30:21Z</time>
      </trkpt>
      <trkpt lat="37.385101" lon="-122.168217">
        <ele>83.7</ele>
        <time>2015-04-27T18:30:22Z</time>
      </trkpt>
      <trkpt lat="37.385114" lon="-122.168288">
        <ele>83.6</ele>
        <time>2015-04-27T18:30:23Z</time>
      </trkpt>
      <trkpt lat="37.385129" lon="-122.168359">
        <ele>83.8</ele>
        <time>2015-04-27T18:30:24Z</time>
      </trkpt>
      <trkpt lat="37.385158" lon="-122.168425">
        <ele>84.3</ele>
        <time>2015-04-27T18:30:25Z</time>
      </trkpt>
      <trkpt lat="37.385157" lon="-122.168489">
        <ele>83.9</ele>
        <time>2015-04-27T18:30:26Z</time>
      </trkpt>
      <trkpt lat="37.385168" lon="-122.168559">
        <ele>83.8</ele>
        <time>2015-04-27T18:30:27Z</time>
      </trkpt>
      <trkpt lat="37.385179" lon="-122.168629">
        <ele>83.7</ele>
        <time>2015-04-27T18:30:29Z</time>
      </trkpt>
      <trkpt lat="37.385205" lon="-122.168766">
        <ele>83.8</ele>
        <time>2015-04-27T18:30:30Z</time>
      </trkpt>
      <trkpt lat="37.385225" lon="-122.168828">
        <ele>84</ele>
        <time>2015-04-27T18:30:31Z</time>
      </trkpt>
      <trkpt lat="37.385242" lon="-122.168895">
        <ele>84.1</ele>
        <time>2015-04-27T18:30:32Z</time>
      </trkpt>
      <trkpt lat="37.385252" lon="-122.168959">
        <ele>84.1</ele>
        <time>2015-04-27T18:30:33Z</time>
      </trkpt>
      <trkpt lat="37.385268" lon="-122.169025">
        <ele>84.1</ele>
        <time>2015-04-27T18:30:34Z</time>
      </trkpt>
      <trkpt lat="37.385285" lon="-122.169081">
        <ele>84.2</ele>
        <time>2015-04-27T18:30:35Z</time>
      </trkpt>
      <trkpt lat="37.385303" lon="-122.16915">
        <ele>84.3</ele>
        <time>2015-04-27T18:30:36Z</time>
      </trkpt>
      <trkpt lat="37.385321" lon="-122.169215">
        <ele>84.3</ele>
        <time>2015-04-27T18:30:37Z</time>
      </trkpt>
      <trkpt lat="37.385323" lon="-122.169286">
        <ele>84.1</ele>
        <time>2015-04-27T18:30:38Z</time>
      </trkpt>
      <trkpt lat="37.385341" lon="-122.169359">
        <ele>84.3</ele>
        <time>2015-04-27T18:30:39Z</time>
      </trkpt>
      <trkpt lat="37.385358" lon="-122.169423">
        <ele>84.2</ele>
        <time>2015-04-27T18:30:40Z</time>
      </trkpt>
      <trkpt lat="37.385381" lon="-122.169498">
        <ele>84.3</ele>
        <time>2015-04-27T18:30:41Z</time>
      </trkpt>
      <trkpt lat="37.385411" lon="-122.169563">
        <ele>84.4</ele>
        <time>2015-04-27T18:30:42Z</time>
      </trkpt>
      <trkpt lat="37.385433" lon="-122.169629">
        <ele>84.4</ele>
        <time>2015-04-27T18:30:43Z</time>
      </trkpt>
      <trkpt lat="37.385468" lon="-122.169697">
        <ele>84.5</ele>
        <time>2015-04-27T18:30:44Z</time>
      </trkpt>
      <trkpt lat="37.385482" lon="-122.169769">
        <ele>84.4</ele>
        <time>2015-04-27T18:30:45Z</time>
      </trkpt>
      <trkpt lat="37.385506" lon="-122.16984">
        <ele>84.5</ele>
        <time>2015-04-27T18:30:46Z</time>
      </trkpt>
      <trkpt lat="37.385533" lon="-122.169903">
        <ele>84.7</ele>
        <time>2015-04-27T18:30:47Z</time>
      </trkpt>
      <trkpt lat="37.385573" lon="-122.169973">
        <ele>84.7</ele>
        <time>2015-04-27T18:30:48Z</time>
      </trkpt>
      <trkpt lat="37.385599" lon="-122.170031">
        <ele>84.8</ele>
        <time>2015-04-27T18:30:49Z</time>
      </trkpt>
      <trkpt lat="37.38563" lon="-122.170101">
        <ele>84.9</ele>
        <time>2015-04-27T18:30:50Z</time>
      </trkpt>
      <trkpt lat="37.385663" lon="-122.170171">
        <ele>85.1</ele>
        <time>2015-04-27T18:30:51Z</time>
      </trkpt>
      <trkpt lat="37.385699" lon="-122.170236">
        <ele>85.3</ele>
        <time>2015-04-27T18:30:52Z</time>
      </trkpt>
      <trkpt lat="37.385728" lon="-122.170304">
        <ele>85.7</ele>
        <time>2015-04-27T18:30:53Z</time>
      </trkpt>
      <trkpt lat="37.385746" lon="-122.17038">
        <ele>85.9</ele>
        <time>2015-04-27T18:30:54Z</time>
      </trkpt>
      <trkpt lat="37.385764" lon="-122.170451">
        <ele>86.2</ele>
        <time>2015-04-27T18:30:55Z</time>
      </trkpt>
      <trkpt lat="37.385777" lon="-122.170515">
        <ele>86.2</ele>
        <time>2015-04-27T18:30:56Z</time>
      </trkpt>
      <trkpt lat="37.385801" lon="-122.17058">
        <ele>86.6</ele>
        <time>2015-04-27T18:30:57Z</time>
      </trkpt>
      <trkpt lat="37.385821" lon="-122.170628">
        <ele>86.5</ele>
        <time>2015-04-27T18:30:58Z</time>
      </trkpt>
      <trkpt lat="37.385851" lon="-122.170687">
        <ele>86.7</ele>
        <time>2015-04-27T18:31:00Z</time>
      </trkpt>
      <trkpt lat="37.385907" lon="-122.170789">
        <ele>87.2</ele>
        <time>2015-04-27T18:31:01Z</time>
      </trkpt>
      <trkpt lat="37.385927" lon="-122.170854">
        <ele>87.1</ele>
        <time>2015-04-27T18:31:02Z</time>
      </trkpt>
      <trkpt lat="37.385963" lon="-122.170905">
        <ele>87.3</ele>
        <time>2015-04-27T18:31:04Z</time>
      </trkpt>
      <trkpt lat="37.385986" lon="-122.170953">
        <ele>87.5</ele>
        <time>2015-04-27T18:31:05Z</time>
      </trkpt>
      <trkpt lat="37.386006" lon="-122.171012">
        <ele>87.3</ele>
        <time>2015-04-27T18:31:06Z</time>
      </trkpt>
      <trkpt lat="37.386031" lon="-122.171068">
        <ele>87.4</ele>
        <time>2015-04-27T18:31:07Z</time>
      </trkpt>
      <trkpt lat="37.386046" lon="-122.171143">
        <ele>87.4</ele>
        <time>2015-04-27T18:31:08Z</time>
      </trkpt>
      <trkpt lat="37.386062" lon="-122.171198">
        <ele>87.2</ele>
        <time>2015-04-27T18:31:09Z</time>
      </trkpt>
      <trkpt lat="37.386102" lon="-122.171344">
        <ele>87.5</ele>
        <time>2015-04-27T18:31:10Z</time>
      </trkpt>
      <trkpt lat="37.386117" lon="-122.171403">
        <ele>87.5</ele>
        <time>2015-04-27T18:31:12Z</time>
      </trkpt>
      <trkpt lat="37.386141" lon="-122.171465">
        <ele>87.5</ele>
        <time>2015-04-27T18:31:13Z</time>
      </trkpt>
      <trkpt lat="37.38616" lon="-122.171538">
        <ele>87.7</ele>
        <time>2015-04-27T18:31:14Z</time>
      </trkpt>
      <trkpt lat="37.386172" lon="-122.171608">
        <ele>88</ele>
        <time>2015-04-27T18:31:15Z</time>
      </trkpt>
      <trkpt lat="37.386192" lon="-122.171658">
        <ele>88.2</ele>
        <time>2015-04-27T18:31:16Z</time>
      </trkpt>
      <trkpt lat="37.386215" lon="-122.171733">
        <ele>89.1</ele>
        <time>2015-04-27T18:31:17Z</time>
      </trkpt>
      <trkpt lat="37.386219" lon="-122.171785">
        <ele>88.4</ele>
        <time>2015-04-27T18:31:18Z</time>
      </trkpt>
      <trkpt lat="37.386232" lon="-122.171867">
        <ele>88.4</ele>
        <time>2015-04-27T18:31:19Z</time>
      </trkpt>
      <trkpt lat="37.386253" lon="-122.171896">
        <ele>88.7</ele>
        <time>2015-04-27T18:31:20Z</time>
      </trkpt>
      <trkpt lat="37.38626" lon="-122.171972">
        <ele>88.4</ele>
        <time>2015-04-27T18:31:21Z</time>
      </trkpt>
      <trkpt lat="37.386279" lon="-122.172028">
        <ele>88.2</ele>
        <time>2015-04-27T18:31:22Z</time>
      </trkpt>
      <trkpt lat="37.386299" lon="-122.172091">
        <ele>88.5</ele>
        <time>2015-04-27T18:31:23Z</time>
      </trkpt>
      <trkpt lat="37.386335" lon="-122.172204">
        <ele>88.5</ele>
        <time>2015-04-27T18:31:24Z</time>
      </trkpt>
      <trkpt lat="37.386366" lon="-122.172258">
        <ele>88.6</ele>
        <time>2015-04-27T18:31:25Z</time>
      </trkpt>
      <trkpt lat="37.386389" lon="-122.172309">
        <ele>89</ele>
        <time>2015-04-27T18:31:26Z</time>
      </trkpt>
      <trkpt lat="37.386405" lon="-122.172367">
        <ele>88.8</ele>
        <time>2015-04-27T18:31:27Z</time>
      </trkpt>
      <trkpt lat="37.386429" lon="-122.172412">
        <ele>89.4</ele>
        <time>2015-04-27T18:31:28Z</time>
      </trkpt>
      <trkpt lat="37.386435" lon="-122.172485">
        <ele>89.1</ele>
        <time>2015-04-27T18:31:29Z</time>
      </trkpt>
      <trkpt lat="37.386448" lon="-122.172548">
        <ele>89.6</ele>
        <time>2015-04-27T18:31:30Z</time>
      </trkpt>
      <trkpt lat="37.386486" lon="-122.172598">
        <ele>90.9</ele>
        <time>2015-04-27T18:31:31Z</time>
      </trkpt>
      <trkpt lat="37.386511" lon="-122.172647">
        <ele>91.5</ele>
        <time>2015-04-27T18:31:32Z</time>
      </trkpt>
      <trkpt lat="37.386518" lon="-122.172725">
        <ele>91</ele>
        <time>2015-04-27T18:31:33Z</time>
      </trkpt>
      <trkpt lat="37.386532" lon="-122.172789">
        <ele>90.6</ele>
        <time>2015-04-27T18:31:34Z</time>
      </trkpt>
      <trkpt lat="37.386548" lon="-122.172852">
        <ele>90.9</ele>
        <time>2015-04-27T18:31:35Z</time>
      </trkpt>
      <trkpt lat="37.386569" lon="-122.172917">
        <ele>90.9</ele>
        <time>2015-04-27T18:31:36Z</time>
      </trkpt>
      <trkpt lat="37.386593" lon="-122.172975">
        <ele>91.4</ele>
        <time>2015-04-27T18:31:37Z</time>
      </trkpt>
      <trkpt lat="37.386608" lon="-122.173006">
        <ele>91.7</ele>
        <time>2015-04-27T18:31:38Z</time>
      </trkpt>
      <trkpt lat="37.38662" lon="-122.173054">
        <ele>91.9</ele>
        <time>2015-04-27T18:31:39Z</time>
      </trkpt>
      <trkpt lat="37.386634" lon="-122.17309">
        <ele>92</ele>
        <time>2015-04-27T18:31:40Z</time>
      </trkpt>
      <trkpt lat="37.386647" lon="-122.173154">
        <ele>92.1</ele>
        <time>2015-04-27T18:31:41Z</time>
      </trkpt>
      <trkpt lat="37.386661" lon="-122.173215">
        <ele>92.3</ele>
        <time>2015-04-27T18:31:43Z</time>
      </trkpt>
      <trkpt lat="37.386681" lon="-122.173309">
        <ele>92.6</ele>
        <time>2015-04-27T18:31:44Z</time>
      </trkpt>
      <trkpt lat="37.3867" lon="-122.173353">
        <ele>92.7</ele>
        <time>2015-04-27T18:31:46Z</time>
      </trkpt>
      <trkpt lat="37.386738" lon="-122.173455">
        <ele>92.9</ele>
        <time>2015-04-27T18:31:47Z</time>
      </trkpt>
      <trkpt lat="37.386754" lon="-122.173507">
        <ele>92.8</ele>
        <time>2015-04-27T18:31:49Z</time>
      </trkpt>
      <trkpt lat="37.386738" lon="-122.173577">
        <ele>92.1</ele>
        <time>2015-04-27T18:31:50Z</time>
      </trkpt>
      <trkpt lat="37.386788" lon="-122.173696">
        <ele>92.2</ele>
        <time>2015-04-27T18:31:51Z</time>
      </trkpt>
      <trkpt lat="37.386806" lon="-122.173756">
        <ele>92</ele>
        <time>2015-04-27T18:31:53Z</time>
      </trkpt>
      <trkpt lat="37.386838" lon="-122.173803">
        <ele>91.8</ele>
        <time>2015-04-27T18:31:54Z</time>
      </trkpt>
      <trkpt lat="37.386863" lon="-122.173938">
        <ele>92.1</ele>
        <time>2015-04-27T18:31:55Z</time>
      </trkpt>
      <trkpt lat="37.38687" lon="-122.174019">
        <ele>92.2</ele>
        <time>2015-04-27T18:31:57Z</time>
      </trkpt>
      <trkpt lat="37.386878" lon="-122.174092">
        <ele>92.4</ele>
        <time>2015-04-27T18:31:58Z</time>
      </trkpt>
      <trkpt lat="37.386902" lon="-122.174232">
        <ele>92.6</ele>
        <time>2015-04-27T18:31:59Z</time>
      </trkpt>
      <trkpt lat="37.386901" lon="-122.174311">
        <ele>92.6</ele>
        <time>2015-04-27T18:32:01Z</time>
      </trkpt>
      <trkpt lat="37.386919" lon="-122.174436">
        <ele>93</ele>
        <time>2015-04-27T18:32:02Z</time>
      </trkpt>
      <trkpt lat="37.386929" lon="-122.174495">
        <ele>93.3</ele>
        <time>2015-04-27T18:32:04Z</time>
      </trkpt>
      <trkpt lat="37.38694" lon="-122.174628">
        <ele>93.4</ele>
        <time>2015-04-27T18:32:05Z</time>
      </trkpt>
      <trkpt lat="37.386954" lon="-122.174682">
        <ele>93.6</ele>
        <time>2015-04-27T18:32:06Z</time>
      </trkpt>
      <trkpt lat="37.386961" lon="-122.174746">
        <ele>93.7</ele>
        <time>2015-04-27T18:32:07Z</time>
      </trkpt>
      <trkpt lat="37.386971" lon="-122.174812">
        <ele>94</ele>
        <time>2015-04-27T18:32:08Z</time>
      </trkpt>
      <trkpt lat="37.386979" lon="-122.174875">
        <ele>94.3</ele>
        <time>2015-04-27T18:32:09Z</time>
      </trkpt>
      <trkpt lat="37.38698" lon="-122.174936">
        <ele>94.2</ele>
        <time>2015-04-27T18:32:10Z</time>
      </trkpt>
      <trkpt lat="37.386983" lon="-122.174993">
        <ele>94.2</ele>
        <time>2015-04-27T18:32:12Z</time>
      </trkpt>
      <trkpt lat="37.387009" lon="-122.175103">
        <ele>94.6</ele>
        <time>2015-04-27T18:32:13Z</time>
      </trkpt>
      <trkpt lat="37.387014" lon="-122.175161">
        <ele>94.7</ele>
        <time>2015-04-27T18:32:14Z</time>
      </trkpt>
      <trkpt lat="37.387022" lon="-122.175233">
        <ele>94.8</ele>
        <time>2015-04-27T18:32:15Z</time>
      </trkpt>
      <trkpt lat="37.387023" lon="-122.175287">
        <ele>94.8</ele>
        <time>2015-04-27T18:32:17Z</time>
      </trkpt>
      <trkpt lat="37.387038" lon="-122.175407">
        <ele>95.1</ele>
        <time>2015-04-27T18:32:18Z</time>
      </trkpt>
      <trkpt lat="37.387049" lon="-122.175464">
        <ele>95.3</ele>
        <time>2015-04-27T18:32:19Z</time>
      </trkpt>
      <trkpt lat="37.387056" lon="-122.175521">
        <ele>95.3</ele>
        <time>2015-04-27T18:32:20Z</time>
      </trkpt>
      <trkpt lat="37.387056" lon="-122.175588">
        <ele>95.4</ele>
        <time>2015-04-27T18:32:21Z</time>
      </trkpt>
      <trkpt lat="37.387057" lon="-122.175644">
        <ele>95.5</ele>
        <time>2015-04-27T18:32:22Z</time>
      </trkpt>
      <trkpt lat="37.387073" lon="-122.175695">
        <ele>95.7</ele>
        <time>2015-04-27T18:32:23Z</time>
      </trkpt>
      <trkpt lat="37.387084" lon="-122.175743">
        <ele>95.7</ele>
        <time>2015-04-27T18:32:24Z</time>
      </trkpt>
      <trkpt lat="37.387091" lon="-122.175791">
        <ele>95.8</ele>
        <time>2015-04-27T18:32:25Z</time>
      </trkpt>
      <trkpt lat="37.387099" lon="-122.175839">
        <ele>96</ele>
        <time>2015-04-27T18:32:26Z</time>
      </trkpt>
      <trkpt lat="37.387109" lon="-122.175891">
        <ele>96.2</ele>
        <time>2015-04-27T18:32:28Z</time>
      </trkpt>
      <trkpt lat="37.387115" lon="-122.175962">
        <ele>96.3</ele>
        <time>2015-04-27T18:32:29Z</time>
      </trkpt>
      <trkpt lat="37.387117" lon="-122.176005">
        <ele>96.6</ele>
        <time>2015-04-27T18:32:30Z</time>
      </trkpt>
      <trkpt lat="37.387123" lon="-122.176049">
        <ele>96.9</ele>
        <time>2015-04-27T18:32:32Z</time>
      </trkpt>
      <trkpt lat="37.387128" lon="-122.176093">
        <ele>97.2</ele>
        <time>2015-04-27T18:32:33Z</time>
      </trkpt>
      <trkpt lat="37.387131" lon="-122.176135">
        <ele>97.6</ele>
        <time>2015-04-27T18:32:34Z</time>
      </trkpt>
      <trkpt lat="37.387129" lon="-122.176181">
        <ele>98</ele>
        <time>2015-04-27T18:32:35Z</time>
      </trkpt>
      <trkpt lat="37.387131" lon="-122.176223">
        <ele>98.4</ele>
        <time>2015-04-27T18:32:36Z</time>
      </trkpt>
      <trkpt lat="37.387131" lon="-122.176264">
        <ele>98.7</ele>
        <time>2015-04-27T18:32:37Z</time>
      </trkpt>
      <trkpt lat="37.387132" lon="-122.176304">
        <ele>99.1</ele>
        <time>2015-04-27T18:32:38Z</time>
      </trkpt>
      <trkpt lat="37.387134" lon="-122.176343">
        <ele>99.5</ele>
        <time>2015-04-27T18:32:39Z</time>
      </trkpt>
      <trkpt lat="37.387135" lon="-122.176415">
        <ele>100.1</ele>
        <time>2015-04-27T18:32:40Z</time>
      </trkpt>
      <trkpt lat="37.387131" lon="-122.176451">
        <ele>100.6</ele>
        <time>2015-04-27T18:32:41Z</time>
      </trkpt>
      <trkpt lat="37.387126" lon="-122.176489">
        <ele>101.1</ele>
        <time>2015-04-27T18:32:42Z</time>
      </trkpt>
      <trkpt lat="37.387123" lon="-122.176524">
        <ele>101.4</ele>
        <time>2015-04-27T18:32:44Z</time>
      </trkpt>
      <trkpt lat="37.38712" lon="-122.17656">
        <ele>101.8</ele>
        <time>2015-04-27T18:32:45Z</time>
      </trkpt>
      <trkpt lat="37.387117" lon="-122.176597">
        <ele>102.2</ele>
        <time>2015-04-27T18:32:46Z</time>
      </trkpt>
      <trkpt lat="37.387113" lon="-122.176639">
        <ele>102.5</ele>
        <time>2015-04-27T18:32:47Z</time>
      </trkpt>
      <trkpt lat="37.38711" lon="-122.176682">
        <ele>102.8</ele>
        <time>2015-04-27T18:32:48Z</time>
      </trkpt>
      <trkpt lat="37.387099" lon="-122.176762">
        <ele>103.1</ele>
        <time>2015-04-27T18:32:49Z</time>
      </trkpt>
      <trkpt lat="37.387091" lon="-122.176803">
        <ele>103.4</ele>
        <time>2015-04-27T18:32:50Z</time>
      </trkpt>
      <trkpt lat="37.387082" lon="-122.176846">
        <ele>103.6</ele>
        <time>2015-04-27T18:32:51Z</time>
      </trkpt>
      <trkpt lat="37.387071" lon="-122.176891">
        <ele>103.5</ele>
        <time>2015-04-27T18:32:52Z</time>
      </trkpt>
      <trkpt lat="37.387065" lon="-122.17694">
        <ele>103.6</ele>
        <time>2015-04-27T18:32:53Z</time>
      </trkpt>
      <trkpt lat="37.387051" lon="-122.176986">
        <ele>103.5</ele>
        <time>2015-04-27T18:32:54Z</time>
      </trkpt>
      <trkpt lat="37.387036" lon="-122.177035">
        <ele>103</ele>
        <time>2015-04-27T18:32:55Z</time>
      </trkpt>
      <trkpt lat="37.387027" lon="-122.177087">
        <ele>102.8</ele>
        <time>2015-04-27T18:32:56Z</time>
      </trkpt>
      <trkpt lat="37.387019" lon="-122.17716">
        <ele>102.7</ele>
        <time>2015-04-27T18:32:57Z</time>
      </trkpt>
      <trkpt lat="37.387006" lon="-122.177214">
        <ele>102.2</ele>
        <time>2015-04-27T18:32:58Z</time>
      </trkpt>
      <trkpt lat="37.386995" lon="-122.177268">
        <ele>102</ele>
        <time>2015-04-27T18:32:59Z</time>
      </trkpt>
      <trkpt lat="37.386979" lon="-122.177332">
        <ele>101.6</ele>
        <time>2015-04-27T18:33:00Z</time>
      </trkpt>
      <trkpt lat="37.386971" lon="-122.177403">
        <ele>101.5</ele>
        <time>2015-04-27T18:33:01Z</time>
      </trkpt>
      <trkpt lat="37.386959" lon="-122.177477">
        <ele>101.4</ele>
        <time>2015-04-27T18:33:02Z</time>
      </trkpt>
      <trkpt lat="37.386941" lon="-122.177564">
        <ele>101.6</ele>
        <time>2015-04-27T18:33:03Z</time>
      </trkpt>
      <trkpt lat="37.386925" lon="-122.177641">
        <ele>101.2</ele>
        <time>2015-04-27T18:33:04Z</time>
      </trkpt>
      <trkpt lat="37.386909" lon="-122.177729">
        <ele>101.2</ele>
        <time>2015-04-27T18:33:05Z</time>
      </trkpt>
      <trkpt lat="37.386893" lon="-122.177797">
        <ele>101</ele>
        <time>2015-04-27T18:33:06Z</time>
      </trkpt>
      <trkpt lat="37.386889" lon="-122.177868">
        <ele>101.1</ele>
        <time>2015-04-27T18:33:08Z</time>
      </trkpt>
      <trkpt lat="37.386873" lon="-122.177927">
        <ele>100.7</ele>
        <time>2015-04-27T18:33:09Z</time>
      </trkpt>
      <trkpt lat="37.386857" lon="-122.178017">
        <ele>100.6</ele>
        <time>2015-04-27T18:33:10Z</time>
      </trkpt>
      <trkpt lat="37.386823" lon="-122.178192">
        <ele>100.7</ele>
        <time>2015-04-27T18:33:11Z</time>
      </trkpt>
      <trkpt lat="37.386812" lon="-122.178283">
        <ele>100.7</ele>
        <time>2015-04-27T18:33:13Z</time>
      </trkpt>
      <trkpt lat="37.386803" lon="-122.178363">
        <ele>100.8</ele>
        <time>2015-04-27T18:33:14Z</time>
      </trkpt>
      <trkpt lat="37.386783" lon="-122.178438">
        <ele>100.9</ele>
        <time>2015-04-27T18:33:15Z</time>
      </trkpt>
      <trkpt lat="37.38676" lon="-122.178513">
        <ele>100.9</ele>
        <time>2015-04-27T18:33:16Z</time>
      </trkpt>
      <trkpt lat="37.386742" lon="-122.178568">
        <ele>101.1</ele>
        <time>2015-04-27T18:33:17Z</time>
      </trkpt>
      <trkpt lat="37.386715" lon="-122.178628">
        <ele>101.3</ele>
        <time>2015-04-27T18:33:18Z</time>
      </trkpt>
      <trkpt lat="37.386687" lon="-122.178684">
        <ele>101.4</ele>
        <time>2015-04-27T18:33:19Z</time>
      </trkpt>
      <trkpt lat="37.386654" lon="-122.178745">
        <ele>101.6</ele>
        <time>2015-04-27T18:33:20Z</time>
      </trkpt>
      <trkpt lat="37.38663" lon="-122.178792">
        <ele>101.7</ele>
        <time>2015-04-27T18:33:21Z</time>
      </trkpt>
      <trkpt lat="37.386592" lon="-122.178847">
        <ele>101.9</ele>
        <time>2015-04-27T18:33:22Z</time>
      </trkpt>
      <trkpt lat="37.386562" lon="-122.178889">
        <ele>102.1</ele>
        <time>2015-04-27T18:33:23Z</time>
      </trkpt>
      <trkpt lat="37.386508" lon="-122.178927">
        <ele>102.4</ele>
        <time>2015-04-27T18:33:24Z</time>
      </trkpt>
      <trkpt lat="37.386479" lon="-122.178968">
        <ele>102.6</ele>
        <time>2015-04-27T18:33:25Z</time>
      </trkpt>
      <trkpt lat="37.386457" lon="-122.179002">
        <ele>102.8</ele>
        <time>2015-04-27T18:33:26Z</time>
      </trkpt>
      <trkpt lat="37.386394" lon="-122.179054">
        <ele>103</ele>
        <time>2015-04-27T18:33:27Z</time>
      </trkpt>
      <trkpt lat="37.386364" lon="-122.179098">
        <ele>103.3</ele>
        <time>2015-04-27T18:33:28Z</time>
      </trkpt>
      <trkpt lat="37.386342" lon="-122.179133">
        <ele>103.5</ele>
        <time>2015-04-27T18:33:29Z</time>
      </trkpt>
      <trkpt lat="37.386315" lon="-122.179164">
        <ele>103.8</ele>
        <time>2015-04-27T18:33:30Z</time>
      </trkpt>
      <trkpt lat="37.386279" lon="-122.179191">
        <ele>104</ele>
        <time>2015-04-27T18:33:31Z</time>
      </trkpt>
      <trkpt lat="37.386261" lon="-122.179219">
        <ele>104.2</ele>
        <time>2015-04-27T18:33:32Z</time>
      </trkpt>
      <trkpt lat="37.386239" lon="-122.179243">
        <ele>104.3</ele>
        <time>2015-04-27T18:33:33Z</time>
      </trkpt>
      <trkpt lat="37.386222" lon="-122.179273">
        <ele>104.6</ele>
        <time>2015-04-27T18:33:34Z</time>
      </trkpt>
      <trkpt lat="37.3862" lon="-122.179303">
        <ele>105.1</ele>
        <time>2015-04-27T18:33:35Z</time>
      </trkpt>
      <trkpt lat="37.386176" lon="-122.17933">
        <ele>105.4</ele>
        <time>2015-04-27T18:33:36Z</time>
      </trkpt>
      <trkpt lat="37.386152" lon="-122.179356">
        <ele>105.8</ele>
        <time>2015-04-27T18:33:37Z</time>
      </trkpt>
      <trkpt lat="37.386129" lon="-122.17938">
        <ele>105.8</ele>
        <time>2015-04-27T18:33:38Z</time>
      </trkpt>
      <trkpt lat="37.386108" lon="-122.179405">
        <ele>106.2</ele>
        <time>2015-04-27T18:33:39Z</time>
      </trkpt>
      <trkpt lat="37.386086" lon="-122.179431">
        <ele>106.5</ele>
        <time>2015-04-27T18:33:40Z</time>
      </trkpt>
      <trkpt lat="37.386063" lon="-122.179458">
        <ele>106.7</ele>
        <time>2015-04-27T18:33:41Z</time>
      </trkpt>
      <trkpt lat="37.386041" lon="-122.179485">
        <ele>106.7</ele>
        <time>2015-04-27T18:33:42Z</time>
      </trkpt>
      <trkpt lat="37.386018" lon="-122.179513">
        <ele>107.1</ele>
        <time>2015-04-27T18:33:43Z</time>
      </trkpt>
      <trkpt lat="37.385995" lon="-122.179542">
        <ele>107.3</ele>
        <time>2015-04-27T18:33:44Z</time>
      </trkpt>
      <trkpt lat="37.385971" lon="-122.17957">
        <ele>107.2</ele>
        <time>2015-04-27T18:33:45Z</time>
      </trkpt>
      <trkpt lat="37.385947" lon="-122.179598">
        <ele>107.3</ele>
        <time>2015-04-27T18:33:46Z</time>
      </trkpt>
      <trkpt lat="37.385895" lon="-122.179593">
        <ele>106.6</ele>
        <time>2015-04-27T18:33:47Z</time>
      </trkpt>
      <trkpt lat="37.385869" lon="-122.179624">
        <ele>106.8</ele>
        <time>2015-04-27T18:33:48Z</time>
      </trkpt>
      <trkpt lat="37.385843" lon="-122.179655">
        <ele>106.9</ele>
        <time>2015-04-27T18:33:49Z</time>
      </trkpt>
      <trkpt lat="37.38582" lon="-122.179682">
        <ele>107</ele>
        <time>2015-04-27T18:33:50Z</time>
      </trkpt>
      <trkpt lat="37.385797" lon="-122.17971">
        <ele>107.2</ele>
        <time>2015-04-27T18:33:51Z</time>
      </trkpt>
      <trkpt lat="37.385774" lon="-122.179739">
        <ele>107.2</ele>
        <time>2015-04-27T18:33:52Z</time>
      </trkpt>
      <trkpt lat="37.385753" lon="-122.179765">
        <ele>107.2</ele>
        <time>2015-04-27T18:33:53Z</time>
      </trkpt>
      <trkpt lat="37.385729" lon="-122.179797">
        <ele>107.3</ele>
        <time>2015-04-27T18:33:54Z</time>
      </trkpt>
      <trkpt lat="37.385704" lon="-122.179831">
        <ele>107.5</ele>
        <time>2015-04-27T18:33:55Z</time>
      </trkpt>
      <trkpt lat="37.38568" lon="-122.179866">
        <ele>107.6</ele>
        <time>2015-04-27T18:33:56Z</time>
      </trkpt>
      <trkpt lat="37.38566" lon="-122.179896">
        <ele>107.7</ele>
        <time>2015-04-27T18:33:57Z</time>
      </trkpt>
      <trkpt lat="37.385635" lon="-122.179941">
        <ele>108.3</ele>
        <time>2015-04-27T18:33:58Z</time>
      </trkpt>
      <trkpt lat="37.385614" lon="-122.179978">
        <ele>108.1</ele>
        <time>2015-04-27T18:33:59Z</time>
      </trkpt>
      <trkpt lat="37.385595" lon="-122.18001">
        <ele>108.1</ele>
        <time>2015-04-27T18:34:00Z</time>
      </trkpt>
      <trkpt lat="37.385578" lon="-122.18004">
        <ele>108.2</ele>
        <time>2015-04-27T18:34:01Z</time>
      </trkpt>
      <trkpt lat="37.385558" lon="-122.180075">
        <ele>108.3</ele>
        <time>2015-04-27T18:34:02Z</time>
      </trkpt>
      <trkpt lat="37.385539" lon="-122.180109">
        <ele>108.3</ele>
        <time>2015-04-27T18:34:03Z</time>
      </trkpt>
      <trkpt lat="37.385517" lon="-122.180148">
        <ele>108.5</ele>
        <time>2015-04-27T18:34:04Z</time>
      </trkpt>
      <trkpt lat="37.385494" lon="-122.180189">
        <ele>108.6</ele>
        <time>2015-04-27T18:34:05Z</time>
      </trkpt>
      <trkpt lat="37.38547" lon="-122.18023">
        <ele>108.8</ele>
        <time>2015-04-27T18:34:06Z</time>
      </trkpt>
      <trkpt lat="37.38545" lon="-122.18026">
        <ele>108.9</ele>
        <time>2015-04-27T18:34:07Z</time>
      </trkpt>
      <trkpt lat="37.385427" lon="-122.180286">
        <ele>109</ele>
        <time>2015-04-27T18:34:08Z</time>
      </trkpt>
      <trkpt lat="37.385389" lon="-122.18032">
        <ele>108.9</ele>
        <time>2015-04-27T18:34:09Z</time>
      </trkpt>
      <trkpt lat="37.385362" lon="-122.180345">
        <ele>109</ele>
        <time>2015-04-27T18:34:10Z</time>
      </trkpt>
      <trkpt lat="37.385335" lon="-122.18037">
        <ele>109.1</ele>
        <time>2015-04-27T18:34:11Z</time>
      </trkpt>
      <trkpt lat="37.385304" lon="-122.180397">
        <ele>109.2</ele>
        <time>2015-04-27T18:34:12Z</time>
      </trkpt>
      <trkpt lat="37.385276" lon="-122.180422">
        <ele>109.2</ele>
        <time>2015-04-27T18:34:13Z</time>
      </trkpt>
      <trkpt lat="37.385249" lon="-122.180446">
        <ele>109.3</ele>
        <time>2015-04-27T18:34:14Z</time>
      </trkpt>
      <trkpt lat="37.385221" lon="-122.180471">
        <ele>109.4</ele>
        <time>2015-04-27T18:34:15Z</time>
      </trkpt>
      <trkpt lat="37.385194" lon="-122.180495">
        <ele>109.5</ele>
        <time>2015-04-27T18:34:16Z</time>
      </trkpt>
      <trkpt lat="37.385169" lon="-122.180517">
        <ele>109.5</ele>
        <time>2015-04-27T18:34:17Z</time>
      </trkpt>
      <trkpt lat="37.385137" lon="-122.180542">
        <ele>109.6</ele>
        <time>2015-04-27T18:34:18Z</time>
      </trkpt>
      <trkpt lat="37.385102" lon="-122.180569">
        <ele>109.7</ele>
        <time>2015-04-27T18:34:19Z</time>
      </trkpt>
      <trkpt lat="37.385072" lon="-122.180593">
        <ele>109.8</ele>
        <time>2015-04-27T18:34:20Z</time>
      </trkpt>
      <trkpt lat="37.385035" lon="-122.180622">
        <ele>109.9</ele>
        <time>2015-04-27T18:34:21Z</time>
      </trkpt>
      <trkpt lat="37.385001" lon="-122.180648">
        <ele>110</ele>
        <time>2015-04-27T18:34:22Z</time>
      </trkpt>
      <trkpt lat="37.384965" lon="-122.180676">
        <ele>110.2</ele>
        <time>2015-04-27T18:34:23Z</time>
      </trkpt>
      <trkpt lat="37.384929" lon="-122.180704">
        <ele>110.3</ele>
        <time>2015-04-27T18:34:24Z</time>
      </trkpt>
      <trkpt lat="37.384894" lon="-122.180731">
        <ele>110.4</ele>
        <time>2015-04-27T18:34:25Z</time>
      </trkpt>
      <trkpt lat="37.384857" lon="-122.18076">
        <ele>110.5</ele>
        <time>2015-04-27T18:34:26Z</time>
      </trkpt>
      <trkpt lat="37.384819" lon="-122.180788">
        <ele>110.6</ele>
        <time>2015-04-27T18:34:27Z</time>
      </trkpt>
      <trkpt lat="37.384779" lon="-122.180817">
        <ele>110.7</ele>
        <time>2015-04-27T18:34:28Z</time>
      </trkpt>
      <trkpt lat="37.384742" lon="-122.180843">
        <ele>110.8</ele>
        <time>2015-04-27T18:34:29Z</time>
      </trkpt>
      <trkpt lat="37.384705" lon="-122.180869">
        <ele>111</ele>
        <time>2015-04-27T18:34:30Z</time>
      </trkpt>
      <trkpt lat="37.384664" lon="-122.180898">
        <ele>111.2</ele>
        <time>2015-04-27T18:34:31Z</time>
      </trkpt>
      <trkpt lat="37.384627" lon="-122.180924">
        <ele>111.5</ele>
        <time>2015-04-27T18:34:32Z</time>
      </trkpt>
      <trkpt lat="37.384572" lon="-122.180958">
        <ele>111.7</ele>
        <time>2015-04-27T18:34:34Z</time>
      </trkpt>
      <trkpt lat="37.384512" lon="-122.180989">
        <ele>112.1</ele>
        <time>2015-04-27T18:34:36Z</time>
      </trkpt>
      <trkpt lat="37.384483" lon="-122.181003">
        <ele>112.1</ele>
        <time>2015-04-27T18:34:37Z</time>
      </trkpt>
      <trkpt lat="37.384449" lon="-122.181014">
        <ele>112.4</ele>
        <time>2015-04-27T18:34:38Z</time>
      </trkpt>
      <trkpt lat="37.38439" lon="-122.181029">
        <ele>112.4</ele>
        <time>2015-04-27T18:34:40Z</time>
      </trkpt>
      <trkpt lat="37.384359" lon="-122.181036">
        <ele>112.6</ele>
        <time>2015-04-27T18:34:41Z</time>
      </trkpt>
      <trkpt lat="37.384328" lon="-122.181044">
        <ele>112.7</ele>
        <time>2015-04-27T18:34:42Z</time>
      </trkpt>
      <trkpt lat="37.384297" lon="-122.181051">
        <ele>112.8</ele>
        <time>2015-04-27T18:34:43Z</time>
      </trkpt>
      <trkpt lat="37.384266" lon="-122.181057">
        <ele>112.9</ele>
        <time>2015-04-27T18:34:44Z</time>
      </trkpt>
      <trkpt lat="37.384206" lon="-122.181065">
        <ele>113.1</ele>
        <time>2015-04-27T18:34:46Z</time>
      </trkpt>
      <trkpt lat="37.38417" lon="-122.181069">
        <ele>113.3</ele>
        <time>2015-04-27T18:34:47Z</time>
      </trkpt>
      <trkpt lat="37.384137" lon="-122.181073">
        <ele>113.4</ele>
        <time>2015-04-27T18:34:48Z</time>
      </trkpt>
      <trkpt lat="37.384101" lon="-122.181077">
        <ele>113.5</ele>
        <time>2015-04-27T18:34:49Z</time>
      </trkpt>
      <trkpt lat="37.384066" lon="-122.181081">
        <ele>113.7</ele>
        <time>2015-04-27T18:34:50Z</time>
      </trkpt>
      <trkpt lat="37.384031" lon="-122.181086">
        <ele>113.8</ele>
        <time>2015-04-27T18:34:51Z</time>
      </trkpt>
      <trkpt lat="37.383995" lon="-122.181091">
        <ele>114</ele>
        <time>2015-04-27T18:34:52Z</time>
      </trkpt>
      <trkpt lat="37.383959" lon="-122.181097">
        <ele>114.2</ele>
        <time>2015-04-27T18:34:53Z</time>
      </trkpt>
      <trkpt lat="37.383924" lon="-122.181102">
        <ele>114.5</ele>
        <time>2015-04-27T18:34:54Z</time>
      </trkpt>
      <trkpt lat="37.383888" lon="-122.181107">
        <ele>114.7</ele>
        <time>2015-04-27T18:34:55Z</time>
      </trkpt>
      <trkpt lat="37.383849" lon="-122.181113">
        <ele>115</ele>
        <time>2015-04-27T18:34:56Z</time>
      </trkpt>
      <trkpt lat="37.383809" lon="-122.181119">
        <ele>115.3</ele>
        <time>2015-04-27T18:34:57Z</time>
      </trkpt>
      <trkpt lat="37.383778" lon="-122.181124">
        <ele>115.6</ele>
        <time>2015-04-27T18:34:58Z</time>
      </trkpt>
      <trkpt lat="37.383696" lon="-122.181139">
        <ele>116.6</ele>
        <time>2015-04-27T18:35:01Z</time>
      </trkpt>
      <trkpt lat="37.383667" lon="-122.181145">
        <ele>116.8</ele>
        <time>2015-04-27T18:35:02Z</time>
      </trkpt>
      <trkpt lat="37.383615" lon="-122.181157">
        <ele>117.2</ele>
        <time>2015-04-27T18:35:04Z</time>
      </trkpt>
      <trkpt lat="37.383576" lon="-122.181167">
        <ele>117.6</ele>
        <time>2015-04-27T18:35:06Z</time>
      </trkpt>
      <trkpt lat="37.383534" lon="-122.181179">
        <ele>117.8</ele>
        <time>2015-04-27T18:35:08Z</time>
      </trkpt>
      <trkpt lat="37.383489" lon="-122.181193">
        <ele>118.2</ele>
        <time>2015-04-27T18:35:10Z</time>
      </trkpt>
      <trkpt lat="37.383446" lon="-122.181206">
        <ele>118.8</ele>
        <time>2015-04-27T18:35:13Z</time>
      </trkpt>
      <trkpt lat="37.383404" lon="-122.181219">
        <ele>118.8</ele>
        <time>2015-04-27T18:35:14Z</time>
      </trkpt>
      <trkpt lat="37.383353" lon="-122.181237">
        <ele>119.7</ele>
        <time>2015-04-27T18:35:16Z</time>
      </trkpt>
      <trkpt lat="37.383326" lon="-122.181247">
        <ele>119.6</ele>
        <time>2015-04-27T18:35:17Z</time>
      </trkpt>
      <trkpt lat="37.383275" lon="-122.181265">
        <ele>119.9</ele>
        <time>2015-04-27T18:35:19Z</time>
      </trkpt>
      <trkpt lat="37.383246" lon="-122.181276">
        <ele>120</ele>
        <time>2015-04-27T18:35:20Z</time>
      </trkpt>
      <trkpt lat="37.383218" lon="-122.181288">
        <ele>120.1</ele>
        <time>2015-04-27T18:35:21Z</time>
      </trkpt>
      <trkpt lat="37.383192" lon="-122.181299">
        <ele>120.1</ele>
        <time>2015-04-27T18:35:22Z</time>
      </trkpt>
      <trkpt lat="37.38311" lon="-122.181334">
        <ele>120.5</ele>
        <time>2015-04-27T18:35:25Z</time>
      </trkpt>
      <trkpt lat="37.383081" lon="-122.181347">
        <ele>120.7</ele>
        <time>2015-04-27T18:35:26Z</time>
      </trkpt>
      <trkpt lat="37.383052" lon="-122.18136">
        <ele>120.9</ele>
        <time>2015-04-27T18:35:27Z</time>
      </trkpt>
      <trkpt lat="37.383025" lon="-122.181371">
        <ele>121</ele>
        <time>2015-04-27T18:35:28Z</time>
      </trkpt>
      <trkpt lat="37.382997" lon="-122.181383">
        <ele>121.3</ele>
        <time>2015-04-27T18:35:29Z</time>
      </trkpt>
      <trkpt lat="37.382971" lon="-122.181394">
        <ele>121.5</ele>
        <time>2015-04-27T18:35:30Z</time>
      </trkpt>
      <trkpt lat="37.382926" lon="-122.181414">
        <ele>121.9</ele>
        <time>2015-04-27T18:35:32Z</time>
      </trkpt>
      <trkpt lat="37.382897" lon="-122.181425">
        <ele>122.2</ele>
        <time>2015-04-27T18:35:33Z</time>
      </trkpt>
      <trkpt lat="37.382848" lon="-122.181445">
        <ele>122.7</ele>
        <time>2015-04-27T18:35:35Z</time>
      </trkpt>
      <trkpt lat="37.382801" lon="-122.181462">
        <ele>123.1</ele>
        <time>2015-04-27T18:35:38Z</time>
      </trkpt>
      <trkpt lat="37.382757" lon="-122.181478">
        <ele>123.6</ele>
        <time>2015-04-27T18:35:39Z</time>
      </trkpt>
      <trkpt lat="37.382715" lon="-122.181493">
        <ele>124.2</ele>
        <time>2015-04-27T18:35:42Z</time>
      </trkpt>
      <trkpt lat="37.382677" lon="-122.181506">
        <ele>124.7</ele>
        <time>2015-04-27T18:35:43Z</time>
      </trkpt>
      <trkpt lat="37.382643" lon="-122.181518">
        <ele>125.1</ele>
        <time>2015-04-27T18:35:44Z</time>
      </trkpt>
      <trkpt lat="37.382615" lon="-122.181527">
        <ele>125.5</ele>
        <time>2015-04-27T18:35:47Z</time>
      </trkpt>
      <trkpt lat="37.382578" lon="-122.181538">
        <ele>126</ele>
        <time>2015-04-27T18:35:48Z</time>
      </trkpt>
      <trkpt lat="37.382541" lon="-122.181549">
        <ele>126.4</ele>
        <time>2015-04-27T18:35:50Z</time>
      </trkpt>
      <trkpt lat="37.382481" lon="-122.181567">
        <ele>126.9</ele>
        <time>2015-04-27T18:35:53Z</time>
      </trkpt>
      <trkpt lat="37.382466" lon="-122.181571">
        <ele>126.9</ele>
        <time>2015-04-27T18:35:54Z</time>
      </trkpt>
      <trkpt lat="37.382428" lon="-122.181649">
        <ele>128</ele>
        <time>2015-04-27T18:35:56Z</time>
      </trkpt>
      <trkpt lat="37.382375" lon="-122.181661">
        <ele>128</ele>
        <time>2015-04-27T18:35:59Z</time>
      </trkpt>
      <trkpt lat="37.382324" lon="-122.181674">
        <ele>128.2</ele>
        <time>2015-04-27T18:36:00Z</time>
      </trkpt>
      <trkpt lat="37.382297" lon="-122.18168">
        <ele>128.2</ele>
        <time>2015-04-27T18:36:01Z</time>
      </trkpt>
      <trkpt lat="37.382268" lon="-122.181683">
        <ele>128.1</ele>
        <time>2015-04-27T18:36:02Z</time>
      </trkpt>
      <trkpt lat="37.382208" lon="-122.181684">
        <ele>128.2</ele>
        <time>2015-04-27T18:36:04Z</time>
      </trkpt>
      <trkpt lat="37.382177" lon="-122.181684">
        <ele>128.1</ele>
        <time>2015-04-27T18:36:05Z</time>
      </trkpt>
      <trkpt lat="37.382148" lon="-122.181687">
        <ele>128.2</ele>
        <time>2015-04-27T18:36:06Z</time>
      </trkpt>
      <trkpt lat="37.382118" lon="-122.181695">
        <ele>128.1</ele>
        <time>2015-04-27T18:36:07Z</time>
      </trkpt>
      <trkpt lat="37.382086" lon="-122.181704">
        <ele>128.2</ele>
        <time>2015-04-27T18:36:08Z</time>
      </trkpt>
      <trkpt lat="37.382054" lon="-122.181717">
        <ele>128.2</ele>
        <time>2015-04-27T18:36:09Z</time>
      </trkpt>
      <trkpt lat="37.38202" lon="-122.181732">
        <ele>128.5</ele>
        <time>2015-04-27T18:36:10Z</time>
      </trkpt>
      <trkpt lat="37.381989" lon="-122.181744">
        <ele>128.5</ele>
        <time>2015-04-27T18:36:11Z</time>
      </trkpt>
      <trkpt lat="37.381958" lon="-122.181755">
        <ele>128.7</ele>
        <time>2015-04-27T18:36:12Z</time>
      </trkpt>
      <trkpt lat="37.381928" lon="-122.181765">
        <ele>128.8</ele>
        <time>2015-04-27T18:36:13Z</time>
      </trkpt>
      <trkpt lat="37.381899" lon="-122.181775">
        <ele>128.9</ele>
        <time>2015-04-27T18:36:14Z</time>
      </trkpt>
      <trkpt lat="37.381871" lon="-122.181785">
        <ele>129</ele>
        <time>2015-04-27T18:36:15Z</time>
      </trkpt>
      <trkpt lat="37.381843" lon="-122.181795">
        <ele>129.2</ele>
        <time>2015-04-27T18:36:16Z</time>
      </trkpt>
      <trkpt lat="37.381816" lon="-122.181804">
        <ele>129.5</ele>
        <time>2015-04-27T18:36:17Z</time>
      </trkpt>
      <trkpt lat="37.381765" lon="-122.181819">
        <ele>129.9</ele>
        <time>2015-04-27T18:36:19Z</time>
      </trkpt>
      <trkpt lat="37.381719" lon="-122.18183">
        <ele>130.4</ele>
        <time>2015-04-27T18:36:21Z</time>
      </trkpt>
      <trkpt lat="37.381673" lon="-122.18184">
        <ele>130.8</ele>
        <time>2015-04-27T18:36:23Z</time>
      </trkpt>
      <trkpt lat="37.381625" lon="-122.181851">
        <ele>131.3</ele>
        <time>2015-04-27T18:36:25Z</time>
      </trkpt>
      <trkpt lat="37.381581" lon="-122.181862">
        <ele>131.9</ele>
        <time>2015-04-27T18:36:27Z</time>
      </trkpt>
      <trkpt lat="37.381538" lon="-122.181873">
        <ele>132.3</ele>
        <time>2015-04-27T18:36:29Z</time>
      </trkpt>
      <trkpt lat="37.381482" lon="-122.181888">
        <ele>133</ele>
        <time>2015-04-27T18:36:31Z</time>
      </trkpt>
      <trkpt lat="37.38145" lon="-122.181896">
        <ele>133.1</ele>
        <time>2015-04-27T18:36:32Z</time>
      </trkpt>
      <trkpt lat="37.381422" lon="-122.181909">
        <ele>133.4</ele>
        <time>2015-04-27T18:36:33Z</time>
      </trkpt>
      <trkpt lat="37.381392" lon="-122.181927">
        <ele>133.7</ele>
        <time>2015-04-27T18:36:34Z</time>
      </trkpt>
      <trkpt lat="37.381364" lon="-122.181944">
        <ele>134.2</ele>
        <time>2015-04-27T18:36:35Z</time>
      </trkpt>
      <trkpt lat="37.381339" lon="-122.18196">
        <ele>134.4</ele>
        <time>2015-04-27T18:36:36Z</time>
      </trkpt>
      <trkpt lat="37.381314" lon="-122.181975">
        <ele>134.8</ele>
        <time>2015-04-27T18:36:37Z</time>
      </trkpt>
      <trkpt lat="37.381268" lon="-122.182005">
        <ele>135.3</ele>
        <time>2015-04-27T18:36:39Z</time>
      </trkpt>
      <trkpt lat="37.381245" lon="-122.182024">
        <ele>135.5</ele>
        <time>2015-04-27T18:36:40Z</time>
      </trkpt>
      <trkpt lat="37.38121" lon="-122.182063">
        <ele>136.1</ele>
        <time>2015-04-27T18:36:42Z</time>
      </trkpt>
      <trkpt lat="37.381176" lon="-122.182107">
        <ele>136.6</ele>
        <time>2015-04-27T18:36:44Z</time>
      </trkpt>
      <trkpt lat="37.381145" lon="-122.182156">
        <ele>137.2</ele>
        <time>2015-04-27T18:36:46Z</time>
      </trkpt>
      <trkpt lat="37.381128" lon="-122.182185">
        <ele>137.5</ele>
        <time>2015-04-27T18:36:47Z</time>
      </trkpt>
      <trkpt lat="37.38107" lon="-122.182257">
        <ele>138.2</ele>
        <time>2015-04-27T18:36:50Z</time>
      </trkpt>
      <trkpt lat="37.381049" lon="-122.182293">
        <ele>138.4</ele>
        <time>2015-04-27T18:36:51Z</time>
      </trkpt>
      <trkpt lat="37.381035" lon="-122.182327">
        <ele>138.5</ele>
        <time>2015-04-27T18:36:52Z</time>
      </trkpt>
      <trkpt lat="37.381014" lon="-122.182382">
        <ele>138.5</ele>
        <time>2015-04-27T18:36:53Z</time>
      </trkpt>
      <trkpt lat="37.380998" lon="-122.182525">
        <ele>138.4</ele>
        <time>2015-04-27T18:36:57Z</time>
      </trkpt>
      <trkpt lat="37.380995" lon="-122.182568">
        <ele>138.4</ele>
        <time>2015-04-27T18:36:58Z</time>
      </trkpt>
      <trkpt lat="37.380992" lon="-122.182612">
        <ele>138.3</ele>
        <time>2015-04-27T18:36:59Z</time>
      </trkpt>
      <trkpt lat="37.380989" lon="-122.182654">
        <ele>138.3</ele>
        <time>2015-04-27T18:37:00Z</time>
      </trkpt>
      <trkpt lat="37.380985" lon="-122.182705">
        <ele>138.3</ele>
        <time>2015-04-27T18:37:01Z</time>
      </trkpt>
      <trkpt lat="37.380982" lon="-122.182746">
        <ele>138.4</ele>
        <time>2015-04-27T18:37:02Z</time>
      </trkpt>
      <trkpt lat="37.38098" lon="-122.182785">
        <ele>138.4</ele>
        <time>2015-04-27T18:37:03Z</time>
      </trkpt>
      <trkpt lat="37.380977" lon="-122.182825">
        <ele>138.4</ele>
        <time>2015-04-27T18:37:04Z</time>
      </trkpt>
      <trkpt lat="37.380973" lon="-122.182926">
        <ele>138.4</ele>
        <time>2015-04-27T18:37:06Z</time>
      </trkpt>
      <trkpt lat="37.380972" lon="-122.182971">
        <ele>138.4</ele>
        <time>2015-04-27T18:37:07Z</time>
      </trkpt>
      <trkpt lat="37.38097" lon="-122.183015">
        <ele>138.4</ele>
        <time>2015-04-27T18:37:08Z</time>
      </trkpt>
      <trkpt lat="37.380969" lon="-122.183061">
        <ele>138.4</ele>
        <time>2015-04-27T18:37:09Z</time>
      </trkpt>
      <trkpt lat="37.380969" lon="-122.18311">
        <ele>138.4</ele>
        <time>2015-04-27T18:37:10Z</time>
      </trkpt>
      <trkpt lat="37.380969" lon="-122.183165">
        <ele>138.3</ele>
        <time>2015-04-27T18:37:11Z</time>
      </trkpt>
      <trkpt lat="37.380968" lon="-122.183215">
        <ele>138.2</ele>
        <time>2015-04-27T18:37:12Z</time>
      </trkpt>
      <trkpt lat="37.380969" lon="-122.183263">
        <ele>138.2</ele>
        <time>2015-04-27T18:37:13Z</time>
      </trkpt>
      <trkpt lat="37.380971" lon="-122.183321">
        <ele>138.1</ele>
        <time>2015-04-27T18:37:14Z</time>
      </trkpt>
      <trkpt lat="37.380973" lon="-122.183371">
        <ele>138</ele>
        <time>2015-04-27T18:37:15Z</time>
      </trkpt>
      <trkpt lat="37.380975" lon="-122.183433">
        <ele>137.8</ele>
        <time>2015-04-27T18:37:16Z</time>
      </trkpt>
      <trkpt lat="37.380978" lon="-122.183499">
        <ele>137.6</ele>
        <time>2015-04-27T18:37:17Z</time>
      </trkpt>
      <trkpt lat="37.380982" lon="-122.183559">
        <ele>137.5</ele>
        <time>2015-04-27T18:37:18Z</time>
      </trkpt>
      <trkpt lat="37.380986" lon="-122.183619">
        <ele>137.4</ele>
        <time>2015-04-27T18:37:19Z</time>
      </trkpt>
      <trkpt lat="37.380993" lon="-122.183689">
        <ele>137.4</ele>
        <time>2015-04-27T18:37:20Z</time>
      </trkpt>
      <trkpt lat="37.381001" lon="-122.183752">
        <ele>137.3</ele>
        <time>2015-04-27T18:37:21Z</time>
      </trkpt>
      <trkpt lat="37.381007" lon="-122.183804">
        <ele>137.3</ele>
        <time>2015-04-27T18:37:22Z</time>
      </trkpt>
      <trkpt lat="37.381018" lon="-122.183867">
        <ele>137.3</ele>
        <time>2015-04-27T18:37:23Z</time>
      </trkpt>
      <trkpt lat="37.381035" lon="-122.183945">
        <ele>137.2</ele>
        <time>2015-04-27T18:37:24Z</time>
      </trkpt>
      <trkpt lat="37.381047" lon="-122.183987">
        <ele>137.4</ele>
        <time>2015-04-27T18:37:25Z</time>
      </trkpt>
      <trkpt lat="37.381072" lon="-122.184058">
        <ele>137.3</ele>
        <time>2015-04-27T18:37:26Z</time>
      </trkpt>
      <trkpt lat="37.381096" lon="-122.184118">
        <ele>137.1</ele>
        <time>2015-04-27T18:37:27Z</time>
      </trkpt>
      <trkpt lat="37.381128" lon="-122.184194">
        <ele>137</ele>
        <time>2015-04-27T18:37:28Z</time>
      </trkpt>
      <trkpt lat="37.381159" lon="-122.184255">
        <ele>136.7</ele>
        <time>2015-04-27T18:37:29Z</time>
      </trkpt>
      <trkpt lat="37.381222" lon="-122.184357">
        <ele>136.3</ele>
        <time>2015-04-27T18:37:30Z</time>
      </trkpt>
      <trkpt lat="37.381257" lon="-122.184394">
        <ele>136.1</ele>
        <time>2015-04-27T18:37:31Z</time>
      </trkpt>
      <trkpt lat="37.38129" lon="-122.184419">
        <ele>135.9</ele>
        <time>2015-04-27T18:37:32Z</time>
      </trkpt>
      <trkpt lat="37.381357" lon="-122.184456">
        <ele>135.4</ele>
        <time>2015-04-27T18:37:33Z</time>
      </trkpt>
      <trkpt lat="37.381436" lon="-122.184481">
        <ele>134.8</ele>
        <time>2015-04-27T18:37:34Z</time>
      </trkpt>
      <trkpt lat="37.381516" lon="-122.184506">
        <ele>134.3</ele>
        <time>2015-04-27T18:37:35Z</time>
      </trkpt>
      <trkpt lat="37.381584" lon="-122.184524">
        <ele>133.9</ele>
        <time>2015-04-27T18:37:36Z</time>
      </trkpt>
      <trkpt lat="37.381663" lon="-122.184545">
        <ele>133.6</ele>
        <time>2015-04-27T18:37:37Z</time>
      </trkpt>
      <trkpt lat="37.381742" lon="-122.184562">
        <ele>133.2</ele>
        <time>2015-04-27T18:37:38Z</time>
      </trkpt>
      <trkpt lat="37.38181" lon="-122.184576">
        <ele>133</ele>
        <time>2015-04-27T18:37:39Z</time>
      </trkpt>
      <trkpt lat="37.381899" lon="-122.184595">
        <ele>132.7</ele>
        <time>2015-04-27T18:37:40Z</time>
      </trkpt>
      <trkpt lat="37.381969" lon="-122.184609">
        <ele>132.3</ele>
        <time>2015-04-27T18:37:41Z</time>
      </trkpt>
      <trkpt lat="37.382025" lon="-122.184624">
        <ele>132</ele>
        <time>2015-04-27T18:37:42Z</time>
      </trkpt>
      <trkpt lat="37.38211" lon="-122.184661">
        <ele>131.5</ele>
        <time>2015-04-27T18:37:43Z</time>
      </trkpt>
      <trkpt lat="37.382178" lon="-122.184709">
        <ele>131.1</ele>
        <time>2015-04-27T18:37:44Z</time>
      </trkpt>
      <trkpt lat="37.382236" lon="-122.184776">
        <ele>130.7</ele>
        <time>2015-04-27T18:37:45Z</time>
      </trkpt>
      <trkpt lat="37.382288" lon="-122.184854">
        <ele>130.3</ele>
        <time>2015-04-27T18:37:46Z</time>
      </trkpt>
      <trkpt lat="37.382334" lon="-122.184936">
        <ele>130</ele>
        <time>2015-04-27T18:37:47Z</time>
      </trkpt>
      <trkpt lat="37.382388" lon="-122.185032">
        <ele>129.9</ele>
        <time>2015-04-27T18:37:48Z</time>
      </trkpt>
      <trkpt lat="37.382442" lon="-122.18513">
        <ele>129.9</ele>
        <time>2015-04-27T18:37:49Z</time>
      </trkpt>
      <trkpt lat="37.382497" lon="-122.185225">
        <ele>129.3</ele>
        <time>2015-04-27T18:37:50Z</time>
      </trkpt>
      <trkpt lat="37.382553" lon="-122.18531">
        <ele>128.8</ele>
        <time>2015-04-27T18:37:51Z</time>
      </trkpt>
      <trkpt lat="37.382619" lon="-122.185387">
        <ele>128.5</ele>
        <time>2015-04-27T18:37:52Z</time>
      </trkpt>
      <trkpt lat="37.382689" lon="-122.185465">
        <ele>128.2</ele>
        <time>2015-04-27T18:37:53Z</time>
      </trkpt>
      <trkpt lat="37.382757" lon="-122.185537">
        <ele>127.8</ele>
        <time>2015-04-27T18:37:54Z</time>
      </trkpt>
      <trkpt lat="37.382825" lon="-122.185604">
        <ele>127.4</ele>
        <time>2015-04-27T18:37:55Z</time>
      </trkpt>
      <trkpt lat="37.382898" lon="-122.185674">
        <ele>126.9</ele>
        <time>2015-04-27T18:37:56Z</time>
      </trkpt>
      <trkpt lat="37.382969" lon="-122.185742">
        <ele>126.6</ele>
        <time>2015-04-27T18:37:57Z</time>
      </trkpt>
      <trkpt lat="37.383042" lon="-122.185812">
        <ele>126</ele>
        <time>2015-04-27T18:37:58Z</time>
      </trkpt>
      <trkpt lat="37.383116" lon="-122.185883">
        <ele>125.5</ele>
        <time>2015-04-27T18:37:59Z</time>
      </trkpt>
      <trkpt lat="37.383189" lon="-122.185953">
        <ele>125.1</ele>
        <time>2015-04-27T18:38:00Z</time>
      </trkpt>
      <trkpt lat="37.383279" lon="-122.186038">
        <ele>124.5</ele>
        <time>2015-04-27T18:38:01Z</time>
      </trkpt>
      <trkpt lat="37.383359" lon="-122.186113">
        <ele>124.3</ele>
        <time>2015-04-27T18:38:02Z</time>
      </trkpt>
      <trkpt lat="37.383439" lon="-122.186189">
        <ele>123.9</ele>
        <time>2015-04-27T18:38:03Z</time>
      </trkpt>
      <trkpt lat="37.383523" lon="-122.186269">
        <ele>123.4</ele>
        <time>2015-04-27T18:38:04Z</time>
      </trkpt>
      <trkpt lat="37.383606" lon="-122.186347">
        <ele>123</ele>
        <time>2015-04-27T18:38:05Z</time>
      </trkpt>
      <trkpt lat="37.383666" lon="-122.186402">
        <ele>122.7</ele>
        <time>2015-04-27T18:38:06Z</time>
      </trkpt>
      <trkpt lat="37.383754" lon="-122.186481">
        <ele>122.1</ele>
        <time>2015-04-27T18:38:07Z</time>
      </trkpt>
      <trkpt lat="37.383825" lon="-122.186545">
        <ele>121.8</ele>
        <time>2015-04-27T18:38:08Z</time>
      </trkpt>
      <trkpt lat="37.383914" lon="-122.186623">
        <ele>121.5</ele>
        <time>2015-04-27T18:38:09Z</time>
      </trkpt>
      <trkpt lat="37.383999" lon="-122.186697">
        <ele>121.4</ele>
        <time>2015-04-27T18:38:10Z</time>
      </trkpt>
      <trkpt lat="37.384075" lon="-122.186776">
        <ele>122.3</ele>
        <time>2015-04-27T18:38:11Z</time>
      </trkpt>
      <trkpt lat="37.384158" lon="-122.186862">
        <ele>123</ele>
        <time>2015-04-27T18:38:12Z</time>
      </trkpt>
      <trkpt lat="37.384227" lon="-122.186939">
        <ele>123</ele>
        <time>2015-04-27T18:38:13Z</time>
      </trkpt>
      <trkpt lat="37.384291" lon="-122.187016">
        <ele>122.9</ele>
        <time>2015-04-27T18:38:14Z</time>
      </trkpt>
      <trkpt lat="37.384368" lon="-122.187115">
        <ele>122.4</ele>
        <time>2015-04-27T18:38:15Z</time>
      </trkpt>
      <trkpt lat="37.384438" lon="-122.18723">
        <ele>121.3</ele>
        <time>2015-04-27T18:38:16Z</time>
      </trkpt>
      <trkpt lat="37.384484" lon="-122.187325">
        <ele>120.4</ele>
        <time>2015-04-27T18:38:17Z</time>
      </trkpt>
      <trkpt lat="37.38453" lon="-122.187443">
        <ele>119.1</ele>
        <time>2015-04-27T18:38:18Z</time>
      </trkpt>
      <trkpt lat="37.384572" lon="-122.187581">
        <ele>116.7</ele>
        <time>2015-04-27T18:38:19Z</time>
      </trkpt>
      <trkpt lat="37.384605" lon="-122.187691">
        <ele>116.1</ele>
        <time>2015-04-27T18:38:20Z</time>
      </trkpt>
      <trkpt lat="37.384637" lon="-122.187819">
        <ele>115.2</ele>
        <time>2015-04-27T18:38:21Z</time>
      </trkpt>
      <trkpt lat="37.384664" lon="-122.187932">
        <ele>114.6</ele>
        <time>2015-04-27T18:38:22Z</time>
      </trkpt>
      <trkpt lat="37.384692" lon="-122.188046">
        <ele>114.2</ele>
        <time>2015-04-27T18:38:23Z</time>
      </trkpt>
      <trkpt lat="37.384724" lon="-122.188198">
        <ele>113.9</ele>
        <time>2015-04-27T18:38:24Z</time>
      </trkpt>
      <trkpt lat="37.384731" lon="-122.188304">
        <ele>113.7</ele>
        <time>2015-04-27T18:38:25Z</time>
      </trkpt>
      <trkpt lat="37.384739" lon="-122.18844">
        <ele>113.5</ele>
        <time>2015-04-27T18:38:26Z</time>
      </trkpt>
      <trkpt lat="37.384748" lon="-122.188595">
        <ele>113.6</ele>
        <time>2015-04-27T18:38:27Z</time>
      </trkpt>
      <trkpt lat="37.384752" lon="-122.188703">
        <ele>113.7</ele>
        <time>2015-04-27T18:38:28Z</time>
      </trkpt>
      <trkpt lat="37.384757" lon="-122.188829">
        <ele>113.9</ele>
        <time>2015-04-27T18:38:29Z</time>
      </trkpt>
      <trkpt lat="37.384761" lon="-122.188953">
        <ele>114.2</ele>
        <time>2015-04-27T18:38:30Z</time>
      </trkpt>
      <trkpt lat="37.384766" lon="-122.189071">
        <ele>114.6</ele>
        <time>2015-04-27T18:38:31Z</time>
      </trkpt>
      <trkpt lat="37.384768" lon="-122.189172">
        <ele>114.9</ele>
        <time>2015-04-27T18:38:32Z</time>
      </trkpt>
      <trkpt lat="37.384764" lon="-122.189267">
        <ele>115.2</ele>
        <time>2015-04-27T18:38:33Z</time>
      </trkpt>
      <trkpt lat="37.384753" lon="-122.189359">
        <ele>115.2</ele>
        <time>2015-04-27T18:38:34Z</time>
      </trkpt>
      <trkpt lat="37.384743" lon="-122.189427">
        <ele>115.4</ele>
        <time>2015-04-27T18:38:35Z</time>
      </trkpt>
      <trkpt lat="37.38472" lon="-122.189511">
        <ele>115.6</ele>
        <time>2015-04-27T18:38:36Z</time>
      </trkpt>
      <trkpt lat="37.384697" lon="-122.18956">
        <ele>115.7</ele>
        <time>2015-04-27T18:38:37Z</time>
      </trkpt>
      <trkpt lat="37.384647" lon="-122.189653">
        <ele>116</ele>
        <time>2015-04-27T18:38:38Z</time>
      </trkpt>
      <trkpt lat="37.384604" lon="-122.189731">
        <ele>116.3</ele>
        <time>2015-04-27T18:38:39Z</time>
      </trkpt>
      <trkpt lat="37.384564" lon="-122.189806">
        <ele>116.3</ele>
        <time>2015-04-27T18:38:41Z</time>
      </trkpt>
      <trkpt lat="37.384489" lon="-122.189944">
        <ele>116.2</ele>
        <time>2015-04-27T18:38:42Z</time>
      </trkpt>
      <trkpt lat="37.384451" lon="-122.190017">
        <ele>116.4</ele>
        <time>2015-04-27T18:38:43Z</time>
      </trkpt>
      <trkpt lat="37.38441" lon="-122.190094">
        <ele>116.3</ele>
        <time>2015-04-27T18:38:44Z</time>
      </trkpt>
      <trkpt lat="37.384376" lon="-122.190156">
        <ele>116.3</ele>
        <time>2015-04-27T18:38:46Z</time>
      </trkpt>
      <trkpt lat="37.384332" lon="-122.190235">
        <ele>116.4</ele>
        <time>2015-04-27T18:38:47Z</time>
      </trkpt>
      <trkpt lat="37.384203" lon="-122.190469">
        <ele>116.1</ele>
        <time>2015-04-27T18:38:49Z</time>
      </trkpt>
      <trkpt lat="37.384159" lon="-122.190547">
        <ele>116.1</ele>
        <time>2015-04-27T18:38:51Z</time>
      </trkpt>
      <trkpt lat="37.384115" lon="-122.190626">
        <ele>116</ele>
        <time>2015-04-27T18:38:52Z</time>
      </trkpt>
      <trkpt lat="37.384069" lon="-122.190708">
        <ele>115.5</ele>
        <time>2015-04-27T18:38:53Z</time>
      </trkpt>
      <trkpt lat="37.384024" lon="-122.190787">
        <ele>115.3</ele>
        <time>2015-04-27T18:38:54Z</time>
      </trkpt>
      <trkpt lat="37.383924" lon="-122.190965">
        <ele>114.8</ele>
        <time>2015-04-27T18:38:56Z</time>
      </trkpt>
      <trkpt lat="37.383883" lon="-122.191039">
        <ele>114.6</ele>
        <time>2015-04-27T18:38:57Z</time>
      </trkpt>
      <trkpt lat="37.383778" lon="-122.191226">
        <ele>114.5</ele>
        <time>2015-04-27T18:38:59Z</time>
      </trkpt>
      <trkpt lat="37.383687" lon="-122.191388">
        <ele>114.5</ele>
        <time>2015-04-27T18:39:00Z</time>
      </trkpt>
      <trkpt lat="37.383641" lon="-122.191469">
        <ele>114.6</ele>
        <time>2015-04-27T18:39:01Z</time>
      </trkpt>
      <trkpt lat="37.383588" lon="-122.191562">
        <ele>114.7</ele>
        <time>2015-04-27T18:39:02Z</time>
      </trkpt>
      <trkpt lat="37.383543" lon="-122.191634">
        <ele>115</ele>
        <time>2015-04-27T18:39:03Z</time>
      </trkpt>
      <trkpt lat="37.38351" lon="-122.191687">
        <ele>115.1</ele>
        <time>2015-04-27T18:39:04Z</time>
      </trkpt>
      <trkpt lat="37.383466" lon="-122.191761">
        <ele>115</ele>
        <time>2015-04-27T18:39:05Z</time>
      </trkpt>
      <trkpt lat="37.383422" lon="-122.191845">
        <ele>114.9</ele>
        <time>2015-04-27T18:39:06Z</time>
      </trkpt>
      <trkpt lat="37.383386" lon="-122.191932">
        <ele>114.9</ele>
        <time>2015-04-27T18:39:07Z</time>
      </trkpt>
      <trkpt lat="37.38336" lon="-122.191999">
        <ele>114.8</ele>
        <time>2015-04-27T18:39:08Z</time>
      </trkpt>
      <trkpt lat="37.383329" lon="-122.192078">
        <ele>114.7</ele>
        <time>2015-04-27T18:39:09Z</time>
      </trkpt>
      <trkpt lat="37.383294" lon="-122.192171">
        <ele>114.7</ele>
        <time>2015-04-27T18:39:10Z</time>
      </trkpt>
      <trkpt lat="37.383273" lon="-122.192227">
        <ele>114.8</ele>
        <time>2015-04-27T18:39:11Z</time>
      </trkpt>
      <trkpt lat="37.38326" lon="-122.192261">
        <ele>114.8</ele>
        <time>2015-04-27T18:39:12Z</time>
      </trkpt>
      <trkpt lat="37.383246" lon="-122.192298">
        <ele>114.7</ele>
        <time>2015-04-27T18:39:13Z</time>
      </trkpt>
      <trkpt lat="37.383222" lon="-122.192363">
        <ele>114.9</ele>
        <time>2015-04-27T18:39:15Z</time>
      </trkpt>
      <trkpt lat="37.383175" lon="-122.192482">
        <ele>114.9</ele>
        <time>2015-04-27T18:39:16Z</time>
      </trkpt>
      <trkpt lat="37.383155" lon="-122.192546">
        <ele>114.9</ele>
        <time>2015-04-27T18:39:17Z</time>
      </trkpt>
      <trkpt lat="37.383139" lon="-122.19259">
        <ele>114.9</ele>
        <time>2015-04-27T18:39:18Z</time>
      </trkpt>
      <trkpt lat="37.383121" lon="-122.192637">
        <ele>115</ele>
        <time>2015-04-27T18:39:19Z</time>
      </trkpt>
      <trkpt lat="37.383084" lon="-122.192705">
        <ele>115.1</ele>
        <time>2015-04-27T18:39:20Z</time>
      </trkpt>
      <trkpt lat="37.383034" lon="-122.192782">
        <ele>115.2</ele>
        <time>2015-04-27T18:39:21Z</time>
      </trkpt>
      <trkpt lat="37.383017" lon="-122.192811">
        <ele>115.3</ele>
        <time>2015-04-27T18:39:22Z</time>
      </trkpt>
      <trkpt lat="37.382979" lon="-122.192877">
        <ele>115.4</ele>
        <time>2015-04-27T18:39:23Z</time>
      </trkpt>
      <trkpt lat="37.382948" lon="-122.192931">
        <ele>115.4</ele>
        <time>2015-04-27T18:39:24Z</time>
      </trkpt>
      <trkpt lat="37.382926" lon="-122.192975">
        <ele>115.2</ele>
        <time>2015-04-27T18:39:25Z</time>
      </trkpt>
      <trkpt lat="37.382897" lon="-122.193049">
        <ele>115.7</ele>
        <time>2015-04-27T18:39:26Z</time>
      </trkpt>
      <trkpt lat="37.382876" lon="-122.193112">
        <ele>116.1</ele>
        <time>2015-04-27T18:39:27Z</time>
      </trkpt>
      <trkpt lat="37.382865" lon="-122.193154">
        <ele>116.4</ele>
        <time>2015-04-27T18:39:28Z</time>
      </trkpt>
      <trkpt lat="37.382854" lon="-122.193215">
        <ele>117</ele>
        <time>2015-04-27T18:39:29Z</time>
      </trkpt>
      <trkpt lat="37.382847" lon="-122.19327">
        <ele>117.6</ele>
        <time>2015-04-27T18:39:31Z</time>
      </trkpt>
      <trkpt lat="37.38294" lon="-122.193525">
        <ele>118.6</ele>
        <time>2015-04-27T18:39:36Z</time>
      </trkpt>
      <trkpt lat="37.382924" lon="-122.193652">
        <ele>119.1</ele>
        <time>2015-04-27T18:39:39Z</time>
      </trkpt>
      <trkpt lat="37.382902" lon="-122.193688">
        <ele>119.3</ele>
        <time>2015-04-27T18:39:40Z</time>
      </trkpt>
      <trkpt lat="37.382872" lon="-122.193724">
        <ele>119.5</ele>
        <time>2015-04-27T18:39:41Z</time>
      </trkpt>
      <trkpt lat="37.382842" lon="-122.193755">
        <ele>119.6</ele>
        <time>2015-04-27T18:39:42Z</time>
      </trkpt>
      <trkpt lat="37.38282" lon="-122.193785">
        <ele>119.9</ele>
        <time>2015-04-27T18:39:43Z</time>
      </trkpt>
      <trkpt lat="37.382794" lon="-122.193815">
        <ele>120</ele>
        <time>2015-04-27T18:39:44Z</time>
      </trkpt>
      <trkpt lat="37.382774" lon="-122.193852">
        <ele>120.6</ele>
        <time>2015-04-27T18:39:45Z</time>
      </trkpt>
      <trkpt lat="37.382746" lon="-122.193886">
        <ele>120.8</ele>
        <time>2015-04-27T18:39:46Z</time>
      </trkpt>
      <trkpt lat="37.382718" lon="-122.193912">
        <ele>120.7</ele>
        <time>2015-04-27T18:39:47Z</time>
      </trkpt>
      <trkpt lat="37.382693" lon="-122.193943">
        <ele>120.9</ele>
        <time>2015-04-27T18:39:48Z</time>
      </trkpt>
      <trkpt lat="37.382658" lon="-122.193971">
        <ele>120.7</ele>
        <time>2015-04-27T18:39:49Z</time>
      </trkpt>
      <trkpt lat="37.38263" lon="-122.193995">
        <ele>120.5</ele>
        <time>2015-04-27T18:39:50Z</time>
      </trkpt>
      <trkpt lat="37.382577" lon="-122.194031">
        <ele>119.8</ele>
        <time>2015-04-27T18:39:52Z</time>
      </trkpt>
      <trkpt lat="37.382554" lon="-122.194052">
        <ele>120</ele>
        <time>2015-04-27T18:39:53Z</time>
      </trkpt>
      <trkpt lat="37.382523" lon="-122.194081">
        <ele>120</ele>
        <time>2015-04-27T18:39:54Z</time>
      </trkpt>
      <trkpt lat="37.382494" lon="-122.194112">
        <ele>120</ele>
        <time>2015-04-27T18:39:55Z</time>
      </trkpt>
      <trkpt lat="37.382464" lon="-122.194144">
        <ele>120.1</ele>
        <time>2015-04-27T18:39:56Z</time>
      </trkpt>
      <trkpt lat="37.382426" lon="-122.194178">
        <ele>120.2</ele>
        <time>2015-04-27T18:39:57Z</time>
      </trkpt>
      <trkpt lat="37.382389" lon="-122.194232">
        <ele>120.3</ele>
        <time>2015-04-27T18:39:59Z</time>
      </trkpt>
      <trkpt lat="37.382362" lon="-122.194282">
        <ele>120.3</ele>
        <time>2015-04-27T18:40:00Z</time>
      </trkpt>
      <trkpt lat="37.382337" lon="-122.194307">
        <ele>120.5</ele>
        <time>2015-04-27T18:40:01Z</time>
      </trkpt>
      <trkpt lat="37.382312" lon="-122.19433">
        <ele>120.7</ele>
        <time>2015-04-27T18:40:02Z</time>
      </trkpt>
      <trkpt lat="37.382283" lon="-122.194354">
        <ele>120.9</ele>
        <time>2015-04-27T18:40:03Z</time>
      </trkpt>
      <trkpt lat="37.382254" lon="-122.194388">
        <ele>121.1</ele>
        <time>2015-04-27T18:40:04Z</time>
      </trkpt>
      <trkpt lat="37.38223" lon="-122.194421">
        <ele>121.2</ele>
        <time>2015-04-27T18:40:05Z</time>
      </trkpt>
      <trkpt lat="37.382239" lon="-122.194362">
        <ele>121.2</ele>
        <time>2015-04-27T18:40:07Z</time>
      </trkpt>
      <trkpt lat="37.38224" lon="-122.194548">
        <ele>121.7</ele>
        <time>2015-04-27T18:40:09Z</time>
      </trkpt>
      <trkpt lat="37.382297" lon="-122.194574">
        <ele>122</ele>
        <time>2015-04-27T18:40:10Z</time>
      </trkpt>
      <trkpt lat="37.382336" lon="-122.194577">
        <ele>122.2</ele>
        <time>2015-04-27T18:40:12Z</time>
      </trkpt>
      <trkpt lat="37.382383" lon="-122.194571">
        <ele>122.6</ele>
        <time>2015-04-27T18:40:13Z</time>
      </trkpt>
      <trkpt lat="37.382426" lon="-122.194556">
        <ele>122.9</ele>
        <time>2015-04-27T18:40:14Z</time>
      </trkpt>
      <trkpt lat="37.382489" lon="-122.194514">
        <ele>123.7</ele>
        <time>2015-04-27T18:40:18Z</time>
      </trkpt>
      <trkpt lat="37.382513" lon="-122.194487">
        <ele>124</ele>
        <time>2015-04-27T18:40:19Z</time>
      </trkpt>
      <trkpt lat="37.382543" lon="-122.194453">
        <ele>124.4</ele>
        <time>2015-04-27T18:40:20Z</time>
      </trkpt>
      <trkpt lat="37.38257" lon="-122.194421">
        <ele>124.6</ele>
        <time>2015-04-27T18:40:22Z</time>
      </trkpt>
      <trkpt lat="37.382597" lon="-122.194388">
        <ele>124.9</ele>
        <time>2015-04-27T18:40:24Z</time>
      </trkpt>
      <trkpt lat="37.382627" lon="-122.194351">
        <ele>125.3</ele>
        <time>2015-04-27T18:40:26Z</time>
      </trkpt>
      <trkpt lat="37.382656" lon="-122.194314">
        <ele>125.7</ele>
        <time>2015-04-27T18:40:28Z</time>
      </trkpt>
      <trkpt lat="37.382691" lon="-122.194275">
        <ele>126.2</ele>
        <time>2015-04-27T18:40:30Z</time>
      </trkpt>
      <trkpt lat="37.38273" lon="-122.194234">
        <ele>126.6</ele>
        <time>2015-04-27T18:40:32Z</time>
      </trkpt>
      <trkpt lat="37.38276" lon="-122.194203">
        <ele>127</ele>
        <time>2015-04-27T18:40:35Z</time>
      </trkpt>
      <trkpt lat="37.38281" lon="-122.194153">
        <ele>127.6</ele>
        <time>2015-04-27T18:40:36Z</time>
      </trkpt>
      <trkpt lat="37.382831" lon="-122.194133">
        <ele>127.9</ele>
        <time>2015-04-27T18:40:37Z</time>
      </trkpt>
      <trkpt lat="37.382855" lon="-122.194109">
        <ele>128.2</ele>
        <time>2015-04-27T18:40:38Z</time>
      </trkpt>
      <trkpt lat="37.382891" lon="-122.194079">
        <ele>128.6</ele>
        <time>2015-04-27T18:40:40Z</time>
      </trkpt>
      <trkpt lat="37.382926" lon="-122.194052">
        <ele>129.1</ele>
        <time>2015-04-27T18:40:42Z</time>
      </trkpt>
      <trkpt lat="37.382959" lon="-122.194029">
        <ele>129.5</ele>
        <time>2015-04-27T18:40:45Z</time>
      </trkpt>
      <trkpt lat="37.382986" lon="-122.194015">
        <ele>129.9</ele>
        <time>2015-04-27T18:40:47Z</time>
      </trkpt>
      <trkpt lat="37.383014" lon="-122.194002">
        <ele>130.2</ele>
        <time>2015-04-27T18:40:49Z</time>
      </trkpt>
      <trkpt lat="37.38305" lon="-122.193988">
        <ele>130.6</ele>
        <time>2015-04-27T18:40:51Z</time>
      </trkpt>
      <trkpt lat="37.38308" lon="-122.193976">
        <ele>131.1</ele>
        <time>2015-04-27T18:40:53Z</time>
      </trkpt>
      <trkpt lat="37.383123" lon="-122.193963">
        <ele>131.6</ele>
        <time>2015-04-27T18:40:55Z</time>
      </trkpt>
      <trkpt lat="37.383161" lon="-122.193952">
        <ele>132.1</ele>
        <time>2015-04-27T18:40:57Z</time>
      </trkpt>
      <trkpt lat="37.383198" lon="-122.193946">
        <ele>132.6</ele>
        <time>2015-04-27T18:40:59Z</time>
      </trkpt>
      <trkpt lat="37.383232" lon="-122.193946">
        <ele>133</ele>
        <time>2015-04-27T18:41:01Z</time>
      </trkpt>
      <trkpt lat="37.383288" lon="-122.193967">
        <ele>133.8</ele>
        <time>2015-04-27T18:41:04Z</time>
      </trkpt>
      <trkpt lat="37.383315" lon="-122.193984">
        <ele>134.2</ele>
        <time>2015-04-27T18:41:06Z</time>
      </trkpt>
      <trkpt lat="37.383338" lon="-122.194002">
        <ele>134.6</ele>
        <time>2015-04-27T18:41:08Z</time>
      </trkpt>
      <trkpt lat="37.383366" lon="-122.194036">
        <ele>135.1</ele>
        <time>2015-04-27T18:41:10Z</time>
      </trkpt>
      <trkpt lat="37.383392" lon="-122.194063">
        <ele>135.4</ele>
        <time>2015-04-27T18:41:12Z</time>
      </trkpt>
      <trkpt lat="37.383421" lon="-122.19408">
        <ele>136</ele>
        <time>2015-04-27T18:41:15Z</time>
      </trkpt>
      <trkpt lat="37.383449" lon="-122.194095">
        <ele>136.5</ele>
        <time>2015-04-27T18:41:16Z</time>
      </trkpt>
      <trkpt lat="37.383473" lon="-122.194111">
        <ele>137.1</ele>
        <time>2015-04-27T18:41:18Z</time>
      </trkpt>
      <trkpt lat="37.38349" lon="-122.194139">
        <ele>137.4</ele>
        <time>2015-04-27T18:41:20Z</time>
      </trkpt>
      <trkpt lat="37.383507" lon="-122.194169">
        <ele>137.5</ele>
        <time>2015-04-27T18:41:22Z</time>
      </trkpt>
      <trkpt lat="37.383529" lon="-122.194192">
        <ele>137.9</ele>
        <time>2015-04-27T18:41:24Z</time>
      </trkpt>
      <trkpt lat="37.383554" lon="-122.194216">
        <ele>138.6</ele>
        <time>2015-04-27T18:41:26Z</time>
      </trkpt>
      <trkpt lat="37.383578" lon="-122.194243">
        <ele>138.9</ele>
        <time>2015-04-27T18:41:28Z</time>
      </trkpt>
      <trkpt lat="37.383599" lon="-122.194269">
        <ele>139.1</ele>
        <time>2015-04-27T18:41:30Z</time>
      </trkpt>
      <trkpt lat="37.383622" lon="-122.194295">
        <ele>139.6</ele>
        <time>2015-04-27T18:41:32Z</time>
      </trkpt>
      <trkpt lat="37.383651" lon="-122.194328">
        <ele>140</ele>
        <time>2015-04-27T18:41:35Z</time>
      </trkpt>
      <trkpt lat="37.383674" lon="-122.194359">
        <ele>140.5</ele>
        <time>2015-04-27T18:41:37Z</time>
      </trkpt>
      <trkpt lat="37.383698" lon="-122.194393">
        <ele>141</ele>
        <time>2015-04-27T18:41:40Z</time>
      </trkpt>
      <trkpt lat="37.383718" lon="-122.194425">
        <ele>141.4</ele>
        <time>2015-04-27T18:41:41Z</time>
      </trkpt>
      <trkpt lat="37.383745" lon="-122.19446">
        <ele>142</ele>
        <time>2015-04-27T18:41:43Z</time>
      </trkpt>
      <trkpt lat="37.383766" lon="-122.194489">
        <ele>142.5</ele>
        <time>2015-04-27T18:41:46Z</time>
      </trkpt>
      <trkpt lat="37.383784" lon="-122.194517">
        <ele>142.9</ele>
        <time>2015-04-27T18:41:48Z</time>
      </trkpt>
      <trkpt lat="37.38381" lon="-122.194543">
        <ele>143.5</ele>
        <time>2015-04-27T18:41:50Z</time>
      </trkpt>
      <trkpt lat="37.383841" lon="-122.194577">
        <ele>144.3</ele>
        <time>2015-04-27T18:41:52Z</time>
      </trkpt>
      <trkpt lat="37.383863" lon="-122.194603">
        <ele>144.8</ele>
        <time>2015-04-27T18:41:54Z</time>
      </trkpt>
      <trkpt lat="37.383883" lon="-122.194631">
        <ele>145.2</ele>
        <time>2015-04-27T18:41:57Z</time>
      </trkpt>
      <trkpt lat="37.383903" lon="-122.194682">
        <ele>145.8</ele>
        <time>2015-04-27T18:41:59Z</time>
      </trkpt>
      <trkpt lat="37.383908" lon="-122.194702">
        <ele>146</ele>
        <time>2015-04-27T18:42:00Z</time>
      </trkpt>
      <trkpt lat="37.383923" lon="-122.194737">
        <ele>146.5</ele>
        <time>2015-04-27T18:42:02Z</time>
      </trkpt>
      <trkpt lat="37.383934" lon="-122.194774">
        <ele>146.9</ele>
        <time>2015-04-27T18:42:04Z</time>
      </trkpt>
      <trkpt lat="37.383946" lon="-122.194815">
        <ele>147.4</ele>
        <time>2015-04-27T18:42:06Z</time>
      </trkpt>
      <trkpt lat="37.383952" lon="-122.194852">
        <ele>147.9</ele>
        <time>2015-04-27T18:42:08Z</time>
      </trkpt>
      <trkpt lat="37.383966" lon="-122.194889">
        <ele>148.5</ele>
        <time>2015-04-27T18:42:10Z</time>
      </trkpt>
      <trkpt lat="37.383973" lon="-122.194932">
        <ele>149.1</ele>
        <time>2015-04-27T18:42:12Z</time>
      </trkpt>
      <trkpt lat="37.383979" lon="-122.194973">
        <ele>149.6</ele>
        <time>2015-04-27T18:42:14Z</time>
      </trkpt>
      <trkpt lat="37.383988" lon="-122.195008">
        <ele>150.1</ele>
        <time>2015-04-27T18:42:16Z</time>
      </trkpt>
      <trkpt lat="37.383994" lon="-122.195045">
        <ele>150.5</ele>
        <time>2015-04-27T18:42:18Z</time>
      </trkpt>
      <trkpt lat="37.383999" lon="-122.195086">
        <ele>151.1</ele>
        <time>2015-04-27T18:42:20Z</time>
      </trkpt>
      <trkpt lat="37.384007" lon="-122.195125">
        <ele>151.4</ele>
        <time>2015-04-27T18:42:22Z</time>
      </trkpt>
      <trkpt lat="37.384015" lon="-122.195173">
        <ele>152.2</ele>
        <time>2015-04-27T18:42:26Z</time>
      </trkpt>
      <trkpt lat="37.384028" lon="-122.195213">
        <ele>153</ele>
        <time>2015-04-27T18:42:29Z</time>
      </trkpt>
      <trkpt lat="37.384044" lon="-122.195254">
        <ele>153.7</ele>
        <time>2015-04-27T18:42:31Z</time>
      </trkpt>
      <trkpt lat="37.384056" lon="-122.195286">
        <ele>154.3</ele>
        <time>2015-04-27T18:42:34Z</time>
      </trkpt>
      <trkpt lat="37.384066" lon="-122.195325">
        <ele>154.9</ele>
        <time>2015-04-27T18:42:36Z</time>
      </trkpt>
      <trkpt lat="37.384075" lon="-122.195362">
        <ele>155.4</ele>
        <time>2015-04-27T18:42:38Z</time>
      </trkpt>
      <trkpt lat="37.384086" lon="-122.195399">
        <ele>155.9</ele>
        <time>2015-04-27T18:42:40Z</time>
      </trkpt>
      <trkpt lat="37.3841" lon="-122.19544">
        <ele>156.3</ele>
        <time>2015-04-27T18:42:42Z</time>
      </trkpt>
      <trkpt lat="37.384111" lon="-122.195479">
        <ele>156.8</ele>
        <time>2015-04-27T18:42:44Z</time>
      </trkpt>
      <trkpt lat="37.384126" lon="-122.195517">
        <ele>157.1</ele>
        <time>2015-04-27T18:42:45Z</time>
      </trkpt>
      <trkpt lat="37.384146" lon="-122.195568">
        <ele>157.7</ele>
        <time>2015-04-27T18:42:48Z</time>
      </trkpt>
      <trkpt lat="37.384152" lon="-122.195586">
        <ele>157.8</ele>
        <time>2015-04-27T18:42:49Z</time>
      </trkpt>
      <trkpt lat="37.384158" lon="-122.195627">
        <ele>158.3</ele>
        <time>2015-04-27T18:42:52Z</time>
      </trkpt>
      <trkpt lat="37.384163" lon="-122.195664">
        <ele>159</ele>
        <time>2015-04-27T18:42:53Z</time>
      </trkpt>
      <trkpt lat="37.384175" lon="-122.195703">
        <ele>159.3</ele>
        <time>2015-04-27T18:42:55Z</time>
      </trkpt>
      <trkpt lat="37.384184" lon="-122.195745">
        <ele>160</ele>
        <time>2015-04-27T18:42:57Z</time>
      </trkpt>
      <trkpt lat="37.384185" lon="-122.195791">
        <ele>161.3</ele>
        <time>2015-04-27T18:42:59Z</time>
      </trkpt>
      <trkpt lat="37.384184" lon="-122.195835">
        <ele>162.3</ele>
        <time>2015-04-27T18:43:02Z</time>
      </trkpt>
      <trkpt lat="37.384188" lon="-122.195878">
        <ele>163.2</ele>
        <time>2015-04-27T18:43:03Z</time>
      </trkpt>
      <trkpt lat="37.384191" lon="-122.195925">
        <ele>164.1</ele>
        <time>2015-04-27T18:43:05Z</time>
      </trkpt>
      <trkpt lat="37.384199" lon="-122.19597">
        <ele>165</ele>
        <time>2015-04-27T18:43:08Z</time>
      </trkpt>
      <trkpt lat="37.384206" lon="-122.196015">
        <ele>165.7</ele>
        <time>2015-04-27T18:43:09Z</time>
      </trkpt>
      <trkpt lat="37.384214" lon="-122.196058">
        <ele>166.5</ele>
        <time>2015-04-27T18:43:13Z</time>
      </trkpt>
      <trkpt lat="37.384228" lon="-122.1961">
        <ele>167.3</ele>
        <time>2015-04-27T18:43:15Z</time>
      </trkpt>
      <trkpt lat="37.38424" lon="-122.196135">
        <ele>167.8</ele>
        <time>2015-04-27T18:43:17Z</time>
      </trkpt>
      <trkpt lat="37.384253" lon="-122.196169">
        <ele>168.2</ele>
        <time>2015-04-27T18:43:19Z</time>
      </trkpt>
      <trkpt lat="37.384264" lon="-122.196204">
        <ele>168.9</ele>
        <time>2015-04-27T18:43:21Z</time>
      </trkpt>
      <trkpt lat="37.384272" lon="-122.196255">
        <ele>170.2</ele>
        <time>2015-04-27T18:43:24Z</time>
      </trkpt>
      <trkpt lat="37.38428" lon="-122.196292">
        <ele>171.1</ele>
        <time>2015-04-27T18:43:26Z</time>
      </trkpt>
      <trkpt lat="37.384291" lon="-122.19633">
        <ele>172.2</ele>
        <time>2015-04-27T18:43:28Z</time>
      </trkpt>
      <trkpt lat="37.384304" lon="-122.19637">
        <ele>173.3</ele>
        <time>2015-04-27T18:43:30Z</time>
      </trkpt>
      <trkpt lat="37.384314" lon="-122.196417">
        <ele>173.7</ele>
        <time>2015-04-27T18:43:33Z</time>
      </trkpt>
      <trkpt lat="37.384323" lon="-122.196454">
        <ele>174.4</ele>
        <time>2015-04-27T18:43:35Z</time>
      </trkpt>
      <trkpt lat="37.384335" lon="-122.196497">
        <ele>175.1</ele>
        <time>2015-04-27T18:43:39Z</time>
      </trkpt>
      <trkpt lat="37.384329" lon="-122.196532">
        <ele>175</ele>
        <time>2015-04-27T18:43:42Z</time>
      </trkpt>
      <trkpt lat="37.384295" lon="-122.19653">
        <ele>174</ele>
        <time>2015-04-27T18:43:44Z</time>
      </trkpt>
      <trkpt lat="37.384269" lon="-122.196491">
        <ele>173.4</ele>
        <time>2015-04-27T18:43:46Z</time>
      </trkpt>
      <trkpt lat="37.384244" lon="-122.196453">
        <ele>172.6</ele>
        <time>2015-04-27T18:43:48Z</time>
      </trkpt>
      <trkpt lat="37.384225" lon="-122.196408">
        <ele>172.1</ele>
        <time>2015-04-27T18:43:50Z</time>
      </trkpt>
      <trkpt lat="37.384216" lon="-122.196364">
        <ele>171.2</ele>
        <time>2015-04-27T18:43:52Z</time>
      </trkpt>
      <trkpt lat="37.384207" lon="-122.196327">
        <ele>170.7</ele>
        <time>2015-04-27T18:43:54Z</time>
      </trkpt>
      <trkpt lat="37.384191" lon="-122.19629">
        <ele>170.1</ele>
        <time>2015-04-27T18:43:56Z</time>
      </trkpt>
      <trkpt lat="37.384175" lon="-122.19624">
        <ele>169.2</ele>
        <time>2015-04-27T18:43:58Z</time>
      </trkpt>
      <trkpt lat="37.384162" lon="-122.196179">
        <ele>168.4</ele>
        <time>2015-04-27T18:44:00Z</time>
      </trkpt>
      <trkpt lat="37.38414" lon="-122.196113">
        <ele>167</ele>
        <time>2015-04-27T18:44:02Z</time>
      </trkpt>
      <trkpt lat="37.384134" lon="-122.196078">
        <ele>166.3</ele>
        <time>2015-04-27T18:44:03Z</time>
      </trkpt>
      <trkpt lat="37.38413" lon="-122.196041">
        <ele>165.8</ele>
        <time>2015-04-27T18:44:04Z</time>
      </trkpt>
      <trkpt lat="37.384128" lon="-122.196003">
        <ele>165.4</ele>
        <time>2015-04-27T18:44:05Z</time>
      </trkpt>
      <trkpt lat="37.384124" lon="-122.195968">
        <ele>164.8</ele>
        <time>2015-04-27T18:44:06Z</time>
      </trkpt>
      <trkpt lat="37.384117" lon="-122.1959">
        <ele>163.7</ele>
        <time>2015-04-27T18:44:08Z</time>
      </trkpt>
      <trkpt lat="37.384113" lon="-122.195865">
        <ele>163.2</ele>
        <time>2015-04-27T18:44:09Z</time>
      </trkpt>
      <trkpt lat="37.384106" lon="-122.195831">
        <ele>162.6</ele>
        <time>2015-04-27T18:44:10Z</time>
      </trkpt>
      <trkpt lat="37.384098" lon="-122.195796">
        <ele>162</ele>
        <time>2015-04-27T18:44:11Z</time>
      </trkpt>
      <trkpt lat="37.384092" lon="-122.19576">
        <ele>161.4</ele>
        <time>2015-04-27T18:44:12Z</time>
      </trkpt>
      <trkpt lat="37.384082" lon="-122.195726">
        <ele>160.9</ele>
        <time>2015-04-27T18:44:13Z</time>
      </trkpt>
      <trkpt lat="37.38409" lon="-122.195682">
        <ele>160.2</ele>
        <time>2015-04-27T18:44:14Z</time>
      </trkpt>
      <trkpt lat="37.384082" lon="-122.195646">
        <ele>159.6</ele>
        <time>2015-04-27T18:44:15Z</time>
      </trkpt>
      <trkpt lat="37.384067" lon="-122.195582">
        <ele>158.5</ele>
        <time>2015-04-27T18:44:17Z</time>
      </trkpt>
      <trkpt lat="37.384055" lon="-122.195531">
        <ele>157.7</ele>
        <time>2015-04-27T18:44:19Z</time>
      </trkpt>
      <trkpt lat="37.384047" lon="-122.195498">
        <ele>157.2</ele>
        <time>2015-04-27T18:44:20Z</time>
      </trkpt>
      <trkpt lat="37.384032" lon="-122.195434">
        <ele>156.2</ele>
        <time>2015-04-27T18:44:22Z</time>
      </trkpt>
      <trkpt lat="37.384018" lon="-122.195374">
        <ele>155.2</ele>
        <time>2015-04-27T18:44:24Z</time>
      </trkpt>
      <trkpt lat="37.384009" lon="-122.195333">
        <ele>154.6</ele>
        <time>2015-04-27T18:44:25Z</time>
      </trkpt>
      <trkpt lat="37.383997" lon="-122.195282">
        <ele>153.8</ele>
        <time>2015-04-27T18:44:26Z</time>
      </trkpt>
      <trkpt lat="37.383956" lon="-122.19512">
        <ele>151.2</ele>
        <time>2015-04-27T18:44:30Z</time>
      </trkpt>
      <trkpt lat="37.383944" lon="-122.195075">
        <ele>150.6</ele>
        <time>2015-04-27T18:44:31Z</time>
      </trkpt>
      <trkpt lat="37.383932" lon="-122.19503">
        <ele>149.9</ele>
        <time>2015-04-27T18:44:32Z</time>
      </trkpt>
      <trkpt lat="37.383919" lon="-122.194984">
        <ele>149.2</ele>
        <time>2015-04-27T18:44:33Z</time>
      </trkpt>
      <trkpt lat="37.383907" lon="-122.194938">
        <ele>148.6</ele>
        <time>2015-04-27T18:44:34Z</time>
      </trkpt>
      <trkpt lat="37.383891" lon="-122.194883">
        <ele>147.7</ele>
        <time>2015-04-27T18:44:35Z</time>
      </trkpt>
      <trkpt lat="37.383877" lon="-122.194833">
        <ele>147</ele>
        <time>2015-04-27T18:44:36Z</time>
      </trkpt>
      <trkpt lat="37.383852" lon="-122.194745">
        <ele>145.8</ele>
        <time>2015-04-27T18:44:37Z</time>
      </trkpt>
      <trkpt lat="37.383834" lon="-122.194696">
        <ele>145.1</ele>
        <time>2015-04-27T18:44:38Z</time>
      </trkpt>
      <trkpt lat="37.383801" lon="-122.194615">
        <ele>144</ele>
        <time>2015-04-27T18:44:40Z</time>
      </trkpt>
      <trkpt lat="37.383777" lon="-122.194565">
        <ele>143.2</ele>
        <time>2015-04-27T18:44:41Z</time>
      </trkpt>
      <trkpt lat="37.383745" lon="-122.194504">
        <ele>142.3</ele>
        <time>2015-04-27T18:44:42Z</time>
      </trkpt>
      <trkpt lat="37.383714" lon="-122.194451">
        <ele>141.5</ele>
        <time>2015-04-27T18:44:43Z</time>
      </trkpt>
      <trkpt lat="37.383675" lon="-122.194396">
        <ele>140.7</ele>
        <time>2015-04-27T18:44:44Z</time>
      </trkpt>
      <trkpt lat="37.383644" lon="-122.194354">
        <ele>140.1</ele>
        <time>2015-04-27T18:44:45Z</time>
      </trkpt>
      <trkpt lat="37.383611" lon="-122.194308">
        <ele>139.4</ele>
        <time>2015-04-27T18:44:46Z</time>
      </trkpt>
      <trkpt lat="37.38358" lon="-122.194267">
        <ele>138.9</ele>
        <time>2015-04-27T18:44:47Z</time>
      </trkpt>
      <trkpt lat="37.383546" lon="-122.194224">
        <ele>138.3</ele>
        <time>2015-04-27T18:44:48Z</time>
      </trkpt>
      <trkpt lat="37.383508" lon="-122.194179">
        <ele>137.5</ele>
        <time>2015-04-27T18:44:49Z</time>
      </trkpt>
      <trkpt lat="37.383472" lon="-122.194139">
        <ele>137</ele>
        <time>2015-04-27T18:44:50Z</time>
      </trkpt>
      <trkpt lat="37.383438" lon="-122.194101">
        <ele>136.3</ele>
        <time>2015-04-27T18:44:51Z</time>
      </trkpt>
      <trkpt lat="37.383393" lon="-122.194054">
        <ele>135.5</ele>
        <time>2015-04-27T18:44:52Z</time>
      </trkpt>
      <trkpt lat="37.383314" lon="-122.193983">
        <ele>134.2</ele>
        <time>2015-04-27T18:44:53Z</time>
      </trkpt>
      <trkpt lat="37.38328" lon="-122.193964">
        <ele>133.7</ele>
        <time>2015-04-27T18:44:54Z</time>
      </trkpt>
      <trkpt lat="37.383235" lon="-122.193947">
        <ele>133</ele>
        <time>2015-04-27T18:44:55Z</time>
      </trkpt>
      <trkpt lat="37.38312" lon="-122.193964">
        <ele>131.6</ele>
        <time>2015-04-27T18:44:56Z</time>
      </trkpt>
      <trkpt lat="37.383087" lon="-122.193974">
        <ele>131.1</ele>
        <time>2015-04-27T18:44:57Z</time>
      </trkpt>
      <trkpt lat="37.383018" lon="-122.194001">
        <ele>130.3</ele>
        <time>2015-04-27T18:44:58Z</time>
      </trkpt>
      <trkpt lat="37.382934" lon="-122.194046">
        <ele>129.2</ele>
        <time>2015-04-27T18:44:59Z</time>
      </trkpt>
      <trkpt lat="37.382866" lon="-122.194098">
        <ele>128.4</ele>
        <time>2015-04-27T18:45:00Z</time>
      </trkpt>
      <trkpt lat="37.382809" lon="-122.194155">
        <ele>127.6</ele>
        <time>2015-04-27T18:45:01Z</time>
      </trkpt>
      <trkpt lat="37.382749" lon="-122.194214">
        <ele>126.9</ele>
        <time>2015-04-27T18:45:02Z</time>
      </trkpt>
      <trkpt lat="37.382689" lon="-122.194277">
        <ele>126.2</ele>
        <time>2015-04-27T18:45:03Z</time>
      </trkpt>
      <trkpt lat="37.382632" lon="-122.194344">
        <ele>125.4</ele>
        <time>2015-04-27T18:45:04Z</time>
      </trkpt>
      <trkpt lat="37.382583" lon="-122.194405">
        <ele>124.8</ele>
        <time>2015-04-27T18:45:05Z</time>
      </trkpt>
      <trkpt lat="37.382537" lon="-122.194459">
        <ele>124.3</ele>
        <time>2015-04-27T18:45:06Z</time>
      </trkpt>
      <trkpt lat="37.382492" lon="-122.194511">
        <ele>123.7</ele>
        <time>2015-04-27T18:45:07Z</time>
      </trkpt>
      <trkpt lat="37.382433" lon="-122.194554">
        <ele>123</ele>
        <time>2015-04-27T18:45:09Z</time>
      </trkpt>
      <trkpt lat="37.382386" lon="-122.19457">
        <ele>122.6</ele>
        <time>2015-04-27T18:45:10Z</time>
      </trkpt>
      <trkpt lat="37.382357" lon="-122.194574">
        <ele>122.4</ele>
        <time>2015-04-27T18:45:11Z</time>
      </trkpt>
      <trkpt lat="37.382303" lon="-122.194575">
        <ele>122.1</ele>
        <time>2015-04-27T18:45:12Z</time>
      </trkpt>
      <trkpt lat="37.382265" lon="-122.194564">
        <ele>121.8</ele>
        <time>2015-04-27T18:45:14Z</time>
      </trkpt>
      <trkpt lat="37.38222" lon="-122.194529">
        <ele>121.7</ele>
        <time>2015-04-27T18:45:18Z</time>
      </trkpt>
      <trkpt lat="37.382332" lon="-122.194577">
        <ele>122.2</ele>
        <time>2015-04-27T18:47:28Z</time>
      </trkpt>
      <trkpt lat="37.382359" lon="-122.194574">
        <ele>122.4</ele>
        <time>2015-04-27T18:47:29Z</time>
      </trkpt>
      <trkpt lat="37.382324" lon="-122.194576">
        <ele>122.2</ele>
        <time>2015-04-27T18:47:33Z</time>
      </trkpt>
      <trkpt lat="37.382292" lon="-122.194573">
        <ele>122</ele>
        <time>2015-04-27T18:47:36Z</time>
      </trkpt>
      <trkpt lat="37.382264" lon="-122.194564">
        <ele>121.8</ele>
        <time>2015-04-27T18:47:43Z</time>
      </trkpt>
      <trkpt lat="37.38222" lon="-122.194529">
        <ele>121.7</ele>
        <time>2015-04-27T18:47:46Z</time>
      </trkpt>
      <trkpt lat="37.382196" lon="-122.194498">
        <ele>121.6</ele>
        <time>2015-04-27T18:47:47Z</time>
      </trkpt>
      <trkpt lat="37.382095" lon="-122.19457">
        <ele>122.4</ele>
        <time>2015-04-27T18:47:51Z</time>
      </trkpt>
      <trkpt lat="37.382024" lon="-122.194653">
        <ele>123.3</ele>
        <time>2015-04-27T18:47:53Z</time>
      </trkpt>
      <trkpt lat="37.381972" lon="-122.194712">
        <ele>124.4</ele>
        <time>2015-04-27T18:47:55Z</time>
      </trkpt>
      <trkpt lat="37.381933" lon="-122.194749">
        <ele>124.9</ele>
        <time>2015-04-27T18:47:57Z</time>
      </trkpt>
      <trkpt lat="37.381915" lon="-122.194775">
        <ele>125.3</ele>
        <time>2015-04-27T18:47:58Z</time>
      </trkpt>
      <trkpt lat="37.381895" lon="-122.1948">
        <ele>125.8</ele>
        <time>2015-04-27T18:47:59Z</time>
      </trkpt>
      <trkpt lat="37.381873" lon="-122.194823">
        <ele>126</ele>
        <time>2015-04-27T18:48:00Z</time>
      </trkpt>
      <trkpt lat="37.381831" lon="-122.19487">
        <ele>126.3</ele>
        <time>2015-04-27T18:48:02Z</time>
      </trkpt>
      <trkpt lat="37.38181" lon="-122.194895">
        <ele>126.3</ele>
        <time>2015-04-27T18:48:03Z</time>
      </trkpt>
      <trkpt lat="37.381787" lon="-122.194921">
        <ele>126.1</ele>
        <time>2015-04-27T18:48:04Z</time>
      </trkpt>
      <trkpt lat="37.381765" lon="-122.194948">
        <ele>126</ele>
        <time>2015-04-27T18:48:05Z</time>
      </trkpt>
      <trkpt lat="37.381741" lon="-122.194975">
        <ele>126.6</ele>
        <time>2015-04-27T18:48:06Z</time>
      </trkpt>
      <trkpt lat="37.381718" lon="-122.195002">
        <ele>127</ele>
        <time>2015-04-27T18:48:07Z</time>
      </trkpt>
      <trkpt lat="37.381697" lon="-122.195024">
        <ele>127.3</ele>
        <time>2015-04-27T18:48:08Z</time>
      </trkpt>
      <trkpt lat="37.381676" lon="-122.195049">
        <ele>127.8</ele>
        <time>2015-04-27T18:48:09Z</time>
      </trkpt>
      <trkpt lat="37.381655" lon="-122.195072">
        <ele>128.1</ele>
        <time>2015-04-27T18:48:10Z</time>
      </trkpt>
      <trkpt lat="37.381633" lon="-122.195094">
        <ele>128.2</ele>
        <time>2015-04-27T18:48:11Z</time>
      </trkpt>
      <trkpt lat="37.381608" lon="-122.195118">
        <ele>128.4</ele>
        <time>2015-04-27T18:48:12Z</time>
      </trkpt>
      <trkpt lat="37.381586" lon="-122.195141">
        <ele>128.6</ele>
        <time>2015-04-27T18:48:13Z</time>
      </trkpt>
      <trkpt lat="37.381563" lon="-122.195164">
        <ele>128.7</ele>
        <time>2015-04-27T18:48:14Z</time>
      </trkpt>
      <trkpt lat="37.381523" lon="-122.195206">
        <ele>129.2</ele>
        <time>2015-04-27T18:48:16Z</time>
      </trkpt>
      <trkpt lat="37.381501" lon="-122.195229">
        <ele>129</ele>
        <time>2015-04-27T18:48:17Z</time>
      </trkpt>
      <trkpt lat="37.381458" lon="-122.195273">
        <ele>129.1</ele>
        <time>2015-04-27T18:48:19Z</time>
      </trkpt>
      <trkpt lat="37.381417" lon="-122.195315">
        <ele>128.9</ele>
        <time>2015-04-27T18:48:21Z</time>
      </trkpt>
      <trkpt lat="37.381396" lon="-122.195338">
        <ele>128.9</ele>
        <time>2015-04-27T18:48:22Z</time>
      </trkpt>
      <trkpt lat="37.381356" lon="-122.19538">
        <ele>128.9</ele>
        <time>2015-04-27T18:48:24Z</time>
      </trkpt>
      <trkpt lat="37.381333" lon="-122.195401">
        <ele>128.8</ele>
        <time>2015-04-27T18:48:25Z</time>
      </trkpt>
      <trkpt lat="37.38131" lon="-122.195423">
        <ele>129.2</ele>
        <time>2015-04-27T18:48:26Z</time>
      </trkpt>
      <trkpt lat="37.381269" lon="-122.195458">
        <ele>129.4</ele>
        <time>2015-04-27T18:48:28Z</time>
      </trkpt>
      <trkpt lat="37.381246" lon="-122.195477">
        <ele>129.1</ele>
        <time>2015-04-27T18:48:29Z</time>
      </trkpt>
      <trkpt lat="37.381222" lon="-122.195496">
        <ele>129</ele>
        <time>2015-04-27T18:48:30Z</time>
      </trkpt>
      <trkpt lat="37.38118" lon="-122.195534">
        <ele>129</ele>
        <time>2015-04-27T18:48:32Z</time>
      </trkpt>
      <trkpt lat="37.381157" lon="-122.195553">
        <ele>128.8</ele>
        <time>2015-04-27T18:48:33Z</time>
      </trkpt>
      <trkpt lat="37.381116" lon="-122.195594">
        <ele>129</ele>
        <time>2015-04-27T18:48:35Z</time>
      </trkpt>
      <trkpt lat="37.381076" lon="-122.195636">
        <ele>129</ele>
        <time>2015-04-27T18:48:37Z</time>
      </trkpt>
      <trkpt lat="37.381038" lon="-122.195675">
        <ele>129.2</ele>
        <time>2015-04-27T18:48:39Z</time>
      </trkpt>
      <trkpt lat="37.380993" lon="-122.195716">
        <ele>129.3</ele>
        <time>2015-04-27T18:48:41Z</time>
      </trkpt>
      <trkpt lat="37.380945" lon="-122.195757">
        <ele>129</ele>
        <time>2015-04-27T18:48:43Z</time>
      </trkpt>
      <trkpt lat="37.380894" lon="-122.195802">
        <ele>129.7</ele>
        <time>2015-04-27T18:48:45Z</time>
      </trkpt>
      <trkpt lat="37.380843" lon="-122.195846">
        <ele>130.1</ele>
        <time>2015-04-27T18:48:47Z</time>
      </trkpt>
      <trkpt lat="37.380816" lon="-122.195869">
        <ele>130.2</ele>
        <time>2015-04-27T18:48:48Z</time>
      </trkpt>
      <trkpt lat="37.380788" lon="-122.195891">
        <ele>130</ele>
        <time>2015-04-27T18:48:49Z</time>
      </trkpt>
      <trkpt lat="37.380758" lon="-122.195915">
        <ele>130.1</ele>
        <time>2015-04-27T18:48:50Z</time>
      </trkpt>
      <trkpt lat="37.380735" lon="-122.195933">
        <ele>130.5</ele>
        <time>2015-04-27T18:48:51Z</time>
      </trkpt>
      <trkpt lat="37.380708" lon="-122.195954">
        <ele>130.8</ele>
        <time>2015-04-27T18:48:52Z</time>
      </trkpt>
      <trkpt lat="37.380658" lon="-122.195985">
        <ele>130.6</ele>
        <time>2015-04-27T18:48:54Z</time>
      </trkpt>
      <trkpt lat="37.380631" lon="-122.196007">
        <ele>130.9</ele>
        <time>2015-04-27T18:48:55Z</time>
      </trkpt>
      <trkpt lat="37.38061" lon="-122.19603">
        <ele>131.3</ele>
        <time>2015-04-27T18:48:56Z</time>
      </trkpt>
      <trkpt lat="37.380586" lon="-122.196059">
        <ele>131.7</ele>
        <time>2015-04-27T18:48:57Z</time>
      </trkpt>
      <trkpt lat="37.380537" lon="-122.19609">
        <ele>132.2</ele>
        <time>2015-04-27T18:48:59Z</time>
      </trkpt>
      <trkpt lat="37.38051" lon="-122.196104">
        <ele>131.9</ele>
        <time>2015-04-27T18:49:00Z</time>
      </trkpt>
      <trkpt lat="37.380461" lon="-122.196138">
        <ele>132.4</ele>
        <time>2015-04-27T18:49:02Z</time>
      </trkpt>
      <trkpt lat="37.380436" lon="-122.196154">
        <ele>132.5</ele>
        <time>2015-04-27T18:49:03Z</time>
      </trkpt>
      <trkpt lat="37.380402" lon="-122.196158">
        <ele>131.4</ele>
        <time>2015-04-27T18:49:04Z</time>
      </trkpt>
      <trkpt lat="37.380375" lon="-122.19618">
        <ele>131.8</ele>
        <time>2015-04-27T18:49:05Z</time>
      </trkpt>
      <trkpt lat="37.380348" lon="-122.196198">
        <ele>131.8</ele>
        <time>2015-04-27T18:49:06Z</time>
      </trkpt>
      <trkpt lat="37.380319" lon="-122.196218">
        <ele>131.6</ele>
        <time>2015-04-27T18:49:07Z</time>
      </trkpt>
      <trkpt lat="37.380295" lon="-122.196235">
        <ele>131.7</ele>
        <time>2015-04-27T18:49:08Z</time>
      </trkpt>
      <trkpt lat="37.380268" lon="-122.19625">
        <ele>131.6</ele>
        <time>2015-04-27T18:49:09Z</time>
      </trkpt>
      <trkpt lat="37.380215" lon="-122.196279">
        <ele>131.5</ele>
        <time>2015-04-27T18:49:11Z</time>
      </trkpt>
      <trkpt lat="37.380173" lon="-122.196292">
        <ele>131.6</ele>
        <time>2015-04-27T18:49:12Z</time>
      </trkpt>
      <trkpt lat="37.380144" lon="-122.19631">
        <ele>131.6</ele>
        <time>2015-04-27T18:49:13Z</time>
      </trkpt>
      <trkpt lat="37.380104" lon="-122.196341">
        <ele>131.7</ele>
        <time>2015-04-27T18:49:14Z</time>
      </trkpt>
      <trkpt lat="37.380073" lon="-122.196361">
        <ele>131.8</ele>
        <time>2015-04-27T18:49:15Z</time>
      </trkpt>
      <trkpt lat="37.380042" lon="-122.196382">
        <ele>131.8</ele>
        <time>2015-04-27T18:49:16Z</time>
      </trkpt>
      <trkpt lat="37.38001" lon="-122.196402">
        <ele>131.9</ele>
        <time>2015-04-27T18:49:17Z</time>
      </trkpt>
      <trkpt lat="37.37998" lon="-122.19642">
        <ele>132</ele>
        <time>2015-04-27T18:49:18Z</time>
      </trkpt>
      <trkpt lat="37.379947" lon="-122.196435">
        <ele>132.1</ele>
        <time>2015-04-27T18:49:19Z</time>
      </trkpt>
      <trkpt lat="37.37991" lon="-122.196448">
        <ele>132.1</ele>
        <time>2015-04-27T18:49:20Z</time>
      </trkpt>
      <trkpt lat="37.379877" lon="-122.196465">
        <ele>132.1</ele>
        <time>2015-04-27T18:49:21Z</time>
      </trkpt>
      <trkpt lat="37.37984" lon="-122.196485">
        <ele>132.2</ele>
        <time>2015-04-27T18:49:22Z</time>
      </trkpt>
      <trkpt lat="37.379802" lon="-122.196506">
        <ele>132.2</ele>
        <time>2015-04-27T18:49:23Z</time>
      </trkpt>
      <trkpt lat="37.379757" lon="-122.196529">
        <ele>132.3</ele>
        <time>2015-04-27T18:49:24Z</time>
      </trkpt>
      <trkpt lat="37.379716" lon="-122.196548">
        <ele>132.3</ele>
        <time>2015-04-27T18:49:25Z</time>
      </trkpt>
      <trkpt lat="37.379675" lon="-122.196568">
        <ele>132.4</ele>
        <time>2015-04-27T18:49:26Z</time>
      </trkpt>
      <trkpt lat="37.379633" lon="-122.196585">
        <ele>132.5</ele>
        <time>2015-04-27T18:49:27Z</time>
      </trkpt>
      <trkpt lat="37.379599" lon="-122.196604">
        <ele>132.6</ele>
        <time>2015-04-27T18:49:28Z</time>
      </trkpt>
      <trkpt lat="37.379561" lon="-122.196624">
        <ele>132.7</ele>
        <time>2015-04-27T18:49:29Z</time>
      </trkpt>
      <trkpt lat="37.379525" lon="-122.196643">
        <ele>132.7</ele>
        <time>2015-04-27T18:49:30Z</time>
      </trkpt>
      <trkpt lat="37.379485" lon="-122.196663">
        <ele>132.7</ele>
        <time>2015-04-27T18:49:31Z</time>
      </trkpt>
      <trkpt lat="37.379454" lon="-122.196683">
        <ele>132.8</ele>
        <time>2015-04-27T18:49:32Z</time>
      </trkpt>
      <trkpt lat="37.379414" lon="-122.196706">
        <ele>132.9</ele>
        <time>2015-04-27T18:49:33Z</time>
      </trkpt>
      <trkpt lat="37.379379" lon="-122.196723">
        <ele>133</ele>
        <time>2015-04-27T18:49:34Z</time>
      </trkpt>
      <trkpt lat="37.379343" lon="-122.196732">
        <ele>133.1</ele>
        <time>2015-04-27T18:49:35Z</time>
      </trkpt>
      <trkpt lat="37.379302" lon="-122.196748">
        <ele>133.2</ele>
        <time>2015-04-27T18:49:36Z</time>
      </trkpt>
      <trkpt lat="37.379261" lon="-122.196763">
        <ele>133.3</ele>
        <time>2015-04-27T18:49:37Z</time>
      </trkpt>
      <trkpt lat="37.379229" lon="-122.196777">
        <ele>133.4</ele>
        <time>2015-04-27T18:49:38Z</time>
      </trkpt>
      <trkpt lat="37.379196" lon="-122.196794">
        <ele>133.5</ele>
        <time>2015-04-27T18:49:39Z</time>
      </trkpt>
      <trkpt lat="37.379152" lon="-122.196816">
        <ele>133.5</ele>
        <time>2015-04-27T18:49:40Z</time>
      </trkpt>
      <trkpt lat="37.379111" lon="-122.196847">
        <ele>133.6</ele>
        <time>2015-04-27T18:49:41Z</time>
      </trkpt>
      <trkpt lat="37.379074" lon="-122.196871">
        <ele>133.7</ele>
        <time>2015-04-27T18:49:42Z</time>
      </trkpt>
      <trkpt lat="37.379035" lon="-122.196889">
        <ele>133.8</ele>
        <time>2015-04-27T18:49:43Z</time>
      </trkpt>
      <trkpt lat="37.379007" lon="-122.196909">
        <ele>133.9</ele>
        <time>2015-04-27T18:49:44Z</time>
      </trkpt>
      <trkpt lat="37.378968" lon="-122.196924">
        <ele>134</ele>
        <time>2015-04-27T18:49:45Z</time>
      </trkpt>
      <trkpt lat="37.378934" lon="-122.196942">
        <ele>134.2</ele>
        <time>2015-04-27T18:49:46Z</time>
      </trkpt>
      <trkpt lat="37.378907" lon="-122.196958">
        <ele>134.2</ele>
        <time>2015-04-27T18:49:47Z</time>
      </trkpt>
      <trkpt lat="37.378875" lon="-122.19698">
        <ele>134.6</ele>
        <time>2015-04-27T18:49:48Z</time>
      </trkpt>
      <trkpt lat="37.37884" lon="-122.197001">
        <ele>134.9</ele>
        <time>2015-04-27T18:49:49Z</time>
      </trkpt>
      <trkpt lat="37.378816" lon="-122.19702">
        <ele>134.9</ele>
        <time>2015-04-27T18:49:50Z</time>
      </trkpt>
      <trkpt lat="37.37878" lon="-122.197037">
        <ele>135.3</ele>
        <time>2015-04-27T18:49:51Z</time>
      </trkpt>
      <trkpt lat="37.378751" lon="-122.197051">
        <ele>135</ele>
        <time>2015-04-27T18:49:52Z</time>
      </trkpt>
      <trkpt lat="37.378717" lon="-122.197072">
        <ele>135.5</ele>
        <time>2015-04-27T18:49:53Z</time>
      </trkpt>
      <trkpt lat="37.378684" lon="-122.19709">
        <ele>135.7</ele>
        <time>2015-04-27T18:49:54Z</time>
      </trkpt>
      <trkpt lat="37.378644" lon="-122.19711">
        <ele>135.6</ele>
        <time>2015-04-27T18:49:55Z</time>
      </trkpt>
      <trkpt lat="37.378606" lon="-122.197128">
        <ele>135.5</ele>
        <time>2015-04-27T18:49:56Z</time>
      </trkpt>
      <trkpt lat="37.378572" lon="-122.197149">
        <ele>135.7</ele>
        <time>2015-04-27T18:49:57Z</time>
      </trkpt>
      <trkpt lat="37.378545" lon="-122.197188">
        <ele>136.8</ele>
        <time>2015-04-27T18:49:58Z</time>
      </trkpt>
      <trkpt lat="37.378509" lon="-122.197209">
        <ele>137.2</ele>
        <time>2015-04-27T18:49:59Z</time>
      </trkpt>
      <trkpt lat="37.378472" lon="-122.197224">
        <ele>137</ele>
        <time>2015-04-27T18:50:00Z</time>
      </trkpt>
      <trkpt lat="37.378428" lon="-122.197228">
        <ele>136.3</ele>
        <time>2015-04-27T18:50:01Z</time>
      </trkpt>
      <trkpt lat="37.378395" lon="-122.197246">
        <ele>136.2</ele>
        <time>2015-04-27T18:50:02Z</time>
      </trkpt>
      <trkpt lat="37.378355" lon="-122.197259">
        <ele>135.8</ele>
        <time>2015-04-27T18:50:03Z</time>
      </trkpt>
      <trkpt lat="37.378312" lon="-122.197282">
        <ele>135.7</ele>
        <time>2015-04-27T18:50:04Z</time>
      </trkpt>
      <trkpt lat="37.378277" lon="-122.197299">
        <ele>135.3</ele>
        <time>2015-04-27T18:50:05Z</time>
      </trkpt>
      <trkpt lat="37.378231" lon="-122.197328">
        <ele>135.2</ele>
        <time>2015-04-27T18:50:06Z</time>
      </trkpt>
      <trkpt lat="37.378201" lon="-122.197346">
        <ele>135.3</ele>
        <time>2015-04-27T18:50:07Z</time>
      </trkpt>
      <trkpt lat="37.378165" lon="-122.197391">
        <ele>135.4</ele>
        <time>2015-04-27T18:50:08Z</time>
      </trkpt>
      <trkpt lat="37.378128" lon="-122.19741">
        <ele>135.4</ele>
        <time>2015-04-27T18:50:09Z</time>
      </trkpt>
      <trkpt lat="37.378098" lon="-122.197438">
        <ele>135.5</ele>
        <time>2015-04-27T18:50:10Z</time>
      </trkpt>
      <trkpt lat="37.378064" lon="-122.19746">
        <ele>135.6</ele>
        <time>2015-04-27T18:50:11Z</time>
      </trkpt>
      <trkpt lat="37.37802" lon="-122.197494">
        <ele>135.6</ele>
        <time>2015-04-27T18:50:12Z</time>
      </trkpt>
      <trkpt lat="37.377977" lon="-122.197513">
        <ele>135.6</ele>
        <time>2015-04-27T18:50:13Z</time>
      </trkpt>
      <trkpt lat="37.377955" lon="-122.197545">
        <ele>135.6</ele>
        <time>2015-04-27T18:50:14Z</time>
      </trkpt>
      <trkpt lat="37.377934" lon="-122.197569">
        <ele>135.7</ele>
        <time>2015-04-27T18:50:15Z</time>
      </trkpt>
      <trkpt lat="37.377906" lon="-122.197608">
        <ele>135.8</ele>
        <time>2015-04-27T18:50:16Z</time>
      </trkpt>
      <trkpt lat="37.377876" lon="-122.197651">
        <ele>135.8</ele>
        <time>2015-04-27T18:50:17Z</time>
      </trkpt>
      <trkpt lat="37.377849" lon="-122.197694">
        <ele>135.9</ele>
        <time>2015-04-27T18:50:18Z</time>
      </trkpt>
      <trkpt lat="37.377814" lon="-122.197734">
        <ele>136</ele>
        <time>2015-04-27T18:50:19Z</time>
      </trkpt>
      <trkpt lat="37.377782" lon="-122.197771">
        <ele>136.1</ele>
        <time>2015-04-27T18:50:20Z</time>
      </trkpt>
      <trkpt lat="37.377751" lon="-122.197809">
        <ele>136.1</ele>
        <time>2015-04-27T18:50:21Z</time>
      </trkpt>
      <trkpt lat="37.377721" lon="-122.197848">
        <ele>136.3</ele>
        <time>2015-04-27T18:50:22Z</time>
      </trkpt>
      <trkpt lat="37.377702" lon="-122.197879">
        <ele>136.3</ele>
        <time>2015-04-27T18:50:23Z</time>
      </trkpt>
      <trkpt lat="37.377683" lon="-122.197915">
        <ele>136.4</ele>
        <time>2015-04-27T18:50:24Z</time>
      </trkpt>
      <trkpt lat="37.377653" lon="-122.197966">
        <ele>136.6</ele>
        <time>2015-04-27T18:50:25Z</time>
      </trkpt>
      <trkpt lat="37.377627" lon="-122.198018">
        <ele>136.7</ele>
        <time>2015-04-27T18:50:26Z</time>
      </trkpt>
      <trkpt lat="37.377605" lon="-122.19806">
        <ele>136.7</ele>
        <time>2015-04-27T18:50:27Z</time>
      </trkpt>
      <trkpt lat="37.377591" lon="-122.198091">
        <ele>136.9</ele>
        <time>2015-04-27T18:50:28Z</time>
      </trkpt>
      <trkpt lat="37.377569" lon="-122.198138">
        <ele>137</ele>
        <time>2015-04-27T18:50:29Z</time>
      </trkpt>
      <trkpt lat="37.377549" lon="-122.198176">
        <ele>137</ele>
        <time>2015-04-27T18:50:30Z</time>
      </trkpt>
      <trkpt lat="37.377521" lon="-122.198213">
        <ele>137.2</ele>
        <time>2015-04-27T18:50:31Z</time>
      </trkpt>
      <trkpt lat="37.377503" lon="-122.198257">
        <ele>137.4</ele>
        <time>2015-04-27T18:50:33Z</time>
      </trkpt>
      <trkpt lat="37.377473" lon="-122.198344">
        <ele>137.7</ele>
        <time>2015-04-27T18:50:34Z</time>
      </trkpt>
      <trkpt lat="37.377403" lon="-122.19859">
        <ele>138.6</ele>
        <time>2015-04-27T18:50:40Z</time>
      </trkpt>
      <trkpt lat="37.377382" lon="-122.198669">
        <ele>138.8</ele>
        <time>2015-04-27T18:50:42Z</time>
      </trkpt>
      <trkpt lat="37.377369" lon="-122.198716">
        <ele>139.1</ele>
        <time>2015-04-27T18:50:43Z</time>
      </trkpt>
      <trkpt lat="37.377354" lon="-122.198771">
        <ele>139.3</ele>
        <time>2015-04-27T18:50:44Z</time>
      </trkpt>
      <trkpt lat="37.377346" lon="-122.198809">
        <ele>139.4</ele>
        <time>2015-04-27T18:50:45Z</time>
      </trkpt>
      <trkpt lat="37.377335" lon="-122.198851">
        <ele>139.6</ele>
        <time>2015-04-27T18:50:46Z</time>
      </trkpt>
      <trkpt lat="37.377337" lon="-122.19889">
        <ele>139.7</ele>
        <time>2015-04-27T18:50:47Z</time>
      </trkpt>
      <trkpt lat="37.377331" lon="-122.198935">
        <ele>139.8</ele>
        <time>2015-04-27T18:50:48Z</time>
      </trkpt>
      <trkpt lat="37.37733" lon="-122.198976">
        <ele>140</ele>
        <time>2015-04-27T18:50:49Z</time>
      </trkpt>
      <trkpt lat="37.37733" lon="-122.199013">
        <ele>140.1</ele>
        <time>2015-04-27T18:50:50Z</time>
      </trkpt>
      <trkpt lat="37.377329" lon="-122.199049">
        <ele>140.2</ele>
        <time>2015-04-27T18:50:51Z</time>
      </trkpt>
      <trkpt lat="37.377328" lon="-122.199088">
        <ele>140.4</ele>
        <time>2015-04-27T18:50:52Z</time>
      </trkpt>
      <trkpt lat="37.377326" lon="-122.199124">
        <ele>140.5</ele>
        <time>2015-04-27T18:50:53Z</time>
      </trkpt>
      <trkpt lat="37.377324" lon="-122.19916">
        <ele>140.8</ele>
        <time>2015-04-27T18:50:54Z</time>
      </trkpt>
      <trkpt lat="37.37733" lon="-122.199226">
        <ele>141.1</ele>
        <time>2015-04-27T18:50:56Z</time>
      </trkpt>
      <trkpt lat="37.37733" lon="-122.199261">
        <ele>141.1</ele>
        <time>2015-04-27T18:50:57Z</time>
      </trkpt>
      <trkpt lat="37.377329" lon="-122.199298">
        <ele>141.4</ele>
        <time>2015-04-27T18:50:58Z</time>
      </trkpt>
      <trkpt lat="37.377325" lon="-122.199357">
        <ele>141.8</ele>
        <time>2015-04-27T18:51:00Z</time>
      </trkpt>
      <trkpt lat="37.377315" lon="-122.199423">
        <ele>142.2</ele>
        <time>2015-04-27T18:51:02Z</time>
      </trkpt>
      <trkpt lat="37.377232" lon="-122.199675">
        <ele>143.2</ele>
        <time>2015-04-27T18:51:10Z</time>
      </trkpt>
      <trkpt lat="37.37721" lon="-122.199727">
        <ele>143.6</ele>
        <time>2015-04-27T18:51:11Z</time>
      </trkpt>
      <trkpt lat="37.377197" lon="-122.199772">
        <ele>143.8</ele>
        <time>2015-04-27T18:51:12Z</time>
      </trkpt>
      <trkpt lat="37.377191" lon="-122.199807">
        <ele>143.9</ele>
        <time>2015-04-27T18:51:13Z</time>
      </trkpt>
      <trkpt lat="37.377182" lon="-122.199844">
        <ele>144.1</ele>
        <time>2015-04-27T18:51:14Z</time>
      </trkpt>
      <trkpt lat="37.377172" lon="-122.199878">
        <ele>144.3</ele>
        <time>2015-04-27T18:51:15Z</time>
      </trkpt>
      <trkpt lat="37.377163" lon="-122.199915">
        <ele>144.4</ele>
        <time>2015-04-27T18:51:16Z</time>
      </trkpt>
      <trkpt lat="37.377154" lon="-122.199954">
        <ele>144.7</ele>
        <time>2015-04-27T18:51:17Z</time>
      </trkpt>
      <trkpt lat="37.377142" lon="-122.199992">
        <ele>144.8</ele>
        <time>2015-04-27T18:51:19Z</time>
      </trkpt>
      <trkpt lat="37.377131" lon="-122.200024">
        <ele>144.9</ele>
        <time>2015-04-27T18:51:20Z</time>
      </trkpt>
      <trkpt lat="37.377107" lon="-122.200087">
        <ele>145</ele>
        <time>2015-04-27T18:51:21Z</time>
      </trkpt>
      <trkpt lat="37.377091" lon="-122.20012">
        <ele>145.1</ele>
        <time>2015-04-27T18:51:22Z</time>
      </trkpt>
      <trkpt lat="37.377059" lon="-122.200177">
        <ele>145.3</ele>
        <time>2015-04-27T18:51:24Z</time>
      </trkpt>
      <trkpt lat="37.377042" lon="-122.200213">
        <ele>145.5</ele>
        <time>2015-04-27T18:51:25Z</time>
      </trkpt>
      <trkpt lat="37.377027" lon="-122.200245">
        <ele>145.7</ele>
        <time>2015-04-27T18:51:26Z</time>
      </trkpt>
      <trkpt lat="37.377011" lon="-122.200276">
        <ele>145.7</ele>
        <time>2015-04-27T18:51:27Z</time>
      </trkpt>
      <trkpt lat="37.376994" lon="-122.200308">
        <ele>145.7</ele>
        <time>2015-04-27T18:51:28Z</time>
      </trkpt>
      <trkpt lat="37.376959" lon="-122.20037">
        <ele>145.9</ele>
        <time>2015-04-27T18:51:30Z</time>
      </trkpt>
      <trkpt lat="37.376938" lon="-122.200406">
        <ele>145.9</ele>
        <time>2015-04-27T18:51:31Z</time>
      </trkpt>
      <trkpt lat="37.376918" lon="-122.200442">
        <ele>146</ele>
        <time>2015-04-27T18:51:32Z</time>
      </trkpt>
      <trkpt lat="37.376904" lon="-122.200478">
        <ele>146.1</ele>
        <time>2015-04-27T18:51:33Z</time>
      </trkpt>
      <trkpt lat="37.376887" lon="-122.200517">
        <ele>146.2</ele>
        <time>2015-04-27T18:51:34Z</time>
      </trkpt>
      <trkpt lat="37.376864" lon="-122.200556">
        <ele>146.3</ele>
        <time>2015-04-27T18:51:35Z</time>
      </trkpt>
      <trkpt lat="37.37684" lon="-122.200593">
        <ele>146.3</ele>
        <time>2015-04-27T18:51:36Z</time>
      </trkpt>
      <trkpt lat="37.376813" lon="-122.200624">
        <ele>146.4</ele>
        <time>2015-04-27T18:51:37Z</time>
      </trkpt>
      <trkpt lat="37.376786" lon="-122.200628">
        <ele>146.3</ele>
        <time>2015-04-27T18:51:38Z</time>
      </trkpt>
      <trkpt lat="37.376756" lon="-122.200667">
        <ele>146.3</ele>
        <time>2015-04-27T18:51:39Z</time>
      </trkpt>
      <trkpt lat="37.376727" lon="-122.200708">
        <ele>146.4</ele>
        <time>2015-04-27T18:51:40Z</time>
      </trkpt>
      <trkpt lat="37.376699" lon="-122.200749">
        <ele>146.4</ele>
        <time>2015-04-27T18:51:41Z</time>
      </trkpt>
      <trkpt lat="37.376671" lon="-122.200789">
        <ele>146.4</ele>
        <time>2015-04-27T18:51:42Z</time>
      </trkpt>
      <trkpt lat="37.376646" lon="-122.200825">
        <ele>146.4</ele>
        <time>2015-04-27T18:51:43Z</time>
      </trkpt>
      <trkpt lat="37.37662" lon="-122.200861">
        <ele>146.5</ele>
        <time>2015-04-27T18:51:44Z</time>
      </trkpt>
      <trkpt lat="37.376594" lon="-122.200898">
        <ele>146.6</ele>
        <time>2015-04-27T18:51:45Z</time>
      </trkpt>
      <trkpt lat="37.376567" lon="-122.200929">
        <ele>146.8</ele>
        <time>2015-04-27T18:51:46Z</time>
      </trkpt>
      <trkpt lat="37.376537" lon="-122.200963">
        <ele>146.9</ele>
        <time>2015-04-27T18:51:47Z</time>
      </trkpt>
      <trkpt lat="37.376505" lon="-122.201">
        <ele>147</ele>
        <time>2015-04-27T18:51:48Z</time>
      </trkpt>
      <trkpt lat="37.376477" lon="-122.201048">
        <ele>147</ele>
        <time>2015-04-27T18:51:49Z</time>
      </trkpt>
      <trkpt lat="37.376452" lon="-122.201088">
        <ele>147.1</ele>
        <time>2015-04-27T18:51:50Z</time>
      </trkpt>
      <trkpt lat="37.376425" lon="-122.201128">
        <ele>147.2</ele>
        <time>2015-04-27T18:51:51Z</time>
      </trkpt>
      <trkpt lat="37.376396" lon="-122.201174">
        <ele>147.3</ele>
        <time>2015-04-27T18:51:52Z</time>
      </trkpt>
      <trkpt lat="37.376372" lon="-122.201209">
        <ele>147.3</ele>
        <time>2015-04-27T18:51:53Z</time>
      </trkpt>
      <trkpt lat="37.376347" lon="-122.201243">
        <ele>147.4</ele>
        <time>2015-04-27T18:51:54Z</time>
      </trkpt>
      <trkpt lat="37.376318" lon="-122.201278">
        <ele>147.4</ele>
        <time>2015-04-27T18:51:55Z</time>
      </trkpt>
      <trkpt lat="37.376288" lon="-122.201316">
        <ele>147.6</ele>
        <time>2015-04-27T18:51:56Z</time>
      </trkpt>
      <trkpt lat="37.37626" lon="-122.201354">
        <ele>147.8</ele>
        <time>2015-04-27T18:51:57Z</time>
      </trkpt>
      <trkpt lat="37.376231" lon="-122.201393">
        <ele>147.8</ele>
        <time>2015-04-27T18:51:58Z</time>
      </trkpt>
      <trkpt lat="37.376202" lon="-122.201433">
        <ele>148</ele>
        <time>2015-04-27T18:51:59Z</time>
      </trkpt>
      <trkpt lat="37.376173" lon="-122.201473">
        <ele>148</ele>
        <time>2015-04-27T18:52:00Z</time>
      </trkpt>
      <trkpt lat="37.376144" lon="-122.201513">
        <ele>148</ele>
        <time>2015-04-27T18:52:01Z</time>
      </trkpt>
      <trkpt lat="37.376114" lon="-122.201553">
        <ele>147.9</ele>
        <time>2015-04-27T18:52:02Z</time>
      </trkpt>
      <trkpt lat="37.376084" lon="-122.201594">
        <ele>148</ele>
        <time>2015-04-27T18:52:03Z</time>
      </trkpt>
      <trkpt lat="37.376054" lon="-122.201635">
        <ele>148.1</ele>
        <time>2015-04-27T18:52:04Z</time>
      </trkpt>
      <trkpt lat="37.376024" lon="-122.201675">
        <ele>148.2</ele>
        <time>2015-04-27T18:52:05Z</time>
      </trkpt>
      <trkpt lat="37.375995" lon="-122.201715">
        <ele>148.3</ele>
        <time>2015-04-27T18:52:06Z</time>
      </trkpt>
      <trkpt lat="37.375965" lon="-122.201756">
        <ele>148.3</ele>
        <time>2015-04-27T18:52:07Z</time>
      </trkpt>
      <trkpt lat="37.375936" lon="-122.201798">
        <ele>148.5</ele>
        <time>2015-04-27T18:52:08Z</time>
      </trkpt>
      <trkpt lat="37.375906" lon="-122.201838">
        <ele>148.5</ele>
        <time>2015-04-27T18:52:09Z</time>
      </trkpt>
      <trkpt lat="37.375876" lon="-122.201877">
        <ele>148.5</ele>
        <time>2015-04-27T18:52:10Z</time>
      </trkpt>
      <trkpt lat="37.375847" lon="-122.201915">
        <ele>148.6</ele>
        <time>2015-04-27T18:52:11Z</time>
      </trkpt>
      <trkpt lat="37.375819" lon="-122.201963">
        <ele>148.7</ele>
        <time>2015-04-27T18:52:12Z</time>
      </trkpt>
      <trkpt lat="37.375785" lon="-122.202006">
        <ele>148.7</ele>
        <time>2015-04-27T18:52:13Z</time>
      </trkpt>
      <trkpt lat="37.375753" lon="-122.20204">
        <ele>148.7</ele>
        <time>2015-04-27T18:52:14Z</time>
      </trkpt>
      <trkpt lat="37.375721" lon="-122.202084">
        <ele>148.8</ele>
        <time>2015-04-27T18:52:15Z</time>
      </trkpt>
      <trkpt lat="37.375683" lon="-122.202117">
        <ele>148.8</ele>
        <time>2015-04-27T18:52:16Z</time>
      </trkpt>
      <trkpt lat="37.375653" lon="-122.202152">
        <ele>149</ele>
        <time>2015-04-27T18:52:17Z</time>
      </trkpt>
      <trkpt lat="37.375631" lon="-122.202215">
        <ele>149</ele>
        <time>2015-04-27T18:52:18Z</time>
      </trkpt>
      <trkpt lat="37.375597" lon="-122.20227">
        <ele>149.2</ele>
        <time>2015-04-27T18:52:19Z</time>
      </trkpt>
      <trkpt lat="37.375566" lon="-122.202307">
        <ele>149.3</ele>
        <time>2015-04-27T18:52:20Z</time>
      </trkpt>
      <trkpt lat="37.375535" lon="-122.202347">
        <ele>149.4</ele>
        <time>2015-04-27T18:52:21Z</time>
      </trkpt>
      <trkpt lat="37.37551" lon="-122.202385">
        <ele>149.5</ele>
        <time>2015-04-27T18:52:22Z</time>
      </trkpt>
      <trkpt lat="37.375488" lon="-122.202417">
        <ele>149.5</ele>
        <time>2015-04-27T18:52:23Z</time>
      </trkpt>
      <trkpt lat="37.375453" lon="-122.202464">
        <ele>149.8</ele>
        <time>2015-04-27T18:52:24Z</time>
      </trkpt>
      <trkpt lat="37.375417" lon="-122.202511">
        <ele>149.9</ele>
        <time>2015-04-27T18:52:25Z</time>
      </trkpt>
      <trkpt lat="37.37539" lon="-122.202535">
        <ele>149.9</ele>
        <time>2015-04-27T18:52:26Z</time>
      </trkpt>
      <trkpt lat="37.375364" lon="-122.202579">
        <ele>150</ele>
        <time>2015-04-27T18:52:27Z</time>
      </trkpt>
      <trkpt lat="37.375337" lon="-122.202608">
        <ele>150.1</ele>
        <time>2015-04-27T18:52:28Z</time>
      </trkpt>
      <trkpt lat="37.375304" lon="-122.202649">
        <ele>150.3</ele>
        <time>2015-04-27T18:52:29Z</time>
      </trkpt>
      <trkpt lat="37.375266" lon="-122.202692">
        <ele>150.5</ele>
        <time>2015-04-27T18:52:30Z</time>
      </trkpt>
      <trkpt lat="37.375237" lon="-122.20273">
        <ele>150.6</ele>
        <time>2015-04-27T18:52:31Z</time>
      </trkpt>
      <trkpt lat="37.375224" lon="-122.202766">
        <ele>150.6</ele>
        <time>2015-04-27T18:52:32Z</time>
      </trkpt>
      <trkpt lat="37.375198" lon="-122.202798">
        <ele>150.6</ele>
        <time>2015-04-27T18:52:33Z</time>
      </trkpt>
      <trkpt lat="37.375174" lon="-122.202834">
        <ele>150.8</ele>
        <time>2015-04-27T18:52:34Z</time>
      </trkpt>
      <trkpt lat="37.375156" lon="-122.202873">
        <ele>150.9</ele>
        <time>2015-04-27T18:52:35Z</time>
      </trkpt>
      <trkpt lat="37.375133" lon="-122.202917">
        <ele>151.1</ele>
        <time>2015-04-27T18:52:36Z</time>
      </trkpt>
      <trkpt lat="37.375114" lon="-122.202952">
        <ele>151.3</ele>
        <time>2015-04-27T18:52:37Z</time>
      </trkpt>
      <trkpt lat="37.375076" lon="-122.203015">
        <ele>151.4</ele>
        <time>2015-04-27T18:52:39Z</time>
      </trkpt>
      <trkpt lat="37.375054" lon="-122.203055">
        <ele>151.6</ele>
        <time>2015-04-27T18:52:40Z</time>
      </trkpt>
      <trkpt lat="37.375033" lon="-122.203092">
        <ele>151.8</ele>
        <time>2015-04-27T18:52:41Z</time>
      </trkpt>
      <trkpt lat="37.375011" lon="-122.203127">
        <ele>151.8</ele>
        <time>2015-04-27T18:52:42Z</time>
      </trkpt>
      <trkpt lat="37.374988" lon="-122.203163">
        <ele>152</ele>
        <time>2015-04-27T18:52:43Z</time>
      </trkpt>
      <trkpt lat="37.37497" lon="-122.203198">
        <ele>152</ele>
        <time>2015-04-27T18:52:44Z</time>
      </trkpt>
      <trkpt lat="37.37495" lon="-122.203234">
        <ele>152.5</ele>
        <time>2015-04-27T18:52:45Z</time>
      </trkpt>
      <trkpt lat="37.374928" lon="-122.203271">
        <ele>152.1</ele>
        <time>2015-04-27T18:52:46Z</time>
      </trkpt>
      <trkpt lat="37.374908" lon="-122.203305">
        <ele>152.2</ele>
        <time>2015-04-27T18:52:47Z</time>
      </trkpt>
      <trkpt lat="37.374889" lon="-122.203337">
        <ele>152.4</ele>
        <time>2015-04-27T18:52:48Z</time>
      </trkpt>
      <trkpt lat="37.374871" lon="-122.203367">
        <ele>152.4</ele>
        <time>2015-04-27T18:52:49Z</time>
      </trkpt>
      <trkpt lat="37.374855" lon="-122.203397">
        <ele>152.4</ele>
        <time>2015-04-27T18:52:50Z</time>
      </trkpt>
      <trkpt lat="37.374839" lon="-122.203428">
        <ele>152.2</ele>
        <time>2015-04-27T18:52:51Z</time>
      </trkpt>
      <trkpt lat="37.374822" lon="-122.203458">
        <ele>152</ele>
        <time>2015-04-27T18:52:52Z</time>
      </trkpt>
      <trkpt lat="37.374802" lon="-122.203489">
        <ele>151.7</ele>
        <time>2015-04-27T18:52:53Z</time>
      </trkpt>
      <trkpt lat="37.374783" lon="-122.203524">
        <ele>151.2</ele>
        <time>2015-04-27T18:52:54Z</time>
      </trkpt>
      <trkpt lat="37.374761" lon="-122.203555">
        <ele>150.7</ele>
        <time>2015-04-27T18:52:55Z</time>
      </trkpt>
      <trkpt lat="37.374737" lon="-122.203592">
        <ele>151.1</ele>
        <time>2015-04-27T18:52:56Z</time>
      </trkpt>
      <trkpt lat="37.374713" lon="-122.203627">
        <ele>151.4</ele>
        <time>2015-04-27T18:52:57Z</time>
      </trkpt>
      <trkpt lat="37.374691" lon="-122.203659">
        <ele>151.4</ele>
        <time>2015-04-27T18:52:58Z</time>
      </trkpt>
      <trkpt lat="37.374669" lon="-122.203691">
        <ele>151.6</ele>
        <time>2015-04-27T18:52:59Z</time>
      </trkpt>
      <trkpt lat="37.374646" lon="-122.203725">
        <ele>152</ele>
        <time>2015-04-27T18:53:00Z</time>
      </trkpt>
      <trkpt lat="37.374625" lon="-122.203758">
        <ele>152.2</ele>
        <time>2015-04-27T18:53:01Z</time>
      </trkpt>
      <trkpt lat="37.374604" lon="-122.203791">
        <ele>152.3</ele>
        <time>2015-04-27T18:53:02Z</time>
      </trkpt>
      <trkpt lat="37.37458" lon="-122.203827">
        <ele>152.2</ele>
        <time>2015-04-27T18:53:03Z</time>
      </trkpt>
      <trkpt lat="37.374557" lon="-122.203862">
        <ele>152.2</ele>
        <time>2015-04-27T18:53:04Z</time>
      </trkpt>
      <trkpt lat="37.374533" lon="-122.203899">
        <ele>152.2</ele>
        <time>2015-04-27T18:53:05Z</time>
      </trkpt>
      <trkpt lat="37.374513" lon="-122.203929">
        <ele>152.1</ele>
        <time>2015-04-27T18:53:06Z</time>
      </trkpt>
      <trkpt lat="37.374491" lon="-122.20396">
        <ele>152</ele>
        <time>2015-04-27T18:53:07Z</time>
      </trkpt>
      <trkpt lat="37.374471" lon="-122.20399">
        <ele>152.1</ele>
        <time>2015-04-27T18:53:08Z</time>
      </trkpt>
      <trkpt lat="37.374449" lon="-122.204022">
        <ele>152</ele>
        <time>2015-04-27T18:53:09Z</time>
      </trkpt>
      <trkpt lat="37.374425" lon="-122.204057">
        <ele>151.9</ele>
        <time>2015-04-27T18:53:10Z</time>
      </trkpt>
      <trkpt lat="37.374405" lon="-122.204087">
        <ele>151.8</ele>
        <time>2015-04-27T18:53:11Z</time>
      </trkpt>
      <trkpt lat="37.374383" lon="-122.204124">
        <ele>151.6</ele>
        <time>2015-04-27T18:53:12Z</time>
      </trkpt>
      <trkpt lat="37.374363" lon="-122.204156">
        <ele>151.7</ele>
        <time>2015-04-27T18:53:13Z</time>
      </trkpt>
      <trkpt lat="37.37434" lon="-122.20419">
        <ele>151.8</ele>
        <time>2015-04-27T18:53:14Z</time>
      </trkpt>
      <trkpt lat="37.374323" lon="-122.204217">
        <ele>151.9</ele>
        <time>2015-04-27T18:53:15Z</time>
      </trkpt>
      <trkpt lat="37.374304" lon="-122.204248">
        <ele>152.2</ele>
        <time>2015-04-27T18:53:16Z</time>
      </trkpt>
      <trkpt lat="37.374284" lon="-122.204286">
        <ele>152.6</ele>
        <time>2015-04-27T18:53:17Z</time>
      </trkpt>
      <trkpt lat="37.374268" lon="-122.204321">
        <ele>152.7</ele>
        <time>2015-04-27T18:53:18Z</time>
      </trkpt>
      <trkpt lat="37.374247" lon="-122.204366">
        <ele>153.1</ele>
        <time>2015-04-27T18:53:19Z</time>
      </trkpt>
      <trkpt lat="37.374233" lon="-122.204396">
        <ele>153.3</ele>
        <time>2015-04-27T18:53:20Z</time>
      </trkpt>
      <trkpt lat="37.374215" lon="-122.204428">
        <ele>153.9</ele>
        <time>2015-04-27T18:53:21Z</time>
      </trkpt>
      <trkpt lat="37.374197" lon="-122.204455">
        <ele>154.4</ele>
        <time>2015-04-27T18:53:22Z</time>
      </trkpt>
      <trkpt lat="37.374179" lon="-122.204482">
        <ele>154.8</ele>
        <time>2015-04-27T18:53:23Z</time>
      </trkpt>
      <trkpt lat="37.374141" lon="-122.204535">
        <ele>155.5</ele>
        <time>2015-04-27T18:53:25Z</time>
      </trkpt>
      <trkpt lat="37.374121" lon="-122.204564">
        <ele>156.2</ele>
        <time>2015-04-27T18:53:26Z</time>
      </trkpt>
      <trkpt lat="37.374104" lon="-122.204593">
        <ele>156.5</ele>
        <time>2015-04-27T18:53:27Z</time>
      </trkpt>
      <trkpt lat="37.374085" lon="-122.204625">
        <ele>156.5</ele>
        <time>2015-04-27T18:53:28Z</time>
      </trkpt>
      <trkpt lat="37.374053" lon="-122.204684">
        <ele>156.9</ele>
        <time>2015-04-27T18:53:30Z</time>
      </trkpt>
      <trkpt lat="37.374036" lon="-122.204713">
        <ele>157.1</ele>
        <time>2015-04-27T18:53:31Z</time>
      </trkpt>
      <trkpt lat="37.373917" lon="-122.204879">
        <ele>160</ele>
        <time>2015-04-27T18:53:37Z</time>
      </trkpt>
      <trkpt lat="37.373898" lon="-122.204905">
        <ele>160.4</ele>
        <time>2015-04-27T18:53:38Z</time>
      </trkpt>
      <trkpt lat="37.373878" lon="-122.204931">
        <ele>160.9</ele>
        <time>2015-04-27T18:53:39Z</time>
      </trkpt>
      <trkpt lat="37.373847" lon="-122.204979">
        <ele>161.6</ele>
        <time>2015-04-27T18:53:41Z</time>
      </trkpt>
      <trkpt lat="37.37381" lon="-122.205032">
        <ele>162</ele>
        <time>2015-04-27T18:53:43Z</time>
      </trkpt>
      <trkpt lat="37.373778" lon="-122.205082">
        <ele>162.3</ele>
        <time>2015-04-27T18:53:45Z</time>
      </trkpt>
      <trkpt lat="37.373761" lon="-122.205112">
        <ele>162.5</ele>
        <time>2015-04-27T18:53:46Z</time>
      </trkpt>
      <trkpt lat="37.373745" lon="-122.205139">
        <ele>162.7</ele>
        <time>2015-04-27T18:53:47Z</time>
      </trkpt>
      <trkpt lat="37.373729" lon="-122.205169">
        <ele>162.9</ele>
        <time>2015-04-27T18:53:48Z</time>
      </trkpt>
      <trkpt lat="37.373698" lon="-122.205223">
        <ele>163.2</ele>
        <time>2015-04-27T18:53:50Z</time>
      </trkpt>
      <trkpt lat="37.373667" lon="-122.205276">
        <ele>163.3</ele>
        <time>2015-04-27T18:53:52Z</time>
      </trkpt>
      <trkpt lat="37.37365" lon="-122.205305">
        <ele>163.3</ele>
        <time>2015-04-27T18:53:53Z</time>
      </trkpt>
      <trkpt lat="37.373633" lon="-122.205334">
        <ele>163.4</ele>
        <time>2015-04-27T18:53:54Z</time>
      </trkpt>
      <trkpt lat="37.373614" lon="-122.205364">
        <ele>163.5</ele>
        <time>2015-04-27T18:53:55Z</time>
      </trkpt>
      <trkpt lat="37.373597" lon="-122.205391">
        <ele>163.7</ele>
        <time>2015-04-27T18:53:56Z</time>
      </trkpt>
      <trkpt lat="37.373578" lon="-122.20542">
        <ele>164</ele>
        <time>2015-04-27T18:53:57Z</time>
      </trkpt>
      <trkpt lat="37.373542" lon="-122.205476">
        <ele>165.2</ele>
        <time>2015-04-27T18:53:59Z</time>
      </trkpt>
      <trkpt lat="37.373524" lon="-122.205502">
        <ele>165.8</ele>
        <time>2015-04-27T18:54:00Z</time>
      </trkpt>
      <trkpt lat="37.373506" lon="-122.205528">
        <ele>166.2</ele>
        <time>2015-04-27T18:54:01Z</time>
      </trkpt>
      <trkpt lat="37.373488" lon="-122.205556">
        <ele>166.5</ele>
        <time>2015-04-27T18:54:02Z</time>
      </trkpt>
      <trkpt lat="37.373469" lon="-122.205584">
        <ele>166.8</ele>
        <time>2015-04-27T18:54:03Z</time>
      </trkpt>
      <trkpt lat="37.373431" lon="-122.20564">
        <ele>166.7</ele>
        <time>2015-04-27T18:54:05Z</time>
      </trkpt>
      <trkpt lat="37.37341" lon="-122.205673">
        <ele>166.7</ele>
        <time>2015-04-27T18:54:06Z</time>
      </trkpt>
      <trkpt lat="37.373389" lon="-122.205704">
        <ele>166.7</ele>
        <time>2015-04-27T18:54:07Z</time>
      </trkpt>
      <trkpt lat="37.373368" lon="-122.205735">
        <ele>166.7</ele>
        <time>2015-04-27T18:54:08Z</time>
      </trkpt>
      <trkpt lat="37.37335" lon="-122.205762">
        <ele>166.6</ele>
        <time>2015-04-27T18:54:09Z</time>
      </trkpt>
      <trkpt lat="37.373331" lon="-122.205789">
        <ele>166.7</ele>
        <time>2015-04-27T18:54:10Z</time>
      </trkpt>
      <trkpt lat="37.373313" lon="-122.205817">
        <ele>166.9</ele>
        <time>2015-04-27T18:54:11Z</time>
      </trkpt>
      <trkpt lat="37.373279" lon="-122.205872">
        <ele>167.5</ele>
        <time>2015-04-27T18:54:13Z</time>
      </trkpt>
      <trkpt lat="37.373259" lon="-122.205903">
        <ele>167.2</ele>
        <time>2015-04-27T18:54:14Z</time>
      </trkpt>
      <trkpt lat="37.373241" lon="-122.205931">
        <ele>166.9</ele>
        <time>2015-04-27T18:54:15Z</time>
      </trkpt>
      <trkpt lat="37.373225" lon="-122.205958">
        <ele>166.6</ele>
        <time>2015-04-27T18:54:16Z</time>
      </trkpt>
      <trkpt lat="37.373205" lon="-122.20599">
        <ele>166.4</ele>
        <time>2015-04-27T18:54:17Z</time>
      </trkpt>
      <trkpt lat="37.373186" lon="-122.206022">
        <ele>166.3</ele>
        <time>2015-04-27T18:54:18Z</time>
      </trkpt>
      <trkpt lat="37.373166" lon="-122.206053">
        <ele>166.3</ele>
        <time>2015-04-27T18:54:19Z</time>
      </trkpt>
      <trkpt lat="37.373144" lon="-122.206086">
        <ele>166.3</ele>
        <time>2015-04-27T18:54:20Z</time>
      </trkpt>
      <trkpt lat="37.373124" lon="-122.206117">
        <ele>166.3</ele>
        <time>2015-04-27T18:54:21Z</time>
      </trkpt>
      <trkpt lat="37.373083" lon="-122.206178">
        <ele>166.6</ele>
        <time>2015-04-27T18:54:23Z</time>
      </trkpt>
      <trkpt lat="37.373062" lon="-122.20621">
        <ele>167</ele>
        <time>2015-04-27T18:54:24Z</time>
      </trkpt>
      <trkpt lat="37.373041" lon="-122.206242">
        <ele>167.2</ele>
        <time>2015-04-27T18:54:25Z</time>
      </trkpt>
      <trkpt lat="37.373021" lon="-122.206274">
        <ele>167.4</ele>
        <time>2015-04-27T18:54:26Z</time>
      </trkpt>
      <trkpt lat="37.373004" lon="-122.206304">
        <ele>167.5</ele>
        <time>2015-04-27T18:54:27Z</time>
      </trkpt>
      <trkpt lat="37.372986" lon="-122.206335">
        <ele>167.7</ele>
        <time>2015-04-27T18:54:28Z</time>
      </trkpt>
      <trkpt lat="37.372967" lon="-122.206367">
        <ele>168</ele>
        <time>2015-04-27T18:54:29Z</time>
      </trkpt>
      <trkpt lat="37.372948" lon="-122.206398">
        <ele>168.4</ele>
        <time>2015-04-27T18:54:30Z</time>
      </trkpt>
      <trkpt lat="37.372927" lon="-122.206431">
        <ele>168.9</ele>
        <time>2015-04-27T18:54:31Z</time>
      </trkpt>
      <trkpt lat="37.372907" lon="-122.206464">
        <ele>169.2</ele>
        <time>2015-04-27T18:54:32Z</time>
      </trkpt>
      <trkpt lat="37.372889" lon="-122.206492">
        <ele>169.3</ele>
        <time>2015-04-27T18:54:33Z</time>
      </trkpt>
      <trkpt lat="37.37287" lon="-122.206523">
        <ele>169.4</ele>
        <time>2015-04-27T18:54:34Z</time>
      </trkpt>
      <trkpt lat="37.372847" lon="-122.20656">
        <ele>169.6</ele>
        <time>2015-04-27T18:54:35Z</time>
      </trkpt>
      <trkpt lat="37.37283" lon="-122.206588">
        <ele>169.8</ele>
        <time>2015-04-27T18:54:36Z</time>
      </trkpt>
      <trkpt lat="37.37281" lon="-122.206621">
        <ele>170</ele>
        <time>2015-04-27T18:54:37Z</time>
      </trkpt>
      <trkpt lat="37.372787" lon="-122.206654">
        <ele>170.2</ele>
        <time>2015-04-27T18:54:38Z</time>
      </trkpt>
      <trkpt lat="37.372766" lon="-122.206684">
        <ele>170.5</ele>
        <time>2015-04-27T18:54:39Z</time>
      </trkpt>
      <trkpt lat="37.372742" lon="-122.20672">
        <ele>170.8</ele>
        <time>2015-04-27T18:54:40Z</time>
      </trkpt>
      <trkpt lat="37.37272" lon="-122.206754">
        <ele>171.1</ele>
        <time>2015-04-27T18:54:41Z</time>
      </trkpt>
      <trkpt lat="37.372695" lon="-122.206793">
        <ele>171.4</ele>
        <time>2015-04-27T18:54:42Z</time>
      </trkpt>
      <trkpt lat="37.372672" lon="-122.206832">
        <ele>171.6</ele>
        <time>2015-04-27T18:54:43Z</time>
      </trkpt>
      <trkpt lat="37.372648" lon="-122.206873">
        <ele>171.6</ele>
        <time>2015-04-27T18:54:44Z</time>
      </trkpt>
      <trkpt lat="37.372628" lon="-122.206907">
        <ele>171.8</ele>
        <time>2015-04-27T18:54:45Z</time>
      </trkpt>
      <trkpt lat="37.37261" lon="-122.206938">
        <ele>172</ele>
        <time>2015-04-27T18:54:46Z</time>
      </trkpt>
      <trkpt lat="37.372584" lon="-122.206981">
        <ele>172.4</ele>
        <time>2015-04-27T18:54:47Z</time>
      </trkpt>
      <trkpt lat="37.372561" lon="-122.20702">
        <ele>172.8</ele>
        <time>2015-04-27T18:54:48Z</time>
      </trkpt>
      <trkpt lat="37.372538" lon="-122.207057">
        <ele>173.3</ele>
        <time>2015-04-27T18:54:49Z</time>
      </trkpt>
      <trkpt lat="37.372515" lon="-122.207095">
        <ele>173.8</ele>
        <time>2015-04-27T18:54:50Z</time>
      </trkpt>
      <trkpt lat="37.372491" lon="-122.207133">
        <ele>174.1</ele>
        <time>2015-04-27T18:54:51Z</time>
      </trkpt>
      <trkpt lat="37.372467" lon="-122.207174">
        <ele>174.4</ele>
        <time>2015-04-27T18:54:52Z</time>
      </trkpt>
      <trkpt lat="37.372444" lon="-122.207217">
        <ele>174.6</ele>
        <time>2015-04-27T18:54:53Z</time>
      </trkpt>
      <trkpt lat="37.372419" lon="-122.207261">
        <ele>174.9</ele>
        <time>2015-04-27T18:54:54Z</time>
      </trkpt>
      <trkpt lat="37.372397" lon="-122.207304">
        <ele>175.1</ele>
        <time>2015-04-27T18:54:55Z</time>
      </trkpt>
      <trkpt lat="37.372375" lon="-122.207345">
        <ele>175.2</ele>
        <time>2015-04-27T18:54:56Z</time>
      </trkpt>
      <trkpt lat="37.37235" lon="-122.207387">
        <ele>175.3</ele>
        <time>2015-04-27T18:54:57Z</time>
      </trkpt>
      <trkpt lat="37.372325" lon="-122.207429">
        <ele>175.3</ele>
        <time>2015-04-27T18:54:58Z</time>
      </trkpt>
      <trkpt lat="37.372201" lon="-122.207635">
        <ele>175.2</ele>
        <time>2015-04-27T18:55:03Z</time>
      </trkpt>
      <trkpt lat="37.372179" lon="-122.20767">
        <ele>175.2</ele>
        <time>2015-04-27T18:55:04Z</time>
      </trkpt>
      <trkpt lat="37.372151" lon="-122.20771">
        <ele>175.3</ele>
        <time>2015-04-27T18:55:05Z</time>
      </trkpt>
      <trkpt lat="37.372125" lon="-122.207748">
        <ele>175.3</ele>
        <time>2015-04-27T18:55:06Z</time>
      </trkpt>
      <trkpt lat="37.3721" lon="-122.207785">
        <ele>175.4</ele>
        <time>2015-04-27T18:55:07Z</time>
      </trkpt>
      <trkpt lat="37.372071" lon="-122.207827">
        <ele>175.5</ele>
        <time>2015-04-27T18:55:08Z</time>
      </trkpt>
      <trkpt lat="37.372046" lon="-122.207867">
        <ele>175.6</ele>
        <time>2015-04-27T18:55:09Z</time>
      </trkpt>
      <trkpt lat="37.37202" lon="-122.207906">
        <ele>175.8</ele>
        <time>2015-04-27T18:55:10Z</time>
      </trkpt>
      <trkpt lat="37.371995" lon="-122.207943">
        <ele>176</ele>
        <time>2015-04-27T18:55:11Z</time>
      </trkpt>
      <trkpt lat="37.371969" lon="-122.207982">
        <ele>176.2</ele>
        <time>2015-04-27T18:55:12Z</time>
      </trkpt>
      <trkpt lat="37.371947" lon="-122.208016">
        <ele>176.3</ele>
        <time>2015-04-27T18:55:13Z</time>
      </trkpt>
      <trkpt lat="37.371922" lon="-122.208053">
        <ele>176.5</ele>
        <time>2015-04-27T18:55:14Z</time>
      </trkpt>
      <trkpt lat="37.371902" lon="-122.208084">
        <ele>176.6</ele>
        <time>2015-04-27T18:55:15Z</time>
      </trkpt>
      <trkpt lat="37.37188" lon="-122.208119">
        <ele>176.8</ele>
        <time>2015-04-27T18:55:16Z</time>
      </trkpt>
      <trkpt lat="37.371859" lon="-122.208158">
        <ele>177</ele>
        <time>2015-04-27T18:55:17Z</time>
      </trkpt>
      <trkpt lat="37.371922" lon="-122.208377">
        <ele>175.6</ele>
        <time>2015-04-27T18:55:21Z</time>
      </trkpt>
      <trkpt lat="37.371951" lon="-122.208427">
        <ele>175.2</ele>
        <time>2015-04-27T18:55:22Z</time>
      </trkpt>
      <trkpt lat="37.371992" lon="-122.208478">
        <ele>174.8</ele>
        <time>2015-04-27T18:55:23Z</time>
      </trkpt>
      <trkpt lat="37.372029" lon="-122.208524">
        <ele>174.4</ele>
        <time>2015-04-27T18:55:24Z</time>
      </trkpt>
      <trkpt lat="37.372061" lon="-122.208578">
        <ele>174.1</ele>
        <time>2015-04-27T18:55:25Z</time>
      </trkpt>
      <trkpt lat="37.372096" lon="-122.208628">
        <ele>173.8</ele>
        <time>2015-04-27T18:55:26Z</time>
      </trkpt>
      <trkpt lat="37.372131" lon="-122.208681">
        <ele>173.6</ele>
        <time>2015-04-27T18:55:27Z</time>
      </trkpt>
      <trkpt lat="37.372165" lon="-122.208725">
        <ele>173.5</ele>
        <time>2015-04-27T18:55:28Z</time>
      </trkpt>
      <trkpt lat="37.3722" lon="-122.208774">
        <ele>173.3</ele>
        <time>2015-04-27T18:55:29Z</time>
      </trkpt>
      <trkpt lat="37.372358" lon="-122.208984">
        <ele>171.9</ele>
        <time>2015-04-27T18:55:33Z</time>
      </trkpt>
      <trkpt lat="37.372392" lon="-122.209042">
        <ele>171.5</ele>
        <time>2015-04-27T18:55:34Z</time>
      </trkpt>
      <trkpt lat="37.372429" lon="-122.209093">
        <ele>171.1</ele>
        <time>2015-04-27T18:55:35Z</time>
      </trkpt>
      <trkpt lat="37.37247" lon="-122.209144">
        <ele>170.5</ele>
        <time>2015-04-27T18:55:36Z</time>
      </trkpt>
      <trkpt lat="37.372504" lon="-122.209192">
        <ele>170</ele>
        <time>2015-04-27T18:55:37Z</time>
      </trkpt>
      <trkpt lat="37.372543" lon="-122.209248">
        <ele>169.6</ele>
        <time>2015-04-27T18:55:38Z</time>
      </trkpt>
      <trkpt lat="37.372582" lon="-122.209305">
        <ele>169.2</ele>
        <time>2015-04-27T18:55:39Z</time>
      </trkpt>
      <trkpt lat="37.372621" lon="-122.209361">
        <ele>168.8</ele>
        <time>2015-04-27T18:55:40Z</time>
      </trkpt>
      <trkpt lat="37.37266" lon="-122.209417">
        <ele>168.5</ele>
        <time>2015-04-27T18:55:41Z</time>
      </trkpt>
      <trkpt lat="37.372704" lon="-122.209476">
        <ele>168.1</ele>
        <time>2015-04-27T18:55:42Z</time>
      </trkpt>
      <trkpt lat="37.372747" lon="-122.209536">
        <ele>167.9</ele>
        <time>2015-04-27T18:55:43Z</time>
      </trkpt>
      <trkpt lat="37.372791" lon="-122.209597">
        <ele>167.8</ele>
        <time>2015-04-27T18:55:44Z</time>
      </trkpt>
      <trkpt lat="37.372848" lon="-122.209661">
        <ele>167.4</ele>
        <time>2015-04-27T18:55:45Z</time>
      </trkpt>
      <trkpt lat="37.372896" lon="-122.209719">
        <ele>167.1</ele>
        <time>2015-04-27T18:55:46Z</time>
      </trkpt>
      <trkpt lat="37.373074" lon="-122.209968">
        <ele>165.7</ele>
        <time>2015-04-27T18:55:50Z</time>
      </trkpt>
      <trkpt lat="37.373118" lon="-122.21003">
        <ele>165.4</ele>
        <time>2015-04-27T18:55:51Z</time>
      </trkpt>
      <trkpt lat="37.37318" lon="-122.210088">
        <ele>164.5</ele>
        <time>2015-04-27T18:55:52Z</time>
      </trkpt>
      <trkpt lat="37.373204" lon="-122.210145">
        <ele>164.4</ele>
        <time>2015-04-27T18:55:53Z</time>
      </trkpt>
      <trkpt lat="37.373344" lon="-122.210349">
        <ele>163.2</ele>
        <time>2015-04-27T18:55:56Z</time>
      </trkpt>
      <trkpt lat="37.373383" lon="-122.210413">
        <ele>162.8</ele>
        <time>2015-04-27T18:55:57Z</time>
      </trkpt>
      <trkpt lat="37.373426" lon="-122.21047">
        <ele>162.4</ele>
        <time>2015-04-27T18:55:58Z</time>
      </trkpt>
      <trkpt lat="37.373466" lon="-122.210537">
        <ele>162.2</ele>
        <time>2015-04-27T18:55:59Z</time>
      </trkpt>
      <trkpt lat="37.373501" lon="-122.210607">
        <ele>162.4</ele>
        <time>2015-04-27T18:56:00Z</time>
      </trkpt>
      <trkpt lat="37.373546" lon="-122.21068">
        <ele>162.6</ele>
        <time>2015-04-27T18:56:01Z</time>
      </trkpt>
      <trkpt lat="37.373579" lon="-122.210747">
        <ele>163</ele>
        <time>2015-04-27T18:56:02Z</time>
      </trkpt>
      <trkpt lat="37.373616" lon="-122.210834">
        <ele>163.3</ele>
        <time>2015-04-27T18:56:03Z</time>
      </trkpt>
      <trkpt lat="37.373646" lon="-122.210909">
        <ele>163.5</ele>
        <time>2015-04-27T18:56:04Z</time>
      </trkpt>
      <trkpt lat="37.373679" lon="-122.210995">
        <ele>163.7</ele>
        <time>2015-04-27T18:56:05Z</time>
      </trkpt>
      <trkpt lat="37.373711" lon="-122.21109">
        <ele>163.9</ele>
        <time>2015-04-27T18:56:06Z</time>
      </trkpt>
      <trkpt lat="37.37374" lon="-122.211174">
        <ele>164.2</ele>
        <time>2015-04-27T18:56:07Z</time>
      </trkpt>
      <trkpt lat="37.373819" lon="-122.21148">
        <ele>164.1</ele>
        <time>2015-04-27T18:56:10Z</time>
      </trkpt>
      <trkpt lat="37.373834" lon="-122.211571">
        <ele>164</ele>
        <time>2015-04-27T18:56:11Z</time>
      </trkpt>
      <trkpt lat="37.37385" lon="-122.211678">
        <ele>163.9</ele>
        <time>2015-04-27T18:56:12Z</time>
      </trkpt>
      <trkpt lat="37.373862" lon="-122.211781">
        <ele>163.5</ele>
        <time>2015-04-27T18:56:13Z</time>
      </trkpt>
      <trkpt lat="37.373868" lon="-122.211881">
        <ele>163</ele>
        <time>2015-04-27T18:56:14Z</time>
      </trkpt>
      <trkpt lat="37.373872" lon="-122.211994">
        <ele>162.7</ele>
        <time>2015-04-27T18:56:15Z</time>
      </trkpt>
      <trkpt lat="37.373879" lon="-122.212103">
        <ele>162.6</ele>
        <time>2015-04-27T18:56:16Z</time>
      </trkpt>
      <trkpt lat="37.373875" lon="-122.212218">
        <ele>162.6</ele>
        <time>2015-04-27T18:56:17Z</time>
      </trkpt>
      <trkpt lat="37.373895" lon="-122.212331">
        <ele>162</ele>
        <time>2015-04-27T18:56:18Z</time>
      </trkpt>
      <trkpt lat="37.373899" lon="-122.21244">
        <ele>161.5</ele>
        <time>2015-04-27T18:56:19Z</time>
      </trkpt>
      <trkpt lat="37.373903" lon="-122.212554">
        <ele>161.1</ele>
        <time>2015-04-27T18:56:20Z</time>
      </trkpt>
      <trkpt lat="37.37393" lon="-122.212641">
        <ele>160.4</ele>
        <time>2015-04-27T18:56:21Z</time>
      </trkpt>
      <trkpt lat="37.373933" lon="-122.21275">
        <ele>159.8</ele>
        <time>2015-04-27T18:56:22Z</time>
      </trkpt>
      <trkpt lat="37.373939" lon="-122.212863">
        <ele>159</ele>
        <time>2015-04-27T18:56:23Z</time>
      </trkpt>
      <trkpt lat="37.373946" lon="-122.212961">
        <ele>158.4</ele>
        <time>2015-04-27T18:56:24Z</time>
      </trkpt>
      <trkpt lat="37.373959" lon="-122.213059">
        <ele>158</ele>
        <time>2015-04-27T18:56:25Z</time>
      </trkpt>
      <trkpt lat="37.37396" lon="-122.213154">
        <ele>158.3</ele>
        <time>2015-04-27T18:56:26Z</time>
      </trkpt>
      <trkpt lat="37.373971" lon="-122.213248">
        <ele>158.7</ele>
        <time>2015-04-27T18:56:27Z</time>
      </trkpt>
      <trkpt lat="37.373978" lon="-122.213347">
        <ele>159.2</ele>
        <time>2015-04-27T18:56:28Z</time>
      </trkpt>
      <trkpt lat="37.373981" lon="-122.213455">
        <ele>159.6</ele>
        <time>2015-04-27T18:56:29Z</time>
      </trkpt>
      <trkpt lat="37.37401" lon="-122.213558">
        <ele>159.7</ele>
        <time>2015-04-27T18:56:30Z</time>
      </trkpt>
      <trkpt lat="37.374037" lon="-122.213657">
        <ele>159.5</ele>
        <time>2015-04-27T18:56:31Z</time>
      </trkpt>
      <trkpt lat="37.37406" lon="-122.213768">
        <ele>159.2</ele>
        <time>2015-04-27T18:56:32Z</time>
      </trkpt>
      <trkpt lat="37.374075" lon="-122.213865">
        <ele>159</ele>
        <time>2015-04-27T18:56:33Z</time>
      </trkpt>
      <trkpt lat="37.374093" lon="-122.213971">
        <ele>159</ele>
        <time>2015-04-27T18:56:34Z</time>
      </trkpt>
      <trkpt lat="37.374125" lon="-122.214059">
        <ele>158.9</ele>
        <time>2015-04-27T18:56:35Z</time>
      </trkpt>
      <trkpt lat="37.374154" lon="-122.214157">
        <ele>159</ele>
        <time>2015-04-27T18:56:36Z</time>
      </trkpt>
      <trkpt lat="37.374193" lon="-122.214281">
        <ele>159.5</ele>
        <time>2015-04-27T18:56:37Z</time>
      </trkpt>
      <trkpt lat="37.374234" lon="-122.214369">
        <ele>159.7</ele>
        <time>2015-04-27T18:56:38Z</time>
      </trkpt>
      <trkpt lat="37.374278" lon="-122.214457">
        <ele>159.8</ele>
        <time>2015-04-27T18:56:39Z</time>
      </trkpt>
      <trkpt lat="37.374321" lon="-122.21455">
        <ele>159.9</ele>
        <time>2015-04-27T18:56:40Z</time>
      </trkpt>
      <trkpt lat="37.374372" lon="-122.214629">
        <ele>159.8</ele>
        <time>2015-04-27T18:56:41Z</time>
      </trkpt>
      <trkpt lat="37.37443" lon="-122.214704">
        <ele>159.5</ele>
        <time>2015-04-27T18:56:42Z</time>
      </trkpt>
      <trkpt lat="37.374489" lon="-122.21479">
        <ele>159.4</ele>
        <time>2015-04-27T18:56:43Z</time>
      </trkpt>
      <trkpt lat="37.374543" lon="-122.21487">
        <ele>159.4</ele>
        <time>2015-04-27T18:56:44Z</time>
      </trkpt>
      <trkpt lat="37.374595" lon="-122.214944">
        <ele>159.5</ele>
        <time>2015-04-27T18:56:45Z</time>
      </trkpt>
      <trkpt lat="37.374647" lon="-122.215026">
        <ele>159.4</ele>
        <time>2015-04-27T18:56:46Z</time>
      </trkpt>
      <trkpt lat="37.374689" lon="-122.215101">
        <ele>159.1</ele>
        <time>2015-04-27T18:56:47Z</time>
      </trkpt>
      <trkpt lat="37.374726" lon="-122.215176">
        <ele>158.7</ele>
        <time>2015-04-27T18:56:48Z</time>
      </trkpt>
      <trkpt lat="37.374776" lon="-122.215248">
        <ele>158</ele>
        <time>2015-04-27T18:56:49Z</time>
      </trkpt>
      <trkpt lat="37.374825" lon="-122.215329">
        <ele>157</ele>
        <time>2015-04-27T18:56:50Z</time>
      </trkpt>
      <trkpt lat="37.37489" lon="-122.215373">
        <ele>156.1</ele>
        <time>2015-04-27T18:56:51Z</time>
      </trkpt>
      <trkpt lat="37.374942" lon="-122.215442">
        <ele>155.7</ele>
        <time>2015-04-27T18:56:52Z</time>
      </trkpt>
      <trkpt lat="37.374991" lon="-122.215515">
        <ele>155.5</ele>
        <time>2015-04-27T18:56:53Z</time>
      </trkpt>
      <trkpt lat="37.375033" lon="-122.215599">
        <ele>155.3</ele>
        <time>2015-04-27T18:56:54Z</time>
      </trkpt>
      <trkpt lat="37.375074" lon="-122.215676">
        <ele>155.1</ele>
        <time>2015-04-27T18:56:55Z</time>
      </trkpt>
      <trkpt lat="37.375118" lon="-122.215739">
        <ele>154.8</ele>
        <time>2015-04-27T18:56:56Z</time>
      </trkpt>
      <trkpt lat="37.375165" lon="-122.215813">
        <ele>154.6</ele>
        <time>2015-04-27T18:56:57Z</time>
      </trkpt>
      <trkpt lat="37.375202" lon="-122.215889">
        <ele>154.7</ele>
        <time>2015-04-27T18:56:58Z</time>
      </trkpt>
      <trkpt lat="37.375254" lon="-122.215949">
        <ele>154.7</ele>
        <time>2015-04-27T18:56:59Z</time>
      </trkpt>
      <trkpt lat="37.37526" lon="-122.216004">
        <ele>154.6</ele>
        <time>2015-04-27T18:57:00Z</time>
      </trkpt>
      <trkpt lat="37.375327" lon="-122.216111">
        <ele>154.6</ele>
        <time>2015-04-27T18:57:01Z</time>
      </trkpt>
      <trkpt lat="37.375373" lon="-122.216183">
        <ele>154.6</ele>
        <time>2015-04-27T18:57:02Z</time>
      </trkpt>
      <trkpt lat="37.375411" lon="-122.216246">
        <ele>154.6</ele>
        <time>2015-04-27T18:57:03Z</time>
      </trkpt>
      <trkpt lat="37.375458" lon="-122.216328">
        <ele>154.7</ele>
        <time>2015-04-27T18:57:04Z</time>
      </trkpt>
      <trkpt lat="37.3755" lon="-122.216404">
        <ele>154.8</ele>
        <time>2015-04-27T18:57:05Z</time>
      </trkpt>
      <trkpt lat="37.375539" lon="-122.216483">
        <ele>154.9</ele>
        <time>2015-04-27T18:57:06Z</time>
      </trkpt>
      <trkpt lat="37.375573" lon="-122.216558">
        <ele>155.1</ele>
        <time>2015-04-27T18:57:07Z</time>
      </trkpt>
      <trkpt lat="37.375607" lon="-122.216639">
        <ele>155.3</ele>
        <time>2015-04-27T18:57:08Z</time>
      </trkpt>
      <trkpt lat="37.375643" lon="-122.216736">
        <ele>155.3</ele>
        <time>2015-04-27T18:57:09Z</time>
      </trkpt>
      <trkpt lat="37.375676" lon="-122.216832">
        <ele>155.4</ele>
        <time>2015-04-27T18:57:10Z</time>
      </trkpt>
      <trkpt lat="37.375692" lon="-122.216884">
        <ele>155.5</ele>
        <time>2015-04-27T18:57:11Z</time>
      </trkpt>
      <trkpt lat="37.375723" lon="-122.217001">
        <ele>155.6</ele>
        <time>2015-04-27T18:57:12Z</time>
      </trkpt>
      <trkpt lat="37.375739" lon="-122.217082">
        <ele>155.7</ele>
        <time>2015-04-27T18:57:13Z</time>
      </trkpt>
      <trkpt lat="37.375749" lon="-122.21715">
        <ele>156</ele>
        <time>2015-04-27T18:57:14Z</time>
      </trkpt>
      <trkpt lat="37.375757" lon="-122.217212">
        <ele>156.2</ele>
        <time>2015-04-27T18:57:15Z</time>
      </trkpt>
      <trkpt lat="37.375766" lon="-122.217308">
        <ele>156.5</ele>
        <time>2015-04-27T18:57:16Z</time>
      </trkpt>
      <trkpt lat="37.375771" lon="-122.217397">
        <ele>156.6</ele>
        <time>2015-04-27T18:57:17Z</time>
      </trkpt>
      <trkpt lat="37.375773" lon="-122.217482">
        <ele>156.6</ele>
        <time>2015-04-27T18:57:18Z</time>
      </trkpt>
      <trkpt lat="37.375771" lon="-122.217573">
        <ele>156.6</ele>
        <time>2015-04-27T18:57:19Z</time>
      </trkpt>
      <trkpt lat="37.375766" lon="-122.217667">
        <ele>156.1</ele>
        <time>2015-04-27T18:57:20Z</time>
      </trkpt>
      <trkpt lat="37.375758" lon="-122.217757">
        <ele>155.8</ele>
        <time>2015-04-27T18:57:21Z</time>
      </trkpt>
      <trkpt lat="37.375751" lon="-122.217821">
        <ele>155.9</ele>
        <time>2015-04-27T18:57:22Z</time>
      </trkpt>
      <trkpt lat="37.37574" lon="-122.217915">
        <ele>156.7</ele>
        <time>2015-04-27T18:57:23Z</time>
      </trkpt>
      <trkpt lat="37.37573" lon="-122.217984">
        <ele>157.6</ele>
        <time>2015-04-27T18:57:24Z</time>
      </trkpt>
      <trkpt lat="37.375716" lon="-122.218091">
        <ele>158.9</ele>
        <time>2015-04-27T18:57:25Z</time>
      </trkpt>
      <trkpt lat="37.375699" lon="-122.218186">
        <ele>159.8</ele>
        <time>2015-04-27T18:57:26Z</time>
      </trkpt>
      <trkpt lat="37.375678" lon="-122.218295">
        <ele>160.5</ele>
        <time>2015-04-27T18:57:27Z</time>
      </trkpt>
      <trkpt lat="37.375667" lon="-122.218379">
        <ele>161</ele>
        <time>2015-04-27T18:57:28Z</time>
      </trkpt>
      <trkpt lat="37.375649" lon="-122.218459">
        <ele>161.5</ele>
        <time>2015-04-27T18:57:29Z</time>
      </trkpt>
      <trkpt lat="37.375636" lon="-122.218533">
        <ele>161.7</ele>
        <time>2015-04-27T18:57:30Z</time>
      </trkpt>
      <trkpt lat="37.375622" lon="-122.218616">
        <ele>161.9</ele>
        <time>2015-04-27T18:57:31Z</time>
      </trkpt>
      <trkpt lat="37.375613" lon="-122.21867">
        <ele>162</ele>
        <time>2015-04-27T18:57:32Z</time>
      </trkpt>
      <trkpt lat="37.375607" lon="-122.218716">
        <ele>162.1</ele>
        <time>2015-04-27T18:57:33Z</time>
      </trkpt>
      <trkpt lat="37.375594" lon="-122.218771">
        <ele>162.2</ele>
        <time>2015-04-27T18:57:34Z</time>
      </trkpt>
      <trkpt lat="37.375587" lon="-122.218817">
        <ele>162.3</ele>
        <time>2015-04-27T18:57:35Z</time>
      </trkpt>
      <trkpt lat="37.375579" lon="-122.218868">
        <ele>162.5</ele>
        <time>2015-04-27T18:57:36Z</time>
      </trkpt>
      <trkpt lat="37.375577" lon="-122.218916">
        <ele>162.7</ele>
        <time>2015-04-27T18:57:37Z</time>
      </trkpt>
      <trkpt lat="37.375566" lon="-122.218965">
        <ele>162.9</ele>
        <time>2015-04-27T18:57:38Z</time>
      </trkpt>
      <trkpt lat="37.37556" lon="-122.219018">
        <ele>163</ele>
        <time>2015-04-27T18:57:39Z</time>
      </trkpt>
      <trkpt lat="37.375551" lon="-122.219069">
        <ele>163</ele>
        <time>2015-04-27T18:57:40Z</time>
      </trkpt>
      <trkpt lat="37.375545" lon="-122.219113">
        <ele>163.1</ele>
        <time>2015-04-27T18:57:41Z</time>
      </trkpt>
      <trkpt lat="37.375538" lon="-122.219161">
        <ele>163.2</ele>
        <time>2015-04-27T18:57:42Z</time>
      </trkpt>
      <trkpt lat="37.375531" lon="-122.219206">
        <ele>163.3</ele>
        <time>2015-04-27T18:57:43Z</time>
      </trkpt>
      <trkpt lat="37.375523" lon="-122.219251">
        <ele>163.2</ele>
        <time>2015-04-27T18:57:44Z</time>
      </trkpt>
      <trkpt lat="37.375515" lon="-122.219297">
        <ele>163.1</ele>
        <time>2015-04-27T18:57:45Z</time>
      </trkpt>
      <trkpt lat="37.375508" lon="-122.219338">
        <ele>163</ele>
        <time>2015-04-27T18:57:46Z</time>
      </trkpt>
      <trkpt lat="37.375501" lon="-122.219385">
        <ele>163</ele>
        <time>2015-04-27T18:57:47Z</time>
      </trkpt>
      <trkpt lat="37.375493" lon="-122.21943">
        <ele>163.1</ele>
        <time>2015-04-27T18:57:48Z</time>
      </trkpt>
      <trkpt lat="37.375486" lon="-122.219473">
        <ele>163.2</ele>
        <time>2015-04-27T18:57:49Z</time>
      </trkpt>
      <trkpt lat="37.375479" lon="-122.219516">
        <ele>163.4</ele>
        <time>2015-04-27T18:57:50Z</time>
      </trkpt>
      <trkpt lat="37.37545" lon="-122.21978">
        <ele>164.6</ele>
        <time>2015-04-27T18:57:56Z</time>
      </trkpt>
      <trkpt lat="37.375448" lon="-122.219825">
        <ele>164.8</ele>
        <time>2015-04-27T18:57:57Z</time>
      </trkpt>
      <trkpt lat="37.375448" lon="-122.21987">
        <ele>165</ele>
        <time>2015-04-27T18:57:58Z</time>
      </trkpt>
      <trkpt lat="37.375444" lon="-122.219915">
        <ele>165.2</ele>
        <time>2015-04-27T18:57:59Z</time>
      </trkpt>
      <trkpt lat="37.375435" lon="-122.219958">
        <ele>165.4</ele>
        <time>2015-04-27T18:58:00Z</time>
      </trkpt>
      <trkpt lat="37.375425" lon="-122.220003">
        <ele>165.7</ele>
        <time>2015-04-27T18:58:01Z</time>
      </trkpt>
      <trkpt lat="37.375415" lon="-122.220053">
        <ele>166</ele>
        <time>2015-04-27T18:58:02Z</time>
      </trkpt>
      <trkpt lat="37.375401" lon="-122.220127">
        <ele>166.3</ele>
        <time>2015-04-27T18:58:04Z</time>
      </trkpt>
      <trkpt lat="37.375394" lon="-122.220167">
        <ele>166.5</ele>
        <time>2015-04-27T18:58:05Z</time>
      </trkpt>
      <trkpt lat="37.375385" lon="-122.220221">
        <ele>166.6</ele>
        <time>2015-04-27T18:58:06Z</time>
      </trkpt>
      <trkpt lat="37.375378" lon="-122.220263">
        <ele>166.7</ele>
        <time>2015-04-27T18:58:07Z</time>
      </trkpt>
      <trkpt lat="37.37537" lon="-122.220315">
        <ele>166.8</ele>
        <time>2015-04-27T18:58:08Z</time>
      </trkpt>
      <trkpt lat="37.375363" lon="-122.220361">
        <ele>166.9</ele>
        <time>2015-04-27T18:58:09Z</time>
      </trkpt>
      <trkpt lat="37.375356" lon="-122.220408">
        <ele>166.9</ele>
        <time>2015-04-27T18:58:10Z</time>
      </trkpt>
      <trkpt lat="37.375349" lon="-122.220454">
        <ele>167</ele>
        <time>2015-04-27T18:58:11Z</time>
      </trkpt>
      <trkpt lat="37.375321" lon="-122.220714">
        <ele>167.1</ele>
        <time>2015-04-27T18:58:16Z</time>
      </trkpt>
      <trkpt lat="37.375317" lon="-122.220767">
        <ele>167.1</ele>
        <time>2015-04-27T18:58:17Z</time>
      </trkpt>
      <trkpt lat="37.375314" lon="-122.220821">
        <ele>167</ele>
        <time>2015-04-27T18:58:18Z</time>
      </trkpt>
      <trkpt lat="37.37531" lon="-122.220875">
        <ele>166.9</ele>
        <time>2015-04-27T18:58:19Z</time>
      </trkpt>
      <trkpt lat="37.375308" lon="-122.220929">
        <ele>166.8</ele>
        <time>2015-04-27T18:58:20Z</time>
      </trkpt>
      <trkpt lat="37.375305" lon="-122.220987">
        <ele>166.7</ele>
        <time>2015-04-27T18:58:21Z</time>
      </trkpt>
      <trkpt lat="37.375307" lon="-122.221031">
        <ele>166.8</ele>
        <time>2015-04-27T18:58:22Z</time>
      </trkpt>
      <trkpt lat="37.37531" lon="-122.221087">
        <ele>166.9</ele>
        <time>2015-04-27T18:58:23Z</time>
      </trkpt>
      <trkpt lat="37.375313" lon="-122.22114">
        <ele>167.1</ele>
        <time>2015-04-27T18:58:24Z</time>
      </trkpt>
      <trkpt lat="37.375317" lon="-122.221189">
        <ele>167.3</ele>
        <time>2015-04-27T18:58:25Z</time>
      </trkpt>
      <trkpt lat="37.375321" lon="-122.221238">
        <ele>167.4</ele>
        <time>2015-04-27T18:58:26Z</time>
      </trkpt>
      <trkpt lat="37.37532" lon="-122.221297">
        <ele>167.4</ele>
        <time>2015-04-27T18:58:27Z</time>
      </trkpt>
      <trkpt lat="37.375325" lon="-122.221349">
        <ele>167.4</ele>
        <time>2015-04-27T18:58:28Z</time>
      </trkpt>
      <trkpt lat="37.375336" lon="-122.2214">
        <ele>167.5</ele>
        <time>2015-04-27T18:58:29Z</time>
      </trkpt>
      <trkpt lat="37.375348" lon="-122.221451">
        <ele>167.5</ele>
        <time>2015-04-27T18:58:30Z</time>
      </trkpt>
      <trkpt lat="37.375357" lon="-122.221509">
        <ele>167.5</ele>
        <time>2015-04-27T18:58:31Z</time>
      </trkpt>
      <trkpt lat="37.375372" lon="-122.221581">
        <ele>167.6</ele>
        <time>2015-04-27T18:58:32Z</time>
      </trkpt>
      <trkpt lat="37.37538" lon="-122.221628">
        <ele>167.6</ele>
        <time>2015-04-27T18:58:33Z</time>
      </trkpt>
      <trkpt lat="37.375401" lon="-122.221708">
        <ele>167.7</ele>
        <time>2015-04-27T18:58:34Z</time>
      </trkpt>
      <trkpt lat="37.375428" lon="-122.221756">
        <ele>167.8</ele>
        <time>2015-04-27T18:58:35Z</time>
      </trkpt>
      <trkpt lat="37.375451" lon="-122.221807">
        <ele>168</ele>
        <time>2015-04-27T18:58:36Z</time>
      </trkpt>
      <trkpt lat="37.375481" lon="-122.221863">
        <ele>168.2</ele>
        <time>2015-04-27T18:58:37Z</time>
      </trkpt>
      <trkpt lat="37.375509" lon="-122.221928">
        <ele>168.3</ele>
        <time>2015-04-27T18:58:38Z</time>
      </trkpt>
      <trkpt lat="37.375544" lon="-122.221989">
        <ele>168.3</ele>
        <time>2015-04-27T18:58:39Z</time>
      </trkpt>
      <trkpt lat="37.37558" lon="-122.222058">
        <ele>168.3</ele>
        <time>2015-04-27T18:58:40Z</time>
      </trkpt>
      <trkpt lat="37.375619" lon="-122.22211">
        <ele>168.5</ele>
        <time>2015-04-27T18:58:41Z</time>
      </trkpt>
      <trkpt lat="37.375667" lon="-122.222181">
        <ele>168.6</ele>
        <time>2015-04-27T18:58:42Z</time>
      </trkpt>
      <trkpt lat="37.375692" lon="-122.222226">
        <ele>168.5</ele>
        <time>2015-04-27T18:58:43Z</time>
      </trkpt>
      <trkpt lat="37.375734" lon="-122.222286">
        <ele>168.1</ele>
        <time>2015-04-27T18:58:44Z</time>
      </trkpt>
      <trkpt lat="37.375776" lon="-122.222337">
        <ele>167.6</ele>
        <time>2015-04-27T18:58:45Z</time>
      </trkpt>
      <trkpt lat="37.375828" lon="-122.222389">
        <ele>167</ele>
        <time>2015-04-27T18:58:46Z</time>
      </trkpt>
      <trkpt lat="37.375874" lon="-122.222442">
        <ele>166.4</ele>
        <time>2015-04-27T18:58:47Z</time>
      </trkpt>
      <trkpt lat="37.375927" lon="-122.222491">
        <ele>165.8</ele>
        <time>2015-04-27T18:58:48Z</time>
      </trkpt>
      <trkpt lat="37.37598" lon="-122.222531">
        <ele>165.4</ele>
        <time>2015-04-27T18:58:49Z</time>
      </trkpt>
      <trkpt lat="37.376038" lon="-122.222582">
        <ele>165.2</ele>
        <time>2015-04-27T18:58:50Z</time>
      </trkpt>
      <trkpt lat="37.376094" lon="-122.222621">
        <ele>165.1</ele>
        <time>2015-04-27T18:58:51Z</time>
      </trkpt>
      <trkpt lat="37.376153" lon="-122.222661">
        <ele>164.9</ele>
        <time>2015-04-27T18:58:52Z</time>
      </trkpt>
      <trkpt lat="37.376211" lon="-122.222706">
        <ele>164.9</ele>
        <time>2015-04-27T18:58:53Z</time>
      </trkpt>
      <trkpt lat="37.376257" lon="-122.222734">
        <ele>164.8</ele>
        <time>2015-04-27T18:58:54Z</time>
      </trkpt>
      <trkpt lat="37.376446" lon="-122.222872">
        <ele>164.6</ele>
        <time>2015-04-27T18:58:57Z</time>
      </trkpt>
      <trkpt lat="37.376513" lon="-122.222919">
        <ele>164.5</ele>
        <time>2015-04-27T18:58:58Z</time>
      </trkpt>
      <trkpt lat="37.376578" lon="-122.222963">
        <ele>164.4</ele>
        <time>2015-04-27T18:58:59Z</time>
      </trkpt>
      <trkpt lat="37.376644" lon="-122.223008">
        <ele>164.3</ele>
        <time>2015-04-27T18:59:00Z</time>
      </trkpt>
      <trkpt lat="37.376706" lon="-122.22305">
        <ele>164.3</ele>
        <time>2015-04-27T18:59:01Z</time>
      </trkpt>
      <trkpt lat="37.37677" lon="-122.223091">
        <ele>164.2</ele>
        <time>2015-04-27T18:59:02Z</time>
      </trkpt>
      <trkpt lat="37.376845" lon="-122.223132">
        <ele>164.3</ele>
        <time>2015-04-27T18:59:03Z</time>
      </trkpt>
      <trkpt lat="37.376914" lon="-122.223178">
        <ele>164.4</ele>
        <time>2015-04-27T18:59:04Z</time>
      </trkpt>
      <trkpt lat="37.376979" lon="-122.223223">
        <ele>164.2</ele>
        <time>2015-04-27T18:59:05Z</time>
      </trkpt>
      <trkpt lat="37.377052" lon="-122.223273">
        <ele>164.1</ele>
        <time>2015-04-27T18:59:06Z</time>
      </trkpt>
      <trkpt lat="37.377125" lon="-122.223317">
        <ele>164</ele>
        <time>2015-04-27T18:59:07Z</time>
      </trkpt>
      <trkpt lat="37.377199" lon="-122.223367">
        <ele>163.9</ele>
        <time>2015-04-27T18:59:08Z</time>
      </trkpt>
      <trkpt lat="37.377273" lon="-122.223413">
        <ele>163.7</ele>
        <time>2015-04-27T18:59:09Z</time>
      </trkpt>
      <trkpt lat="37.377345" lon="-122.223463">
        <ele>163.6</ele>
        <time>2015-04-27T18:59:10Z</time>
      </trkpt>
      <trkpt lat="37.377415" lon="-122.223516">
        <ele>163.1</ele>
        <time>2015-04-27T18:59:11Z</time>
      </trkpt>
      <trkpt lat="37.377489" lon="-122.223561">
        <ele>162</ele>
        <time>2015-04-27T18:59:12Z</time>
      </trkpt>
      <trkpt lat="37.377561" lon="-122.223609">
        <ele>160.4</ele>
        <time>2015-04-27T18:59:13Z</time>
      </trkpt>
      <trkpt lat="37.377636" lon="-122.223661">
        <ele>158.9</ele>
        <time>2015-04-27T18:59:14Z</time>
      </trkpt>
      <trkpt lat="37.377712" lon="-122.223705">
        <ele>158.7</ele>
        <time>2015-04-27T18:59:15Z</time>
      </trkpt>
      <trkpt lat="37.377789" lon="-122.223755">
        <ele>158.4</ele>
        <time>2015-04-27T18:59:16Z</time>
      </trkpt>
      <trkpt lat="37.377863" lon="-122.223808">
        <ele>158.2</ele>
        <time>2015-04-27T18:59:17Z</time>
      </trkpt>
      <trkpt lat="37.377942" lon="-122.223852">
        <ele>157.9</ele>
        <time>2015-04-27T18:59:18Z</time>
      </trkpt>
      <trkpt lat="37.378018" lon="-122.223903">
        <ele>157.4</ele>
        <time>2015-04-27T18:59:19Z</time>
      </trkpt>
      <trkpt lat="37.378097" lon="-122.223944">
        <ele>157.1</ele>
        <time>2015-04-27T18:59:20Z</time>
      </trkpt>
      <trkpt lat="37.378171" lon="-122.223993">
        <ele>156.7</ele>
        <time>2015-04-27T18:59:21Z</time>
      </trkpt>
      <trkpt lat="37.37825" lon="-122.224042">
        <ele>156.2</ele>
        <time>2015-04-27T18:59:22Z</time>
      </trkpt>
      <trkpt lat="37.378336" lon="-122.224099">
        <ele>155.7</ele>
        <time>2015-04-27T18:59:23Z</time>
      </trkpt>
      <trkpt lat="37.378412" lon="-122.224146">
        <ele>155.4</ele>
        <time>2015-04-27T18:59:24Z</time>
      </trkpt>
      <trkpt lat="37.378491" lon="-122.224198">
        <ele>155.1</ele>
        <time>2015-04-27T18:59:25Z</time>
      </trkpt>
      <trkpt lat="37.378575" lon="-122.224255">
        <ele>154.9</ele>
        <time>2015-04-27T18:59:26Z</time>
      </trkpt>
      <trkpt lat="37.378654" lon="-122.224306">
        <ele>154.7</ele>
        <time>2015-04-27T18:59:27Z</time>
      </trkpt>
      <trkpt lat="37.378736" lon="-122.224355">
        <ele>154.4</ele>
        <time>2015-04-27T18:59:28Z</time>
      </trkpt>
      <trkpt lat="37.378812" lon="-122.224403">
        <ele>154.1</ele>
        <time>2015-04-27T18:59:29Z</time>
      </trkpt>
      <trkpt lat="37.378889" lon="-122.224466">
        <ele>153.7</ele>
        <time>2015-04-27T18:59:30Z</time>
      </trkpt>
      <trkpt lat="37.378968" lon="-122.224524">
        <ele>153.2</ele>
        <time>2015-04-27T18:59:31Z</time>
      </trkpt>
      <trkpt lat="37.379033" lon="-122.224568">
        <ele>152.9</ele>
        <time>2015-04-27T18:59:32Z</time>
      </trkpt>
      <trkpt lat="37.379132" lon="-122.224617">
        <ele>152.8</ele>
        <time>2015-04-27T18:59:33Z</time>
      </trkpt>
      <trkpt lat="37.379221" lon="-122.224675">
        <ele>152.8</ele>
        <time>2015-04-27T18:59:34Z</time>
      </trkpt>
      <trkpt lat="37.379294" lon="-122.224726">
        <ele>152.8</ele>
        <time>2015-04-27T18:59:35Z</time>
      </trkpt>
      <trkpt lat="37.379381" lon="-122.224784">
        <ele>152.8</ele>
        <time>2015-04-27T18:59:36Z</time>
      </trkpt>
      <trkpt lat="37.37946" lon="-122.224846">
        <ele>152.8</ele>
        <time>2015-04-27T18:59:37Z</time>
      </trkpt>
      <trkpt lat="37.379534" lon="-122.224898">
        <ele>152.5</ele>
        <time>2015-04-27T18:59:38Z</time>
      </trkpt>
      <trkpt lat="37.379613" lon="-122.224962">
        <ele>152.1</ele>
        <time>2015-04-27T18:59:39Z</time>
      </trkpt>
      <trkpt lat="37.379688" lon="-122.225024">
        <ele>151.7</ele>
        <time>2015-04-27T18:59:40Z</time>
      </trkpt>
      <trkpt lat="37.379771" lon="-122.225086">
        <ele>151.5</ele>
        <time>2015-04-27T18:59:41Z</time>
      </trkpt>
      <trkpt lat="37.379845" lon="-122.225145">
        <ele>151.4</ele>
        <time>2015-04-27T18:59:42Z</time>
      </trkpt>
      <trkpt lat="37.379928" lon="-122.225214">
        <ele>151.2</ele>
        <time>2015-04-27T18:59:43Z</time>
      </trkpt>
      <trkpt lat="37.379999" lon="-122.225284">
        <ele>150.9</ele>
        <time>2015-04-27T18:59:44Z</time>
      </trkpt>
      <trkpt lat="37.380077" lon="-122.225362">
        <ele>150.5</ele>
        <time>2015-04-27T18:59:45Z</time>
      </trkpt>
      <trkpt lat="37.38015" lon="-122.225438">
        <ele>150</ele>
        <time>2015-04-27T18:59:46Z</time>
      </trkpt>
      <trkpt lat="37.380224" lon="-122.225511">
        <ele>149.6</ele>
        <time>2015-04-27T18:59:47Z</time>
      </trkpt>
      <trkpt lat="37.380297" lon="-122.225589">
        <ele>149.1</ele>
        <time>2015-04-27T18:59:48Z</time>
      </trkpt>
      <trkpt lat="37.380369" lon="-122.225662">
        <ele>148.6</ele>
        <time>2015-04-27T18:59:49Z</time>
      </trkpt>
      <trkpt lat="37.380449" lon="-122.225744">
        <ele>147.8</ele>
        <time>2015-04-27T18:59:50Z</time>
      </trkpt>
      <trkpt lat="37.38052" lon="-122.22583">
        <ele>146.9</ele>
        <time>2015-04-27T18:59:51Z</time>
      </trkpt>
      <trkpt lat="37.380592" lon="-122.225915">
        <ele>146.6</ele>
        <time>2015-04-27T18:59:52Z</time>
      </trkpt>
      <trkpt lat="37.380666" lon="-122.226005">
        <ele>146.6</ele>
        <time>2015-04-27T18:59:53Z</time>
      </trkpt>
      <trkpt lat="37.380742" lon="-122.226092">
        <ele>146.5</ele>
        <time>2015-04-27T18:59:54Z</time>
      </trkpt>
      <trkpt lat="37.380808" lon="-122.226185">
        <ele>146.2</ele>
        <time>2015-04-27T18:59:55Z</time>
      </trkpt>
      <trkpt lat="37.380875" lon="-122.226293">
        <ele>145.8</ele>
        <time>2015-04-27T18:59:56Z</time>
      </trkpt>
      <trkpt lat="37.380942" lon="-122.226385">
        <ele>145.9</ele>
        <time>2015-04-27T18:59:57Z</time>
      </trkpt>
      <trkpt lat="37.381006" lon="-122.226486">
        <ele>145.9</ele>
        <time>2015-04-27T18:59:58Z</time>
      </trkpt>
      <trkpt lat="37.38107" lon="-122.226582">
        <ele>145.9</ele>
        <time>2015-04-27T18:59:59Z</time>
      </trkpt>
      <trkpt lat="37.381129" lon="-122.226686">
        <ele>145.7</ele>
        <time>2015-04-27T19:00:00Z</time>
      </trkpt>
      <trkpt lat="37.381193" lon="-122.226777">
        <ele>145.8</ele>
        <time>2015-04-27T19:00:01Z</time>
      </trkpt>
      <trkpt lat="37.381255" lon="-122.226881">
        <ele>145.8</ele>
        <time>2015-04-27T19:00:02Z</time>
      </trkpt>
      <trkpt lat="37.381313" lon="-122.226979">
        <ele>145.7</ele>
        <time>2015-04-27T19:00:03Z</time>
      </trkpt>
      <trkpt lat="37.381348" lon="-122.227037">
        <ele>145.7</ele>
        <time>2015-04-27T19:00:04Z</time>
      </trkpt>
      <trkpt lat="37.38144" lon="-122.227166">
        <ele>145.9</ele>
        <time>2015-04-27T19:00:05Z</time>
      </trkpt>
      <trkpt lat="37.381504" lon="-122.227266">
        <ele>145.9</ele>
        <time>2015-04-27T19:00:06Z</time>
      </trkpt>
      <trkpt lat="37.381565" lon="-122.227354">
        <ele>145.9</ele>
        <time>2015-04-27T19:00:07Z</time>
      </trkpt>
      <trkpt lat="37.381626" lon="-122.227448">
        <ele>145.7</ele>
        <time>2015-04-27T19:00:08Z</time>
      </trkpt>
      <trkpt lat="37.381685" lon="-122.227552">
        <ele>145.4</ele>
        <time>2015-04-27T19:00:09Z</time>
      </trkpt>
      <trkpt lat="37.381756" lon="-122.227637">
        <ele>144.7</ele>
        <time>2015-04-27T19:00:10Z</time>
      </trkpt>
      <trkpt lat="37.381818" lon="-122.227732">
        <ele>142.7</ele>
        <time>2015-04-27T19:00:11Z</time>
      </trkpt>
      <trkpt lat="37.381876" lon="-122.227828">
        <ele>141.3</ele>
        <time>2015-04-27T19:00:12Z</time>
      </trkpt>
      <trkpt lat="37.381937" lon="-122.227919">
        <ele>140.3</ele>
        <time>2015-04-27T19:00:13Z</time>
      </trkpt>
      <trkpt lat="37.381994" lon="-122.228013">
        <ele>139.9</ele>
        <time>2015-04-27T19:00:14Z</time>
      </trkpt>
      <trkpt lat="37.382054" lon="-122.228107">
        <ele>139.9</ele>
        <time>2015-04-27T19:00:15Z</time>
      </trkpt>
      <trkpt lat="37.382107" lon="-122.228198">
        <ele>139.8</ele>
        <time>2015-04-27T19:00:16Z</time>
      </trkpt>
      <trkpt lat="37.382164" lon="-122.228277">
        <ele>139.8</ele>
        <time>2015-04-27T19:00:17Z</time>
      </trkpt>
      <trkpt lat="37.382219" lon="-122.228365">
        <ele>139.7</ele>
        <time>2015-04-27T19:00:18Z</time>
      </trkpt>
      <trkpt lat="37.382274" lon="-122.228459">
        <ele>139.5</ele>
        <time>2015-04-27T19:00:19Z</time>
      </trkpt>
      <trkpt lat="37.382334" lon="-122.228544">
        <ele>139.6</ele>
        <time>2015-04-27T19:00:20Z</time>
      </trkpt>
      <trkpt lat="37.382397" lon="-122.22863">
        <ele>139.7</ele>
        <time>2015-04-27T19:00:21Z</time>
      </trkpt>
      <trkpt lat="37.382454" lon="-122.228721">
        <ele>139.5</ele>
        <time>2015-04-27T19:00:22Z</time>
      </trkpt>
      <trkpt lat="37.382508" lon="-122.228819">
        <ele>139</ele>
        <time>2015-04-27T19:00:23Z</time>
      </trkpt>
      <trkpt lat="37.38256" lon="-122.228922">
        <ele>138.6</ele>
        <time>2015-04-27T19:00:24Z</time>
      </trkpt>
      <trkpt lat="37.382602" lon="-122.229035">
        <ele>138.2</ele>
        <time>2015-04-27T19:00:25Z</time>
      </trkpt>
      <trkpt lat="37.382639" lon="-122.229145">
        <ele>137.8</ele>
        <time>2015-04-27T19:00:26Z</time>
      </trkpt>
      <trkpt lat="37.382673" lon="-122.229262">
        <ele>137.5</ele>
        <time>2015-04-27T19:00:27Z</time>
      </trkpt>
      <trkpt lat="37.38271" lon="-122.229364">
        <ele>137.2</ele>
        <time>2015-04-27T19:00:28Z</time>
      </trkpt>
      <trkpt lat="37.382726" lon="-122.229495">
        <ele>136.8</ele>
        <time>2015-04-27T19:00:29Z</time>
      </trkpt>
      <trkpt lat="37.382747" lon="-122.229615">
        <ele>136.7</ele>
        <time>2015-04-27T19:00:30Z</time>
      </trkpt>
      <trkpt lat="37.382771" lon="-122.229729">
        <ele>136.5</ele>
        <time>2015-04-27T19:00:31Z</time>
      </trkpt>
      <trkpt lat="37.382777" lon="-122.229851">
        <ele>136.3</ele>
        <time>2015-04-27T19:00:32Z</time>
      </trkpt>
      <trkpt lat="37.382805" lon="-122.229959">
        <ele>136.1</ele>
        <time>2015-04-27T19:00:33Z</time>
      </trkpt>
      <trkpt lat="37.382822" lon="-122.230105">
        <ele>135.8</ele>
        <time>2015-04-27T19:00:34Z</time>
      </trkpt>
      <trkpt lat="37.382821" lon="-122.230256">
        <ele>135.4</ele>
        <time>2015-04-27T19:00:35Z</time>
      </trkpt>
      <trkpt lat="37.382841" lon="-122.230399">
        <ele>135.2</ele>
        <time>2015-04-27T19:00:36Z</time>
      </trkpt>
      <trkpt lat="37.382855" lon="-122.230552">
        <ele>134.8</ele>
        <time>2015-04-27T19:00:37Z</time>
      </trkpt>
      <trkpt lat="37.382853" lon="-122.230686">
        <ele>134.4</ele>
        <time>2015-04-27T19:00:38Z</time>
      </trkpt>
      <trkpt lat="37.382877" lon="-122.230806">
        <ele>134.3</ele>
        <time>2015-04-27T19:00:39Z</time>
      </trkpt>
      <trkpt lat="37.382905" lon="-122.230935">
        <ele>134.3</ele>
        <time>2015-04-27T19:00:40Z</time>
      </trkpt>
      <trkpt lat="37.382916" lon="-122.231069">
        <ele>134.3</ele>
        <time>2015-04-27T19:00:41Z</time>
      </trkpt>
      <trkpt lat="37.382933" lon="-122.231208">
        <ele>134.2</ele>
        <time>2015-04-27T19:00:42Z</time>
      </trkpt>
      <trkpt lat="37.38295" lon="-122.231331">
        <ele>134.2</ele>
        <time>2015-04-27T19:00:43Z</time>
      </trkpt>
      <trkpt lat="37.382958" lon="-122.231448">
        <ele>134.4</ele>
        <time>2015-04-27T19:00:44Z</time>
      </trkpt>
      <trkpt lat="37.382981" lon="-122.231574">
        <ele>134.4</ele>
        <time>2015-04-27T19:00:45Z</time>
      </trkpt>
      <trkpt lat="37.383003" lon="-122.231694">
        <ele>134.3</ele>
        <time>2015-04-27T19:00:46Z</time>
      </trkpt>
      <trkpt lat="37.383022" lon="-122.231811">
        <ele>134.2</ele>
        <time>2015-04-27T19:00:47Z</time>
      </trkpt>
      <trkpt lat="37.383048" lon="-122.231917">
        <ele>134.1</ele>
        <time>2015-04-27T19:00:48Z</time>
      </trkpt>
      <trkpt lat="37.383073" lon="-122.232044">
        <ele>133.8</ele>
        <time>2015-04-27T19:00:49Z</time>
      </trkpt>
      <trkpt lat="37.383097" lon="-122.23215">
        <ele>133.5</ele>
        <time>2015-04-27T19:00:50Z</time>
      </trkpt>
      <trkpt lat="37.383119" lon="-122.23226">
        <ele>133.3</ele>
        <time>2015-04-27T19:00:51Z</time>
      </trkpt>
      <trkpt lat="37.383141" lon="-122.232373">
        <ele>133.1</ele>
        <time>2015-04-27T19:00:52Z</time>
      </trkpt>
      <trkpt lat="37.383162" lon="-122.232478">
        <ele>133.1</ele>
        <time>2015-04-27T19:00:53Z</time>
      </trkpt>
      <trkpt lat="37.383185" lon="-122.232578">
        <ele>133.1</ele>
        <time>2015-04-27T19:00:54Z</time>
      </trkpt>
      <trkpt lat="37.383218" lon="-122.232688">
        <ele>133.1</ele>
        <time>2015-04-27T19:00:55Z</time>
      </trkpt>
      <trkpt lat="37.383237" lon="-122.232789">
        <ele>133.3</ele>
        <time>2015-04-27T19:00:56Z</time>
      </trkpt>
      <trkpt lat="37.383266" lon="-122.232893">
        <ele>133.5</ele>
        <time>2015-04-27T19:00:57Z</time>
      </trkpt>
      <trkpt lat="37.38329" lon="-122.233001">
        <ele>133.7</ele>
        <time>2015-04-27T19:00:58Z</time>
      </trkpt>
      <trkpt lat="37.383311" lon="-122.233097">
        <ele>134</ele>
        <time>2015-04-27T19:00:59Z</time>
      </trkpt>
      <trkpt lat="37.383334" lon="-122.233207">
        <ele>134.2</ele>
        <time>2015-04-27T19:01:00Z</time>
      </trkpt>
      <trkpt lat="37.38336" lon="-122.233316">
        <ele>134.3</ele>
        <time>2015-04-27T19:01:01Z</time>
      </trkpt>
      <trkpt lat="37.383387" lon="-122.233408">
        <ele>134.5</ele>
        <time>2015-04-27T19:01:02Z</time>
      </trkpt>
      <trkpt lat="37.383414" lon="-122.233487">
        <ele>134.5</ele>
        <time>2015-04-27T19:01:03Z</time>
      </trkpt>
      <trkpt lat="37.383444" lon="-122.233593">
        <ele>134.6</ele>
        <time>2015-04-27T19:01:04Z</time>
      </trkpt>
      <trkpt lat="37.383477" lon="-122.233679">
        <ele>134.9</ele>
        <time>2015-04-27T19:01:05Z</time>
      </trkpt>
      <trkpt lat="37.383522" lon="-122.233759">
        <ele>135.3</ele>
        <time>2015-04-27T19:01:06Z</time>
      </trkpt>
      <trkpt lat="37.383565" lon="-122.233836">
        <ele>135.7</ele>
        <time>2015-04-27T19:01:07Z</time>
      </trkpt>
      <trkpt lat="37.383607" lon="-122.233917">
        <ele>136.2</ele>
        <time>2015-04-27T19:01:08Z</time>
      </trkpt>
      <trkpt lat="37.383652" lon="-122.233981">
        <ele>136.4</ele>
        <time>2015-04-27T19:01:09Z</time>
      </trkpt>
      <trkpt lat="37.383703" lon="-122.234049">
        <ele>136.6</ele>
        <time>2015-04-27T19:01:10Z</time>
      </trkpt>
      <trkpt lat="37.383761" lon="-122.234113">
        <ele>136.7</ele>
        <time>2015-04-27T19:01:11Z</time>
      </trkpt>
      <trkpt lat="37.383818" lon="-122.234173">
        <ele>136.9</ele>
        <time>2015-04-27T19:01:12Z</time>
      </trkpt>
      <trkpt lat="37.383872" lon="-122.234231">
        <ele>137</ele>
        <time>2015-04-27T19:01:13Z</time>
      </trkpt>
      <trkpt lat="37.38392" lon="-122.234288">
        <ele>137.1</ele>
        <time>2015-04-27T19:01:14Z</time>
      </trkpt>
      <trkpt lat="37.383971" lon="-122.23435">
        <ele>137.2</ele>
        <time>2015-04-27T19:01:15Z</time>
      </trkpt>
      <trkpt lat="37.38402" lon="-122.234405">
        <ele>137.3</ele>
        <time>2015-04-27T19:01:16Z</time>
      </trkpt>
      <trkpt lat="37.38408" lon="-122.234462">
        <ele>137.4</ele>
        <time>2015-04-27T19:01:17Z</time>
      </trkpt>
      <trkpt lat="37.38428" lon="-122.234675">
        <ele>137.1</ele>
        <time>2015-04-27T19:01:21Z</time>
      </trkpt>
      <trkpt lat="37.384332" lon="-122.234718">
        <ele>137</ele>
        <time>2015-04-27T19:01:22Z</time>
      </trkpt>
      <trkpt lat="37.384378" lon="-122.234773">
        <ele>136.8</ele>
        <time>2015-04-27T19:01:23Z</time>
      </trkpt>
      <trkpt lat="37.384433" lon="-122.234827">
        <ele>136.7</ele>
        <time>2015-04-27T19:01:24Z</time>
      </trkpt>
      <trkpt lat="37.384485" lon="-122.234891">
        <ele>136.8</ele>
        <time>2015-04-27T19:01:25Z</time>
      </trkpt>
      <trkpt lat="37.384537" lon="-122.234952">
        <ele>136.9</ele>
        <time>2015-04-27T19:01:26Z</time>
      </trkpt>
      <trkpt lat="37.384588" lon="-122.235">
        <ele>137</ele>
        <time>2015-04-27T19:01:27Z</time>
      </trkpt>
      <trkpt lat="37.384637" lon="-122.235066">
        <ele>137.1</ele>
        <time>2015-04-27T19:01:28Z</time>
      </trkpt>
      <trkpt lat="37.384687" lon="-122.235136">
        <ele>137.2</ele>
        <time>2015-04-27T19:01:29Z</time>
      </trkpt>
      <trkpt lat="37.384752" lon="-122.235181">
        <ele>136.9</ele>
        <time>2015-04-27T19:01:30Z</time>
      </trkpt>
      <trkpt lat="37.384813" lon="-122.235238">
        <ele>136.6</ele>
        <time>2015-04-27T19:01:31Z</time>
      </trkpt>
      <trkpt lat="37.384858" lon="-122.235263">
        <ele>136.2</ele>
        <time>2015-04-27T19:01:32Z</time>
      </trkpt>
      <trkpt lat="37.384937" lon="-122.235346">
        <ele>135.5</ele>
        <time>2015-04-27T19:01:33Z</time>
      </trkpt>
      <trkpt lat="37.384991" lon="-122.235407">
        <ele>134.9</ele>
        <time>2015-04-27T19:01:34Z</time>
      </trkpt>
      <trkpt lat="37.385043" lon="-122.235474">
        <ele>134.6</ele>
        <time>2015-04-27T19:01:35Z</time>
      </trkpt>
      <trkpt lat="37.385111" lon="-122.235517">
        <ele>134.6</ele>
        <time>2015-04-27T19:01:36Z</time>
      </trkpt>
      <trkpt lat="37.385157" lon="-122.235585">
        <ele>134.6</ele>
        <time>2015-04-27T19:01:37Z</time>
      </trkpt>
      <trkpt lat="37.385214" lon="-122.235642">
        <ele>134.6</ele>
        <time>2015-04-27T19:01:38Z</time>
      </trkpt>
      <trkpt lat="37.385271" lon="-122.235708">
        <ele>134.7</ele>
        <time>2015-04-27T19:01:39Z</time>
      </trkpt>
      <trkpt lat="37.385323" lon="-122.235771">
        <ele>134.9</ele>
        <time>2015-04-27T19:01:40Z</time>
      </trkpt>
      <trkpt lat="37.385386" lon="-122.235829">
        <ele>134.9</ele>
        <time>2015-04-27T19:01:41Z</time>
      </trkpt>
      <trkpt lat="37.385444" lon="-122.235888">
        <ele>134.9</ele>
        <time>2015-04-27T19:01:42Z</time>
      </trkpt>
      <trkpt lat="37.385503" lon="-122.235949">
        <ele>134.7</ele>
        <time>2015-04-27T19:01:43Z</time>
      </trkpt>
      <trkpt lat="37.385575" lon="-122.236015">
        <ele>134.6</ele>
        <time>2015-04-27T19:01:44Z</time>
      </trkpt>
      <trkpt lat="37.385637" lon="-122.236071">
        <ele>134.4</ele>
        <time>2015-04-27T19:01:45Z</time>
      </trkpt>
      <trkpt lat="37.385701" lon="-122.236138">
        <ele>134.4</ele>
        <time>2015-04-27T19:01:46Z</time>
      </trkpt>
      <trkpt lat="37.385764" lon="-122.236196">
        <ele>134.2</ele>
        <time>2015-04-27T19:01:47Z</time>
      </trkpt>
      <trkpt lat="37.385822" lon="-122.23624">
        <ele>134</ele>
        <time>2015-04-27T19:01:48Z</time>
      </trkpt>
      <trkpt lat="37.385893" lon="-122.236314">
        <ele>133.7</ele>
        <time>2015-04-27T19:01:49Z</time>
      </trkpt>
      <trkpt lat="37.385971" lon="-122.236375">
        <ele>133.4</ele>
        <time>2015-04-27T19:01:50Z</time>
      </trkpt>
      <trkpt lat="37.386029" lon="-122.236419">
        <ele>133.2</ele>
        <time>2015-04-27T19:01:51Z</time>
      </trkpt>
      <trkpt lat="37.386109" lon="-122.236487">
        <ele>133</ele>
        <time>2015-04-27T19:01:52Z</time>
      </trkpt>
      <trkpt lat="37.386188" lon="-122.236547">
        <ele>132.9</ele>
        <time>2015-04-27T19:01:53Z</time>
      </trkpt>
      <trkpt lat="37.386253" lon="-122.236594">
        <ele>132.8</ele>
        <time>2015-04-27T19:01:54Z</time>
      </trkpt>
      <trkpt lat="37.386323" lon="-122.236658">
        <ele>132.6</ele>
        <time>2015-04-27T19:01:55Z</time>
      </trkpt>
      <trkpt lat="37.386381" lon="-122.236701">
        <ele>132.4</ele>
        <time>2015-04-27T19:01:56Z</time>
      </trkpt>
      <trkpt lat="37.386453" lon="-122.236757">
        <ele>132.2</ele>
        <time>2015-04-27T19:01:57Z</time>
      </trkpt>
      <trkpt lat="37.386525" lon="-122.236818">
        <ele>132.2</ele>
        <time>2015-04-27T19:01:58Z</time>
      </trkpt>
      <trkpt lat="37.386595" lon="-122.236873">
        <ele>131.8</ele>
        <time>2015-04-27T19:01:59Z</time>
      </trkpt>
      <trkpt lat="37.386663" lon="-122.236923">
        <ele>131.5</ele>
        <time>2015-04-27T19:02:00Z</time>
      </trkpt>
      <trkpt lat="37.386724" lon="-122.236996">
        <ele>131.6</ele>
        <time>2015-04-27T19:02:01Z</time>
      </trkpt>
      <trkpt lat="37.386785" lon="-122.237049">
        <ele>131.4</ele>
        <time>2015-04-27T19:02:02Z</time>
      </trkpt>
      <trkpt lat="37.386859" lon="-122.237111">
        <ele>131.3</ele>
        <time>2015-04-27T19:02:03Z</time>
      </trkpt>
      <trkpt lat="37.386937" lon="-122.237167">
        <ele>131.1</ele>
        <time>2015-04-27T19:02:04Z</time>
      </trkpt>
      <trkpt lat="37.387011" lon="-122.237217">
        <ele>131</ele>
        <time>2015-04-27T19:02:05Z</time>
      </trkpt>
      <trkpt lat="37.387086" lon="-122.237262">
        <ele>130.7</ele>
        <time>2015-04-27T19:02:06Z</time>
      </trkpt>
      <trkpt lat="37.387158" lon="-122.237325">
        <ele>130.6</ele>
        <time>2015-04-27T19:02:07Z</time>
      </trkpt>
      <trkpt lat="37.387233" lon="-122.237382">
        <ele>130.3</ele>
        <time>2015-04-27T19:02:08Z</time>
      </trkpt>
      <trkpt lat="37.387298" lon="-122.23744">
        <ele>130.3</ele>
        <time>2015-04-27T19:02:09Z</time>
      </trkpt>
      <trkpt lat="37.387389" lon="-122.237489">
        <ele>129.9</ele>
        <time>2015-04-27T19:02:10Z</time>
      </trkpt>
      <trkpt lat="37.387461" lon="-122.237525">
        <ele>129.5</ele>
        <time>2015-04-27T19:02:11Z</time>
      </trkpt>
      <trkpt lat="37.387542" lon="-122.237566">
        <ele>128.8</ele>
        <time>2015-04-27T19:02:12Z</time>
      </trkpt>
      <trkpt lat="37.387567" lon="-122.237599">
        <ele>129.2</ele>
        <time>2015-04-27T19:02:13Z</time>
      </trkpt>
      <trkpt lat="37.387766" lon="-122.237763">
        <ele>129.2</ele>
        <time>2015-04-27T19:02:15Z</time>
      </trkpt>
      <trkpt lat="37.387833" lon="-122.23784">
        <ele>129.1</ele>
        <time>2015-04-27T19:02:16Z</time>
      </trkpt>
      <trkpt lat="37.38791" lon="-122.237912">
        <ele>129</ele>
        <time>2015-04-27T19:02:17Z</time>
      </trkpt>
      <trkpt lat="37.387991" lon="-122.237983">
        <ele>128.8</ele>
        <time>2015-04-27T19:02:18Z</time>
      </trkpt>
      <trkpt lat="37.388073" lon="-122.238044">
        <ele>128.7</ele>
        <time>2015-04-27T19:02:19Z</time>
      </trkpt>
      <trkpt lat="37.388162" lon="-122.2381">
        <ele>128.4</ele>
        <time>2015-04-27T19:02:20Z</time>
      </trkpt>
      <trkpt lat="37.388248" lon="-122.238162">
        <ele>128.1</ele>
        <time>2015-04-27T19:02:21Z</time>
      </trkpt>
      <trkpt lat="37.38833" lon="-122.238229">
        <ele>128</ele>
        <time>2015-04-27T19:02:22Z</time>
      </trkpt>
      <trkpt lat="37.388418" lon="-122.238287">
        <ele>127.8</ele>
        <time>2015-04-27T19:02:23Z</time>
      </trkpt>
      <trkpt lat="37.388505" lon="-122.238344">
        <ele>127.6</ele>
        <time>2015-04-27T19:02:24Z</time>
      </trkpt>
      <trkpt lat="37.38859" lon="-122.238409">
        <ele>127.3</ele>
        <time>2015-04-27T19:02:25Z</time>
      </trkpt>
      <trkpt lat="37.388677" lon="-122.238477">
        <ele>127.1</ele>
        <time>2015-04-27T19:02:26Z</time>
      </trkpt>
      <trkpt lat="37.388764" lon="-122.238541">
        <ele>127</ele>
        <time>2015-04-27T19:02:27Z</time>
      </trkpt>
      <trkpt lat="37.38885" lon="-122.2386">
        <ele>126.7</ele>
        <time>2015-04-27T19:02:28Z</time>
      </trkpt>
      <trkpt lat="37.388906" lon="-122.238648">
        <ele>126.5</ele>
        <time>2015-04-27T19:02:29Z</time>
      </trkpt>
      <trkpt lat="37.389023" lon="-122.238732">
        <ele>126.1</ele>
        <time>2015-04-27T19:02:30Z</time>
      </trkpt>
      <trkpt lat="37.389116" lon="-122.2388">
        <ele>125.8</ele>
        <time>2015-04-27T19:02:31Z</time>
      </trkpt>
      <trkpt lat="37.389207" lon="-122.238868">
        <ele>125.7</ele>
        <time>2015-04-27T19:02:32Z</time>
      </trkpt>
      <trkpt lat="37.389294" lon="-122.23894">
        <ele>125.7</ele>
        <time>2015-04-27T19:02:33Z</time>
      </trkpt>
      <trkpt lat="37.389385" lon="-122.239008">
        <ele>125.5</ele>
        <time>2015-04-27T19:02:34Z</time>
      </trkpt>
      <trkpt lat="37.389466" lon="-122.239073">
        <ele>125.5</ele>
        <time>2015-04-27T19:02:35Z</time>
      </trkpt>
      <trkpt lat="37.389546" lon="-122.239141">
        <ele>125.4</ele>
        <time>2015-04-27T19:02:36Z</time>
      </trkpt>
      <trkpt lat="37.389624" lon="-122.239212">
        <ele>125.4</ele>
        <time>2015-04-27T19:02:37Z</time>
      </trkpt>
      <trkpt lat="37.389702" lon="-122.239268">
        <ele>125.3</ele>
        <time>2015-04-27T19:02:38Z</time>
      </trkpt>
      <trkpt lat="37.389784" lon="-122.239332">
        <ele>125.1</ele>
        <time>2015-04-27T19:02:39Z</time>
      </trkpt>
      <trkpt lat="37.389864" lon="-122.239386">
        <ele>125.1</ele>
        <time>2015-04-27T19:02:40Z</time>
      </trkpt>
      <trkpt lat="37.389946" lon="-122.239445">
        <ele>125.1</ele>
        <time>2015-04-27T19:02:41Z</time>
      </trkpt>
      <trkpt lat="37.390024" lon="-122.239509">
        <ele>124.9</ele>
        <time>2015-04-27T19:02:42Z</time>
      </trkpt>
      <trkpt lat="37.3901" lon="-122.239572">
        <ele>124.9</ele>
        <time>2015-04-27T19:02:43Z</time>
      </trkpt>
      <trkpt lat="37.39018" lon="-122.23963">
        <ele>124.7</ele>
        <time>2015-04-27T19:02:44Z</time>
      </trkpt>
      <trkpt lat="37.390256" lon="-122.239691">
        <ele>124.8</ele>
        <time>2015-04-27T19:02:45Z</time>
      </trkpt>
      <trkpt lat="37.390333" lon="-122.239754">
        <ele>124.7</ele>
        <time>2015-04-27T19:02:46Z</time>
      </trkpt>
      <trkpt lat="37.390404" lon="-122.239815">
        <ele>124.6</ele>
        <time>2015-04-27T19:02:47Z</time>
      </trkpt>
      <trkpt lat="37.390474" lon="-122.239876">
        <ele>124.4</ele>
        <time>2015-04-27T19:02:48Z</time>
      </trkpt>
      <trkpt lat="37.390544" lon="-122.239937">
        <ele>124.4</ele>
        <time>2015-04-27T19:02:49Z</time>
      </trkpt>
      <trkpt lat="37.390609" lon="-122.240004">
        <ele>123.8</ele>
        <time>2015-04-27T19:02:50Z</time>
      </trkpt>
      <trkpt lat="37.390668" lon="-122.240065">
        <ele>123.8</ele>
        <time>2015-04-27T19:02:51Z</time>
      </trkpt>
      <trkpt lat="37.390743" lon="-122.240132">
        <ele>123.6</ele>
        <time>2015-04-27T19:02:52Z</time>
      </trkpt>
      <trkpt lat="37.390808" lon="-122.240207">
        <ele>123.3</ele>
        <time>2015-04-27T19:02:53Z</time>
      </trkpt>
      <trkpt lat="37.390876" lon="-122.240277">
        <ele>123</ele>
        <time>2015-04-27T19:02:54Z</time>
      </trkpt>
      <trkpt lat="37.390944" lon="-122.240339">
        <ele>122.5</ele>
        <time>2015-04-27T19:02:55Z</time>
      </trkpt>
      <trkpt lat="37.391014" lon="-122.24042">
        <ele>122.4</ele>
        <time>2015-04-27T19:02:56Z</time>
      </trkpt>
      <trkpt lat="37.391077" lon="-122.240499">
        <ele>122.3</ele>
        <time>2015-04-27T19:02:57Z</time>
      </trkpt>
      <trkpt lat="37.391088" lon="-122.240532">
        <ele>122.3</ele>
        <time>2015-04-27T19:02:58Z</time>
      </trkpt>
      <trkpt lat="37.391254" lon="-122.240741">
        <ele>121.8</ele>
        <time>2015-04-27T19:03:00Z</time>
      </trkpt>
      <trkpt lat="37.391321" lon="-122.24082">
        <ele>121.5</ele>
        <time>2015-04-27T19:03:01Z</time>
      </trkpt>
      <trkpt lat="37.391374" lon="-122.24091">
        <ele>121.5</ele>
        <time>2015-04-27T19:03:02Z</time>
      </trkpt>
      <trkpt lat="37.391444" lon="-122.241001">
        <ele>121.3</ele>
        <time>2015-04-27T19:03:03Z</time>
      </trkpt>
      <trkpt lat="37.391499" lon="-122.241084">
        <ele>121.2</ele>
        <time>2015-04-27T19:03:04Z</time>
      </trkpt>
      <trkpt lat="37.391566" lon="-122.241166">
        <ele>121.1</ele>
        <time>2015-04-27T19:03:05Z</time>
      </trkpt>
      <trkpt lat="37.391628" lon="-122.241244">
        <ele>121</ele>
        <time>2015-04-27T19:03:06Z</time>
      </trkpt>
      <trkpt lat="37.391691" lon="-122.24133">
        <ele>120.8</ele>
        <time>2015-04-27T19:03:07Z</time>
      </trkpt>
      <trkpt lat="37.391753" lon="-122.24141">
        <ele>120.7</ele>
        <time>2015-04-27T19:03:08Z</time>
      </trkpt>
      <trkpt lat="37.391823" lon="-122.241499">
        <ele>120.5</ele>
        <time>2015-04-27T19:03:09Z</time>
      </trkpt>
      <trkpt lat="37.39189" lon="-122.241585">
        <ele>120.4</ele>
        <time>2015-04-27T19:03:10Z</time>
      </trkpt>
      <trkpt lat="37.391956" lon="-122.241668">
        <ele>120.1</ele>
        <time>2015-04-27T19:03:11Z</time>
      </trkpt>
      <trkpt lat="37.392026" lon="-122.241753">
        <ele>119.9</ele>
        <time>2015-04-27T19:03:12Z</time>
      </trkpt>
      <trkpt lat="37.392086" lon="-122.241837">
        <ele>119.8</ele>
        <time>2015-04-27T19:03:13Z</time>
      </trkpt>
      <trkpt lat="37.392153" lon="-122.241921">
        <ele>119.7</ele>
        <time>2015-04-27T19:03:14Z</time>
      </trkpt>
      <trkpt lat="37.392223" lon="-122.242014">
        <ele>119.4</ele>
        <time>2015-04-27T19:03:15Z</time>
      </trkpt>
      <trkpt lat="37.392294" lon="-122.242093">
        <ele>119.2</ele>
        <time>2015-04-27T19:03:16Z</time>
      </trkpt>
      <trkpt lat="37.392361" lon="-122.242181">
        <ele>119.1</ele>
        <time>2015-04-27T19:03:17Z</time>
      </trkpt>
      <trkpt lat="37.392428" lon="-122.242271">
        <ele>118.9</ele>
        <time>2015-04-27T19:03:18Z</time>
      </trkpt>
      <trkpt lat="37.392496" lon="-122.242353">
        <ele>118.8</ele>
        <time>2015-04-27T19:03:19Z</time>
      </trkpt>
      <trkpt lat="37.392556" lon="-122.242438">
        <ele>118.7</ele>
        <time>2015-04-27T19:03:20Z</time>
      </trkpt>
      <trkpt lat="37.392625" lon="-122.242526">
        <ele>118.5</ele>
        <time>2015-04-27T19:03:21Z</time>
      </trkpt>
      <trkpt lat="37.392691" lon="-122.242617">
        <ele>118.4</ele>
        <time>2015-04-27T19:03:22Z</time>
      </trkpt>
      <trkpt lat="37.392746" lon="-122.242699">
        <ele>118.4</ele>
        <time>2015-04-27T19:03:23Z</time>
      </trkpt>
      <trkpt lat="37.392816" lon="-122.242768">
        <ele>118</ele>
        <time>2015-04-27T19:03:24Z</time>
      </trkpt>
      <trkpt lat="37.392884" lon="-122.242857">
        <ele>118</ele>
        <time>2015-04-27T19:03:25Z</time>
      </trkpt>
      <trkpt lat="37.392942" lon="-122.242945">
        <ele>117.8</ele>
        <time>2015-04-27T19:03:26Z</time>
      </trkpt>
      <trkpt lat="37.393013" lon="-122.243022">
        <ele>117.6</ele>
        <time>2015-04-27T19:03:27Z</time>
      </trkpt>
      <trkpt lat="37.393072" lon="-122.243105">
        <ele>117.4</ele>
        <time>2015-04-27T19:03:28Z</time>
      </trkpt>
      <trkpt lat="37.393128" lon="-122.24319">
        <ele>117.4</ele>
        <time>2015-04-27T19:03:29Z</time>
      </trkpt>
      <trkpt lat="37.393185" lon="-122.243279">
        <ele>117.1</ele>
        <time>2015-04-27T19:03:30Z</time>
      </trkpt>
      <trkpt lat="37.393233" lon="-122.243372">
        <ele>117.2</ele>
        <time>2015-04-27T19:03:31Z</time>
      </trkpt>
      <trkpt lat="37.393287" lon="-122.243453">
        <ele>117</ele>
        <time>2015-04-27T19:03:32Z</time>
      </trkpt>
      <trkpt lat="37.393349" lon="-122.243529">
        <ele>116.9</ele>
        <time>2015-04-27T19:03:33Z</time>
      </trkpt>
      <trkpt lat="37.393406" lon="-122.243616">
        <ele>116.7</ele>
        <time>2015-04-27T19:03:34Z</time>
      </trkpt>
      <trkpt lat="37.393459" lon="-122.243701">
        <ele>116.6</ele>
        <time>2015-04-27T19:03:35Z</time>
      </trkpt>
      <trkpt lat="37.3935" lon="-122.243772">
        <ele>116.8</ele>
        <time>2015-04-27T19:03:36Z</time>
      </trkpt>
      <trkpt lat="37.393562" lon="-122.243865">
        <ele>116.7</ele>
        <time>2015-04-27T19:03:37Z</time>
      </trkpt>
      <trkpt lat="37.393624" lon="-122.243944">
        <ele>116.4</ele>
        <time>2015-04-27T19:03:38Z</time>
      </trkpt>
      <trkpt lat="37.393679" lon="-122.244027">
        <ele>116.3</ele>
        <time>2015-04-27T19:03:39Z</time>
      </trkpt>
      <trkpt lat="37.393732" lon="-122.244106">
        <ele>116.2</ele>
        <time>2015-04-27T19:03:40Z</time>
      </trkpt>
      <trkpt lat="37.393784" lon="-122.244193">
        <ele>116.3</ele>
        <time>2015-04-27T19:03:41Z</time>
      </trkpt>
      <trkpt lat="37.393834" lon="-122.244285">
        <ele>116.6</ele>
        <time>2015-04-27T19:03:42Z</time>
      </trkpt>
      <trkpt lat="37.393889" lon="-122.244359">
        <ele>116.4</ele>
        <time>2015-04-27T19:03:43Z</time>
      </trkpt>
      <trkpt lat="37.393936" lon="-122.244448">
        <ele>117</ele>
        <time>2015-04-27T19:03:44Z</time>
      </trkpt>
      <trkpt lat="37.393989" lon="-122.244525">
        <ele>116.8</ele>
        <time>2015-04-27T19:03:45Z</time>
      </trkpt>
      <trkpt lat="37.394044" lon="-122.244607">
        <ele>116.8</ele>
        <time>2015-04-27T19:03:46Z</time>
      </trkpt>
      <trkpt lat="37.394095" lon="-122.244683">
        <ele>116.9</ele>
        <time>2015-04-27T19:03:47Z</time>
      </trkpt>
      <trkpt lat="37.394148" lon="-122.24476">
        <ele>116.7</ele>
        <time>2015-04-27T19:03:48Z</time>
      </trkpt>
      <trkpt lat="37.394201" lon="-122.244841">
        <ele>116.6</ele>
        <time>2015-04-27T19:03:49Z</time>
      </trkpt>
      <trkpt lat="37.394254" lon="-122.244938">
        <ele>117.1</ele>
        <time>2015-04-27T19:03:50Z</time>
      </trkpt>
      <trkpt lat="37.394293" lon="-122.244992">
        <ele>117.3</ele>
        <time>2015-04-27T19:03:52Z</time>
      </trkpt>
      <trkpt lat="37.394406" lon="-122.245185">
        <ele>117.4</ele>
        <time>2015-04-27T19:03:53Z</time>
      </trkpt>
      <trkpt lat="37.394455" lon="-122.245271">
        <ele>117.4</ele>
        <time>2015-04-27T19:03:54Z</time>
      </trkpt>
      <trkpt lat="37.394503" lon="-122.245346">
        <ele>117.5</ele>
        <time>2015-04-27T19:03:55Z</time>
      </trkpt>
      <trkpt lat="37.394557" lon="-122.245417">
        <ele>117.3</ele>
        <time>2015-04-27T19:03:56Z</time>
      </trkpt>
      <trkpt lat="37.394598" lon="-122.245488">
        <ele>117.4</ele>
        <time>2015-04-27T19:03:57Z</time>
      </trkpt>
      <trkpt lat="37.394655" lon="-122.245556">
        <ele>117.4</ele>
        <time>2015-04-27T19:03:58Z</time>
      </trkpt>
      <trkpt lat="37.394696" lon="-122.245633">
        <ele>117.6</ele>
        <time>2015-04-27T19:03:59Z</time>
      </trkpt>
      <trkpt lat="37.394746" lon="-122.245712">
        <ele>117.6</ele>
        <time>2015-04-27T19:04:00Z</time>
      </trkpt>
      <trkpt lat="37.3948" lon="-122.245787">
        <ele>117.6</ele>
        <time>2015-04-27T19:04:01Z</time>
      </trkpt>
      <trkpt lat="37.394844" lon="-122.245872">
        <ele>117.9</ele>
        <time>2015-04-27T19:04:02Z</time>
      </trkpt>
      <trkpt lat="37.39489" lon="-122.245943">
        <ele>117.8</ele>
        <time>2015-04-27T19:04:03Z</time>
      </trkpt>
      <trkpt lat="37.394948" lon="-122.246021">
        <ele>118</ele>
        <time>2015-04-27T19:04:04Z</time>
      </trkpt>
      <trkpt lat="37.395008" lon="-122.246084">
        <ele>117.9</ele>
        <time>2015-04-27T19:04:05Z</time>
      </trkpt>
      <trkpt lat="37.395065" lon="-122.246155">
        <ele>118.2</ele>
        <time>2015-04-27T19:04:06Z</time>
      </trkpt>
      <trkpt lat="37.395122" lon="-122.246207">
        <ele>118.2</ele>
        <time>2015-04-27T19:04:07Z</time>
      </trkpt>
      <trkpt lat="37.395191" lon="-122.246259">
        <ele>118.3</ele>
        <time>2015-04-27T19:04:08Z</time>
      </trkpt>
      <trkpt lat="37.395262" lon="-122.246296">
        <ele>118.5</ele>
        <time>2015-04-27T19:04:09Z</time>
      </trkpt>
      <trkpt lat="37.395331" lon="-122.246326">
        <ele>118.4</ele>
        <time>2015-04-27T19:04:10Z</time>
      </trkpt>
      <trkpt lat="37.395399" lon="-122.246358">
        <ele>118.2</ele>
        <time>2015-04-27T19:04:11Z</time>
      </trkpt>
      <trkpt lat="37.395443" lon="-122.246381">
        <ele>118.1</ele>
        <time>2015-04-27T19:04:12Z</time>
      </trkpt>
      <trkpt lat="37.395552" lon="-122.246384">
        <ele>117.6</ele>
        <time>2015-04-27T19:04:13Z</time>
      </trkpt>
      <trkpt lat="37.39564" lon="-122.246391">
        <ele>117.4</ele>
        <time>2015-04-27T19:04:14Z</time>
      </trkpt>
      <trkpt lat="37.395723" lon="-122.246384">
        <ele>117.1</ele>
        <time>2015-04-27T19:04:15Z</time>
      </trkpt>
      <trkpt lat="37.395794" lon="-122.246399">
        <ele>117</ele>
        <time>2015-04-27T19:04:16Z</time>
      </trkpt>
      <trkpt lat="37.395884" lon="-122.246378">
        <ele>116.8</ele>
        <time>2015-04-27T19:04:17Z</time>
      </trkpt>
      <trkpt lat="37.395914" lon="-122.246366">
        <ele>116.7</ele>
        <time>2015-04-27T19:04:18Z</time>
      </trkpt>
      <trkpt lat="37.396144" lon="-122.246299">
        <ele>116</ele>
        <time>2015-04-27T19:04:20Z</time>
      </trkpt>
      <trkpt lat="37.396213" lon="-122.24627">
        <ele>115.6</ele>
        <time>2015-04-27T19:04:21Z</time>
      </trkpt>
      <trkpt lat="37.396301" lon="-122.246209">
        <ele>115.2</ele>
        <time>2015-04-27T19:04:22Z</time>
      </trkpt>
      <trkpt lat="37.396375" lon="-122.24615">
        <ele>114.8</ele>
        <time>2015-04-27T19:04:23Z</time>
      </trkpt>
      <trkpt lat="37.396436" lon="-122.246092">
        <ele>114.5</ele>
        <time>2015-04-27T19:04:24Z</time>
      </trkpt>
      <trkpt lat="37.396509" lon="-122.246021">
        <ele>114.2</ele>
        <time>2015-04-27T19:04:25Z</time>
      </trkpt>
      <trkpt lat="37.396574" lon="-122.245956">
        <ele>113.8</ele>
        <time>2015-04-27T19:04:26Z</time>
      </trkpt>
      <trkpt lat="37.396649" lon="-122.245861">
        <ele>113.3</ele>
        <time>2015-04-27T19:04:27Z</time>
      </trkpt>
      <trkpt lat="37.396738" lon="-122.245768">
        <ele>112.7</ele>
        <time>2015-04-27T19:04:28Z</time>
      </trkpt>
      <trkpt lat="37.396825" lon="-122.245679">
        <ele>112.2</ele>
        <time>2015-04-27T19:04:29Z</time>
      </trkpt>
      <trkpt lat="37.396913" lon="-122.245585">
        <ele>111.7</ele>
        <time>2015-04-27T19:04:30Z</time>
      </trkpt>
      <trkpt lat="37.396992" lon="-122.245503">
        <ele>111.1</ele>
        <time>2015-04-27T19:04:31Z</time>
      </trkpt>
      <trkpt lat="37.397075" lon="-122.245403">
        <ele>110.5</ele>
        <time>2015-04-27T19:04:32Z</time>
      </trkpt>
      <trkpt lat="37.397166" lon="-122.245295">
        <ele>109.9</ele>
        <time>2015-04-27T19:04:33Z</time>
      </trkpt>
      <trkpt lat="37.397251" lon="-122.2452">
        <ele>109.3</ele>
        <time>2015-04-27T19:04:34Z</time>
      </trkpt>
      <trkpt lat="37.397334" lon="-122.245105">
        <ele>108.9</ele>
        <time>2015-04-27T19:04:35Z</time>
      </trkpt>
      <trkpt lat="37.397415" lon="-122.245017">
        <ele>108.5</ele>
        <time>2015-04-27T19:04:36Z</time>
      </trkpt>
      <trkpt lat="37.397512" lon="-122.244901">
        <ele>108.1</ele>
        <time>2015-04-27T19:04:37Z</time>
      </trkpt>
      <trkpt lat="37.397601" lon="-122.244801">
        <ele>107.9</ele>
        <time>2015-04-27T19:04:38Z</time>
      </trkpt>
      <trkpt lat="37.397673" lon="-122.244725">
        <ele>107.8</ele>
        <time>2015-04-27T19:04:39Z</time>
      </trkpt>
      <trkpt lat="37.397766" lon="-122.244635">
        <ele>107.7</ele>
        <time>2015-04-27T19:04:40Z</time>
      </trkpt>
      <trkpt lat="37.397857" lon="-122.244571">
        <ele>107.5</ele>
        <time>2015-04-27T19:04:41Z</time>
      </trkpt>
      <trkpt lat="37.397954" lon="-122.2445">
        <ele>107.5</ele>
        <time>2015-04-27T19:04:42Z</time>
      </trkpt>
      <trkpt lat="37.39804" lon="-122.244446">
        <ele>107.6</ele>
        <time>2015-04-27T19:04:43Z</time>
      </trkpt>
      <trkpt lat="37.398132" lon="-122.244396">
        <ele>107.6</ele>
        <time>2015-04-27T19:04:44Z</time>
      </trkpt>
      <trkpt lat="37.398239" lon="-122.244338">
        <ele>107.6</ele>
        <time>2015-04-27T19:04:45Z</time>
      </trkpt>
      <trkpt lat="37.398328" lon="-122.244315">
        <ele>107.6</ele>
        <time>2015-04-27T19:04:46Z</time>
      </trkpt>
      <trkpt lat="37.398419" lon="-122.244292">
        <ele>107.5</ele>
        <time>2015-04-27T19:04:47Z</time>
      </trkpt>
      <trkpt lat="37.398523" lon="-122.244264">
        <ele>107.6</ele>
        <time>2015-04-27T19:04:48Z</time>
      </trkpt>
      <trkpt lat="37.398609" lon="-122.244255">
        <ele>107.6</ele>
        <time>2015-04-27T19:04:49Z</time>
      </trkpt>
      <trkpt lat="37.398694" lon="-122.244259">
        <ele>107.6</ele>
        <time>2015-04-27T19:04:50Z</time>
      </trkpt>
      <trkpt lat="37.398779" lon="-122.244263">
        <ele>107.6</ele>
        <time>2015-04-27T19:04:51Z</time>
      </trkpt>
      <trkpt lat="37.398863" lon="-122.244273">
        <ele>107.5</ele>
        <time>2015-04-27T19:04:52Z</time>
      </trkpt>
      <trkpt lat="37.398947" lon="-122.244276">
        <ele>107.6</ele>
        <time>2015-04-27T19:04:53Z</time>
      </trkpt>
      <trkpt lat="37.399032" lon="-122.244286">
        <ele>107.7</ele>
        <time>2015-04-27T19:04:54Z</time>
      </trkpt>
      <trkpt lat="37.399112" lon="-122.244311">
        <ele>107.7</ele>
        <time>2015-04-27T19:04:55Z</time>
      </trkpt>
      <trkpt lat="37.399185" lon="-122.244336">
        <ele>107.6</ele>
        <time>2015-04-27T19:04:56Z</time>
      </trkpt>
      <trkpt lat="37.399257" lon="-122.244364">
        <ele>107.6</ele>
        <time>2015-04-27T19:04:57Z</time>
      </trkpt>
      <trkpt lat="37.399332" lon="-122.244387">
        <ele>107.6</ele>
        <time>2015-04-27T19:04:58Z</time>
      </trkpt>
      <trkpt lat="37.399406" lon="-122.244418">
        <ele>107.6</ele>
        <time>2015-04-27T19:04:59Z</time>
      </trkpt>
      <trkpt lat="37.399469" lon="-122.244455">
        <ele>107.5</ele>
        <time>2015-04-27T19:05:00Z</time>
      </trkpt>
      <trkpt lat="37.399548" lon="-122.244499">
        <ele>107.4</ele>
        <time>2015-04-27T19:05:01Z</time>
      </trkpt>
      <trkpt lat="37.399613" lon="-122.244543">
        <ele>107.3</ele>
        <time>2015-04-27T19:05:02Z</time>
      </trkpt>
      <trkpt lat="37.399678" lon="-122.244582">
        <ele>107.2</ele>
        <time>2015-04-27T19:05:03Z</time>
      </trkpt>
      <trkpt lat="37.399752" lon="-122.244623">
        <ele>107.1</ele>
        <time>2015-04-27T19:05:04Z</time>
      </trkpt>
      <trkpt lat="37.399821" lon="-122.244666">
        <ele>107.1</ele>
        <time>2015-04-27T19:05:05Z</time>
      </trkpt>
      <trkpt lat="37.399889" lon="-122.24471">
        <ele>107</ele>
        <time>2015-04-27T19:05:06Z</time>
      </trkpt>
      <trkpt lat="37.399967" lon="-122.244761">
        <ele>107.1</ele>
        <time>2015-04-27T19:05:07Z</time>
      </trkpt>
      <trkpt lat="37.400027" lon="-122.244803">
        <ele>107.1</ele>
        <time>2015-04-27T19:05:08Z</time>
      </trkpt>
      <trkpt lat="37.400089" lon="-122.244845">
        <ele>107.1</ele>
        <time>2015-04-27T19:05:09Z</time>
      </trkpt>
      <trkpt lat="37.400154" lon="-122.244882">
        <ele>107.1</ele>
        <time>2015-04-27T19:05:10Z</time>
      </trkpt>
      <trkpt lat="37.400221" lon="-122.244921">
        <ele>106.9</ele>
        <time>2015-04-27T19:05:11Z</time>
      </trkpt>
      <trkpt lat="37.400284" lon="-122.244963">
        <ele>107</ele>
        <time>2015-04-27T19:05:12Z</time>
      </trkpt>
      <trkpt lat="37.400352" lon="-122.245003">
        <ele>106.9</ele>
        <time>2015-04-27T19:05:13Z</time>
      </trkpt>
      <trkpt lat="37.400416" lon="-122.245048">
        <ele>106.9</ele>
        <time>2015-04-27T19:05:14Z</time>
      </trkpt>
      <trkpt lat="37.400485" lon="-122.24509">
        <ele>106.8</ele>
        <time>2015-04-27T19:05:15Z</time>
      </trkpt>
      <trkpt lat="37.400548" lon="-122.245124">
        <ele>106.7</ele>
        <time>2015-04-27T19:05:16Z</time>
      </trkpt>
      <trkpt lat="37.400618" lon="-122.245158">
        <ele>106.6</ele>
        <time>2015-04-27T19:05:17Z</time>
      </trkpt>
      <trkpt lat="37.400684" lon="-122.245195">
        <ele>106.6</ele>
        <time>2015-04-27T19:05:18Z</time>
      </trkpt>
      <trkpt lat="37.400753" lon="-122.245231">
        <ele>106.6</ele>
        <time>2015-04-27T19:05:19Z</time>
      </trkpt>
      <trkpt lat="37.40082" lon="-122.245262">
        <ele>106.6</ele>
        <time>2015-04-27T19:05:20Z</time>
      </trkpt>
      <trkpt lat="37.40089" lon="-122.245287">
        <ele>106.7</ele>
        <time>2015-04-27T19:05:21Z</time>
      </trkpt>
      <trkpt lat="37.400958" lon="-122.245309">
        <ele>106.8</ele>
        <time>2015-04-27T19:05:22Z</time>
      </trkpt>
      <trkpt lat="37.401029" lon="-122.245322">
        <ele>106.7</ele>
        <time>2015-04-27T19:05:23Z</time>
      </trkpt>
      <trkpt lat="37.401107" lon="-122.245331">
        <ele>106.7</ele>
        <time>2015-04-27T19:05:24Z</time>
      </trkpt>
      <trkpt lat="37.401177" lon="-122.245343">
        <ele>106.7</ele>
        <time>2015-04-27T19:05:25Z</time>
      </trkpt>
      <trkpt lat="37.401232" lon="-122.245344">
        <ele>106.7</ele>
        <time>2015-04-27T19:05:26Z</time>
      </trkpt>
      <trkpt lat="37.401319" lon="-122.245338">
        <ele>106.7</ele>
        <time>2015-04-27T19:05:27Z</time>
      </trkpt>
      <trkpt lat="37.401396" lon="-122.245331">
        <ele>106.8</ele>
        <time>2015-04-27T19:05:28Z</time>
      </trkpt>
      <trkpt lat="37.401466" lon="-122.245321">
        <ele>106.7</ele>
        <time>2015-04-27T19:05:29Z</time>
      </trkpt>
      <trkpt lat="37.401535" lon="-122.245303">
        <ele>106.8</ele>
        <time>2015-04-27T19:05:30Z</time>
      </trkpt>
      <trkpt lat="37.401609" lon="-122.245278">
        <ele>106.8</ele>
        <time>2015-04-27T19:05:31Z</time>
      </trkpt>
      <trkpt lat="37.401676" lon="-122.245258">
        <ele>107</ele>
        <time>2015-04-27T19:05:32Z</time>
      </trkpt>
      <trkpt lat="37.40174" lon="-122.245238">
        <ele>107.2</ele>
        <time>2015-04-27T19:05:33Z</time>
      </trkpt>
      <trkpt lat="37.4018" lon="-122.245216">
        <ele>107.2</ele>
        <time>2015-04-27T19:05:34Z</time>
      </trkpt>
      <trkpt lat="37.401855" lon="-122.245204">
        <ele>107.3</ele>
        <time>2015-04-27T19:05:35Z</time>
      </trkpt>
      <trkpt lat="37.401916" lon="-122.245185">
        <ele>107.4</ele>
        <time>2015-04-27T19:05:36Z</time>
      </trkpt>
      <trkpt lat="37.401968" lon="-122.245166">
        <ele>107.7</ele>
        <time>2015-04-27T19:05:37Z</time>
      </trkpt>
      <trkpt lat="37.402014" lon="-122.245152">
        <ele>107.8</ele>
        <time>2015-04-27T19:05:38Z</time>
      </trkpt>
      <trkpt lat="37.402071" lon="-122.245137">
        <ele>108.1</ele>
        <time>2015-04-27T19:05:39Z</time>
      </trkpt>
      <trkpt lat="37.402119" lon="-122.245113">
        <ele>108.2</ele>
        <time>2015-04-27T19:05:40Z</time>
      </trkpt>
      <trkpt lat="37.402169" lon="-122.245096">
        <ele>108.5</ele>
        <time>2015-04-27T19:05:41Z</time>
      </trkpt>
      <trkpt lat="37.402212" lon="-122.245072">
        <ele>108.5</ele>
        <time>2015-04-27T19:05:42Z</time>
      </trkpt>
      <trkpt lat="37.402259" lon="-122.245057">
        <ele>108.7</ele>
        <time>2015-04-27T19:05:43Z</time>
      </trkpt>
      <trkpt lat="37.402293" lon="-122.24504">
        <ele>108.9</ele>
        <time>2015-04-27T19:05:44Z</time>
      </trkpt>
      <trkpt lat="37.402346" lon="-122.24502">
        <ele>109.1</ele>
        <time>2015-04-27T19:05:45Z</time>
      </trkpt>
      <trkpt lat="37.402391" lon="-122.244995">
        <ele>109.3</ele>
        <time>2015-04-27T19:05:46Z</time>
      </trkpt>
      <trkpt lat="37.402596" lon="-122.244915">
        <ele>110.5</ele>
        <time>2015-04-27T19:05:51Z</time>
      </trkpt>
      <trkpt lat="37.402632" lon="-122.244909">
        <ele>110.7</ele>
        <time>2015-04-27T19:05:52Z</time>
      </trkpt>
      <trkpt lat="37.402676" lon="-122.244878">
        <ele>111</ele>
        <time>2015-04-27T19:05:53Z</time>
      </trkpt>
      <trkpt lat="37.402717" lon="-122.244873">
        <ele>111.2</ele>
        <time>2015-04-27T19:05:54Z</time>
      </trkpt>
      <trkpt lat="37.402749" lon="-122.244858">
        <ele>111.4</ele>
        <time>2015-04-27T19:05:55Z</time>
      </trkpt>
      <trkpt lat="37.402787" lon="-122.244837">
        <ele>111.7</ele>
        <time>2015-04-27T19:05:56Z</time>
      </trkpt>
      <trkpt lat="37.402826" lon="-122.244818">
        <ele>112</ele>
        <time>2015-04-27T19:05:57Z</time>
      </trkpt>
      <trkpt lat="37.402861" lon="-122.244798">
        <ele>112.1</ele>
        <time>2015-04-27T19:05:58Z</time>
      </trkpt>
      <trkpt lat="37.402897" lon="-122.244779">
        <ele>112.5</ele>
        <time>2015-04-27T19:05:59Z</time>
      </trkpt>
      <trkpt lat="37.402929" lon="-122.244768">
        <ele>112.6</ele>
        <time>2015-04-27T19:06:00Z</time>
      </trkpt>
      <trkpt lat="37.402964" lon="-122.244758">
        <ele>112.9</ele>
        <time>2015-04-27T19:06:02Z</time>
      </trkpt>
      <trkpt lat="37.403038" lon="-122.244733">
        <ele>113.2</ele>
        <time>2015-04-27T19:06:03Z</time>
      </trkpt>
      <trkpt lat="37.40308" lon="-122.244712">
        <ele>113.5</ele>
        <time>2015-04-27T19:06:04Z</time>
      </trkpt>
      <trkpt lat="37.403118" lon="-122.244693">
        <ele>113.8</ele>
        <time>2015-04-27T19:06:05Z</time>
      </trkpt>
      <trkpt lat="37.403155" lon="-122.244675">
        <ele>114.1</ele>
        <time>2015-04-27T19:06:06Z</time>
      </trkpt>
      <trkpt lat="37.403193" lon="-122.24466">
        <ele>114.2</ele>
        <time>2015-04-27T19:06:07Z</time>
      </trkpt>
      <trkpt lat="37.403226" lon="-122.244647">
        <ele>114.4</ele>
        <time>2015-04-27T19:06:08Z</time>
      </trkpt>
      <trkpt lat="37.403419" lon="-122.244601">
        <ele>115.8</ele>
        <time>2015-04-27T19:06:14Z</time>
      </trkpt>
      <trkpt lat="37.40345" lon="-122.244593">
        <ele>116</ele>
        <time>2015-04-27T19:06:15Z</time>
      </trkpt>
      <trkpt lat="37.403481" lon="-122.244583">
        <ele>116.2</ele>
        <time>2015-04-27T19:06:16Z</time>
      </trkpt>
      <trkpt lat="37.403511" lon="-122.244569">
        <ele>116.4</ele>
        <time>2015-04-27T19:06:17Z</time>
      </trkpt>
      <trkpt lat="37.403542" lon="-122.244556">
        <ele>116.6</ele>
        <time>2015-04-27T19:06:18Z</time>
      </trkpt>
      <trkpt lat="37.403576" lon="-122.244546">
        <ele>116.8</ele>
        <time>2015-04-27T19:06:19Z</time>
      </trkpt>
      <trkpt lat="37.403606" lon="-122.244538">
        <ele>117</ele>
        <time>2015-04-27T19:06:20Z</time>
      </trkpt>
      <trkpt lat="37.40364" lon="-122.244526">
        <ele>117.3</ele>
        <time>2015-04-27T19:06:21Z</time>
      </trkpt>
      <trkpt lat="37.403673" lon="-122.244516">
        <ele>117.5</ele>
        <time>2015-04-27T19:06:22Z</time>
      </trkpt>
      <trkpt lat="37.403705" lon="-122.244509">
        <ele>117.7</ele>
        <time>2015-04-27T19:06:23Z</time>
      </trkpt>
      <trkpt lat="37.403735" lon="-122.244505">
        <ele>117.8</ele>
        <time>2015-04-27T19:06:24Z</time>
      </trkpt>
      <trkpt lat="37.403765" lon="-122.244501">
        <ele>118</ele>
        <time>2015-04-27T19:06:25Z</time>
      </trkpt>
      <trkpt lat="37.403795" lon="-122.244498">
        <ele>118.2</ele>
        <time>2015-04-27T19:06:26Z</time>
      </trkpt>
      <trkpt lat="37.403826" lon="-122.244493">
        <ele>118.3</ele>
        <time>2015-04-27T19:06:27Z</time>
      </trkpt>
      <trkpt lat="37.403859" lon="-122.244488">
        <ele>118.5</ele>
        <time>2015-04-27T19:06:28Z</time>
      </trkpt>
      <trkpt lat="37.403893" lon="-122.244481">
        <ele>118.7</ele>
        <time>2015-04-27T19:06:29Z</time>
      </trkpt>
      <trkpt lat="37.403924" lon="-122.244476">
        <ele>118.9</ele>
        <time>2015-04-27T19:06:30Z</time>
      </trkpt>
      <trkpt lat="37.403959" lon="-122.244468">
        <ele>119.1</ele>
        <time>2015-04-27T19:06:31Z</time>
      </trkpt>
      <trkpt lat="37.403995" lon="-122.244459">
        <ele>119.4</ele>
        <time>2015-04-27T19:06:32Z</time>
      </trkpt>
      <trkpt lat="37.404063" lon="-122.244443">
        <ele>119.7</ele>
        <time>2015-04-27T19:06:34Z</time>
      </trkpt>
      <trkpt lat="37.404096" lon="-122.244436">
        <ele>120</ele>
        <time>2015-04-27T19:06:35Z</time>
      </trkpt>
      <trkpt lat="37.40415" lon="-122.24442">
        <ele>120.2</ele>
        <time>2015-04-27T19:06:37Z</time>
      </trkpt>
      <trkpt lat="37.404182" lon="-122.244413">
        <ele>120.3</ele>
        <time>2015-04-27T19:06:38Z</time>
      </trkpt>
      <trkpt lat="37.404249" lon="-122.244401">
        <ele>120.9</ele>
        <time>2015-04-27T19:06:40Z</time>
      </trkpt>
      <trkpt lat="37.40428" lon="-122.244398">
        <ele>121.1</ele>
        <time>2015-04-27T19:06:41Z</time>
      </trkpt>
      <trkpt lat="37.404316" lon="-122.244396">
        <ele>121.4</ele>
        <time>2015-04-27T19:06:42Z</time>
      </trkpt>
      <trkpt lat="37.404348" lon="-122.244394">
        <ele>121.6</ele>
        <time>2015-04-27T19:06:43Z</time>
      </trkpt>
      <trkpt lat="37.404382" lon="-122.244395">
        <ele>121.8</ele>
        <time>2015-04-27T19:06:44Z</time>
      </trkpt>
      <trkpt lat="37.404419" lon="-122.244396">
        <ele>122.1</ele>
        <time>2015-04-27T19:06:45Z</time>
      </trkpt>
      <trkpt lat="37.404449" lon="-122.244398">
        <ele>122.3</ele>
        <time>2015-04-27T19:06:46Z</time>
      </trkpt>
      <trkpt lat="37.404482" lon="-122.244399">
        <ele>122.6</ele>
        <time>2015-04-27T19:06:47Z</time>
      </trkpt>
      <trkpt lat="37.404514" lon="-122.244402">
        <ele>122.8</ele>
        <time>2015-04-27T19:06:48Z</time>
      </trkpt>
      <trkpt lat="37.404573" lon="-122.244409">
        <ele>123.1</ele>
        <time>2015-04-27T19:06:50Z</time>
      </trkpt>
      <trkpt lat="37.404604" lon="-122.244413">
        <ele>123.3</ele>
        <time>2015-04-27T19:06:51Z</time>
      </trkpt>
      <trkpt lat="37.404639" lon="-122.244419">
        <ele>123.5</ele>
        <time>2015-04-27T19:06:52Z</time>
      </trkpt>
      <trkpt lat="37.404674" lon="-122.244425">
        <ele>123.8</ele>
        <time>2015-04-27T19:06:53Z</time>
      </trkpt>
      <trkpt lat="37.404754" lon="-122.244443">
        <ele>124.1</ele>
        <time>2015-04-27T19:06:55Z</time>
      </trkpt>
      <trkpt lat="37.404832" lon="-122.244461">
        <ele>124.5</ele>
        <time>2015-04-27T19:06:57Z</time>
      </trkpt>
      <trkpt lat="37.404864" lon="-122.24447">
        <ele>124.6</ele>
        <time>2015-04-27T19:06:58Z</time>
      </trkpt>
      <trkpt lat="37.404897" lon="-122.24448">
        <ele>124.8</ele>
        <time>2015-04-27T19:06:59Z</time>
      </trkpt>
      <trkpt lat="37.404958" lon="-122.244499">
        <ele>125</ele>
        <time>2015-04-27T19:07:01Z</time>
      </trkpt>
      <trkpt lat="37.404991" lon="-122.244511">
        <ele>125.1</ele>
        <time>2015-04-27T19:07:02Z</time>
      </trkpt>
      <trkpt lat="37.405023" lon="-122.244521">
        <ele>125.5</ele>
        <time>2015-04-27T19:07:03Z</time>
      </trkpt>
      <trkpt lat="37.405058" lon="-122.244534">
        <ele>125.4</ele>
        <time>2015-04-27T19:07:04Z</time>
      </trkpt>
      <trkpt lat="37.405091" lon="-122.244545">
        <ele>125.6</ele>
        <time>2015-04-27T19:07:05Z</time>
      </trkpt>
      <trkpt lat="37.40512" lon="-122.244556">
        <ele>125.8</ele>
        <time>2015-04-27T19:07:06Z</time>
      </trkpt>
      <trkpt lat="37.405156" lon="-122.244569">
        <ele>125.8</ele>
        <time>2015-04-27T19:07:07Z</time>
      </trkpt>
      <trkpt lat="37.405222" lon="-122.244596">
        <ele>126</ele>
        <time>2015-04-27T19:07:09Z</time>
      </trkpt>
      <trkpt lat="37.405259" lon="-122.244612">
        <ele>126.3</ele>
        <time>2015-04-27T19:07:10Z</time>
      </trkpt>
      <trkpt lat="37.405292" lon="-122.244627">
        <ele>126.5</ele>
        <time>2015-04-27T19:07:11Z</time>
      </trkpt>
      <trkpt lat="37.405332" lon="-122.244644">
        <ele>126.7</ele>
        <time>2015-04-27T19:07:12Z</time>
      </trkpt>
      <trkpt lat="37.405369" lon="-122.24466">
        <ele>126.7</ele>
        <time>2015-04-27T19:07:13Z</time>
      </trkpt>
      <trkpt lat="37.405409" lon="-122.244678">
        <ele>127</ele>
        <time>2015-04-27T19:07:14Z</time>
      </trkpt>
      <trkpt lat="37.405444" lon="-122.244694">
        <ele>126.8</ele>
        <time>2015-04-27T19:07:15Z</time>
      </trkpt>
      <trkpt lat="37.405493" lon="-122.244717">
        <ele>126.3</ele>
        <time>2015-04-27T19:07:16Z</time>
      </trkpt>
      <trkpt lat="37.405541" lon="-122.244739">
        <ele>126.2</ele>
        <time>2015-04-27T19:07:17Z</time>
      </trkpt>
      <trkpt lat="37.405581" lon="-122.244757">
        <ele>126.5</ele>
        <time>2015-04-27T19:07:18Z</time>
      </trkpt>
      <trkpt lat="37.405622" lon="-122.244775">
        <ele>126.2</ele>
        <time>2015-04-27T19:07:19Z</time>
      </trkpt>
      <trkpt lat="37.405673" lon="-122.244799">
        <ele>125.9</ele>
        <time>2015-04-27T19:07:20Z</time>
      </trkpt>
      <trkpt lat="37.405714" lon="-122.244817">
        <ele>126.2</ele>
        <time>2015-04-27T19:07:21Z</time>
      </trkpt>
      <trkpt lat="37.405754" lon="-122.244836">
        <ele>126</ele>
        <time>2015-04-27T19:07:22Z</time>
      </trkpt>
      <trkpt lat="37.405793" lon="-122.244854">
        <ele>125.7</ele>
        <time>2015-04-27T19:07:23Z</time>
      </trkpt>
      <trkpt lat="37.405845" lon="-122.244878">
        <ele>125.7</ele>
        <time>2015-04-27T19:07:24Z</time>
      </trkpt>
      <trkpt lat="37.405888" lon="-122.244898">
        <ele>125.8</ele>
        <time>2015-04-27T19:07:25Z</time>
      </trkpt>
      <trkpt lat="37.405922" lon="-122.244913">
        <ele>125.8</ele>
        <time>2015-04-27T19:07:26Z</time>
      </trkpt>
      <trkpt lat="37.405966" lon="-122.244933">
        <ele>125.8</ele>
        <time>2015-04-27T19:07:27Z</time>
      </trkpt>
      <trkpt lat="37.40601" lon="-122.244954">
        <ele>125.8</ele>
        <time>2015-04-27T19:07:28Z</time>
      </trkpt>
      <trkpt lat="37.406061" lon="-122.244977">
        <ele>125.9</ele>
        <time>2015-04-27T19:07:29Z</time>
      </trkpt>
      <trkpt lat="37.406116" lon="-122.245002">
        <ele>126</ele>
        <time>2015-04-27T19:07:30Z</time>
      </trkpt>
      <trkpt lat="37.406166" lon="-122.245025">
        <ele>125.9</ele>
        <time>2015-04-27T19:07:31Z</time>
      </trkpt>
      <trkpt lat="37.406211" lon="-122.245053">
        <ele>125.6</ele>
        <time>2015-04-27T19:07:32Z</time>
      </trkpt>
      <trkpt lat="37.406265" lon="-122.245092">
        <ele>124.9</ele>
        <time>2015-04-27T19:07:33Z</time>
      </trkpt>
      <trkpt lat="37.406317" lon="-122.245114">
        <ele>124.5</ele>
        <time>2015-04-27T19:07:34Z</time>
      </trkpt>
      <trkpt lat="37.406374" lon="-122.245134">
        <ele>124.1</ele>
        <time>2015-04-27T19:07:35Z</time>
      </trkpt>
      <trkpt lat="37.406428" lon="-122.24516">
        <ele>123.6</ele>
        <time>2015-04-27T19:07:36Z</time>
      </trkpt>
      <trkpt lat="37.406481" lon="-122.245184">
        <ele>123.1</ele>
        <time>2015-04-27T19:07:37Z</time>
      </trkpt>
      <trkpt lat="37.406545" lon="-122.245199">
        <ele>122.4</ele>
        <time>2015-04-27T19:07:38Z</time>
      </trkpt>
      <trkpt lat="37.406605" lon="-122.245224">
        <ele>122.3</ele>
        <time>2015-04-27T19:07:39Z</time>
      </trkpt>
      <trkpt lat="37.406664" lon="-122.245249">
        <ele>122.1</ele>
        <time>2015-04-27T19:07:40Z</time>
      </trkpt>
      <trkpt lat="37.406728" lon="-122.245276">
        <ele>122.3</ele>
        <time>2015-04-27T19:07:41Z</time>
      </trkpt>
      <trkpt lat="37.40678" lon="-122.245309">
        <ele>122.7</ele>
        <time>2015-04-27T19:07:42Z</time>
      </trkpt>
      <trkpt lat="37.406826" lon="-122.24534">
        <ele>122.9</ele>
        <time>2015-04-27T19:07:43Z</time>
      </trkpt>
      <trkpt lat="37.40688" lon="-122.245361">
        <ele>123</ele>
        <time>2015-04-27T19:07:44Z</time>
      </trkpt>
      <trkpt lat="37.40696" lon="-122.245372">
        <ele>123</ele>
        <time>2015-04-27T19:07:45Z</time>
      </trkpt>
      <trkpt lat="37.407011" lon="-122.245391">
        <ele>123.3</ele>
        <time>2015-04-27T19:07:46Z</time>
      </trkpt>
      <trkpt lat="37.407082" lon="-122.245392">
        <ele>123.4</ele>
        <time>2015-04-27T19:07:47Z</time>
      </trkpt>
      <trkpt lat="37.407151" lon="-122.245398">
        <ele>123.6</ele>
        <time>2015-04-27T19:07:48Z</time>
      </trkpt>
      <trkpt lat="37.407221" lon="-122.245401">
        <ele>123.8</ele>
        <time>2015-04-27T19:07:49Z</time>
      </trkpt>
      <trkpt lat="37.407275" lon="-122.245396">
        <ele>124.1</ele>
        <time>2015-04-27T19:07:50Z</time>
      </trkpt>
      <trkpt lat="37.407331" lon="-122.24541">
        <ele>124.4</ele>
        <time>2015-04-27T19:07:51Z</time>
      </trkpt>
      <trkpt lat="37.407394" lon="-122.24541">
        <ele>124.6</ele>
        <time>2015-04-27T19:07:52Z</time>
      </trkpt>
      <trkpt lat="37.407453" lon="-122.245408">
        <ele>123.9</ele>
        <time>2015-04-27T19:07:53Z</time>
      </trkpt>
      <trkpt lat="37.407509" lon="-122.245406">
        <ele>123.9</ele>
        <time>2015-04-27T19:07:54Z</time>
      </trkpt>
      <trkpt lat="37.407564" lon="-122.245407">
        <ele>123.9</ele>
        <time>2015-04-27T19:07:55Z</time>
      </trkpt>
      <trkpt lat="37.407621" lon="-122.245379">
        <ele>124</ele>
        <time>2015-04-27T19:07:56Z</time>
      </trkpt>
      <trkpt lat="37.40768" lon="-122.245371">
        <ele>123.9</ele>
        <time>2015-04-27T19:07:57Z</time>
      </trkpt>
      <trkpt lat="37.407737" lon="-122.245363">
        <ele>123.8</ele>
        <time>2015-04-27T19:07:58Z</time>
      </trkpt>
      <trkpt lat="37.407805" lon="-122.245339">
        <ele>123.6</ele>
        <time>2015-04-27T19:07:59Z</time>
      </trkpt>
      <trkpt lat="37.407871" lon="-122.245299">
        <ele>123.4</ele>
        <time>2015-04-27T19:08:00Z</time>
      </trkpt>
      <trkpt lat="37.407929" lon="-122.245267">
        <ele>123.3</ele>
        <time>2015-04-27T19:08:01Z</time>
      </trkpt>
      <trkpt lat="37.407976" lon="-122.245251">
        <ele>123.2</ele>
        <time>2015-04-27T19:08:02Z</time>
      </trkpt>
      <trkpt lat="37.408032" lon="-122.245219">
        <ele>123</ele>
        <time>2015-04-27T19:08:03Z</time>
      </trkpt>
      <trkpt lat="37.408103" lon="-122.24516">
        <ele>122.7</ele>
        <time>2015-04-27T19:08:04Z</time>
      </trkpt>
      <trkpt lat="37.408181" lon="-122.245114">
        <ele>122.5</ele>
        <time>2015-04-27T19:08:05Z</time>
      </trkpt>
      <trkpt lat="37.408236" lon="-122.245073">
        <ele>122.1</ele>
        <time>2015-04-27T19:08:06Z</time>
      </trkpt>
      <trkpt lat="37.408293" lon="-122.245025">
        <ele>121.9</ele>
        <time>2015-04-27T19:08:07Z</time>
      </trkpt>
      <trkpt lat="37.408366" lon="-122.244961">
        <ele>121.5</ele>
        <time>2015-04-27T19:08:08Z</time>
      </trkpt>
      <trkpt lat="37.408425" lon="-122.244896">
        <ele>121</ele>
        <time>2015-04-27T19:08:09Z</time>
      </trkpt>
      <trkpt lat="37.408484" lon="-122.24483">
        <ele>120.5</ele>
        <time>2015-04-27T19:08:10Z</time>
      </trkpt>
      <trkpt lat="37.408545" lon="-122.244752">
        <ele>120.1</ele>
        <time>2015-04-27T19:08:11Z</time>
      </trkpt>
      <trkpt lat="37.408602" lon="-122.244688">
        <ele>119.7</ele>
        <time>2015-04-27T19:08:12Z</time>
      </trkpt>
      <trkpt lat="37.408632" lon="-122.244629">
        <ele>119.2</ele>
        <time>2015-04-27T19:08:13Z</time>
      </trkpt>
      <trkpt lat="37.408704" lon="-122.244517">
        <ele>118.4</ele>
        <time>2015-04-27T19:08:14Z</time>
      </trkpt>
      <trkpt lat="37.408753" lon="-122.244437">
        <ele>117.7</ele>
        <time>2015-04-27T19:08:15Z</time>
      </trkpt>
      <trkpt lat="37.408814" lon="-122.244335">
        <ele>117</ele>
        <time>2015-04-27T19:08:16Z</time>
      </trkpt>
      <trkpt lat="37.408852" lon="-122.244272">
        <ele>116.5</ele>
        <time>2015-04-27T19:08:17Z</time>
      </trkpt>
      <trkpt lat="37.408906" lon="-122.244172">
        <ele>115.7</ele>
        <time>2015-04-27T19:08:18Z</time>
      </trkpt>
      <trkpt lat="37.408977" lon="-122.244051">
        <ele>114.7</ele>
        <time>2015-04-27T19:08:19Z</time>
      </trkpt>
      <trkpt lat="37.409031" lon="-122.243942">
        <ele>113.8</ele>
        <time>2015-04-27T19:08:20Z</time>
      </trkpt>
      <trkpt lat="37.409091" lon="-122.243829">
        <ele>112.9</ele>
        <time>2015-04-27T19:08:21Z</time>
      </trkpt>
      <trkpt lat="37.409263" lon="-122.243553">
        <ele>110.7</ele>
        <time>2015-04-27T19:08:23Z</time>
      </trkpt>
      <trkpt lat="37.40932" lon="-122.243454">
        <ele>109.8</ele>
        <time>2015-04-27T19:08:24Z</time>
      </trkpt>
      <trkpt lat="37.409386" lon="-122.24337">
        <ele>109</ele>
        <time>2015-04-27T19:08:25Z</time>
      </trkpt>
      <trkpt lat="37.409465" lon="-122.24325">
        <ele>108.1</ele>
        <time>2015-04-27T19:08:26Z</time>
      </trkpt>
      <trkpt lat="37.409548" lon="-122.243123">
        <ele>107</ele>
        <time>2015-04-27T19:08:27Z</time>
      </trkpt>
      <trkpt lat="37.409647" lon="-122.242995">
        <ele>105.8</ele>
        <time>2015-04-27T19:08:28Z</time>
      </trkpt>
      <trkpt lat="37.409745" lon="-122.24288">
        <ele>104.7</ele>
        <time>2015-04-27T19:08:29Z</time>
      </trkpt>
      <trkpt lat="37.409845" lon="-122.242759">
        <ele>103.4</ele>
        <time>2015-04-27T19:08:30Z</time>
      </trkpt>
      <trkpt lat="37.409945" lon="-122.242634">
        <ele>102.2</ele>
        <time>2015-04-27T19:08:31Z</time>
      </trkpt>
      <trkpt lat="37.410052" lon="-122.242519">
        <ele>101</ele>
        <time>2015-04-27T19:08:32Z</time>
      </trkpt>
      <trkpt lat="37.410153" lon="-122.242399">
        <ele>99.8</ele>
        <time>2015-04-27T19:08:33Z</time>
      </trkpt>
      <trkpt lat="37.410266" lon="-122.242278">
        <ele>98.6</ele>
        <time>2015-04-27T19:08:34Z</time>
      </trkpt>
      <trkpt lat="37.410375" lon="-122.242158">
        <ele>97.3</ele>
        <time>2015-04-27T19:08:35Z</time>
      </trkpt>
      <trkpt lat="37.410482" lon="-122.242042">
        <ele>96.2</ele>
        <time>2015-04-27T19:08:36Z</time>
      </trkpt>
      <trkpt lat="37.410597" lon="-122.241922">
        <ele>95</ele>
        <time>2015-04-27T19:08:37Z</time>
      </trkpt>
      <trkpt lat="37.410702" lon="-122.241801">
        <ele>93.9</ele>
        <time>2015-04-27T19:08:38Z</time>
      </trkpt>
      <trkpt lat="37.410813" lon="-122.241677">
        <ele>92.8</ele>
        <time>2015-04-27T19:08:39Z</time>
      </trkpt>
      <trkpt lat="37.410923" lon="-122.241547">
        <ele>91.9</ele>
        <time>2015-04-27T19:08:40Z</time>
      </trkpt>
      <trkpt lat="37.411028" lon="-122.241421">
        <ele>91.1</ele>
        <time>2015-04-27T19:08:41Z</time>
      </trkpt>
      <trkpt lat="37.411129" lon="-122.241302">
        <ele>90.6</ele>
        <time>2015-04-27T19:08:42Z</time>
      </trkpt>
      <trkpt lat="37.411249" lon="-122.24116">
        <ele>90</ele>
        <time>2015-04-27T19:08:43Z</time>
      </trkpt>
      <trkpt lat="37.411349" lon="-122.241032">
        <ele>89.8</ele>
        <time>2015-04-27T19:08:44Z</time>
      </trkpt>
      <trkpt lat="37.411452" lon="-122.240915">
        <ele>89.8</ele>
        <time>2015-04-27T19:08:45Z</time>
      </trkpt>
      <trkpt lat="37.411549" lon="-122.240803">
        <ele>90</ele>
        <time>2015-04-27T19:08:46Z</time>
      </trkpt>
      <trkpt lat="37.411626" lon="-122.240693">
        <ele>90.3</ele>
        <time>2015-04-27T19:08:47Z</time>
      </trkpt>
      <trkpt lat="37.41173" lon="-122.240579">
        <ele>90.7</ele>
        <time>2015-04-27T19:08:48Z</time>
      </trkpt>
      <trkpt lat="37.411829" lon="-122.24049">
        <ele>91.1</ele>
        <time>2015-04-27T19:08:49Z</time>
      </trkpt>
      <trkpt lat="37.411906" lon="-122.240427">
        <ele>91.3</ele>
        <time>2015-04-27T19:08:50Z</time>
      </trkpt>
      <trkpt lat="37.412008" lon="-122.240368">
        <ele>91.7</ele>
        <time>2015-04-27T19:08:51Z</time>
      </trkpt>
      <trkpt lat="37.412084" lon="-122.240321">
        <ele>92</ele>
        <time>2015-04-27T19:08:52Z</time>
      </trkpt>
      <trkpt lat="37.41217" lon="-122.240259">
        <ele>92.6</ele>
        <time>2015-04-27T19:08:53Z</time>
      </trkpt>
      <trkpt lat="37.412242" lon="-122.240205">
        <ele>93</ele>
        <time>2015-04-27T19:08:54Z</time>
      </trkpt>
      <trkpt lat="37.41228" lon="-122.240179">
        <ele>93.3</ele>
        <time>2015-04-27T19:08:55Z</time>
      </trkpt>
      <trkpt lat="37.412346" lon="-122.24013">
        <ele>93.6</ele>
        <time>2015-04-27T19:08:56Z</time>
      </trkpt>
      <trkpt lat="37.412416" lon="-122.240088">
        <ele>94</ele>
        <time>2015-04-27T19:08:57Z</time>
      </trkpt>
      <trkpt lat="37.412486" lon="-122.240045">
        <ele>94.4</ele>
        <time>2015-04-27T19:08:58Z</time>
      </trkpt>
      <trkpt lat="37.412546" lon="-122.240003">
        <ele>94.8</ele>
        <time>2015-04-27T19:08:59Z</time>
      </trkpt>
      <trkpt lat="37.412606" lon="-122.239972">
        <ele>95.1</ele>
        <time>2015-04-27T19:09:00Z</time>
      </trkpt>
      <trkpt lat="37.412662" lon="-122.239938">
        <ele>95.5</ele>
        <time>2015-04-27T19:09:01Z</time>
      </trkpt>
      <trkpt lat="37.412717" lon="-122.239912">
        <ele>95.8</ele>
        <time>2015-04-27T19:09:02Z</time>
      </trkpt>
      <trkpt lat="37.412769" lon="-122.23987">
        <ele>96.1</ele>
        <time>2015-04-27T19:09:03Z</time>
      </trkpt>
      <trkpt lat="37.412814" lon="-122.239836">
        <ele>96.4</ele>
        <time>2015-04-27T19:09:04Z</time>
      </trkpt>
      <trkpt lat="37.412865" lon="-122.239796">
        <ele>96.7</ele>
        <time>2015-04-27T19:09:05Z</time>
      </trkpt>
      <trkpt lat="37.412912" lon="-122.239768">
        <ele>97</ele>
        <time>2015-04-27T19:09:06Z</time>
      </trkpt>
      <trkpt lat="37.412958" lon="-122.23974">
        <ele>97.3</ele>
        <time>2015-04-27T19:09:07Z</time>
      </trkpt>
      <trkpt lat="37.413003" lon="-122.239707">
        <ele>97.6</ele>
        <time>2015-04-27T19:09:08Z</time>
      </trkpt>
      <trkpt lat="37.413045" lon="-122.239686">
        <ele>97.9</ele>
        <time>2015-04-27T19:09:09Z</time>
      </trkpt>
      <trkpt lat="37.413085" lon="-122.239657">
        <ele>98.1</ele>
        <time>2015-04-27T19:09:10Z</time>
      </trkpt>
      <trkpt lat="37.413129" lon="-122.239641">
        <ele>98.4</ele>
        <time>2015-04-27T19:09:11Z</time>
      </trkpt>
      <trkpt lat="37.41317" lon="-122.239602">
        <ele>98.6</ele>
        <time>2015-04-27T19:09:12Z</time>
      </trkpt>
      <trkpt lat="37.413218" lon="-122.239575">
        <ele>98.9</ele>
        <time>2015-04-27T19:09:13Z</time>
      </trkpt>
      <trkpt lat="37.413259" lon="-122.23956">
        <ele>99.2</ele>
        <time>2015-04-27T19:09:14Z</time>
      </trkpt>
      <trkpt lat="37.413296" lon="-122.239534">
        <ele>99.4</ele>
        <time>2015-04-27T19:09:15Z</time>
      </trkpt>
      <trkpt lat="37.413331" lon="-122.239481">
        <ele>99.7</ele>
        <time>2015-04-27T19:09:16Z</time>
      </trkpt>
      <trkpt lat="37.413367" lon="-122.239456">
        <ele>99.9</ele>
        <time>2015-04-27T19:09:17Z</time>
      </trkpt>
      <trkpt lat="37.413404" lon="-122.239442">
        <ele>100.1</ele>
        <time>2015-04-27T19:09:18Z</time>
      </trkpt>
      <trkpt lat="37.413448" lon="-122.23943">
        <ele>100.4</ele>
        <time>2015-04-27T19:09:20Z</time>
      </trkpt>
      <trkpt lat="37.413506" lon="-122.239429">
        <ele>100.7</ele>
        <time>2015-04-27T19:09:21Z</time>
      </trkpt>
      <trkpt lat="37.413699" lon="-122.239312">
        <ele>101.9</ele>
        <time>2015-04-27T19:09:26Z</time>
      </trkpt>
      <trkpt lat="37.413744" lon="-122.239292">
        <ele>102.2</ele>
        <time>2015-04-27T19:09:27Z</time>
      </trkpt>
      <trkpt lat="37.413786" lon="-122.239274">
        <ele>102.5</ele>
        <time>2015-04-27T19:09:28Z</time>
      </trkpt>
      <trkpt lat="37.413826" lon="-122.239257">
        <ele>102.7</ele>
        <time>2015-04-27T19:09:29Z</time>
      </trkpt>
      <trkpt lat="37.413864" lon="-122.239241">
        <ele>103</ele>
        <time>2015-04-27T19:09:30Z</time>
      </trkpt>
      <trkpt lat="37.413899" lon="-122.239223">
        <ele>103.2</ele>
        <time>2015-04-27T19:09:31Z</time>
      </trkpt>
      <trkpt lat="37.413933" lon="-122.239201">
        <ele>103.3</ele>
        <time>2015-04-27T19:09:32Z</time>
      </trkpt>
      <trkpt lat="37.413966" lon="-122.239177">
        <ele>103.6</ele>
        <time>2015-04-27T19:09:33Z</time>
      </trkpt>
      <trkpt lat="37.414006" lon="-122.239147">
        <ele>103.8</ele>
        <time>2015-04-27T19:09:34Z</time>
      </trkpt>
      <trkpt lat="37.414037" lon="-122.239123">
        <ele>104</ele>
        <time>2015-04-27T19:09:36Z</time>
      </trkpt>
      <trkpt lat="37.414071" lon="-122.239096">
        <ele>104.2</ele>
        <time>2015-04-27T19:09:37Z</time>
      </trkpt>
      <trkpt lat="37.41414" lon="-122.23904">
        <ele>104.5</ele>
        <time>2015-04-27T19:09:38Z</time>
      </trkpt>
      <trkpt lat="37.414174" lon="-122.239016">
        <ele>104.7</ele>
        <time>2015-04-27T19:09:39Z</time>
      </trkpt>
      <trkpt lat="37.414211" lon="-122.238991">
        <ele>104.9</ele>
        <time>2015-04-27T19:09:40Z</time>
      </trkpt>
      <trkpt lat="37.414244" lon="-122.238969">
        <ele>105.1</ele>
        <time>2015-04-27T19:09:41Z</time>
      </trkpt>
      <trkpt lat="37.414276" lon="-122.238947">
        <ele>105.3</ele>
        <time>2015-04-27T19:09:42Z</time>
      </trkpt>
      <trkpt lat="37.414308" lon="-122.238926">
        <ele>105.4</ele>
        <time>2015-04-27T19:09:43Z</time>
      </trkpt>
      <trkpt lat="37.414338" lon="-122.238904">
        <ele>105.6</ele>
        <time>2015-04-27T19:09:44Z</time>
      </trkpt>
      <trkpt lat="37.414371" lon="-122.23888">
        <ele>105.8</ele>
        <time>2015-04-27T19:09:45Z</time>
      </trkpt>
      <trkpt lat="37.414405" lon="-122.238854">
        <ele>105.9</ele>
        <time>2015-04-27T19:09:46Z</time>
      </trkpt>
      <trkpt lat="37.414437" lon="-122.238832">
        <ele>106.1</ele>
        <time>2015-04-27T19:09:47Z</time>
      </trkpt>
      <trkpt lat="37.414467" lon="-122.238808">
        <ele>106.2</ele>
        <time>2015-04-27T19:09:48Z</time>
      </trkpt>
      <trkpt lat="37.414499" lon="-122.23878">
        <ele>106.4</ele>
        <time>2015-04-27T19:09:49Z</time>
      </trkpt>
      <trkpt lat="37.414531" lon="-122.238752">
        <ele>106.5</ele>
        <time>2015-04-27T19:09:50Z</time>
      </trkpt>
      <trkpt lat="37.414563" lon="-122.238724">
        <ele>106.6</ele>
        <time>2015-04-27T19:09:51Z</time>
      </trkpt>
      <trkpt lat="37.414593" lon="-122.238698">
        <ele>106.8</ele>
        <time>2015-04-27T19:09:52Z</time>
      </trkpt>
      <trkpt lat="37.414621" lon="-122.238674">
        <ele>106.9</ele>
        <time>2015-04-27T19:09:53Z</time>
      </trkpt>
      <trkpt lat="37.414652" lon="-122.238647">
        <ele>107</ele>
        <time>2015-04-27T19:09:54Z</time>
      </trkpt>
      <trkpt lat="37.414684" lon="-122.23862">
        <ele>107.2</ele>
        <time>2015-04-27T19:09:55Z</time>
      </trkpt>
      <trkpt lat="37.414712" lon="-122.238598">
        <ele>107.3</ele>
        <time>2015-04-27T19:09:56Z</time>
      </trkpt>
      <trkpt lat="37.414741" lon="-122.238574">
        <ele>107.4</ele>
        <time>2015-04-27T19:09:57Z</time>
      </trkpt>
      <trkpt lat="37.41477" lon="-122.238551">
        <ele>107.6</ele>
        <time>2015-04-27T19:09:58Z</time>
      </trkpt>
      <trkpt lat="37.414799" lon="-122.238526">
        <ele>107.7</ele>
        <time>2015-04-27T19:09:59Z</time>
      </trkpt>
      <trkpt lat="37.414823" lon="-122.238504">
        <ele>107.9</ele>
        <time>2015-04-27T19:10:00Z</time>
      </trkpt>
      <trkpt lat="37.414855" lon="-122.238478">
        <ele>108</ele>
        <time>2015-04-27T19:10:01Z</time>
      </trkpt>
      <trkpt lat="37.414882" lon="-122.238453">
        <ele>108.1</ele>
        <time>2015-04-27T19:10:02Z</time>
      </trkpt>
      <trkpt lat="37.414911" lon="-122.238427">
        <ele>108.3</ele>
        <time>2015-04-27T19:10:03Z</time>
      </trkpt>
      <trkpt lat="37.414939" lon="-122.2384">
        <ele>108.4</ele>
        <time>2015-04-27T19:10:04Z</time>
      </trkpt>
      <trkpt lat="37.414968" lon="-122.238372">
        <ele>108.5</ele>
        <time>2015-04-27T19:10:05Z</time>
      </trkpt>
      <trkpt lat="37.414994" lon="-122.238347">
        <ele>108.6</ele>
        <time>2015-04-27T19:10:06Z</time>
      </trkpt>
      <trkpt lat="37.415022" lon="-122.238321">
        <ele>108.7</ele>
        <time>2015-04-27T19:10:07Z</time>
      </trkpt>
      <trkpt lat="37.41505" lon="-122.238293">
        <ele>108.9</ele>
        <time>2015-04-27T19:10:08Z</time>
      </trkpt>
      <trkpt lat="37.415076" lon="-122.238267">
        <ele>109.1</ele>
        <time>2015-04-27T19:10:09Z</time>
      </trkpt>
      <trkpt lat="37.415103" lon="-122.23824">
        <ele>109.2</ele>
        <time>2015-04-27T19:10:10Z</time>
      </trkpt>
      <trkpt lat="37.415128" lon="-122.238214">
        <ele>109.3</ele>
        <time>2015-04-27T19:10:11Z</time>
      </trkpt>
      <trkpt lat="37.415155" lon="-122.238188">
        <ele>109.4</ele>
        <time>2015-04-27T19:10:12Z</time>
      </trkpt>
      <trkpt lat="37.415184" lon="-122.238159">
        <ele>109.5</ele>
        <time>2015-04-27T19:10:13Z</time>
      </trkpt>
      <trkpt lat="37.415208" lon="-122.238133">
        <ele>109.7</ele>
        <time>2015-04-27T19:10:14Z</time>
      </trkpt>
      <trkpt lat="37.415235" lon="-122.238103">
        <ele>109.9</ele>
        <time>2015-04-27T19:10:15Z</time>
      </trkpt>
      <trkpt lat="37.41526" lon="-122.238075">
        <ele>110</ele>
        <time>2015-04-27T19:10:16Z</time>
      </trkpt>
      <trkpt lat="37.415284" lon="-122.238049">
        <ele>110.1</ele>
        <time>2015-04-27T19:10:17Z</time>
      </trkpt>
      <trkpt lat="37.415309" lon="-122.238022">
        <ele>110.2</ele>
        <time>2015-04-27T19:10:18Z</time>
      </trkpt>
      <trkpt lat="37.415337" lon="-122.237992">
        <ele>110.3</ele>
        <time>2015-04-27T19:10:19Z</time>
      </trkpt>
      <trkpt lat="37.415365" lon="-122.237962">
        <ele>110.5</ele>
        <time>2015-04-27T19:10:20Z</time>
      </trkpt>
      <trkpt lat="37.415388" lon="-122.237935">
        <ele>110.6</ele>
        <time>2015-04-27T19:10:21Z</time>
      </trkpt>
      <trkpt lat="37.415416" lon="-122.237903">
        <ele>110.7</ele>
        <time>2015-04-27T19:10:22Z</time>
      </trkpt>
      <trkpt lat="37.41544" lon="-122.237873">
        <ele>110.8</ele>
        <time>2015-04-27T19:10:23Z</time>
      </trkpt>
      <trkpt lat="37.415464" lon="-122.237841">
        <ele>110.9</ele>
        <time>2015-04-27T19:10:24Z</time>
      </trkpt>
      <trkpt lat="37.415486" lon="-122.23781">
        <ele>111</ele>
        <time>2015-04-27T19:10:25Z</time>
      </trkpt>
      <trkpt lat="37.41551" lon="-122.237775">
        <ele>111.1</ele>
        <time>2015-04-27T19:10:26Z</time>
      </trkpt>
      <trkpt lat="37.415531" lon="-122.237742">
        <ele>111.2</ele>
        <time>2015-04-27T19:10:27Z</time>
      </trkpt>
      <trkpt lat="37.415556" lon="-122.237708">
        <ele>111.3</ele>
        <time>2015-04-27T19:10:28Z</time>
      </trkpt>
      <trkpt lat="37.415582" lon="-122.237673">
        <ele>111.5</ele>
        <time>2015-04-27T19:10:29Z</time>
      </trkpt>
      <trkpt lat="37.415602" lon="-122.237643">
        <ele>111.6</ele>
        <time>2015-04-27T19:10:30Z</time>
      </trkpt>
      <trkpt lat="37.415625" lon="-122.23761">
        <ele>111.7</ele>
        <time>2015-04-27T19:10:31Z</time>
      </trkpt>
      <trkpt lat="37.41565" lon="-122.237574">
        <ele>111.9</ele>
        <time>2015-04-27T19:10:32Z</time>
      </trkpt>
      <trkpt lat="37.415677" lon="-122.237537">
        <ele>112</ele>
        <time>2015-04-27T19:10:33Z</time>
      </trkpt>
      <trkpt lat="37.415702" lon="-122.237502">
        <ele>112.1</ele>
        <time>2015-04-27T19:10:34Z</time>
      </trkpt>
      <trkpt lat="37.415732" lon="-122.237464">
        <ele>112.3</ele>
        <time>2015-04-27T19:10:35Z</time>
      </trkpt>
      <trkpt lat="37.415757" lon="-122.237433">
        <ele>112.5</ele>
        <time>2015-04-27T19:10:36Z</time>
      </trkpt>
      <trkpt lat="37.415784" lon="-122.237399">
        <ele>112.6</ele>
        <time>2015-04-27T19:10:37Z</time>
      </trkpt>
      <trkpt lat="37.415813" lon="-122.237364">
        <ele>112.7</ele>
        <time>2015-04-27T19:10:38Z</time>
      </trkpt>
      <trkpt lat="37.41584" lon="-122.237328">
        <ele>112.9</ele>
        <time>2015-04-27T19:10:39Z</time>
      </trkpt>
      <trkpt lat="37.415868" lon="-122.237284">
        <ele>113.1</ele>
        <time>2015-04-27T19:10:41Z</time>
      </trkpt>
      <trkpt lat="37.415922" lon="-122.2372">
        <ele>113.4</ele>
        <time>2015-04-27T19:10:42Z</time>
      </trkpt>
      <trkpt lat="37.415946" lon="-122.237166">
        <ele>113.5</ele>
        <time>2015-04-27T19:10:43Z</time>
      </trkpt>
      <trkpt lat="37.415967" lon="-122.237134">
        <ele>113.7</ele>
        <time>2015-04-27T19:10:44Z</time>
      </trkpt>
      <trkpt lat="37.41599" lon="-122.237099">
        <ele>113.8</ele>
        <time>2015-04-27T19:10:45Z</time>
      </trkpt>
      <trkpt lat="37.416013" lon="-122.237063">
        <ele>113.9</ele>
        <time>2015-04-27T19:10:46Z</time>
      </trkpt>
      <trkpt lat="37.416037" lon="-122.237023">
        <ele>114.1</ele>
        <time>2015-04-27T19:10:47Z</time>
      </trkpt>
      <trkpt lat="37.416057" lon="-122.236988">
        <ele>114.2</ele>
        <time>2015-04-27T19:10:48Z</time>
      </trkpt>
      <trkpt lat="37.416083" lon="-122.23694">
        <ele>114.3</ele>
        <time>2015-04-27T19:10:49Z</time>
      </trkpt>
      <trkpt lat="37.416104" lon="-122.236903">
        <ele>114.4</ele>
        <time>2015-04-27T19:10:50Z</time>
      </trkpt>
      <trkpt lat="37.416127" lon="-122.236863">
        <ele>114.6</ele>
        <time>2015-04-27T19:10:51Z</time>
      </trkpt>
      <trkpt lat="37.41615" lon="-122.236823">
        <ele>114.7</ele>
        <time>2015-04-27T19:10:52Z</time>
      </trkpt>
      <trkpt lat="37.416173" lon="-122.236781">
        <ele>114.9</ele>
        <time>2015-04-27T19:10:53Z</time>
      </trkpt>
      <trkpt lat="37.416197" lon="-122.236738">
        <ele>115</ele>
        <time>2015-04-27T19:10:54Z</time>
      </trkpt>
      <trkpt lat="37.416221" lon="-122.236696">
        <ele>115.2</ele>
        <time>2015-04-27T19:10:55Z</time>
      </trkpt>
      <trkpt lat="37.416244" lon="-122.236656">
        <ele>115.3</ele>
        <time>2015-04-27T19:10:56Z</time>
      </trkpt>
      <trkpt lat="37.416263" lon="-122.236621">
        <ele>115.5</ele>
        <time>2015-04-27T19:10:57Z</time>
      </trkpt>
      <trkpt lat="37.416283" lon="-122.236585">
        <ele>115.6</ele>
        <time>2015-04-27T19:10:58Z</time>
      </trkpt>
      <trkpt lat="37.416301" lon="-122.236553">
        <ele>115.7</ele>
        <time>2015-04-27T19:10:59Z</time>
      </trkpt>
      <trkpt lat="37.416322" lon="-122.236515">
        <ele>115.8</ele>
        <time>2015-04-27T19:11:00Z</time>
      </trkpt>
      <trkpt lat="37.416345" lon="-122.236477">
        <ele>116</ele>
        <time>2015-04-27T19:11:02Z</time>
      </trkpt>
      <trkpt lat="37.416395" lon="-122.23639">
        <ele>116.3</ele>
        <time>2015-04-27T19:11:03Z</time>
      </trkpt>
      <trkpt lat="37.416416" lon="-122.236347">
        <ele>116.5</ele>
        <time>2015-04-27T19:11:04Z</time>
      </trkpt>
      <trkpt lat="37.416438" lon="-122.236303">
        <ele>116.6</ele>
        <time>2015-04-27T19:11:05Z</time>
      </trkpt>
      <trkpt lat="37.416457" lon="-122.23626">
        <ele>116.7</ele>
        <time>2015-04-27T19:11:06Z</time>
      </trkpt>
      <trkpt lat="37.416479" lon="-122.236218">
        <ele>116.9</ele>
        <time>2015-04-27T19:11:07Z</time>
      </trkpt>
      <trkpt lat="37.416502" lon="-122.236178">
        <ele>117</ele>
        <time>2015-04-27T19:11:08Z</time>
      </trkpt>
      <trkpt lat="37.416526" lon="-122.236137">
        <ele>117.1</ele>
        <time>2015-04-27T19:11:09Z</time>
      </trkpt>
      <trkpt lat="37.416552" lon="-122.236092">
        <ele>117.3</ele>
        <time>2015-04-27T19:11:10Z</time>
      </trkpt>
      <trkpt lat="37.416576" lon="-122.236044">
        <ele>117.5</ele>
        <time>2015-04-27T19:11:11Z</time>
      </trkpt>
      <trkpt lat="37.416595" lon="-122.236004">
        <ele>117.6</ele>
        <time>2015-04-27T19:11:12Z</time>
      </trkpt>
      <trkpt lat="37.416612" lon="-122.235976">
        <ele>117.6</ele>
        <time>2015-04-27T19:11:13Z</time>
      </trkpt>
      <trkpt lat="37.416628" lon="-122.235929">
        <ele>117.8</ele>
        <time>2015-04-27T19:11:14Z</time>
      </trkpt>
      <trkpt lat="37.416647" lon="-122.235891">
        <ele>117.9</ele>
        <time>2015-04-27T19:11:15Z</time>
      </trkpt>
      <trkpt lat="37.416664" lon="-122.235841">
        <ele>118</ele>
        <time>2015-04-27T19:11:16Z</time>
      </trkpt>
      <trkpt lat="37.416685" lon="-122.235799">
        <ele>118.2</ele>
        <time>2015-04-27T19:11:17Z</time>
      </trkpt>
      <trkpt lat="37.416701" lon="-122.235755">
        <ele>118.3</ele>
        <time>2015-04-27T19:11:18Z</time>
      </trkpt>
      <trkpt lat="37.416723" lon="-122.235697">
        <ele>118.4</ele>
        <time>2015-04-27T19:11:19Z</time>
      </trkpt>
      <trkpt lat="37.416735" lon="-122.235666">
        <ele>118.5</ele>
        <time>2015-04-27T19:11:20Z</time>
      </trkpt>
      <trkpt lat="37.416756" lon="-122.23562">
        <ele>118.7</ele>
        <time>2015-04-27T19:11:21Z</time>
      </trkpt>
      <trkpt lat="37.416775" lon="-122.235582">
        <ele>118.8</ele>
        <time>2015-04-27T19:11:22Z</time>
      </trkpt>
      <trkpt lat="37.416799" lon="-122.23554">
        <ele>118.9</ele>
        <time>2015-04-27T19:11:23Z</time>
      </trkpt>
      <trkpt lat="37.41682" lon="-122.235494">
        <ele>119.1</ele>
        <time>2015-04-27T19:11:24Z</time>
      </trkpt>
      <trkpt lat="37.416839" lon="-122.235455">
        <ele>119.2</ele>
        <time>2015-04-27T19:11:25Z</time>
      </trkpt>
      <trkpt lat="37.416858" lon="-122.235417">
        <ele>119.3</ele>
        <time>2015-04-27T19:11:26Z</time>
      </trkpt>
      <trkpt lat="37.416876" lon="-122.235379">
        <ele>119.4</ele>
        <time>2015-04-27T19:11:27Z</time>
      </trkpt>
      <trkpt lat="37.416897" lon="-122.235335">
        <ele>119.6</ele>
        <time>2015-04-27T19:11:28Z</time>
      </trkpt>
      <trkpt lat="37.416918" lon="-122.235288">
        <ele>119.7</ele>
        <time>2015-04-27T19:11:29Z</time>
      </trkpt>
      <trkpt lat="37.416935" lon="-122.235249">
        <ele>119.8</ele>
        <time>2015-04-27T19:11:30Z</time>
      </trkpt>
      <trkpt lat="37.416953" lon="-122.235208">
        <ele>120</ele>
        <time>2015-04-27T19:11:31Z</time>
      </trkpt>
      <trkpt lat="37.416973" lon="-122.235164">
        <ele>120.1</ele>
        <time>2015-04-27T19:11:32Z</time>
      </trkpt>
      <trkpt lat="37.416991" lon="-122.235123">
        <ele>120.3</ele>
        <time>2015-04-27T19:11:33Z</time>
      </trkpt>
      <trkpt lat="37.41701" lon="-122.235077">
        <ele>120.4</ele>
        <time>2015-04-27T19:11:34Z</time>
      </trkpt>
      <trkpt lat="37.417025" lon="-122.235038">
        <ele>120.5</ele>
        <time>2015-04-27T19:11:35Z</time>
      </trkpt>
      <trkpt lat="37.417041" lon="-122.234997">
        <ele>120.7</ele>
        <time>2015-04-27T19:11:36Z</time>
      </trkpt>
      <trkpt lat="37.417058" lon="-122.234955">
        <ele>120.8</ele>
        <time>2015-04-27T19:11:37Z</time>
      </trkpt>
      <trkpt lat="37.417076" lon="-122.234915">
        <ele>121</ele>
        <time>2015-04-27T19:11:38Z</time>
      </trkpt>
      <trkpt lat="37.417094" lon="-122.234877">
        <ele>121.1</ele>
        <time>2015-04-27T19:11:39Z</time>
      </trkpt>
      <trkpt lat="37.417111" lon="-122.23484">
        <ele>121.2</ele>
        <time>2015-04-27T19:11:40Z</time>
      </trkpt>
      <trkpt lat="37.41713" lon="-122.234799">
        <ele>121.4</ele>
        <time>2015-04-27T19:11:41Z</time>
      </trkpt>
      <trkpt lat="37.417148" lon="-122.234759">
        <ele>121.5</ele>
        <time>2015-04-27T19:11:42Z</time>
      </trkpt>
      <trkpt lat="37.417165" lon="-122.234722">
        <ele>121.6</ele>
        <time>2015-04-27T19:11:43Z</time>
      </trkpt>
      <trkpt lat="37.417185" lon="-122.234678">
        <ele>121.8</ele>
        <time>2015-04-27T19:11:44Z</time>
      </trkpt>
      <trkpt lat="37.417207" lon="-122.23463">
        <ele>121.9</ele>
        <time>2015-04-27T19:11:45Z</time>
      </trkpt>
      <trkpt lat="37.417228" lon="-122.234583">
        <ele>122.1</ele>
        <time>2015-04-27T19:11:46Z</time>
      </trkpt>
      <trkpt lat="37.417247" lon="-122.234537">
        <ele>122.2</ele>
        <time>2015-04-27T19:11:47Z</time>
      </trkpt>
      <trkpt lat="37.417267" lon="-122.234491">
        <ele>122.4</ele>
        <time>2015-04-27T19:11:48Z</time>
      </trkpt>
      <trkpt lat="37.417285" lon="-122.234448">
        <ele>122.5</ele>
        <time>2015-04-27T19:11:49Z</time>
      </trkpt>
      <trkpt lat="37.417301" lon="-122.234403">
        <ele>122.6</ele>
        <time>2015-04-27T19:11:50Z</time>
      </trkpt>
      <trkpt lat="37.417317" lon="-122.23436">
        <ele>122.7</ele>
        <time>2015-04-27T19:11:51Z</time>
      </trkpt>
      <trkpt lat="37.417336" lon="-122.234315">
        <ele>122.9</ele>
        <time>2015-04-27T19:11:52Z</time>
      </trkpt>
      <trkpt lat="37.417355" lon="-122.23427">
        <ele>123</ele>
        <time>2015-04-27T19:11:53Z</time>
      </trkpt>
      <trkpt lat="37.417374" lon="-122.234224">
        <ele>123.2</ele>
        <time>2015-04-27T19:11:54Z</time>
      </trkpt>
      <trkpt lat="37.417393" lon="-122.23418">
        <ele>123.4</ele>
        <time>2015-04-27T19:11:55Z</time>
      </trkpt>
      <trkpt lat="37.417414" lon="-122.234137">
        <ele>123.5</ele>
        <time>2015-04-27T19:11:56Z</time>
      </trkpt>
      <trkpt lat="37.417435" lon="-122.234093">
        <ele>123.7</ele>
        <time>2015-04-27T19:11:57Z</time>
      </trkpt>
      <trkpt lat="37.417457" lon="-122.234049">
        <ele>123.9</ele>
        <time>2015-04-27T19:11:58Z</time>
      </trkpt>
      <trkpt lat="37.417479" lon="-122.234006">
        <ele>124.1</ele>
        <time>2015-04-27T19:11:59Z</time>
      </trkpt>
      <trkpt lat="37.417499" lon="-122.233964">
        <ele>124.3</ele>
        <time>2015-04-27T19:12:00Z</time>
      </trkpt>
      <trkpt lat="37.417518" lon="-122.233922">
        <ele>124.4</ele>
        <time>2015-04-27T19:12:01Z</time>
      </trkpt>
      <trkpt lat="37.417536" lon="-122.233883">
        <ele>124.5</ele>
        <time>2015-04-27T19:12:02Z</time>
      </trkpt>
      <trkpt lat="37.417556" lon="-122.233843">
        <ele>124.7</ele>
        <time>2015-04-27T19:12:03Z</time>
      </trkpt>
      <trkpt lat="37.417575" lon="-122.233804">
        <ele>124.8</ele>
        <time>2015-04-27T19:12:04Z</time>
      </trkpt>
      <trkpt lat="37.417594" lon="-122.233763">
        <ele>125</ele>
        <time>2015-04-27T19:12:05Z</time>
      </trkpt>
      <trkpt lat="37.417615" lon="-122.233721">
        <ele>125.1</ele>
        <time>2015-04-27T19:12:06Z</time>
      </trkpt>
      <trkpt lat="37.417635" lon="-122.233681">
        <ele>125.2</ele>
        <time>2015-04-27T19:12:07Z</time>
      </trkpt>
      <trkpt lat="37.417656" lon="-122.233638">
        <ele>125.4</ele>
        <time>2015-04-27T19:12:08Z</time>
      </trkpt>
      <trkpt lat="37.417678" lon="-122.233594">
        <ele>125.6</ele>
        <time>2015-04-27T19:12:09Z</time>
      </trkpt>
      <trkpt lat="37.417699" lon="-122.233551">
        <ele>125.7</ele>
        <time>2015-04-27T19:12:10Z</time>
      </trkpt>
      <trkpt lat="37.417718" lon="-122.233508">
        <ele>125.9</ele>
        <time>2015-04-27T19:12:11Z</time>
      </trkpt>
      <trkpt lat="37.41774" lon="-122.233463">
        <ele>126.1</ele>
        <time>2015-04-27T19:12:12Z</time>
      </trkpt>
      <trkpt lat="37.41776" lon="-122.233422">
        <ele>126.2</ele>
        <time>2015-04-27T19:12:13Z</time>
      </trkpt>
      <trkpt lat="37.41778" lon="-122.233382">
        <ele>126.3</ele>
        <time>2015-04-27T19:12:14Z</time>
      </trkpt>
      <trkpt lat="37.4178" lon="-122.233343">
        <ele>126.5</ele>
        <time>2015-04-27T19:12:15Z</time>
      </trkpt>
      <trkpt lat="37.417819" lon="-122.233303">
        <ele>126.6</ele>
        <time>2015-04-27T19:12:16Z</time>
      </trkpt>
      <trkpt lat="37.41784" lon="-122.233258">
        <ele>126.8</ele>
        <time>2015-04-27T19:12:17Z</time>
      </trkpt>
      <trkpt lat="37.417862" lon="-122.233212">
        <ele>126.9</ele>
        <time>2015-04-27T19:12:18Z</time>
      </trkpt>
      <trkpt lat="37.417883" lon="-122.233167">
        <ele>127.1</ele>
        <time>2015-04-27T19:12:19Z</time>
      </trkpt>
      <trkpt lat="37.417906" lon="-122.233122">
        <ele>127.3</ele>
        <time>2015-04-27T19:12:20Z</time>
      </trkpt>
      <trkpt lat="37.41793" lon="-122.23307">
        <ele>127.5</ele>
        <time>2015-04-27T19:12:21Z</time>
      </trkpt>
      <trkpt lat="37.417952" lon="-122.23302">
        <ele>127.7</ele>
        <time>2015-04-27T19:12:22Z</time>
      </trkpt>
      <trkpt lat="37.417976" lon="-122.232971">
        <ele>127.8</ele>
        <time>2015-04-27T19:12:23Z</time>
      </trkpt>
      <trkpt lat="37.417998" lon="-122.232921">
        <ele>128</ele>
        <time>2015-04-27T19:12:24Z</time>
      </trkpt>
      <trkpt lat="37.41802" lon="-122.232873">
        <ele>128.2</ele>
        <time>2015-04-27T19:12:25Z</time>
      </trkpt>
      <trkpt lat="37.418042" lon="-122.232825">
        <ele>128.4</ele>
        <time>2015-04-27T19:12:26Z</time>
      </trkpt>
      <trkpt lat="37.418062" lon="-122.232778">
        <ele>128.6</ele>
        <time>2015-04-27T19:12:27Z</time>
      </trkpt>
      <trkpt lat="37.418081" lon="-122.232732">
        <ele>128.8</ele>
        <time>2015-04-27T19:12:28Z</time>
      </trkpt>
      <trkpt lat="37.418101" lon="-122.232684">
        <ele>128.9</ele>
        <time>2015-04-27T19:12:29Z</time>
      </trkpt>
      <trkpt lat="37.418118" lon="-122.232638">
        <ele>129.1</ele>
        <time>2015-04-27T19:12:30Z</time>
      </trkpt>
      <trkpt lat="37.418136" lon="-122.232591">
        <ele>129.2</ele>
        <time>2015-04-27T19:12:31Z</time>
      </trkpt>
      <trkpt lat="37.418153" lon="-122.232541">
        <ele>129.3</ele>
        <time>2015-04-27T19:12:32Z</time>
      </trkpt>
      <trkpt lat="37.418172" lon="-122.232489">
        <ele>129.4</ele>
        <time>2015-04-27T19:12:33Z</time>
      </trkpt>
      <trkpt lat="37.418191" lon="-122.232439">
        <ele>129.6</ele>
        <time>2015-04-27T19:12:34Z</time>
      </trkpt>
      <trkpt lat="37.418212" lon="-122.232389">
        <ele>129.8</ele>
        <time>2015-04-27T19:12:35Z</time>
      </trkpt>
      <trkpt lat="37.418232" lon="-122.23234">
        <ele>130</ele>
        <time>2015-04-27T19:12:36Z</time>
      </trkpt>
      <trkpt lat="37.41825" lon="-122.23229">
        <ele>130.1</ele>
        <time>2015-04-27T19:12:37Z</time>
      </trkpt>
      <trkpt lat="37.418269" lon="-122.23224">
        <ele>130.3</ele>
        <time>2015-04-27T19:12:38Z</time>
      </trkpt>
      <trkpt lat="37.418287" lon="-122.232192">
        <ele>130.4</ele>
        <time>2015-04-27T19:12:39Z</time>
      </trkpt>
      <trkpt lat="37.418305" lon="-122.232145">
        <ele>130.5</ele>
        <time>2015-04-27T19:12:40Z</time>
      </trkpt>
      <trkpt lat="37.418321" lon="-122.232097">
        <ele>130.6</ele>
        <time>2015-04-27T19:12:41Z</time>
      </trkpt>
      <trkpt lat="37.418335" lon="-122.232052">
        <ele>130.7</ele>
        <time>2015-04-27T19:12:42Z</time>
      </trkpt>
      <trkpt lat="37.41835" lon="-122.232005">
        <ele>130.8</ele>
        <time>2015-04-27T19:12:43Z</time>
      </trkpt>
      <trkpt lat="37.418365" lon="-122.231954">
        <ele>130.9</ele>
        <time>2015-04-27T19:12:44Z</time>
      </trkpt>
      <trkpt lat="37.418379" lon="-122.231903">
        <ele>131</ele>
        <time>2015-04-27T19:12:45Z</time>
      </trkpt>
      <trkpt lat="37.418392" lon="-122.231854">
        <ele>131</ele>
        <time>2015-04-27T19:12:46Z</time>
      </trkpt>
      <trkpt lat="37.418405" lon="-122.231802">
        <ele>131.1</ele>
        <time>2015-04-27T19:12:47Z</time>
      </trkpt>
      <trkpt lat="37.418418" lon="-122.231749">
        <ele>131.2</ele>
        <time>2015-04-27T19:12:48Z</time>
      </trkpt>
      <trkpt lat="37.418431" lon="-122.231697">
        <ele>131.2</ele>
        <time>2015-04-27T19:12:49Z</time>
      </trkpt>
      <trkpt lat="37.418443" lon="-122.231646">
        <ele>131.2</ele>
        <time>2015-04-27T19:12:50Z</time>
      </trkpt>
      <trkpt lat="37.418455" lon="-122.231595">
        <ele>131.3</ele>
        <time>2015-04-27T19:12:51Z</time>
      </trkpt>
      <trkpt lat="37.418465" lon="-122.231543">
        <ele>131.3</ele>
        <time>2015-04-27T19:12:52Z</time>
      </trkpt>
      <trkpt lat="37.418474" lon="-122.231492">
        <ele>131.3</ele>
        <time>2015-04-27T19:12:53Z</time>
      </trkpt>
      <trkpt lat="37.418483" lon="-122.231442">
        <ele>131.3</ele>
        <time>2015-04-27T19:12:54Z</time>
      </trkpt>
      <trkpt lat="37.418492" lon="-122.231396">
        <ele>131.3</ele>
        <time>2015-04-27T19:12:55Z</time>
      </trkpt>
      <trkpt lat="37.418496" lon="-122.231359">
        <ele>131.2</ele>
        <time>2015-04-27T19:12:56Z</time>
      </trkpt>
      <trkpt lat="37.418503" lon="-122.231308">
        <ele>131.2</ele>
        <time>2015-04-27T19:12:57Z</time>
      </trkpt>
      <trkpt lat="37.418511" lon="-122.231259">
        <ele>131.2</ele>
        <time>2015-04-27T19:12:58Z</time>
      </trkpt>
      <trkpt lat="37.418518" lon="-122.23121">
        <ele>131.2</ele>
        <time>2015-04-27T19:12:59Z</time>
      </trkpt>
      <trkpt lat="37.418526" lon="-122.231158">
        <ele>131.1</ele>
        <time>2015-04-27T19:13:00Z</time>
      </trkpt>
      <trkpt lat="37.418534" lon="-122.231091">
        <ele>131.1</ele>
        <time>2015-04-27T19:13:01Z</time>
      </trkpt>
      <trkpt lat="37.418539" lon="-122.231035">
        <ele>131</ele>
        <time>2015-04-27T19:13:02Z</time>
      </trkpt>
      <trkpt lat="37.418546" lon="-122.230981">
        <ele>130.9</ele>
        <time>2015-04-27T19:13:03Z</time>
      </trkpt>
      <trkpt lat="37.418554" lon="-122.230919">
        <ele>130.9</ele>
        <time>2015-04-27T19:13:04Z</time>
      </trkpt>
      <trkpt lat="37.418556" lon="-122.230865">
        <ele>130.8</ele>
        <time>2015-04-27T19:13:05Z</time>
      </trkpt>
      <trkpt lat="37.418563" lon="-122.230806">
        <ele>130.7</ele>
        <time>2015-04-27T19:13:06Z</time>
      </trkpt>
      <trkpt lat="37.418571" lon="-122.23075">
        <ele>130.7</ele>
        <time>2015-04-27T19:13:07Z</time>
      </trkpt>
      <trkpt lat="37.418573" lon="-122.23069">
        <ele>130.5</ele>
        <time>2015-04-27T19:13:08Z</time>
      </trkpt>
      <trkpt lat="37.418577" lon="-122.230612">
        <ele>130.4</ele>
        <time>2015-04-27T19:13:09Z</time>
      </trkpt>
      <trkpt lat="37.418579" lon="-122.230539">
        <ele>130.3</ele>
        <time>2015-04-27T19:13:10Z</time>
      </trkpt>
      <trkpt lat="37.418585" lon="-122.230477">
        <ele>130.1</ele>
        <time>2015-04-27T19:13:11Z</time>
      </trkpt>
      <trkpt lat="37.418593" lon="-122.230413">
        <ele>130</ele>
        <time>2015-04-27T19:13:12Z</time>
      </trkpt>
      <trkpt lat="37.4186" lon="-122.230327">
        <ele>129.8</ele>
        <time>2015-04-27T19:13:13Z</time>
      </trkpt>
      <trkpt lat="37.418602" lon="-122.230259">
        <ele>129.5</ele>
        <time>2015-04-27T19:13:14Z</time>
      </trkpt>
      <trkpt lat="37.418609" lon="-122.230169">
        <ele>129.2</ele>
        <time>2015-04-27T19:13:15Z</time>
      </trkpt>
      <trkpt lat="37.418617" lon="-122.230088">
        <ele>129.1</ele>
        <time>2015-04-27T19:13:16Z</time>
      </trkpt>
      <trkpt lat="37.418618" lon="-122.229995">
        <ele>129</ele>
        <time>2015-04-27T19:13:17Z</time>
      </trkpt>
      <trkpt lat="37.418614" lon="-122.229912">
        <ele>129.2</ele>
        <time>2015-04-27T19:13:18Z</time>
      </trkpt>
      <trkpt lat="37.41862" lon="-122.2298">
        <ele>129.7</ele>
        <time>2015-04-27T19:13:19Z</time>
      </trkpt>
      <trkpt lat="37.418614" lon="-122.22971">
        <ele>129.1</ele>
        <time>2015-04-27T19:13:20Z</time>
      </trkpt>
      <trkpt lat="37.418593" lon="-122.229623">
        <ele>127.4</ele>
        <time>2015-04-27T19:13:21Z</time>
      </trkpt>
      <trkpt lat="37.418593" lon="-122.22953">
        <ele>127.2</ele>
        <time>2015-04-27T19:13:22Z</time>
      </trkpt>
      <trkpt lat="37.418587" lon="-122.229426">
        <ele>126.8</ele>
        <time>2015-04-27T19:13:23Z</time>
      </trkpt>
      <trkpt lat="37.418572" lon="-122.229324">
        <ele>126</ele>
        <time>2015-04-27T19:13:24Z</time>
      </trkpt>
      <trkpt lat="37.418567" lon="-122.229215">
        <ele>125.3</ele>
        <time>2015-04-27T19:13:25Z</time>
      </trkpt>
      <trkpt lat="37.418557" lon="-122.229108">
        <ele>124.5</ele>
        <time>2015-04-27T19:13:26Z</time>
      </trkpt>
      <trkpt lat="37.418548" lon="-122.228998">
        <ele>124.1</ele>
        <time>2015-04-27T19:13:27Z</time>
      </trkpt>
      <trkpt lat="37.418548" lon="-122.228882">
        <ele>123.9</ele>
        <time>2015-04-27T19:13:28Z</time>
      </trkpt>
      <trkpt lat="37.418535" lon="-122.228768">
        <ele>122.8</ele>
        <time>2015-04-27T19:13:29Z</time>
      </trkpt>
      <trkpt lat="37.418532" lon="-122.228644">
        <ele>122.7</ele>
        <time>2015-04-27T19:13:30Z</time>
      </trkpt>
      <trkpt lat="37.41852" lon="-122.228526">
        <ele>122.1</ele>
        <time>2015-04-27T19:13:31Z</time>
      </trkpt>
      <trkpt lat="37.418514" lon="-122.228384">
        <ele>121.6</ele>
        <time>2015-04-27T19:13:32Z</time>
      </trkpt>
      <trkpt lat="37.418503" lon="-122.228254">
        <ele>120.5</ele>
        <time>2015-04-27T19:13:33Z</time>
      </trkpt>
      <trkpt lat="37.41849" lon="-122.228124">
        <ele>120.1</ele>
        <time>2015-04-27T19:13:34Z</time>
      </trkpt>
      <trkpt lat="37.418482" lon="-122.227995">
        <ele>119.5</ele>
        <time>2015-04-27T19:13:35Z</time>
      </trkpt>
      <trkpt lat="37.41847" lon="-122.227847">
        <ele>118.5</ele>
        <time>2015-04-27T19:13:36Z</time>
      </trkpt>
      <trkpt lat="37.418453" lon="-122.227726">
        <ele>118</ele>
        <time>2015-04-27T19:13:37Z</time>
      </trkpt>
      <trkpt lat="37.41845" lon="-122.227602">
        <ele>117.6</ele>
        <time>2015-04-27T19:13:38Z</time>
      </trkpt>
      <trkpt lat="37.418441" lon="-122.227473">
        <ele>116.7</ele>
        <time>2015-04-27T19:13:39Z</time>
      </trkpt>
      <trkpt lat="37.418432" lon="-122.227343">
        <ele>116</ele>
        <time>2015-04-27T19:13:40Z</time>
      </trkpt>
      <trkpt lat="37.418415" lon="-122.227209">
        <ele>115.4</ele>
        <time>2015-04-27T19:13:41Z</time>
      </trkpt>
      <trkpt lat="37.418404" lon="-122.227071">
        <ele>114.7</ele>
        <time>2015-04-27T19:13:42Z</time>
      </trkpt>
      <trkpt lat="37.418398" lon="-122.226945">
        <ele>114.1</ele>
        <time>2015-04-27T19:13:43Z</time>
      </trkpt>
      <trkpt lat="37.418388" lon="-122.226812">
        <ele>113.5</ele>
        <time>2015-04-27T19:13:44Z</time>
      </trkpt>
      <trkpt lat="37.418384" lon="-122.226657">
        <ele>112.8</ele>
        <time>2015-04-27T19:13:45Z</time>
      </trkpt>
      <trkpt lat="37.418366" lon="-122.22652">
        <ele>112.2</ele>
        <time>2015-04-27T19:13:46Z</time>
      </trkpt>
      <trkpt lat="37.418345" lon="-122.226379">
        <ele>111.7</ele>
        <time>2015-04-27T19:13:47Z</time>
      </trkpt>
      <trkpt lat="37.418329" lon="-122.226242">
        <ele>111.1</ele>
        <time>2015-04-27T19:13:48Z</time>
      </trkpt>
      <trkpt lat="37.4183" lon="-122.2261">
        <ele>110.4</ele>
        <time>2015-04-27T19:13:49Z</time>
      </trkpt>
      <trkpt lat="37.418285" lon="-122.225963">
        <ele>109.9</ele>
        <time>2015-04-27T19:13:50Z</time>
      </trkpt>
      <trkpt lat="37.418267" lon="-122.225824">
        <ele>109.2</ele>
        <time>2015-04-27T19:13:51Z</time>
      </trkpt>
      <trkpt lat="37.418244" lon="-122.225679">
        <ele>108.6</ele>
        <time>2015-04-27T19:13:52Z</time>
      </trkpt>
      <trkpt lat="37.418233" lon="-122.225547">
        <ele>108.1</ele>
        <time>2015-04-27T19:13:53Z</time>
      </trkpt>
      <trkpt lat="37.418216" lon="-122.22541">
        <ele>107.4</ele>
        <time>2015-04-27T19:13:54Z</time>
      </trkpt>
      <trkpt lat="37.418207" lon="-122.225276">
        <ele>106.8</ele>
        <time>2015-04-27T19:13:55Z</time>
      </trkpt>
      <trkpt lat="37.418193" lon="-122.225133">
        <ele>106.2</ele>
        <time>2015-04-27T19:13:56Z</time>
      </trkpt>
      <trkpt lat="37.418171" lon="-122.22499">
        <ele>105.6</ele>
        <time>2015-04-27T19:13:57Z</time>
      </trkpt>
      <trkpt lat="37.418154" lon="-122.224849">
        <ele>104.9</ele>
        <time>2015-04-27T19:13:58Z</time>
      </trkpt>
      <trkpt lat="37.418141" lon="-122.224702">
        <ele>104.2</ele>
        <time>2015-04-27T19:13:59Z</time>
      </trkpt>
      <trkpt lat="37.418111" lon="-122.224563">
        <ele>103.6</ele>
        <time>2015-04-27T19:14:00Z</time>
      </trkpt>
      <trkpt lat="37.418094" lon="-122.224398">
        <ele>102.9</ele>
        <time>2015-04-27T19:14:01Z</time>
      </trkpt>
      <trkpt lat="37.418074" lon="-122.224244">
        <ele>102.2</ele>
        <time>2015-04-27T19:14:02Z</time>
      </trkpt>
      <trkpt lat="37.418049" lon="-122.224097">
        <ele>101.6</ele>
        <time>2015-04-27T19:14:03Z</time>
      </trkpt>
      <trkpt lat="37.418033" lon="-122.22395">
        <ele>101.2</ele>
        <time>2015-04-27T19:14:04Z</time>
      </trkpt>
      <trkpt lat="37.418014" lon="-122.2238">
        <ele>100.5</ele>
        <time>2015-04-27T19:14:05Z</time>
      </trkpt>
      <trkpt lat="37.417996" lon="-122.22365">
        <ele>100</ele>
        <time>2015-04-27T19:14:06Z</time>
      </trkpt>
      <trkpt lat="37.417979" lon="-122.223487">
        <ele>99.6</ele>
        <time>2015-04-27T19:14:07Z</time>
      </trkpt>
      <trkpt lat="37.41796" lon="-122.223322">
        <ele>99.1</ele>
        <time>2015-04-27T19:14:08Z</time>
      </trkpt>
      <trkpt lat="37.417937" lon="-122.223162">
        <ele>98.7</ele>
        <time>2015-04-27T19:14:09Z</time>
      </trkpt>
      <trkpt lat="37.417922" lon="-122.22301">
        <ele>98.5</ele>
        <time>2015-04-27T19:14:10Z</time>
      </trkpt>
      <trkpt lat="37.417914" lon="-122.222861">
        <ele>98.2</ele>
        <time>2015-04-27T19:14:11Z</time>
      </trkpt>
      <trkpt lat="37.417914" lon="-122.222715">
        <ele>98.1</ele>
        <time>2015-04-27T19:14:12Z</time>
      </trkpt>
      <trkpt lat="37.417916" lon="-122.222568">
        <ele>97.9</ele>
        <time>2015-04-27T19:14:13Z</time>
      </trkpt>
      <trkpt lat="37.41793" lon="-122.222415">
        <ele>97.7</ele>
        <time>2015-04-27T19:14:14Z</time>
      </trkpt>
      <trkpt lat="37.417951" lon="-122.222272">
        <ele>97.8</ele>
        <time>2015-04-27T19:14:15Z</time>
      </trkpt>
      <trkpt lat="37.41797" lon="-122.222139">
        <ele>97.9</ele>
        <time>2015-04-27T19:14:16Z</time>
      </trkpt>
      <trkpt lat="37.417988" lon="-122.222005">
        <ele>98</ele>
        <time>2015-04-27T19:14:17Z</time>
      </trkpt>
      <trkpt lat="37.41801" lon="-122.221872">
        <ele>98.2</ele>
        <time>2015-04-27T19:14:18Z</time>
      </trkpt>
      <trkpt lat="37.418032" lon="-122.221748">
        <ele>98.3</ele>
        <time>2015-04-27T19:14:19Z</time>
      </trkpt>
      <trkpt lat="37.418064" lon="-122.221629">
        <ele>98.5</ele>
        <time>2015-04-27T19:14:20Z</time>
      </trkpt>
      <trkpt lat="37.418105" lon="-122.221506">
        <ele>98.6</ele>
        <time>2015-04-27T19:14:21Z</time>
      </trkpt>
      <trkpt lat="37.418134" lon="-122.221397">
        <ele>98.8</ele>
        <time>2015-04-27T19:14:22Z</time>
      </trkpt>
      <trkpt lat="37.418165" lon="-122.221291">
        <ele>99</ele>
        <time>2015-04-27T19:14:23Z</time>
      </trkpt>
      <trkpt lat="37.418199" lon="-122.221177">
        <ele>99.2</ele>
        <time>2015-04-27T19:14:24Z</time>
      </trkpt>
      <trkpt lat="37.418228" lon="-122.221068">
        <ele>99.4</ele>
        <time>2015-04-27T19:14:25Z</time>
      </trkpt>
      <trkpt lat="37.418266" lon="-122.220957">
        <ele>99.5</ele>
        <time>2015-04-27T19:14:26Z</time>
      </trkpt>
      <trkpt lat="37.418297" lon="-122.220851">
        <ele>99.7</ele>
        <time>2015-04-27T19:14:27Z</time>
      </trkpt>
      <trkpt lat="37.418329" lon="-122.220752">
        <ele>99.8</ele>
        <time>2015-04-27T19:14:28Z</time>
      </trkpt>
      <trkpt lat="37.418364" lon="-122.220649">
        <ele>99.9</ele>
        <time>2015-04-27T19:14:29Z</time>
      </trkpt>
      <trkpt lat="37.418394" lon="-122.22055">
        <ele>100.1</ele>
        <time>2015-04-27T19:14:30Z</time>
      </trkpt>
      <trkpt lat="37.418423" lon="-122.22045">
        <ele>100.1</ele>
        <time>2015-04-27T19:14:31Z</time>
      </trkpt>
      <trkpt lat="37.418457" lon="-122.220352">
        <ele>100.2</ele>
        <time>2015-04-27T19:14:32Z</time>
      </trkpt>
      <trkpt lat="37.418488" lon="-122.220264">
        <ele>100.3</ele>
        <time>2015-04-27T19:14:33Z</time>
      </trkpt>
      <trkpt lat="37.41852" lon="-122.22018">
        <ele>100.3</ele>
        <time>2015-04-27T19:14:34Z</time>
      </trkpt>
      <trkpt lat="37.418553" lon="-122.220087">
        <ele>100.4</ele>
        <time>2015-04-27T19:14:35Z</time>
      </trkpt>
      <trkpt lat="37.418582" lon="-122.219994">
        <ele>100.5</ele>
        <time>2015-04-27T19:14:36Z</time>
      </trkpt>
      <trkpt lat="37.418608" lon="-122.219902">
        <ele>100.5</ele>
        <time>2015-04-27T19:14:37Z</time>
      </trkpt>
      <trkpt lat="37.41864" lon="-122.219814">
        <ele>99.6</ele>
        <time>2015-04-27T19:14:38Z</time>
      </trkpt>
      <trkpt lat="37.418667" lon="-122.219716">
        <ele>95.5</ele>
        <time>2015-04-27T19:14:39Z</time>
      </trkpt>
      <trkpt lat="37.418693" lon="-122.21962">
        <ele>93.4</ele>
        <time>2015-04-27T19:14:40Z</time>
      </trkpt>
      <trkpt lat="37.418723" lon="-122.219528">
        <ele>93.2</ele>
        <time>2015-04-27T19:14:41Z</time>
      </trkpt>
      <trkpt lat="37.418747" lon="-122.219437">
        <ele>93.3</ele>
        <time>2015-04-27T19:14:42Z</time>
      </trkpt>
      <trkpt lat="37.418775" lon="-122.219354">
        <ele>93.4</ele>
        <time>2015-04-27T19:14:43Z</time>
      </trkpt>
      <trkpt lat="37.418804" lon="-122.219264">
        <ele>93.3</ele>
        <time>2015-04-27T19:14:44Z</time>
      </trkpt>
      <trkpt lat="37.418835" lon="-122.219171">
        <ele>93.2</ele>
        <time>2015-04-27T19:14:45Z</time>
      </trkpt>
      <trkpt lat="37.418863" lon="-122.219078">
        <ele>93.2</ele>
        <time>2015-04-27T19:14:46Z</time>
      </trkpt>
      <trkpt lat="37.418887" lon="-122.218981">
        <ele>93.1</ele>
        <time>2015-04-27T19:14:47Z</time>
      </trkpt>
      <trkpt lat="37.418913" lon="-122.218886">
        <ele>92.8</ele>
        <time>2015-04-27T19:14:48Z</time>
      </trkpt>
      <trkpt lat="37.418941" lon="-122.218793">
        <ele>92.7</ele>
        <time>2015-04-27T19:14:49Z</time>
      </trkpt>
      <trkpt lat="37.418968" lon="-122.218696">
        <ele>92.7</ele>
        <time>2015-04-27T19:14:50Z</time>
      </trkpt>
      <trkpt lat="37.419001" lon="-122.218601">
        <ele>92.6</ele>
        <time>2015-04-27T19:14:51Z</time>
      </trkpt>
      <trkpt lat="37.419031" lon="-122.218508">
        <ele>92.5</ele>
        <time>2015-04-27T19:14:52Z</time>
      </trkpt>
      <trkpt lat="37.419058" lon="-122.218411">
        <ele>92.2</ele>
        <time>2015-04-27T19:14:53Z</time>
      </trkpt>
      <trkpt lat="37.419093" lon="-122.218311">
        <ele>92.1</ele>
        <time>2015-04-27T19:14:54Z</time>
      </trkpt>
      <trkpt lat="37.419121" lon="-122.218214">
        <ele>92</ele>
        <time>2015-04-27T19:14:55Z</time>
      </trkpt>
      <trkpt lat="37.419153" lon="-122.218111">
        <ele>92</ele>
        <time>2015-04-27T19:14:56Z</time>
      </trkpt>
      <trkpt lat="37.419186" lon="-122.218003">
        <ele>96.8</ele>
        <time>2015-04-27T19:14:57Z</time>
      </trkpt>
      <trkpt lat="37.419222" lon="-122.217899">
        <ele>98.6</ele>
        <time>2015-04-27T19:14:58Z</time>
      </trkpt>
      <trkpt lat="37.419255" lon="-122.217792">
        <ele>98.5</ele>
        <time>2015-04-27T19:14:59Z</time>
      </trkpt>
      <trkpt lat="37.419287" lon="-122.21768">
        <ele>98.3</ele>
        <time>2015-04-27T19:15:00Z</time>
      </trkpt>
      <trkpt lat="37.419314" lon="-122.217562">
        <ele>98</ele>
        <time>2015-04-27T19:15:01Z</time>
      </trkpt>
      <trkpt lat="37.419347" lon="-122.217461">
        <ele>97.7</ele>
        <time>2015-04-27T19:15:02Z</time>
      </trkpt>
      <trkpt lat="37.41939" lon="-122.217361">
        <ele>97.5</ele>
        <time>2015-04-27T19:15:03Z</time>
      </trkpt>
      <trkpt lat="37.41942" lon="-122.217257">
        <ele>97.2</ele>
        <time>2015-04-27T19:15:04Z</time>
      </trkpt>
      <trkpt lat="37.419455" lon="-122.217154">
        <ele>96.9</ele>
        <time>2015-04-27T19:15:05Z</time>
      </trkpt>
      <trkpt lat="37.419488" lon="-122.217048">
        <ele>96.6</ele>
        <time>2015-04-27T19:15:06Z</time>
      </trkpt>
      <trkpt lat="37.419521" lon="-122.216941">
        <ele>96.3</ele>
        <time>2015-04-27T19:15:07Z</time>
      </trkpt>
      <trkpt lat="37.419554" lon="-122.216834">
        <ele>96</ele>
        <time>2015-04-27T19:15:08Z</time>
      </trkpt>
      <trkpt lat="37.419581" lon="-122.216757">
        <ele>95.8</ele>
        <time>2015-04-27T19:15:09Z</time>
      </trkpt>
      <trkpt lat="37.41961" lon="-122.216653">
        <ele>95.4</ele>
        <time>2015-04-27T19:15:10Z</time>
      </trkpt>
      <trkpt lat="37.419636" lon="-122.216571">
        <ele>95.2</ele>
        <time>2015-04-27T19:15:11Z</time>
      </trkpt>
      <trkpt lat="37.419658" lon="-122.216494">
        <ele>95</ele>
        <time>2015-04-27T19:15:12Z</time>
      </trkpt>
      <trkpt lat="37.419682" lon="-122.216404">
        <ele>94.7</ele>
        <time>2015-04-27T19:15:13Z</time>
      </trkpt>
      <trkpt lat="37.419702" lon="-122.216331">
        <ele>94.5</ele>
        <time>2015-04-27T19:15:14Z</time>
      </trkpt>
      <trkpt lat="37.419725" lon="-122.216255">
        <ele>94.3</ele>
        <time>2015-04-27T19:15:15Z</time>
      </trkpt>
      <trkpt lat="37.419747" lon="-122.216165">
        <ele>94.1</ele>
        <time>2015-04-27T19:15:16Z</time>
      </trkpt>
      <trkpt lat="37.419765" lon="-122.216104">
        <ele>93.9</ele>
        <time>2015-04-27T19:15:17Z</time>
      </trkpt>
      <trkpt lat="37.419785" lon="-122.216036">
        <ele>93.7</ele>
        <time>2015-04-27T19:15:18Z</time>
      </trkpt>
      <trkpt lat="37.419803" lon="-122.215998">
        <ele>93.7</ele>
        <time>2015-04-27T19:15:19Z</time>
      </trkpt>
      <trkpt lat="37.419809" lon="-122.215949">
        <ele>93.6</ele>
        <time>2015-04-27T19:15:20Z</time>
      </trkpt>
      <trkpt lat="37.419829" lon="-122.215904">
        <ele>93.5</ele>
        <time>2015-04-27T19:15:22Z</time>
      </trkpt>
      <trkpt lat="37.419848" lon="-122.21587">
        <ele>93.5</ele>
        <time>2015-04-27T19:15:23Z</time>
      </trkpt>
      <trkpt lat="37.419861" lon="-122.215829">
        <ele>93.4</ele>
        <time>2015-04-27T19:15:24Z</time>
      </trkpt>
      <trkpt lat="37.419877" lon="-122.215776">
        <ele>93.3</ele>
        <time>2015-04-27T19:15:25Z</time>
      </trkpt>
      <trkpt lat="37.419995" lon="-122.215432">
        <ele>93.1</ele>
        <time>2015-04-27T19:15:31Z</time>
      </trkpt>
      <trkpt lat="37.420016" lon="-122.21537">
        <ele>93.2</ele>
        <time>2015-04-27T19:15:33Z</time>
      </trkpt>
      <trkpt lat="37.42005" lon="-122.215251">
        <ele>93.1</ele>
        <time>2015-04-27T19:15:34Z</time>
      </trkpt>
      <trkpt lat="37.420074" lon="-122.215182">
        <ele>93.2</ele>
        <time>2015-04-27T19:15:35Z</time>
      </trkpt>
      <trkpt lat="37.420096" lon="-122.215115">
        <ele>93.2</ele>
        <time>2015-04-27T19:15:36Z</time>
      </trkpt>
      <trkpt lat="37.420117" lon="-122.215049">
        <ele>93.2</ele>
        <time>2015-04-27T19:15:37Z</time>
      </trkpt>
      <trkpt lat="37.420148" lon="-122.214985">
        <ele>93.3</ele>
        <time>2015-04-27T19:15:38Z</time>
      </trkpt>
      <trkpt lat="37.420161" lon="-122.214922">
        <ele>93.3</ele>
        <time>2015-04-27T19:15:39Z</time>
      </trkpt>
      <trkpt lat="37.420183" lon="-122.214848">
        <ele>93.3</ele>
        <time>2015-04-27T19:15:40Z</time>
      </trkpt>
      <trkpt lat="37.420206" lon="-122.21478">
        <ele>93.5</ele>
        <time>2015-04-27T19:15:41Z</time>
      </trkpt>
      <trkpt lat="37.420222" lon="-122.214706">
        <ele>93.5</ele>
        <time>2015-04-27T19:15:42Z</time>
      </trkpt>
      <trkpt lat="37.420237" lon="-122.21463">
        <ele>93.7</ele>
        <time>2015-04-27T19:15:43Z</time>
      </trkpt>
      <trkpt lat="37.420253" lon="-122.214561">
        <ele>93.8</ele>
        <time>2015-04-27T19:15:44Z</time>
      </trkpt>
      <trkpt lat="37.420274" lon="-122.214497">
        <ele>94.1</ele>
        <time>2015-04-27T19:15:45Z</time>
      </trkpt>
      <trkpt lat="37.420285" lon="-122.214447">
        <ele>94.2</ele>
        <time>2015-04-27T19:15:46Z</time>
      </trkpt>
      <trkpt lat="37.420305" lon="-122.214379">
        <ele>94.5</ele>
        <time>2015-04-27T19:15:47Z</time>
      </trkpt>
      <trkpt lat="37.420317" lon="-122.214321">
        <ele>94.7</ele>
        <time>2015-04-27T19:15:48Z</time>
      </trkpt>
      <trkpt lat="37.420332" lon="-122.214258">
        <ele>95</ele>
        <time>2015-04-27T19:15:49Z</time>
      </trkpt>
      <trkpt lat="37.420343" lon="-122.214201">
        <ele>95.2</ele>
        <time>2015-04-27T19:15:50Z</time>
      </trkpt>
      <trkpt lat="37.420355" lon="-122.214146">
        <ele>95.4</ele>
        <time>2015-04-27T19:15:51Z</time>
      </trkpt>
      <trkpt lat="37.420361" lon="-122.214067">
        <ele>95.6</ele>
        <time>2015-04-27T19:15:52Z</time>
      </trkpt>
      <trkpt lat="37.420375" lon="-122.213997">
        <ele>95.9</ele>
        <time>2015-04-27T19:15:53Z</time>
      </trkpt>
      <trkpt lat="37.42038" lon="-122.21393">
        <ele>96.1</ele>
        <time>2015-04-27T19:15:54Z</time>
      </trkpt>
      <trkpt lat="37.42038" lon="-122.213871">
        <ele>96.2</ele>
        <time>2015-04-27T19:15:55Z</time>
      </trkpt>
      <trkpt lat="37.420381" lon="-122.213814">
        <ele>96.4</ele>
        <time>2015-04-27T19:15:56Z</time>
      </trkpt>
      <trkpt lat="37.420388" lon="-122.213751">
        <ele>96.6</ele>
        <time>2015-04-27T19:15:57Z</time>
      </trkpt>
      <trkpt lat="37.420392" lon="-122.213691">
        <ele>96.9</ele>
        <time>2015-04-27T19:15:58Z</time>
      </trkpt>
      <trkpt lat="37.420387" lon="-122.213621">
        <ele>97</ele>
        <time>2015-04-27T19:15:59Z</time>
      </trkpt>
      <trkpt lat="37.420386" lon="-122.213562">
        <ele>97.2</ele>
        <time>2015-04-27T19:16:00Z</time>
      </trkpt>
      <trkpt lat="37.42039" lon="-122.213502">
        <ele>97.4</ele>
        <time>2015-04-27T19:16:01Z</time>
      </trkpt>
      <trkpt lat="37.420397" lon="-122.213438">
        <ele>97.7</ele>
        <time>2015-04-27T19:16:02Z</time>
      </trkpt>
      <trkpt lat="37.420386" lon="-122.213368">
        <ele>97.8</ele>
        <time>2015-04-27T19:16:04Z</time>
      </trkpt>
      <trkpt lat="37.42039" lon="-122.21324">
        <ele>98.2</ele>
        <time>2015-04-27T19:16:05Z</time>
      </trkpt>
      <trkpt lat="37.420386" lon="-122.213182">
        <ele>98.4</ele>
        <time>2015-04-27T19:16:06Z</time>
      </trkpt>
      <trkpt lat="37.420374" lon="-122.213131">
        <ele>98.5</ele>
        <time>2015-04-27T19:16:07Z</time>
      </trkpt>
      <trkpt lat="37.420373" lon="-122.213076">
        <ele>98.6</ele>
        <time>2015-04-27T19:16:08Z</time>
      </trkpt>
      <trkpt lat="37.420363" lon="-122.213021">
        <ele>98.8</ele>
        <time>2015-04-27T19:16:09Z</time>
      </trkpt>
      <trkpt lat="37.42036" lon="-122.212956">
        <ele>99</ele>
        <time>2015-04-27T19:16:10Z</time>
      </trkpt>
      <trkpt lat="37.42036" lon="-122.212892">
        <ele>99.1</ele>
        <time>2015-04-27T19:16:11Z</time>
      </trkpt>
      <trkpt lat="37.42036" lon="-122.212813">
        <ele>99.4</ele>
        <time>2015-04-27T19:16:12Z</time>
      </trkpt>
      <trkpt lat="37.42036" lon="-122.212758">
        <ele>99.5</ele>
        <time>2015-04-27T19:16:13Z</time>
      </trkpt>
      <trkpt lat="37.420362" lon="-122.212696">
        <ele>99.7</ele>
        <time>2015-04-27T19:16:14Z</time>
      </trkpt>
      <trkpt lat="37.420366" lon="-122.212632">
        <ele>99.9</ele>
        <time>2015-04-27T19:16:15Z</time>
      </trkpt>
      <trkpt lat="37.420366" lon="-122.212569">
        <ele>100.1</ele>
        <time>2015-04-27T19:16:16Z</time>
      </trkpt>
      <trkpt lat="37.420364" lon="-122.212511">
        <ele>100.3</ele>
        <time>2015-04-27T19:16:17Z</time>
      </trkpt>
      <trkpt lat="37.420366" lon="-122.212447">
        <ele>100.4</ele>
        <time>2015-04-27T19:16:18Z</time>
      </trkpt>
      <trkpt lat="37.420355" lon="-122.212387">
        <ele>100.6</ele>
        <time>2015-04-27T19:16:19Z</time>
      </trkpt>
      <trkpt lat="37.420355" lon="-122.212325">
        <ele>100.8</ele>
        <time>2015-04-27T19:16:20Z</time>
      </trkpt>
      <trkpt lat="37.420354" lon="-122.212266">
        <ele>100.9</ele>
        <time>2015-04-27T19:16:21Z</time>
      </trkpt>
      <trkpt lat="37.420345" lon="-122.212216">
        <ele>101.1</ele>
        <time>2015-04-27T19:16:22Z</time>
      </trkpt>
      <trkpt lat="37.420346" lon="-122.212161">
        <ele>101.2</ele>
        <time>2015-04-27T19:16:23Z</time>
      </trkpt>
      <trkpt lat="37.420346" lon="-122.212089">
        <ele>101.3</ele>
        <time>2015-04-27T19:16:24Z</time>
      </trkpt>
      <trkpt lat="37.420347" lon="-122.212029">
        <ele>101.4</ele>
        <time>2015-04-27T19:16:25Z</time>
      </trkpt>
      <trkpt lat="37.420343" lon="-122.211971">
        <ele>101.5</ele>
        <time>2015-04-27T19:16:26Z</time>
      </trkpt>
      <trkpt lat="37.420344" lon="-122.211913">
        <ele>101.6</ele>
        <time>2015-04-27T19:16:27Z</time>
      </trkpt>
      <trkpt lat="37.420345" lon="-122.211855">
        <ele>101.7</ele>
        <time>2015-04-27T19:16:28Z</time>
      </trkpt>
      <trkpt lat="37.420343" lon="-122.211799">
        <ele>101.8</ele>
        <time>2015-04-27T19:16:29Z</time>
      </trkpt>
      <trkpt lat="37.420344" lon="-122.211748">
        <ele>101.9</ele>
        <time>2015-04-27T19:16:30Z</time>
      </trkpt>
      <trkpt lat="37.420349" lon="-122.211698">
        <ele>101.9</ele>
        <time>2015-04-27T19:16:31Z</time>
      </trkpt>
      <trkpt lat="37.420358" lon="-122.211641">
        <ele>102</ele>
        <time>2015-04-27T19:16:32Z</time>
      </trkpt>
      <trkpt lat="37.420358" lon="-122.211596">
        <ele>102</ele>
        <time>2015-04-27T19:16:33Z</time>
      </trkpt>
      <trkpt lat="37.420355" lon="-122.211557">
        <ele>102.1</ele>
        <time>2015-04-27T19:16:34Z</time>
      </trkpt>
      <trkpt lat="37.420355" lon="-122.211517">
        <ele>102.1</ele>
        <time>2015-04-27T19:16:35Z</time>
      </trkpt>
      <trkpt lat="37.420347" lon="-122.211449">
        <ele>102.2</ele>
        <time>2015-04-27T19:16:37Z</time>
      </trkpt>
      <trkpt lat="37.420344" lon="-122.211382">
        <ele>102.2</ele>
        <time>2015-04-27T19:16:39Z</time>
      </trkpt>
      <trkpt lat="37.420349" lon="-122.211331">
        <ele>102.2</ele>
        <time>2015-04-27T19:16:40Z</time>
      </trkpt>
      <trkpt lat="37.420349" lon="-122.211283">
        <ele>102.2</ele>
        <time>2015-04-27T19:16:41Z</time>
      </trkpt>
      <trkpt lat="37.420347" lon="-122.211232">
        <ele>102.2</ele>
        <time>2015-04-27T19:16:42Z</time>
      </trkpt>
      <trkpt lat="37.420348" lon="-122.211174">
        <ele>102.2</ele>
        <time>2015-04-27T19:16:43Z</time>
      </trkpt>
      <trkpt lat="37.420342" lon="-122.211117">
        <ele>102.1</ele>
        <time>2015-04-27T19:16:44Z</time>
      </trkpt>
      <trkpt lat="37.420342" lon="-122.21106">
        <ele>102.1</ele>
        <time>2015-04-27T19:16:45Z</time>
      </trkpt>
      <trkpt lat="37.420344" lon="-122.210996">
        <ele>102.1</ele>
        <time>2015-04-27T19:16:46Z</time>
      </trkpt>
      <trkpt lat="37.420349" lon="-122.210929">
        <ele>102.1</ele>
        <time>2015-04-27T19:16:47Z</time>
      </trkpt>
      <trkpt lat="37.420347" lon="-122.210867">
        <ele>102</ele>
        <time>2015-04-27T19:16:48Z</time>
      </trkpt>
      <trkpt lat="37.420359" lon="-122.210801">
        <ele>102</ele>
        <time>2015-04-27T19:16:49Z</time>
      </trkpt>
      <trkpt lat="37.420357" lon="-122.210727">
        <ele>101.9</ele>
        <time>2015-04-27T19:16:50Z</time>
      </trkpt>
      <trkpt lat="37.420348" lon="-122.210661">
        <ele>101.7</ele>
        <time>2015-04-27T19:16:51Z</time>
      </trkpt>
      <trkpt lat="37.420355" lon="-122.210593">
        <ele>101.6</ele>
        <time>2015-04-27T19:16:52Z</time>
      </trkpt>
      <trkpt lat="37.42036" lon="-122.210526">
        <ele>101.6</ele>
        <time>2015-04-27T19:16:53Z</time>
      </trkpt>
      <trkpt lat="37.420369" lon="-122.21045">
        <ele>101.4</ele>
        <time>2015-04-27T19:16:54Z</time>
      </trkpt>
      <trkpt lat="37.420384" lon="-122.210363">
        <ele>101.3</ele>
        <time>2015-04-27T19:16:55Z</time>
      </trkpt>
      <trkpt lat="37.420385" lon="-122.210269">
        <ele>101.1</ele>
        <time>2015-04-27T19:16:56Z</time>
      </trkpt>
      <trkpt lat="37.420387" lon="-122.210193">
        <ele>100.9</ele>
        <time>2015-04-27T19:16:57Z</time>
      </trkpt>
      <trkpt lat="37.420399" lon="-122.210112">
        <ele>100.8</ele>
        <time>2015-04-27T19:16:58Z</time>
      </trkpt>
      <trkpt lat="37.420401" lon="-122.21003">
        <ele>100.5</ele>
        <time>2015-04-27T19:16:59Z</time>
      </trkpt>
      <trkpt lat="37.420409" lon="-122.209948">
        <ele>100.3</ele>
        <time>2015-04-27T19:17:00Z</time>
      </trkpt>
      <trkpt lat="37.420415" lon="-122.209863">
        <ele>100</ele>
        <time>2015-04-27T19:17:01Z</time>
      </trkpt>
      <trkpt lat="37.420419" lon="-122.209777">
        <ele>99.7</ele>
        <time>2015-04-27T19:17:02Z</time>
      </trkpt>
      <trkpt lat="37.420427" lon="-122.209675">
        <ele>99.4</ele>
        <time>2015-04-27T19:17:03Z</time>
      </trkpt>
      <trkpt lat="37.420425" lon="-122.209591">
        <ele>99.1</ele>
        <time>2015-04-27T19:17:04Z</time>
      </trkpt>
      <trkpt lat="37.420436" lon="-122.209488">
        <ele>98.7</ele>
        <time>2015-04-27T19:17:05Z</time>
      </trkpt>
      <trkpt lat="37.420446" lon="-122.209388">
        <ele>98.4</ele>
        <time>2015-04-27T19:17:06Z</time>
      </trkpt>
      <trkpt lat="37.420449" lon="-122.209288">
        <ele>98</ele>
        <time>2015-04-27T19:17:07Z</time>
      </trkpt>
      <trkpt lat="37.42046" lon="-122.209191">
        <ele>97.6</ele>
        <time>2015-04-27T19:17:08Z</time>
      </trkpt>
      <trkpt lat="37.420476" lon="-122.20907">
        <ele>97.1</ele>
        <time>2015-04-27T19:17:09Z</time>
      </trkpt>
      <trkpt lat="37.420499" lon="-122.208958">
        <ele>96.7</ele>
        <time>2015-04-27T19:17:10Z</time>
      </trkpt>
      <trkpt lat="37.420515" lon="-122.208843">
        <ele>96.3</ele>
        <time>2015-04-27T19:17:11Z</time>
      </trkpt>
      <trkpt lat="37.420524" lon="-122.20873">
        <ele>95.8</ele>
        <time>2015-04-27T19:17:12Z</time>
      </trkpt>
      <trkpt lat="37.420548" lon="-122.208615">
        <ele>95.3</ele>
        <time>2015-04-27T19:17:13Z</time>
      </trkpt>
      <trkpt lat="37.420572" lon="-122.208484">
        <ele>94.9</ele>
        <time>2015-04-27T19:17:14Z</time>
      </trkpt>
      <trkpt lat="37.420597" lon="-122.208364">
        <ele>94.5</ele>
        <time>2015-04-27T19:17:15Z</time>
      </trkpt>
      <trkpt lat="37.420618" lon="-122.208246">
        <ele>94</ele>
        <time>2015-04-27T19:17:16Z</time>
      </trkpt>
      <trkpt lat="37.420641" lon="-122.20812">
        <ele>93.5</ele>
        <time>2015-04-27T19:17:17Z</time>
      </trkpt>
      <trkpt lat="37.420661" lon="-122.207992">
        <ele>93</ele>
        <time>2015-04-27T19:17:18Z</time>
      </trkpt>
      <trkpt lat="37.420687" lon="-122.207855">
        <ele>92.5</ele>
        <time>2015-04-27T19:17:19Z</time>
      </trkpt>
      <trkpt lat="37.420708" lon="-122.207727">
        <ele>92</ele>
        <time>2015-04-27T19:17:20Z</time>
      </trkpt>
      <trkpt lat="37.42074" lon="-122.207591">
        <ele>91.5</ele>
        <time>2015-04-27T19:17:21Z</time>
      </trkpt>
      <trkpt lat="37.420768" lon="-122.207463">
        <ele>91</ele>
        <time>2015-04-27T19:17:22Z</time>
      </trkpt>
      <trkpt lat="37.420801" lon="-122.207328">
        <ele>90.5</ele>
        <time>2015-04-27T19:17:23Z</time>
      </trkpt>
      <trkpt lat="37.42083" lon="-122.2072">
        <ele>90</ele>
        <time>2015-04-27T19:17:24Z</time>
      </trkpt>
      <trkpt lat="37.420864" lon="-122.207068">
        <ele>89.5</ele>
        <time>2015-04-27T19:17:25Z</time>
      </trkpt>
      <trkpt lat="37.420886" lon="-122.206939">
        <ele>89</ele>
        <time>2015-04-27T19:17:26Z</time>
      </trkpt>
      <trkpt lat="37.420918" lon="-122.206801">
        <ele>88.5</ele>
        <time>2015-04-27T19:17:27Z</time>
      </trkpt>
      <trkpt lat="37.42094" lon="-122.206665">
        <ele>87.9</ele>
        <time>2015-04-27T19:17:28Z</time>
      </trkpt>
      <trkpt lat="37.420958" lon="-122.206526">
        <ele>87.4</ele>
        <time>2015-04-27T19:17:29Z</time>
      </trkpt>
      <trkpt lat="37.420981" lon="-122.20639">
        <ele>86.9</ele>
        <time>2015-04-27T19:17:30Z</time>
      </trkpt>
      <trkpt lat="37.421005" lon="-122.206257">
        <ele>86.4</ele>
        <time>2015-04-27T19:17:31Z</time>
      </trkpt>
      <trkpt lat="37.421027" lon="-122.20612">
        <ele>85.9</ele>
        <time>2015-04-27T19:17:32Z</time>
      </trkpt>
      <trkpt lat="37.421048" lon="-122.205976">
        <ele>85.3</ele>
        <time>2015-04-27T19:17:33Z</time>
      </trkpt>
      <trkpt lat="37.421073" lon="-122.205843">
        <ele>84.8</ele>
        <time>2015-04-27T19:17:34Z</time>
      </trkpt>
      <trkpt lat="37.421105" lon="-122.205708">
        <ele>84.1</ele>
        <time>2015-04-27T19:17:35Z</time>
      </trkpt>
      <trkpt lat="37.421125" lon="-122.205564">
        <ele>83.4</ele>
        <time>2015-04-27T19:17:36Z</time>
      </trkpt>
      <trkpt lat="37.421149" lon="-122.205425">
        <ele>82.8</ele>
        <time>2015-04-27T19:17:37Z</time>
      </trkpt>
      <trkpt lat="37.421156" lon="-122.205274">
        <ele>82.2</ele>
        <time>2015-04-27T19:17:38Z</time>
      </trkpt>
      <trkpt lat="37.421169" lon="-122.20513">
        <ele>81.6</ele>
        <time>2015-04-27T19:17:39Z</time>
      </trkpt>
      <trkpt lat="37.42119" lon="-122.204974">
        <ele>80.9</ele>
        <time>2015-04-27T19:17:40Z</time>
      </trkpt>
      <trkpt lat="37.42121" lon="-122.204832">
        <ele>80.2</ele>
        <time>2015-04-27T19:17:41Z</time>
      </trkpt>
      <trkpt lat="37.421227" lon="-122.204681">
        <ele>79.6</ele>
        <time>2015-04-27T19:17:42Z</time>
      </trkpt>
      <trkpt lat="37.421238" lon="-122.204548">
        <ele>79</ele>
        <time>2015-04-27T19:17:43Z</time>
      </trkpt>
      <trkpt lat="37.421255" lon="-122.204398">
        <ele>78.3</ele>
        <time>2015-04-27T19:17:44Z</time>
      </trkpt>
      <trkpt lat="37.421266" lon="-122.204282">
        <ele>77.9</ele>
        <time>2015-04-27T19:17:45Z</time>
      </trkpt>
      <trkpt lat="37.421276" lon="-122.204151">
        <ele>77.4</ele>
        <time>2015-04-27T19:17:46Z</time>
      </trkpt>
      <trkpt lat="37.421294" lon="-122.203973">
        <ele>76.7</ele>
        <time>2015-04-27T19:17:47Z</time>
      </trkpt>
      <trkpt lat="37.421305" lon="-122.203824">
        <ele>76.3</ele>
        <time>2015-04-27T19:17:48Z</time>
      </trkpt>
      <trkpt lat="37.421318" lon="-122.203674">
        <ele>75.9</ele>
        <time>2015-04-27T19:17:49Z</time>
      </trkpt>
      <trkpt lat="37.421323" lon="-122.203535">
        <ele>75.6</ele>
        <time>2015-04-27T19:17:50Z</time>
      </trkpt>
      <trkpt lat="37.421334" lon="-122.203399">
        <ele>75.2</ele>
        <time>2015-04-27T19:17:51Z</time>
      </trkpt>
      <trkpt lat="37.421353" lon="-122.203259">
        <ele>74.9</ele>
        <time>2015-04-27T19:17:52Z</time>
      </trkpt>
      <trkpt lat="37.421362" lon="-122.203119">
        <ele>74.7</ele>
        <time>2015-04-27T19:17:53Z</time>
      </trkpt>
      <trkpt lat="37.421383" lon="-122.202974">
        <ele>74.5</ele>
        <time>2015-04-27T19:17:54Z</time>
      </trkpt>
      <trkpt lat="37.421397" lon="-122.202817">
        <ele>74.4</ele>
        <time>2015-04-27T19:17:55Z</time>
      </trkpt>
      <trkpt lat="37.421408" lon="-122.202686">
        <ele>74.3</ele>
        <time>2015-04-27T19:17:56Z</time>
      </trkpt>
      <trkpt lat="37.421423" lon="-122.202538">
        <ele>74.2</ele>
        <time>2015-04-27T19:17:57Z</time>
      </trkpt>
      <trkpt lat="37.421437" lon="-122.202388">
        <ele>74</ele>
        <time>2015-04-27T19:17:58Z</time>
      </trkpt>
      <trkpt lat="37.421453" lon="-122.202243">
        <ele>73.9</ele>
        <time>2015-04-27T19:17:59Z</time>
      </trkpt>
      <trkpt lat="37.421469" lon="-122.202102">
        <ele>73.7</ele>
        <time>2015-04-27T19:18:00Z</time>
      </trkpt>
      <trkpt lat="37.421487" lon="-122.201956">
        <ele>73.5</ele>
        <time>2015-04-27T19:18:01Z</time>
      </trkpt>
      <trkpt lat="37.421502" lon="-122.201814">
        <ele>73.3</ele>
        <time>2015-04-27T19:18:02Z</time>
      </trkpt>
      <trkpt lat="37.421515" lon="-122.201673">
        <ele>73.1</ele>
        <time>2015-04-27T19:18:03Z</time>
      </trkpt>
      <trkpt lat="37.421531" lon="-122.201526">
        <ele>72.9</ele>
        <time>2015-04-27T19:18:04Z</time>
      </trkpt>
      <trkpt lat="37.42155" lon="-122.201387">
        <ele>72.6</ele>
        <time>2015-04-27T19:18:05Z</time>
      </trkpt>
      <trkpt lat="37.421568" lon="-122.201243">
        <ele>72.2</ele>
        <time>2015-04-27T19:18:06Z</time>
      </trkpt>
      <trkpt lat="37.421591" lon="-122.201091">
        <ele>71.9</ele>
        <time>2015-04-27T19:18:07Z</time>
      </trkpt>
      <trkpt lat="37.421611" lon="-122.200955">
        <ele>71.5</ele>
        <time>2015-04-27T19:18:08Z</time>
      </trkpt>
      <trkpt lat="37.421626" lon="-122.200815">
        <ele>71.1</ele>
        <time>2015-04-27T19:18:09Z</time>
      </trkpt>
      <trkpt lat="37.421646" lon="-122.200688">
        <ele>70.8</ele>
        <time>2015-04-27T19:18:10Z</time>
      </trkpt>
      <trkpt lat="37.421666" lon="-122.200556">
        <ele>70.4</ele>
        <time>2015-04-27T19:18:11Z</time>
      </trkpt>
      <trkpt lat="37.421688" lon="-122.200425">
        <ele>70.1</ele>
        <time>2015-04-27T19:18:12Z</time>
      </trkpt>
      <trkpt lat="37.421717" lon="-122.200292">
        <ele>69.6</ele>
        <time>2015-04-27T19:18:13Z</time>
      </trkpt>
      <trkpt lat="37.421739" lon="-122.200176">
        <ele>69.4</ele>
        <time>2015-04-27T19:18:14Z</time>
      </trkpt>
      <trkpt lat="37.42177" lon="-122.200045">
        <ele>69</ele>
        <time>2015-04-27T19:18:15Z</time>
      </trkpt>
      <trkpt lat="37.421796" lon="-122.199919">
        <ele>68.6</ele>
        <time>2015-04-27T19:18:16Z</time>
      </trkpt>
      <trkpt lat="37.421815" lon="-122.19981">
        <ele>68.3</ele>
        <time>2015-04-27T19:18:17Z</time>
      </trkpt>
      <trkpt lat="37.421837" lon="-122.199692">
        <ele>68</ele>
        <time>2015-04-27T19:18:18Z</time>
      </trkpt>
      <trkpt lat="37.421858" lon="-122.199564">
        <ele>67.7</ele>
        <time>2015-04-27T19:18:19Z</time>
      </trkpt>
      <trkpt lat="37.421891" lon="-122.199431">
        <ele>67.3</ele>
        <time>2015-04-27T19:18:20Z</time>
      </trkpt>
      <trkpt lat="37.421925" lon="-122.199296">
        <ele>66.9</ele>
        <time>2015-04-27T19:18:21Z</time>
      </trkpt>
      <trkpt lat="37.421958" lon="-122.199166">
        <ele>66.6</ele>
        <time>2015-04-27T19:18:22Z</time>
      </trkpt>
      <trkpt lat="37.421989" lon="-122.199041">
        <ele>66.2</ele>
        <time>2015-04-27T19:18:23Z</time>
      </trkpt>
      <trkpt lat="37.422016" lon="-122.19892">
        <ele>65.9</ele>
        <time>2015-04-27T19:18:24Z</time>
      </trkpt>
      <trkpt lat="37.422051" lon="-122.1988">
        <ele>65.6</ele>
        <time>2015-04-27T19:18:25Z</time>
      </trkpt>
      <trkpt lat="37.422086" lon="-122.198672">
        <ele>65.3</ele>
        <time>2015-04-27T19:18:26Z</time>
      </trkpt>
      <trkpt lat="37.422112" lon="-122.198575">
        <ele>65.1</ele>
        <time>2015-04-27T19:18:27Z</time>
      </trkpt>
      <trkpt lat="37.422159" lon="-122.198428">
        <ele>64.8</ele>
        <time>2015-04-27T19:18:28Z</time>
      </trkpt>
      <trkpt lat="37.422194" lon="-122.19831">
        <ele>64.6</ele>
        <time>2015-04-27T19:18:29Z</time>
      </trkpt>
      <trkpt lat="37.422232" lon="-122.198188">
        <ele>64.3</ele>
        <time>2015-04-27T19:18:30Z</time>
      </trkpt>
      <trkpt lat="37.42227" lon="-122.198077">
        <ele>64.2</ele>
        <time>2015-04-27T19:18:31Z</time>
      </trkpt>
      <trkpt lat="37.422307" lon="-122.197961">
        <ele>64</ele>
        <time>2015-04-27T19:18:32Z</time>
      </trkpt>
      <trkpt lat="37.422351" lon="-122.197844">
        <ele>63.8</ele>
        <time>2015-04-27T19:18:33Z</time>
      </trkpt>
      <trkpt lat="37.422395" lon="-122.197739">
        <ele>63.7</ele>
        <time>2015-04-27T19:18:34Z</time>
      </trkpt>
      <trkpt lat="37.422436" lon="-122.197633">
        <ele>63.5</ele>
        <time>2015-04-27T19:18:35Z</time>
      </trkpt>
      <trkpt lat="37.422483" lon="-122.197522">
        <ele>63.3</ele>
        <time>2015-04-27T19:18:36Z</time>
      </trkpt>
      <trkpt lat="37.422532" lon="-122.19741">
        <ele>63.1</ele>
        <time>2015-04-27T19:18:37Z</time>
      </trkpt>
      <trkpt lat="37.422571" lon="-122.197299">
        <ele>62.9</ele>
        <time>2015-04-27T19:18:38Z</time>
      </trkpt>
      <trkpt lat="37.422616" lon="-122.197195">
        <ele>62.8</ele>
        <time>2015-04-27T19:18:39Z</time>
      </trkpt>
      <trkpt lat="37.42266" lon="-122.197099">
        <ele>62.7</ele>
        <time>2015-04-27T19:18:40Z</time>
      </trkpt>
      <trkpt lat="37.422713" lon="-122.196994">
        <ele>62.5</ele>
        <time>2015-04-27T19:18:41Z</time>
      </trkpt>
      <trkpt lat="37.422762" lon="-122.196899">
        <ele>62.4</ele>
        <time>2015-04-27T19:18:42Z</time>
      </trkpt>
      <trkpt lat="37.422812" lon="-122.196804">
        <ele>62.2</ele>
        <time>2015-04-27T19:18:43Z</time>
      </trkpt>
      <trkpt lat="37.422861" lon="-122.196708">
        <ele>62</ele>
        <time>2015-04-27T19:18:44Z</time>
      </trkpt>
      <trkpt lat="37.422914" lon="-122.196597">
        <ele>61.7</ele>
        <time>2015-04-27T19:18:45Z</time>
      </trkpt>
      <trkpt lat="37.422963" lon="-122.196501">
        <ele>61.4</ele>
        <time>2015-04-27T19:18:46Z</time>
      </trkpt>
      <trkpt lat="37.423012" lon="-122.196403">
        <ele>61.1</ele>
        <time>2015-04-27T19:18:47Z</time>
      </trkpt>
      <trkpt lat="37.42305" lon="-122.196309">
        <ele>61</ele>
        <time>2015-04-27T19:18:48Z</time>
      </trkpt>
      <trkpt lat="37.423104" lon="-122.196218">
        <ele>60.7</ele>
        <time>2015-04-27T19:18:49Z</time>
      </trkpt>
      <trkpt lat="37.423166" lon="-122.196119">
        <ele>60.4</ele>
        <time>2015-04-27T19:18:50Z</time>
      </trkpt>
      <trkpt lat="37.423218" lon="-122.196025">
        <ele>60.1</ele>
        <time>2015-04-27T19:18:51Z</time>
      </trkpt>
      <trkpt lat="37.423274" lon="-122.195931">
        <ele>59.9</ele>
        <time>2015-04-27T19:18:52Z</time>
      </trkpt>
      <trkpt lat="37.423322" lon="-122.195869">
        <ele>59.7</ele>
        <time>2015-04-27T19:18:53Z</time>
      </trkpt>
      <trkpt lat="37.423385" lon="-122.19577">
        <ele>59.4</ele>
        <time>2015-04-27T19:18:54Z</time>
      </trkpt>
      <trkpt lat="37.423445" lon="-122.195681">
        <ele>59.1</ele>
        <time>2015-04-27T19:18:55Z</time>
      </trkpt>
      <trkpt lat="37.423506" lon="-122.195585">
        <ele>58.8</ele>
        <time>2015-04-27T19:18:56Z</time>
      </trkpt>
      <trkpt lat="37.423572" lon="-122.195488">
        <ele>58.5</ele>
        <time>2015-04-27T19:18:57Z</time>
      </trkpt>
      <trkpt lat="37.423643" lon="-122.195387">
        <ele>58.3</ele>
        <time>2015-04-27T19:18:58Z</time>
      </trkpt>
      <trkpt lat="37.423705" lon="-122.195299">
        <ele>58</ele>
        <time>2015-04-27T19:18:59Z</time>
      </trkpt>
      <trkpt lat="37.42373" lon="-122.195262">
        <ele>57.9</ele>
        <time>2015-04-27T19:19:00Z</time>
      </trkpt>
      <trkpt lat="37.423835" lon="-122.195113">
        <ele>57.4</ele>
        <time>2015-04-27T19:19:01Z</time>
      </trkpt>
      <trkpt lat="37.423898" lon="-122.195025">
        <ele>57.1</ele>
        <time>2015-04-27T19:19:02Z</time>
      </trkpt>
      <trkpt lat="37.423973" lon="-122.194931">
        <ele>56.9</ele>
        <time>2015-04-27T19:19:03Z</time>
      </trkpt>
      <trkpt lat="37.42404" lon="-122.194843">
        <ele>56.5</ele>
        <time>2015-04-27T19:19:04Z</time>
      </trkpt>
      <trkpt lat="37.424105" lon="-122.194749">
        <ele>56.3</ele>
        <time>2015-04-27T19:19:05Z</time>
      </trkpt>
      <trkpt lat="37.424172" lon="-122.194654">
        <ele>55.9</ele>
        <time>2015-04-27T19:19:06Z</time>
      </trkpt>
      <trkpt lat="37.424232" lon="-122.194575">
        <ele>55.8</ele>
        <time>2015-04-27T19:19:07Z</time>
      </trkpt>
      <trkpt lat="37.424303" lon="-122.194468">
        <ele>55.4</ele>
        <time>2015-04-27T19:19:08Z</time>
      </trkpt>
      <trkpt lat="37.424365" lon="-122.194376">
        <ele>55.2</ele>
        <time>2015-04-27T19:19:09Z</time>
      </trkpt>
      <trkpt lat="37.424434" lon="-122.194285">
        <ele>54.9</ele>
        <time>2015-04-27T19:19:10Z</time>
      </trkpt>
      <trkpt lat="37.424498" lon="-122.194185">
        <ele>54.6</ele>
        <time>2015-04-27T19:19:11Z</time>
      </trkpt>
      <trkpt lat="37.424558" lon="-122.194086">
        <ele>54.3</ele>
        <time>2015-04-27T19:19:12Z</time>
      </trkpt>
      <trkpt lat="37.424625" lon="-122.193993">
        <ele>54</ele>
        <time>2015-04-27T19:19:13Z</time>
      </trkpt>
      <trkpt lat="37.42469" lon="-122.193892">
        <ele>53.8</ele>
        <time>2015-04-27T19:19:14Z</time>
      </trkpt>
      <trkpt lat="37.424755" lon="-122.193799">
        <ele>53.4</ele>
        <time>2015-04-27T19:19:15Z</time>
      </trkpt>
      <trkpt lat="37.424824" lon="-122.193712">
        <ele>53.2</ele>
        <time>2015-04-27T19:19:16Z</time>
      </trkpt>
      <trkpt lat="37.424896" lon="-122.193612">
        <ele>52.8</ele>
        <time>2015-04-27T19:19:17Z</time>
      </trkpt>
      <trkpt lat="37.424963" lon="-122.193522">
        <ele>52.5</ele>
        <time>2015-04-27T19:19:18Z</time>
      </trkpt>
      <trkpt lat="37.425028" lon="-122.193429">
        <ele>52.1</ele>
        <time>2015-04-27T19:19:19Z</time>
      </trkpt>
      <trkpt lat="37.425094" lon="-122.193339">
        <ele>51.7</ele>
        <time>2015-04-27T19:19:20Z</time>
      </trkpt>
      <trkpt lat="37.425141" lon="-122.193265">
        <ele>51.2</ele>
        <time>2015-04-27T19:19:21Z</time>
      </trkpt>
      <trkpt lat="37.425204" lon="-122.193165">
        <ele>50.9</ele>
        <time>2015-04-27T19:19:22Z</time>
      </trkpt>
      <trkpt lat="37.425275" lon="-122.193056">
        <ele>50.3</ele>
        <time>2015-04-27T19:19:23Z</time>
      </trkpt>
      <trkpt lat="37.425338" lon="-122.192966">
        <ele>49.9</ele>
        <time>2015-04-27T19:19:24Z</time>
      </trkpt>
      <trkpt lat="37.42539" lon="-122.192876">
        <ele>49.4</ele>
        <time>2015-04-27T19:19:25Z</time>
      </trkpt>
      <trkpt lat="37.425443" lon="-122.192812">
        <ele>49</ele>
        <time>2015-04-27T19:19:26Z</time>
      </trkpt>
      <trkpt lat="37.425486" lon="-122.192736">
        <ele>48.6</ele>
        <time>2015-04-27T19:19:27Z</time>
      </trkpt>
      <trkpt lat="37.425513" lon="-122.192687">
        <ele>48.4</ele>
        <time>2015-04-27T19:19:28Z</time>
      </trkpt>
      <trkpt lat="37.425539" lon="-122.192658">
        <ele>48.3</ele>
        <time>2015-04-27T19:19:29Z</time>
      </trkpt>
      <trkpt lat="37.425561" lon="-122.192592">
        <ele>48.1</ele>
        <time>2015-04-27T19:19:31Z</time>
      </trkpt>
      <trkpt lat="37.425591" lon="-122.192543">
        <ele>47.9</ele>
        <time>2015-04-27T19:19:33Z</time>
      </trkpt>
      <trkpt lat="37.425612" lon="-122.192512">
        <ele>47.8</ele>
        <time>2015-04-27T19:19:34Z</time>
      </trkpt>
      <trkpt lat="37.425642" lon="-122.192459">
        <ele>47.7</ele>
        <time>2015-04-27T19:19:36Z</time>
      </trkpt>
      <trkpt lat="37.425659" lon="-122.19243">
        <ele>47.7</ele>
        <time>2015-04-27T19:19:37Z</time>
      </trkpt>
      <trkpt lat="37.42561" lon="-122.192375">
        <ele>47.6</ele>
        <time>2015-04-27T19:19:38Z</time>
      </trkpt>
      <trkpt lat="37.425601" lon="-122.192335">
        <ele>47.6</ele>
        <time>2015-04-27T19:19:39Z</time>
      </trkpt>
      <trkpt lat="37.425612" lon="-122.192281">
        <ele>47.6</ele>
        <time>2015-04-27T19:19:40Z</time>
      </trkpt>
      <trkpt lat="37.425578" lon="-122.192251">
        <ele>47.6</ele>
        <time>2015-04-27T19:19:41Z</time>
      </trkpt>
      <trkpt lat="37.425544" lon="-122.192218">
        <ele>47.6</ele>
        <time>2015-04-27T19:19:42Z</time>
      </trkpt>
      <trkpt lat="37.425517" lon="-122.192167">
        <ele>47.7</ele>
        <time>2015-04-27T19:19:43Z</time>
      </trkpt>
      <trkpt lat="37.425481" lon="-122.192136">
        <ele>47.7</ele>
        <time>2015-04-27T19:19:44Z</time>
      </trkpt>
      <trkpt lat="37.425439" lon="-122.192094">
        <ele>47.7</ele>
        <time>2015-04-27T19:19:46Z</time>
      </trkpt>
      <trkpt lat="37.425359" lon="-122.192002">
        <ele>47.9</ele>
        <time>2015-04-27T19:19:47Z</time>
      </trkpt>
      <trkpt lat="37.425327" lon="-122.191958">
        <ele>48</ele>
        <time>2015-04-27T19:19:49Z</time>
      </trkpt>
      <trkpt lat="37.425294" lon="-122.19193">
        <ele>48.1</ele>
        <time>2015-04-27T19:19:50Z</time>
      </trkpt>
      <trkpt lat="37.425273" lon="-122.191873">
        <ele>48.2</ele>
        <time>2015-04-27T19:19:51Z</time>
      </trkpt>
      <trkpt lat="37.425201" lon="-122.191815">
        <ele>48.2</ele>
        <time>2015-04-27T19:19:52Z</time>
      </trkpt>
      <trkpt lat="37.425162" lon="-122.191786">
        <ele>48.3</ele>
        <time>2015-04-27T19:19:53Z</time>
      </trkpt>
      <trkpt lat="37.425099" lon="-122.191761">
        <ele>48.2</ele>
        <time>2015-04-27T19:19:54Z</time>
      </trkpt>
      <trkpt lat="37.425056" lon="-122.191747">
        <ele>48.2</ele>
        <time>2015-04-27T19:19:55Z</time>
      </trkpt>
      <trkpt lat="37.42501" lon="-122.191731">
        <ele>48.1</ele>
        <time>2015-04-27T19:19:56Z</time>
      </trkpt>
      <trkpt lat="37.424953" lon="-122.191713">
        <ele>48</ele>
        <time>2015-04-27T19:19:57Z</time>
      </trkpt>
      <trkpt lat="37.424879" lon="-122.191688">
        <ele>47.9</ele>
        <time>2015-04-27T19:19:59Z</time>
      </trkpt>
      <trkpt lat="37.424763" lon="-122.191682">
        <ele>47.5</ele>
        <time>2015-04-27T19:20:00Z</time>
      </trkpt>
      <trkpt lat="37.424696" lon="-122.19168">
        <ele>47.5</ele>
        <time>2015-04-27T19:20:01Z</time>
      </trkpt>
      <trkpt lat="37.424621" lon="-122.191694">
        <ele>47.4</ele>
        <time>2015-04-27T19:20:02Z</time>
      </trkpt>
      <trkpt lat="37.424555" lon="-122.191692">
        <ele>47.3</ele>
        <time>2015-04-27T19:20:03Z</time>
      </trkpt>
      <trkpt lat="37.424528" lon="-122.191706">
        <ele>47.4</ele>
        <time>2015-04-27T19:20:04Z</time>
      </trkpt>
      <trkpt lat="37.424466" lon="-122.191644">
        <ele>47.4</ele>
        <time>2015-04-27T19:20:06Z</time>
      </trkpt>
      <trkpt lat="37.424438" lon="-122.191296">
        <ele>46</ele>
        <time>2015-04-27T19:20:08Z</time>
      </trkpt>
      <trkpt lat="37.424422" lon="-122.191197">
        <ele>44.7</ele>
        <time>2015-04-27T19:20:09Z</time>
      </trkpt>
      <trkpt lat="37.424413" lon="-122.191095">
        <ele>40.3</ele>
        <time>2015-04-27T19:20:10Z</time>
      </trkpt>
      <trkpt lat="37.424397" lon="-122.191005">
        <ele>37.5</ele>
        <time>2015-04-27T19:20:11Z</time>
      </trkpt>
      <trkpt lat="37.424379" lon="-122.190909">
        <ele>34.4</ele>
        <time>2015-04-27T19:20:12Z</time>
      </trkpt>
      <trkpt lat="37.424366" lon="-122.190798">
        <ele>33.7</ele>
        <time>2015-04-27T19:20:13Z</time>
      </trkpt>
      <trkpt lat="37.424356" lon="-122.19069">
        <ele>34</ele>
        <time>2015-04-27T19:20:14Z</time>
      </trkpt>
      <trkpt lat="37.424347" lon="-122.190587">
        <ele>36.6</ele>
        <time>2015-04-27T19:20:15Z</time>
      </trkpt>
      <trkpt lat="37.424321" lon="-122.190473">
        <ele>38.4</ele>
        <time>2015-04-27T19:20:16Z</time>
      </trkpt>
      <trkpt lat="37.424309" lon="-122.190355">
        <ele>40.9</ele>
        <time>2015-04-27T19:20:17Z</time>
      </trkpt>
      <trkpt lat="37.424295" lon="-122.190236">
        <ele>42.5</ele>
        <time>2015-04-27T19:20:18Z</time>
      </trkpt>
      <trkpt lat="37.424283" lon="-122.190123">
        <ele>42.3</ele>
        <time>2015-04-27T19:20:19Z</time>
      </trkpt>
      <trkpt lat="37.424276" lon="-122.190003">
        <ele>42.3</ele>
        <time>2015-04-27T19:20:20Z</time>
      </trkpt>
      <trkpt lat="37.424255" lon="-122.189892">
        <ele>42.3</ele>
        <time>2015-04-27T19:20:21Z</time>
      </trkpt>
      <trkpt lat="37.42424" lon="-122.189767">
        <ele>42.4</ele>
        <time>2015-04-27T19:20:22Z</time>
      </trkpt>
      <trkpt lat="37.424209" lon="-122.189681">
        <ele>42.3</ele>
        <time>2015-04-27T19:20:23Z</time>
      </trkpt>
      <trkpt lat="37.42418" lon="-122.189585">
        <ele>42.5</ele>
        <time>2015-04-27T19:20:24Z</time>
      </trkpt>
      <trkpt lat="37.424138" lon="-122.189501">
        <ele>42.5</ele>
        <time>2015-04-27T19:20:25Z</time>
      </trkpt>
      <trkpt lat="37.424099" lon="-122.189418">
        <ele>42.6</ele>
        <time>2015-04-27T19:20:26Z</time>
      </trkpt>
      <trkpt lat="37.424045" lon="-122.189339">
        <ele>42.6</ele>
        <time>2015-04-27T19:20:27Z</time>
      </trkpt>
      <trkpt lat="37.424006" lon="-122.189254">
        <ele>42.7</ele>
        <time>2015-04-27T19:20:29Z</time>
      </trkpt>
      <trkpt lat="37.423968" lon="-122.189173">
        <ele>42.8</ele>
        <time>2015-04-27T19:20:30Z</time>
      </trkpt>
      <trkpt lat="37.42387" lon="-122.189027">
        <ele>43</ele>
        <time>2015-04-27T19:20:31Z</time>
      </trkpt>
      <trkpt lat="37.423837" lon="-122.188944">
        <ele>43.2</ele>
        <time>2015-04-27T19:20:32Z</time>
      </trkpt>
      <trkpt lat="37.423802" lon="-122.188859">
        <ele>43.4</ele>
        <time>2015-04-27T19:20:33Z</time>
      </trkpt>
      <trkpt lat="37.423748" lon="-122.188797">
        <ele>43.5</ele>
        <time>2015-04-27T19:20:34Z</time>
      </trkpt>
      <trkpt lat="37.423707" lon="-122.188725">
        <ele>43.7</ele>
        <time>2015-04-27T19:20:35Z</time>
      </trkpt>
      <trkpt lat="37.423667" lon="-122.188665">
        <ele>43.8</ele>
        <time>2015-04-27T19:20:36Z</time>
      </trkpt>
      <trkpt lat="37.423616" lon="-122.188592">
        <ele>44</ele>
        <time>2015-04-27T19:20:37Z</time>
      </trkpt>
      <trkpt lat="37.423575" lon="-122.188527">
        <ele>44.2</ele>
        <time>2015-04-27T19:20:38Z</time>
      </trkpt>
      <trkpt lat="37.42353" lon="-122.188452">
        <ele>44.5</ele>
        <time>2015-04-27T19:20:40Z</time>
      </trkpt>
      <trkpt lat="37.423455" lon="-122.188321">
        <ele>45</ele>
        <time>2015-04-27T19:20:41Z</time>
      </trkpt>
      <trkpt lat="37.42342" lon="-122.188263">
        <ele>45.2</ele>
        <time>2015-04-27T19:20:42Z</time>
      </trkpt>
      <trkpt lat="37.423374" lon="-122.188206">
        <ele>45.4</ele>
        <time>2015-04-27T19:20:43Z</time>
      </trkpt>
      <trkpt lat="37.423335" lon="-122.18815">
        <ele>45.7</ele>
        <time>2015-04-27T19:20:44Z</time>
      </trkpt>
      <trkpt lat="37.423296" lon="-122.188085">
        <ele>45.9</ele>
        <time>2015-04-27T19:20:45Z</time>
      </trkpt>
      <trkpt lat="37.423256" lon="-122.188019">
        <ele>46.1</ele>
        <time>2015-04-27T19:20:46Z</time>
      </trkpt>
      <trkpt lat="37.423217" lon="-122.187963">
        <ele>46.3</ele>
        <time>2015-04-27T19:20:47Z</time>
      </trkpt>
      <trkpt lat="37.423188" lon="-122.187889">
        <ele>46.6</ele>
        <time>2015-04-27T19:20:48Z</time>
      </trkpt>
      <trkpt lat="37.423164" lon="-122.187804">
        <ele>46.9</ele>
        <time>2015-04-27T19:20:50Z</time>
      </trkpt>
      <trkpt lat="37.423103" lon="-122.187658">
        <ele>47.4</ele>
        <time>2015-04-27T19:20:51Z</time>
      </trkpt>
      <trkpt lat="37.423075" lon="-122.187595">
        <ele>47.6</ele>
        <time>2015-04-27T19:20:53Z</time>
      </trkpt>
      <trkpt lat="37.423008" lon="-122.187467">
        <ele>48</ele>
        <time>2015-04-27T19:20:54Z</time>
      </trkpt>
      <trkpt lat="37.422973" lon="-122.18741">
        <ele>48.3</ele>
        <time>2015-04-27T19:20:55Z</time>
      </trkpt>
      <trkpt lat="37.422943" lon="-122.187352">
        <ele>48.5</ele>
        <time>2015-04-27T19:20:56Z</time>
      </trkpt>
      <trkpt lat="37.422914" lon="-122.187287">
        <ele>48.6</ele>
        <time>2015-04-27T19:20:57Z</time>
      </trkpt>
      <trkpt lat="37.422879" lon="-122.187235">
        <ele>48.9</ele>
        <time>2015-04-27T19:20:59Z</time>
      </trkpt>
      <trkpt lat="37.422839" lon="-122.187101">
        <ele>49.1</ele>
        <time>2015-04-27T19:21:00Z</time>
      </trkpt>
      <trkpt lat="37.422818" lon="-122.187027">
        <ele>49.2</ele>
        <time>2015-04-27T19:21:02Z</time>
      </trkpt>
      <trkpt lat="37.422794" lon="-122.186954">
        <ele>49.4</ele>
        <time>2015-04-27T19:21:03Z</time>
      </trkpt>
      <trkpt lat="37.422763" lon="-122.186802">
        <ele>49.6</ele>
        <time>2015-04-27T19:21:04Z</time>
      </trkpt>
      <trkpt lat="37.422742" lon="-122.186741">
        <ele>49.7</ele>
        <time>2015-04-27T19:21:05Z</time>
      </trkpt>
      <trkpt lat="37.422726" lon="-122.186672">
        <ele>49.8</ele>
        <time>2015-04-27T19:21:06Z</time>
      </trkpt>
      <trkpt lat="37.422701" lon="-122.186611">
        <ele>50</ele>
        <time>2015-04-27T19:21:07Z</time>
      </trkpt>
      <trkpt lat="37.422681" lon="-122.186544">
        <ele>50.1</ele>
        <time>2015-04-27T19:21:08Z</time>
      </trkpt>
      <trkpt lat="37.422654" lon="-122.186495">
        <ele>50.2</ele>
        <time>2015-04-27T19:21:09Z</time>
      </trkpt>
      <trkpt lat="37.422641" lon="-122.186414">
        <ele>50.3</ele>
        <time>2015-04-27T19:21:11Z</time>
      </trkpt>
      <trkpt lat="37.42259" lon="-122.186279">
        <ele>50.6</ele>
        <time>2015-04-27T19:21:12Z</time>
      </trkpt>
      <trkpt lat="37.422556" lon="-122.186221">
        <ele>50.7</ele>
        <time>2015-04-27T19:21:13Z</time>
      </trkpt>
      <trkpt lat="37.422537" lon="-122.186155">
        <ele>50.8</ele>
        <time>2015-04-27T19:21:14Z</time>
      </trkpt>
      <trkpt lat="37.422497" lon="-122.186088">
        <ele>50.8</ele>
        <time>2015-04-27T19:21:15Z</time>
      </trkpt>
      <trkpt lat="37.422463" lon="-122.186032">
        <ele>50.8</ele>
        <time>2015-04-27T19:21:17Z</time>
      </trkpt>
      <trkpt lat="37.422416" lon="-122.185901">
        <ele>50.7</ele>
        <time>2015-04-27T19:21:18Z</time>
      </trkpt>
      <trkpt lat="37.422384" lon="-122.185834">
        <ele>50.6</ele>
        <time>2015-04-27T19:21:19Z</time>
      </trkpt>
      <trkpt lat="37.422355" lon="-122.185775">
        <ele>50.6</ele>
        <time>2015-04-27T19:21:20Z</time>
      </trkpt>
      <trkpt lat="37.422329" lon="-122.185712">
        <ele>50.5</ele>
        <time>2015-04-27T19:21:21Z</time>
      </trkpt>
      <trkpt lat="37.4223" lon="-122.185647">
        <ele>50.2</ele>
        <time>2015-04-27T19:21:22Z</time>
      </trkpt>
      <trkpt lat="37.42228" lon="-122.185564">
        <ele>49.9</ele>
        <time>2015-04-27T19:21:23Z</time>
      </trkpt>
      <trkpt lat="37.422247" lon="-122.185512">
        <ele>49.9</ele>
        <time>2015-04-27T19:21:24Z</time>
      </trkpt>
      <trkpt lat="37.422206" lon="-122.185447">
        <ele>49.9</ele>
        <time>2015-04-27T19:21:25Z</time>
      </trkpt>
      <trkpt lat="37.422187" lon="-122.185362">
        <ele>49.4</ele>
        <time>2015-04-27T19:21:26Z</time>
      </trkpt>
      <trkpt lat="37.422146" lon="-122.18529">
        <ele>49.4</ele>
        <time>2015-04-27T19:21:27Z</time>
      </trkpt>
      <trkpt lat="37.422122" lon="-122.185213">
        <ele>49.3</ele>
        <time>2015-04-27T19:21:28Z</time>
      </trkpt>
      <trkpt lat="37.422099" lon="-122.185117">
        <ele>49.1</ele>
        <time>2015-04-27T19:21:29Z</time>
      </trkpt>
      <trkpt lat="37.422087" lon="-122.185018">
        <ele>48.8</ele>
        <time>2015-04-27T19:21:30Z</time>
      </trkpt>
      <trkpt lat="37.422084" lon="-122.184916">
        <ele>48.7</ele>
        <time>2015-04-27T19:21:31Z</time>
      </trkpt>
      <trkpt lat="37.422068" lon="-122.184833">
        <ele>48.2</ele>
        <time>2015-04-27T19:21:32Z</time>
      </trkpt>
      <trkpt lat="37.422056" lon="-122.184734">
        <ele>48.3</ele>
        <time>2015-04-27T19:21:33Z</time>
      </trkpt>
      <trkpt lat="37.422045" lon="-122.184649">
        <ele>48.4</ele>
        <time>2015-04-27T19:21:34Z</time>
      </trkpt>
      <trkpt lat="37.422037" lon="-122.184571">
        <ele>48.4</ele>
        <time>2015-04-27T19:21:35Z</time>
      </trkpt>
      <trkpt lat="37.422039" lon="-122.184474">
        <ele>48.3</ele>
        <time>2015-04-27T19:21:36Z</time>
      </trkpt>
      <trkpt lat="37.422054" lon="-122.184368">
        <ele>48.2</ele>
        <time>2015-04-27T19:21:37Z</time>
      </trkpt>
      <trkpt lat="37.422033" lon="-122.184301">
        <ele>48.4</ele>
        <time>2015-04-27T19:21:38Z</time>
      </trkpt>
      <trkpt lat="37.422031" lon="-122.184222">
        <ele>48.4</ele>
        <time>2015-04-27T19:21:39Z</time>
      </trkpt>
      <trkpt lat="37.422054" lon="-122.184108">
        <ele>48.3</ele>
        <time>2015-04-27T19:21:40Z</time>
      </trkpt>
      <trkpt lat="37.422056" lon="-122.184015">
        <ele>48.3</ele>
        <time>2015-04-27T19:21:41Z</time>
      </trkpt>
      <trkpt lat="37.422061" lon="-122.183935">
        <ele>48.3</ele>
        <time>2015-04-27T19:21:42Z</time>
      </trkpt>
      <trkpt lat="37.422067" lon="-122.18385">
        <ele>48.4</ele>
        <time>2015-04-27T19:21:43Z</time>
      </trkpt>
      <trkpt lat="37.42208" lon="-122.183752">
        <ele>48.5</ele>
        <time>2015-04-27T19:21:44Z</time>
      </trkpt>
      <trkpt lat="37.422057" lon="-122.183683">
        <ele>48.5</ele>
        <time>2015-04-27T19:21:45Z</time>
      </trkpt>
      <trkpt lat="37.422055" lon="-122.183582">
        <ele>48.5</ele>
        <time>2015-04-27T19:21:46Z</time>
      </trkpt>
      <trkpt lat="37.422064" lon="-122.183498">
        <ele>48.4</ele>
        <time>2015-04-27T19:21:47Z</time>
      </trkpt>
      <trkpt lat="37.422073" lon="-122.183418">
        <ele>48.5</ele>
        <time>2015-04-27T19:21:48Z</time>
      </trkpt>
      <trkpt lat="37.422065" lon="-122.183335">
        <ele>48.5</ele>
        <time>2015-04-27T19:21:49Z</time>
      </trkpt>
      <trkpt lat="37.422071" lon="-122.18324">
        <ele>48.5</ele>
        <time>2015-04-27T19:21:50Z</time>
      </trkpt>
      <trkpt lat="37.42206" lon="-122.183168">
        <ele>48.4</ele>
        <time>2015-04-27T19:21:51Z</time>
      </trkpt>
      <trkpt lat="37.422041" lon="-122.183104">
        <ele>48.4</ele>
        <time>2015-04-27T19:21:52Z</time>
      </trkpt>
      <trkpt lat="37.422022" lon="-122.183031">
        <ele>48.2</ele>
        <time>2015-04-27T19:21:53Z</time>
      </trkpt>
      <trkpt lat="37.422021" lon="-122.182957">
        <ele>48.2</ele>
        <time>2015-04-27T19:21:54Z</time>
      </trkpt>
      <trkpt lat="37.422011" lon="-122.182854">
        <ele>48.2</ele>
        <time>2015-04-27T19:21:55Z</time>
      </trkpt>
      <trkpt lat="37.422002" lon="-122.182763">
        <ele>48.2</ele>
        <time>2015-04-27T19:21:56Z</time>
      </trkpt>
      <trkpt lat="37.421987" lon="-122.182693">
        <ele>48.1</ele>
        <time>2015-04-27T19:21:57Z</time>
      </trkpt>
      <trkpt lat="37.421967" lon="-122.182628">
        <ele>48</ele>
        <time>2015-04-27T19:21:58Z</time>
      </trkpt>
      <trkpt lat="37.421958" lon="-122.18257">
        <ele>48</ele>
        <time>2015-04-27T19:21:59Z</time>
      </trkpt>
      <trkpt lat="37.421945" lon="-122.182537">
        <ele>48</ele>
        <time>2015-04-27T19:22:00Z</time>
      </trkpt>
      <trkpt lat="37.421935" lon="-122.182505">
        <ele>48</ele>
        <time>2015-04-27T19:22:01Z</time>
      </trkpt>
      <trkpt lat="37.421923" lon="-122.182456">
        <ele>48</ele>
        <time>2015-04-27T19:22:03Z</time>
      </trkpt>
      <trkpt lat="37.421912" lon="-122.182409">
        <ele>48.1</ele>
        <time>2015-04-27T19:22:32Z</time>
      </trkpt>
      <trkpt lat="37.421882" lon="-122.182337">
        <ele>48.1</ele>
        <time>2015-04-27T19:22:34Z</time>
      </trkpt>
      <trkpt lat="37.421872" lon="-122.182301">
        <ele>48.1</ele>
        <time>2015-04-27T19:22:35Z</time>
      </trkpt>
      <trkpt lat="37.421844" lon="-122.182151">
        <ele>48.1</ele>
        <time>2015-04-27T19:22:38Z</time>
      </trkpt>
      <trkpt lat="37.421834" lon="-122.182098">
        <ele>48.1</ele>
        <time>2015-04-27T19:22:39Z</time>
      </trkpt>
      <trkpt lat="37.421826" lon="-122.182026">
        <ele>48.1</ele>
        <time>2015-04-27T19:22:40Z</time>
      </trkpt>
      <trkpt lat="37.42181" lon="-122.181971">
        <ele>48</ele>
        <time>2015-04-27T19:22:41Z</time>
      </trkpt>
      <trkpt lat="37.421795" lon="-122.181907">
        <ele>47.9</ele>
        <time>2015-04-27T19:22:42Z</time>
      </trkpt>
      <trkpt lat="37.421772" lon="-122.181835">
        <ele>47.8</ele>
        <time>2015-04-27T19:22:43Z</time>
      </trkpt>
      <trkpt lat="37.421754" lon="-122.181773">
        <ele>47.9</ele>
        <time>2015-04-27T19:22:44Z</time>
      </trkpt>
      <trkpt lat="37.421707" lon="-122.181539">
        <ele>47.4</ele>
        <time>2015-04-27T19:22:47Z</time>
      </trkpt>
      <trkpt lat="37.421695" lon="-122.181462">
        <ele>47.4</ele>
        <time>2015-04-27T19:22:48Z</time>
      </trkpt>
      <trkpt lat="37.421674" lon="-122.181371">
        <ele>47.2</ele>
        <time>2015-04-27T19:22:49Z</time>
      </trkpt>
      <trkpt lat="37.421667" lon="-122.181274">
        <ele>47.1</ele>
        <time>2015-04-27T19:22:50Z</time>
      </trkpt>
      <trkpt lat="37.421648" lon="-122.181206">
        <ele>47</ele>
        <time>2015-04-27T19:22:51Z</time>
      </trkpt>
      <trkpt lat="37.421622" lon="-122.181128">
        <ele>46.8</ele>
        <time>2015-04-27T19:22:52Z</time>
      </trkpt>
      <trkpt lat="37.421606" lon="-122.181052">
        <ele>46.8</ele>
        <time>2015-04-27T19:22:53Z</time>
      </trkpt>
      <trkpt lat="37.421577" lon="-122.180968">
        <ele>46.7</ele>
        <time>2015-04-27T19:22:54Z</time>
      </trkpt>
      <trkpt lat="37.421556" lon="-122.180883">
        <ele>46.7</ele>
        <time>2015-04-27T19:22:55Z</time>
      </trkpt>
      <trkpt lat="37.421531" lon="-122.180783">
        <ele>46.6</ele>
        <time>2015-04-27T19:22:56Z</time>
      </trkpt>
      <trkpt lat="37.421499" lon="-122.180696">
        <ele>46.4</ele>
        <time>2015-04-27T19:22:57Z</time>
      </trkpt>
      <trkpt lat="37.421475" lon="-122.180595">
        <ele>46.4</ele>
        <time>2015-04-27T19:22:58Z</time>
      </trkpt>
      <trkpt lat="37.42145" lon="-122.180488">
        <ele>46.3</ele>
        <time>2015-04-27T19:22:59Z</time>
      </trkpt>
      <trkpt lat="37.421427" lon="-122.180405">
        <ele>46.4</ele>
        <time>2015-04-27T19:23:00Z</time>
      </trkpt>
      <trkpt lat="37.421403" lon="-122.180315">
        <ele>46.3</ele>
        <time>2015-04-27T19:23:01Z</time>
      </trkpt>
      <trkpt lat="37.421377" lon="-122.18022">
        <ele>46.3</ele>
        <time>2015-04-27T19:23:02Z</time>
      </trkpt>
      <trkpt lat="37.421347" lon="-122.180146">
        <ele>46.5</ele>
        <time>2015-04-27T19:23:03Z</time>
      </trkpt>
      <trkpt lat="37.421328" lon="-122.180062">
        <ele>46.3</ele>
        <time>2015-04-27T19:23:04Z</time>
      </trkpt>
      <trkpt lat="37.421308" lon="-122.179986">
        <ele>46.3</ele>
        <time>2015-04-27T19:23:05Z</time>
      </trkpt>
      <trkpt lat="37.421273" lon="-122.179911">
        <ele>46.5</ele>
        <time>2015-04-27T19:23:06Z</time>
      </trkpt>
      <trkpt lat="37.421249" lon="-122.179803">
        <ele>46.3</ele>
        <time>2015-04-27T19:23:07Z</time>
      </trkpt>
      <trkpt lat="37.421232" lon="-122.179688">
        <ele>46.2</ele>
        <time>2015-04-27T19:23:08Z</time>
      </trkpt>
      <trkpt lat="37.421206" lon="-122.179631">
        <ele>46.1</ele>
        <time>2015-04-27T19:23:09Z</time>
      </trkpt>
      <trkpt lat="37.421184" lon="-122.179533">
        <ele>46.2</ele>
        <time>2015-04-27T19:23:10Z</time>
      </trkpt>
      <trkpt lat="37.421172" lon="-122.179416">
        <ele>46.2</ele>
        <time>2015-04-27T19:23:11Z</time>
      </trkpt>
      <trkpt lat="37.421141" lon="-122.179341">
        <ele>46.1</ele>
        <time>2015-04-27T19:23:12Z</time>
      </trkpt>
      <trkpt lat="37.421117" lon="-122.179242">
        <ele>46.1</ele>
        <time>2015-04-27T19:23:13Z</time>
      </trkpt>
      <trkpt lat="37.421096" lon="-122.179147">
        <ele>46.1</ele>
        <time>2015-04-27T19:23:14Z</time>
      </trkpt>
      <trkpt lat="37.421068" lon="-122.179071">
        <ele>46</ele>
        <time>2015-04-27T19:23:15Z</time>
      </trkpt>
      <trkpt lat="37.421039" lon="-122.178977">
        <ele>46.1</ele>
        <time>2015-04-27T19:23:16Z</time>
      </trkpt>
      <trkpt lat="37.421018" lon="-122.178892">
        <ele>46</ele>
        <time>2015-04-27T19:23:17Z</time>
      </trkpt>
      <trkpt lat="37.420985" lon="-122.178807">
        <ele>45.9</ele>
        <time>2015-04-27T19:23:18Z</time>
      </trkpt>
      <trkpt lat="37.42096" lon="-122.178714">
        <ele>45.9</ele>
        <time>2015-04-27T19:23:19Z</time>
      </trkpt>
      <trkpt lat="37.420937" lon="-122.178631">
        <ele>45.8</ele>
        <time>2015-04-27T19:23:20Z</time>
      </trkpt>
      <trkpt lat="37.420905" lon="-122.178541">
        <ele>45.6</ele>
        <time>2015-04-27T19:23:21Z</time>
      </trkpt>
      <trkpt lat="37.420877" lon="-122.178464">
        <ele>45.4</ele>
        <time>2015-04-27T19:23:22Z</time>
      </trkpt>
      <trkpt lat="37.420847" lon="-122.178382">
        <ele>45.5</ele>
        <time>2015-04-27T19:23:23Z</time>
      </trkpt>
      <trkpt lat="37.420818" lon="-122.178301">
        <ele>45.4</ele>
        <time>2015-04-27T19:23:24Z</time>
      </trkpt>
      <trkpt lat="37.42079" lon="-122.178213">
        <ele>45.3</ele>
        <time>2015-04-27T19:23:25Z</time>
      </trkpt>
      <trkpt lat="37.420762" lon="-122.178121">
        <ele>45.3</ele>
        <time>2015-04-27T19:23:26Z</time>
      </trkpt>
      <trkpt lat="37.420729" lon="-122.178031">
        <ele>45.1</ele>
        <time>2015-04-27T19:23:27Z</time>
      </trkpt>
      <trkpt lat="37.420698" lon="-122.17795">
        <ele>45.2</ele>
        <time>2015-04-27T19:23:28Z</time>
      </trkpt>
      <trkpt lat="37.420668" lon="-122.177861">
        <ele>45.3</ele>
        <time>2015-04-27T19:23:29Z</time>
      </trkpt>
      <trkpt lat="37.420633" lon="-122.177777">
        <ele>45.3</ele>
        <time>2015-04-27T19:23:30Z</time>
      </trkpt>
      <trkpt lat="37.420604" lon="-122.177681">
        <ele>45.2</ele>
        <time>2015-04-27T19:23:31Z</time>
      </trkpt>
      <trkpt lat="37.420576" lon="-122.177591">
        <ele>45.3</ele>
        <time>2015-04-27T19:23:32Z</time>
      </trkpt>
      <trkpt lat="37.420552" lon="-122.177509">
        <ele>45.3</ele>
        <time>2015-04-27T19:23:33Z</time>
      </trkpt>
      <trkpt lat="37.420514" lon="-122.177419">
        <ele>45.3</ele>
        <time>2015-04-27T19:23:34Z</time>
      </trkpt>
      <trkpt lat="37.420482" lon="-122.177339">
        <ele>45.2</ele>
        <time>2015-04-27T19:23:35Z</time>
      </trkpt>
      <trkpt lat="37.420445" lon="-122.177253">
        <ele>45.3</ele>
        <time>2015-04-27T19:23:36Z</time>
      </trkpt>
      <trkpt lat="37.420408" lon="-122.177167">
        <ele>45.1</ele>
        <time>2015-04-27T19:23:37Z</time>
      </trkpt>
      <trkpt lat="37.420377" lon="-122.177084">
        <ele>45.3</ele>
        <time>2015-04-27T19:23:38Z</time>
      </trkpt>
      <trkpt lat="37.420331" lon="-122.177004">
        <ele>45.3</ele>
        <time>2015-04-27T19:23:39Z</time>
      </trkpt>
      <trkpt lat="37.420283" lon="-122.176929">
        <ele>45.2</ele>
        <time>2015-04-27T19:23:40Z</time>
      </trkpt>
      <trkpt lat="37.420229" lon="-122.176854">
        <ele>45.2</ele>
        <time>2015-04-27T19:23:41Z</time>
      </trkpt>
      <trkpt lat="37.420179" lon="-122.176774">
        <ele>45.2</ele>
        <time>2015-04-27T19:23:42Z</time>
      </trkpt>
      <trkpt lat="37.420134" lon="-122.176686">
        <ele>45.4</ele>
        <time>2015-04-27T19:23:43Z</time>
      </trkpt>
      <trkpt lat="37.420079" lon="-122.176626">
        <ele>45.3</ele>
        <time>2015-04-27T19:23:44Z</time>
      </trkpt>
      <trkpt lat="37.420031" lon="-122.176553">
        <ele>45.5</ele>
        <time>2015-04-27T19:23:45Z</time>
      </trkpt>
      <trkpt lat="37.419971" lon="-122.176476">
        <ele>45.5</ele>
        <time>2015-04-27T19:23:46Z</time>
      </trkpt>
      <trkpt lat="37.419918" lon="-122.176421">
        <ele>45.6</ele>
        <time>2015-04-27T19:23:47Z</time>
      </trkpt>
      <trkpt lat="37.419868" lon="-122.176352">
        <ele>45.8</ele>
        <time>2015-04-27T19:23:48Z</time>
      </trkpt>
      <trkpt lat="37.419825" lon="-122.176313">
        <ele>45.9</ele>
        <time>2015-04-27T19:23:49Z</time>
      </trkpt>
      <trkpt lat="37.419772" lon="-122.176248">
        <ele>46</ele>
        <time>2015-04-27T19:23:50Z</time>
      </trkpt>
      <trkpt lat="37.419715" lon="-122.176195">
        <ele>46.2</ele>
        <time>2015-04-27T19:23:51Z</time>
      </trkpt>
      <trkpt lat="37.419654" lon="-122.176145">
        <ele>46.4</ele>
        <time>2015-04-27T19:23:52Z</time>
      </trkpt>
      <trkpt lat="37.419598" lon="-122.176096">
        <ele>46.7</ele>
        <time>2015-04-27T19:23:53Z</time>
      </trkpt>
      <trkpt lat="37.41954" lon="-122.176054">
        <ele>46.8</ele>
        <time>2015-04-27T19:23:54Z</time>
      </trkpt>
      <trkpt lat="37.419488" lon="-122.176016">
        <ele>47</ele>
        <time>2015-04-27T19:23:55Z</time>
      </trkpt>
      <trkpt lat="37.419433" lon="-122.175975">
        <ele>47.1</ele>
        <time>2015-04-27T19:23:56Z</time>
      </trkpt>
      <trkpt lat="37.419193" lon="-122.175834">
        <ele>48.1</ele>
        <time>2015-04-27T19:24:00Z</time>
      </trkpt>
      <trkpt lat="37.419142" lon="-122.175802">
        <ele>48.3</ele>
        <time>2015-04-27T19:24:01Z</time>
      </trkpt>
      <trkpt lat="37.419087" lon="-122.175779">
        <ele>48.5</ele>
        <time>2015-04-27T19:24:02Z</time>
      </trkpt>
      <trkpt lat="37.419037" lon="-122.175748">
        <ele>48.7</ele>
        <time>2015-04-27T19:24:03Z</time>
      </trkpt>
      <trkpt lat="37.418844" lon="-122.175635">
        <ele>49.7</ele>
        <time>2015-04-27T19:24:07Z</time>
      </trkpt>
      <trkpt lat="37.418791" lon="-122.17561">
        <ele>49.7</ele>
        <time>2015-04-27T19:24:08Z</time>
      </trkpt>
      <trkpt lat="37.418736" lon="-122.175594">
        <ele>49.7</ele>
        <time>2015-04-27T19:24:09Z</time>
      </trkpt>
      <trkpt lat="37.418692" lon="-122.175561">
        <ele>50</ele>
        <time>2015-04-27T19:24:10Z</time>
      </trkpt>
      <trkpt lat="37.418647" lon="-122.175535">
        <ele>50.2</ele>
        <time>2015-04-27T19:24:11Z</time>
      </trkpt>
      <trkpt lat="37.418606" lon="-122.175507">
        <ele>50.4</ele>
        <time>2015-04-27T19:24:12Z</time>
      </trkpt>
      <trkpt lat="37.418573" lon="-122.175469">
        <ele>50.5</ele>
        <time>2015-04-27T19:24:13Z</time>
      </trkpt>
      <trkpt lat="37.418524" lon="-122.175434">
        <ele>50.7</ele>
        <time>2015-04-27T19:24:14Z</time>
      </trkpt>
      <trkpt lat="37.418476" lon="-122.175403">
        <ele>50.8</ele>
        <time>2015-04-27T19:24:15Z</time>
      </trkpt>
      <trkpt lat="37.418432" lon="-122.175373">
        <ele>50.9</ele>
        <time>2015-04-27T19:24:16Z</time>
      </trkpt>
      <trkpt lat="37.418382" lon="-122.175347">
        <ele>51</ele>
        <time>2015-04-27T19:24:17Z</time>
      </trkpt>
      <trkpt lat="37.418336" lon="-122.175316">
        <ele>51.2</ele>
        <time>2015-04-27T19:24:18Z</time>
      </trkpt>
      <trkpt lat="37.418292" lon="-122.17529">
        <ele>51.2</ele>
        <time>2015-04-27T19:24:19Z</time>
      </trkpt>
      <trkpt lat="37.418255" lon="-122.175258">
        <ele>51.3</ele>
        <time>2015-04-27T19:24:20Z</time>
      </trkpt>
      <trkpt lat="37.418209" lon="-122.175225">
        <ele>51.4</ele>
        <time>2015-04-27T19:24:21Z</time>
      </trkpt>
      <trkpt lat="37.418164" lon="-122.175184">
        <ele>51.4</ele>
        <time>2015-04-27T19:24:22Z</time>
      </trkpt>
      <trkpt lat="37.418119" lon="-122.175152">
        <ele>51.4</ele>
        <time>2015-04-27T19:24:23Z</time>
      </trkpt>
      <trkpt lat="37.418073" lon="-122.175116">
        <ele>51.5</ele>
        <time>2015-04-27T19:24:24Z</time>
      </trkpt>
      <trkpt lat="37.41803" lon="-122.175085">
        <ele>51.5</ele>
        <time>2015-04-27T19:24:25Z</time>
      </trkpt>
      <trkpt lat="37.41798" lon="-122.175048">
        <ele>51.5</ele>
        <time>2015-04-27T19:24:27Z</time>
      </trkpt>
      <trkpt lat="37.417929" lon="-122.175006">
        <ele>51.5</ele>
        <time>2015-04-27T19:24:28Z</time>
      </trkpt>
      <trkpt lat="37.417885" lon="-122.174958">
        <ele>51.5</ele>
        <time>2015-04-27T19:24:29Z</time>
      </trkpt>
      <trkpt lat="37.417783" lon="-122.174872">
        <ele>51.5</ele>
        <time>2015-04-27T19:24:30Z</time>
      </trkpt>
      <trkpt lat="37.41774" lon="-122.174805">
        <ele>51.5</ele>
        <time>2015-04-27T19:24:32Z</time>
      </trkpt>
      <trkpt lat="37.41769" lon="-122.174762">
        <ele>51.5</ele>
        <time>2015-04-27T19:24:33Z</time>
      </trkpt>
      <trkpt lat="37.417647" lon="-122.174693">
        <ele>51.6</ele>
        <time>2015-04-27T19:24:34Z</time>
      </trkpt>
      <trkpt lat="37.417554" lon="-122.174593">
        <ele>51.7</ele>
        <time>2015-04-27T19:24:35Z</time>
      </trkpt>
      <trkpt lat="37.41751" lon="-122.174548">
        <ele>51.7</ele>
        <time>2015-04-27T19:24:37Z</time>
      </trkpt>
      <trkpt lat="37.417465" lon="-122.174499">
        <ele>51.8</ele>
        <time>2015-04-27T19:24:38Z</time>
      </trkpt>
      <trkpt lat="37.417365" lon="-122.174404">
        <ele>52</ele>
        <time>2015-04-27T19:24:39Z</time>
      </trkpt>
      <trkpt lat="37.417327" lon="-122.174354">
        <ele>52.1</ele>
        <time>2015-04-27T19:24:41Z</time>
      </trkpt>
      <trkpt lat="37.41728" lon="-122.174304">
        <ele>52.3</ele>
        <time>2015-04-27T19:24:42Z</time>
      </trkpt>
      <trkpt lat="37.41724" lon="-122.174257">
        <ele>52.5</ele>
        <time>2015-04-27T19:24:43Z</time>
      </trkpt>
      <trkpt lat="37.417163" lon="-122.174157">
        <ele>52.7</ele>
        <time>2015-04-27T19:24:44Z</time>
      </trkpt>
      <trkpt lat="37.417128" lon="-122.174116">
        <ele>52.9</ele>
        <time>2015-04-27T19:24:46Z</time>
      </trkpt>
      <trkpt lat="37.417076" lon="-122.174077">
        <ele>53.2</ele>
        <time>2015-04-27T19:24:47Z</time>
      </trkpt>
      <trkpt lat="37.417045" lon="-122.174036">
        <ele>53.4</ele>
        <time>2015-04-27T19:24:48Z</time>
      </trkpt>
      <trkpt lat="37.417004" lon="-122.17399">
        <ele>53.6</ele>
        <time>2015-04-27T19:24:49Z</time>
      </trkpt>
      <trkpt lat="37.416963" lon="-122.173954">
        <ele>53.9</ele>
        <time>2015-04-27T19:24:50Z</time>
      </trkpt>
      <trkpt lat="37.416923" lon="-122.173897">
        <ele>54.2</ele>
        <time>2015-04-27T19:24:51Z</time>
      </trkpt>
      <trkpt lat="37.416881" lon="-122.173835">
        <ele>54.5</ele>
        <time>2015-04-27T19:24:52Z</time>
      </trkpt>
      <trkpt lat="37.416808" lon="-122.173747">
        <ele>55</ele>
        <time>2015-04-27T19:24:53Z</time>
      </trkpt>
      <trkpt lat="37.416769" lon="-122.173708">
        <ele>55.3</ele>
        <time>2015-04-27T19:24:55Z</time>
      </trkpt>
      <trkpt lat="37.416733" lon="-122.173668">
        <ele>55.6</ele>
        <time>2015-04-27T19:24:56Z</time>
      </trkpt>
      <trkpt lat="37.416712" lon="-122.173623">
        <ele>55.7</ele>
        <time>2015-04-27T19:24:57Z</time>
      </trkpt>
      <trkpt lat="37.416673" lon="-122.173579">
        <ele>56</ele>
        <time>2015-04-27T19:24:58Z</time>
      </trkpt>
      <trkpt lat="37.416618" lon="-122.173502">
        <ele>56.5</ele>
        <time>2015-04-27T19:24:59Z</time>
      </trkpt>
      <trkpt lat="37.416591" lon="-122.173453">
        <ele>56.8</ele>
        <time>2015-04-27T19:25:00Z</time>
      </trkpt>
      <trkpt lat="37.416556" lon="-122.173406">
        <ele>57</ele>
        <time>2015-04-27T19:25:01Z</time>
      </trkpt>
      <trkpt lat="37.416522" lon="-122.173361">
        <ele>57.2</ele>
        <time>2015-04-27T19:25:02Z</time>
      </trkpt>
      <trkpt lat="37.416486" lon="-122.173317">
        <ele>57.4</ele>
        <time>2015-04-27T19:25:03Z</time>
      </trkpt>
      <trkpt lat="37.416448" lon="-122.173271">
        <ele>57.6</ele>
        <time>2015-04-27T19:25:04Z</time>
      </trkpt>
      <trkpt lat="37.416422" lon="-122.17322">
        <ele>57.7</ele>
        <time>2015-04-27T19:25:05Z</time>
      </trkpt>
      <trkpt lat="37.416385" lon="-122.173163">
        <ele>57.9</ele>
        <time>2015-04-27T19:25:06Z</time>
      </trkpt>
      <trkpt lat="37.416346" lon="-122.17311">
        <ele>58</ele>
        <time>2015-04-27T19:25:08Z</time>
      </trkpt>
      <trkpt lat="37.416274" lon="-122.173028">
        <ele>58.3</ele>
        <time>2015-04-27T19:25:09Z</time>
      </trkpt>
      <trkpt lat="37.416235" lon="-122.172974">
        <ele>58.3</ele>
        <time>2015-04-27T19:25:10Z</time>
      </trkpt>
      <trkpt lat="37.416205" lon="-122.172938">
        <ele>58.3</ele>
        <time>2015-04-27T19:25:11Z</time>
      </trkpt>
      <trkpt lat="37.416172" lon="-122.172885">
        <ele>58.4</ele>
        <time>2015-04-27T19:25:12Z</time>
      </trkpt>
      <trkpt lat="37.416127" lon="-122.172824">
        <ele>58.3</ele>
        <time>2015-04-27T19:25:13Z</time>
      </trkpt>
      <trkpt lat="37.41609" lon="-122.17277">
        <ele>58.3</ele>
        <time>2015-04-27T19:25:14Z</time>
      </trkpt>
      <trkpt lat="37.416052" lon="-122.172717">
        <ele>58.3</ele>
        <time>2015-04-27T19:25:15Z</time>
      </trkpt>
      <trkpt lat="37.416011" lon="-122.172667">
        <ele>58.1</ele>
        <time>2015-04-27T19:25:16Z</time>
      </trkpt>
      <trkpt lat="37.415976" lon="-122.17261">
        <ele>58</ele>
        <time>2015-04-27T19:25:17Z</time>
      </trkpt>
      <trkpt lat="37.415937" lon="-122.172553">
        <ele>58</ele>
        <time>2015-04-27T19:25:18Z</time>
      </trkpt>
      <trkpt lat="37.415897" lon="-122.172486">
        <ele>58</ele>
        <time>2015-04-27T19:25:19Z</time>
      </trkpt>
      <trkpt lat="37.415851" lon="-122.172424">
        <ele>57.6</ele>
        <time>2015-04-27T19:25:20Z</time>
      </trkpt>
      <trkpt lat="37.415811" lon="-122.172355">
        <ele>57.6</ele>
        <time>2015-04-27T19:25:21Z</time>
      </trkpt>
      <trkpt lat="37.415762" lon="-122.172291">
        <ele>57.6</ele>
        <time>2015-04-27T19:25:22Z</time>
      </trkpt>
      <trkpt lat="37.415724" lon="-122.172231">
        <ele>57.2</ele>
        <time>2015-04-27T19:25:23Z</time>
      </trkpt>
      <trkpt lat="37.41567" lon="-122.172162">
        <ele>57</ele>
        <time>2015-04-27T19:25:24Z</time>
      </trkpt>
      <trkpt lat="37.415629" lon="-122.172104">
        <ele>56.9</ele>
        <time>2015-04-27T19:25:25Z</time>
      </trkpt>
      <trkpt lat="37.415585" lon="-122.172038">
        <ele>56.7</ele>
        <time>2015-04-27T19:25:26Z</time>
      </trkpt>
      <trkpt lat="37.415544" lon="-122.171979">
        <ele>56.7</ele>
        <time>2015-04-27T19:25:27Z</time>
      </trkpt>
      <trkpt lat="37.415496" lon="-122.171915">
        <ele>56.6</ele>
        <time>2015-04-27T19:25:28Z</time>
      </trkpt>
      <trkpt lat="37.415447" lon="-122.171848">
        <ele>56.4</ele>
        <time>2015-04-27T19:25:29Z</time>
      </trkpt>
      <trkpt lat="37.415401" lon="-122.171783">
        <ele>56.4</ele>
        <time>2015-04-27T19:25:30Z</time>
      </trkpt>
      <trkpt lat="37.415351" lon="-122.171716">
        <ele>56.2</ele>
        <time>2015-04-27T19:25:31Z</time>
      </trkpt>
      <trkpt lat="37.415302" lon="-122.17165">
        <ele>56.1</ele>
        <time>2015-04-27T19:25:32Z</time>
      </trkpt>
      <trkpt lat="37.415256" lon="-122.171583">
        <ele>56.3</ele>
        <time>2015-04-27T19:25:33Z</time>
      </trkpt>
      <trkpt lat="37.415203" lon="-122.171517">
        <ele>56.3</ele>
        <time>2015-04-27T19:25:34Z</time>
      </trkpt>
      <trkpt lat="37.415162" lon="-122.171453">
        <ele>56.3</ele>
        <time>2015-04-27T19:25:35Z</time>
      </trkpt>
      <trkpt lat="37.415122" lon="-122.171395">
        <ele>56.3</ele>
        <time>2015-04-27T19:25:36Z</time>
      </trkpt>
      <trkpt lat="37.415076" lon="-122.171329">
        <ele>56.3</ele>
        <time>2015-04-27T19:25:37Z</time>
      </trkpt>
      <trkpt lat="37.415037" lon="-122.171269">
        <ele>56.4</ele>
        <time>2015-04-27T19:25:38Z</time>
      </trkpt>
      <trkpt lat="37.414996" lon="-122.17121">
        <ele>56.5</ele>
        <time>2015-04-27T19:25:39Z</time>
      </trkpt>
      <trkpt lat="37.414946" lon="-122.171143">
        <ele>56.6</ele>
        <time>2015-04-27T19:25:40Z</time>
      </trkpt>
      <trkpt lat="37.414905" lon="-122.17108">
        <ele>56.7</ele>
        <time>2015-04-27T19:25:41Z</time>
      </trkpt>
      <trkpt lat="37.414865" lon="-122.17103">
        <ele>56.7</ele>
        <time>2015-04-27T19:25:42Z</time>
      </trkpt>
      <trkpt lat="37.414817" lon="-122.170963">
        <ele>56.8</ele>
        <time>2015-04-27T19:25:43Z</time>
      </trkpt>
      <trkpt lat="37.414774" lon="-122.170893">
        <ele>56.9</ele>
        <time>2015-04-27T19:25:44Z</time>
      </trkpt>
      <trkpt lat="37.414735" lon="-122.170838">
        <ele>57.1</ele>
        <time>2015-04-27T19:25:46Z</time>
      </trkpt>
      <trkpt lat="37.414664" lon="-122.170711">
        <ele>57.4</ele>
        <time>2015-04-27T19:25:47Z</time>
      </trkpt>
      <trkpt lat="37.41462" lon="-122.170659">
        <ele>57.5</ele>
        <time>2015-04-27T19:25:49Z</time>
      </trkpt>
      <trkpt lat="37.414577" lon="-122.170608">
        <ele>57.7</ele>
        <time>2015-04-27T19:25:50Z</time>
      </trkpt>
      <trkpt lat="37.414497" lon="-122.170508">
        <ele>58.1</ele>
        <time>2015-04-27T19:25:52Z</time>
      </trkpt>
      <trkpt lat="37.414463" lon="-122.170461">
        <ele>58.3</ele>
        <time>2015-04-27T19:25:53Z</time>
      </trkpt>
      <trkpt lat="37.414423" lon="-122.170416">
        <ele>58.5</ele>
        <time>2015-04-27T19:25:54Z</time>
      </trkpt>
      <trkpt lat="37.414355" lon="-122.170308">
        <ele>59.1</ele>
        <time>2015-04-27T19:25:55Z</time>
      </trkpt>
      <trkpt lat="37.414331" lon="-122.170261">
        <ele>59.4</ele>
        <time>2015-04-27T19:25:56Z</time>
      </trkpt>
      <trkpt lat="37.414304" lon="-122.170222">
        <ele>59.6</ele>
        <time>2015-04-27T19:25:57Z</time>
      </trkpt>
      <trkpt lat="37.414273" lon="-122.17019">
        <ele>59.7</ele>
        <time>2015-04-27T19:25:58Z</time>
      </trkpt>
      <trkpt lat="37.414248" lon="-122.170153">
        <ele>59.8</ele>
        <time>2015-04-27T19:25:59Z</time>
      </trkpt>
      <trkpt lat="37.414221" lon="-122.170117">
        <ele>60.1</ele>
        <time>2015-04-27T19:26:00Z</time>
      </trkpt>
      <trkpt lat="37.414197" lon="-122.170079">
        <ele>60.6</ele>
        <time>2015-04-27T19:26:01Z</time>
      </trkpt>
      <trkpt lat="37.414169" lon="-122.170034">
        <ele>61</ele>
        <time>2015-04-27T19:26:02Z</time>
      </trkpt>
      <trkpt lat="37.414147" lon="-122.169989">
        <ele>61.3</ele>
        <time>2015-04-27T19:26:03Z</time>
      </trkpt>
      <trkpt lat="37.41412" lon="-122.16996">
        <ele>61.7</ele>
        <time>2015-04-27T19:26:04Z</time>
      </trkpt>
      <trkpt lat="37.414098" lon="-122.169929">
        <ele>61.9</ele>
        <time>2015-04-27T19:26:05Z</time>
      </trkpt>
      <trkpt lat="37.414074" lon="-122.169896">
        <ele>62.3</ele>
        <time>2015-04-27T19:26:06Z</time>
      </trkpt>
      <trkpt lat="37.414054" lon="-122.169848">
        <ele>62.6</ele>
        <time>2015-04-27T19:26:07Z</time>
      </trkpt>
      <trkpt lat="37.414022" lon="-122.169779">
        <ele>63.2</ele>
        <time>2015-04-27T19:26:09Z</time>
      </trkpt>
      <trkpt lat="37.414005" lon="-122.169747">
        <ele>63.4</ele>
        <time>2015-04-27T19:26:10Z</time>
      </trkpt>
      <trkpt lat="37.413988" lon="-122.169717">
        <ele>63.7</ele>
        <time>2015-04-27T19:26:11Z</time>
      </trkpt>
      <trkpt lat="37.41397" lon="-122.169687">
        <ele>63.8</ele>
        <time>2015-04-27T19:26:12Z</time>
      </trkpt>
      <trkpt lat="37.413953" lon="-122.169656">
        <ele>64</ele>
        <time>2015-04-27T19:26:13Z</time>
      </trkpt>
      <trkpt lat="37.413933" lon="-122.169625">
        <ele>64.2</ele>
        <time>2015-04-27T19:26:14Z</time>
      </trkpt>
      <trkpt lat="37.413912" lon="-122.169592">
        <ele>64.3</ele>
        <time>2015-04-27T19:26:15Z</time>
      </trkpt>
      <trkpt lat="37.413892" lon="-122.169559">
        <ele>64.5</ele>
        <time>2015-04-27T19:26:16Z</time>
      </trkpt>
      <trkpt lat="37.41387" lon="-122.16952">
        <ele>64.7</ele>
        <time>2015-04-27T19:26:17Z</time>
      </trkpt>
      <trkpt lat="37.413849" lon="-122.169478">
        <ele>64.8</ele>
        <time>2015-04-27T19:26:18Z</time>
      </trkpt>
      <trkpt lat="37.413826" lon="-122.169437">
        <ele>64.9</ele>
        <time>2015-04-27T19:26:19Z</time>
      </trkpt>
      <trkpt lat="37.413802" lon="-122.169395">
        <ele>64.9</ele>
        <time>2015-04-27T19:26:20Z</time>
      </trkpt>
      <trkpt lat="37.413776" lon="-122.169352">
        <ele>64.9</ele>
        <time>2015-04-27T19:26:21Z</time>
      </trkpt>
      <trkpt lat="37.41375" lon="-122.169309">
        <ele>64.9</ele>
        <time>2015-04-27T19:26:22Z</time>
      </trkpt>
      <trkpt lat="37.413725" lon="-122.169275">
        <ele>64.8</ele>
        <time>2015-04-27T19:26:23Z</time>
      </trkpt>
      <trkpt lat="37.413703" lon="-122.169234">
        <ele>64.7</ele>
        <time>2015-04-27T19:26:24Z</time>
      </trkpt>
      <trkpt lat="37.413683" lon="-122.169184">
        <ele>64.5</ele>
        <time>2015-04-27T19:26:25Z</time>
      </trkpt>
      <trkpt lat="37.413655" lon="-122.169133">
        <ele>64.3</ele>
        <time>2015-04-27T19:26:26Z</time>
      </trkpt>
      <trkpt lat="37.413621" lon="-122.169059">
        <ele>63.9</ele>
        <time>2015-04-27T19:26:27Z</time>
      </trkpt>
      <trkpt lat="37.413595" lon="-122.169002">
        <ele>63.5</ele>
        <time>2015-04-27T19:26:28Z</time>
      </trkpt>
      <trkpt lat="37.413571" lon="-122.168925">
        <ele>63.2</ele>
        <time>2015-04-27T19:26:29Z</time>
      </trkpt>
      <trkpt lat="37.413542" lon="-122.168851">
        <ele>62.8</ele>
        <time>2015-04-27T19:26:30Z</time>
      </trkpt>
      <trkpt lat="37.413507" lon="-122.168786">
        <ele>62.4</ele>
        <time>2015-04-27T19:26:31Z</time>
      </trkpt>
      <trkpt lat="37.413477" lon="-122.168716">
        <ele>62.1</ele>
        <time>2015-04-27T19:26:32Z</time>
      </trkpt>
      <trkpt lat="37.413436" lon="-122.168646">
        <ele>61.8</ele>
        <time>2015-04-27T19:26:33Z</time>
      </trkpt>
      <trkpt lat="37.41341" lon="-122.168533">
        <ele>61.3</ele>
        <time>2015-04-27T19:26:34Z</time>
      </trkpt>
      <trkpt lat="37.413391" lon="-122.168408">
        <ele>60.9</ele>
        <time>2015-04-27T19:26:35Z</time>
      </trkpt>
      <trkpt lat="37.413365" lon="-122.168319">
        <ele>60.7</ele>
        <time>2015-04-27T19:26:36Z</time>
      </trkpt>
      <trkpt lat="37.413331" lon="-122.168236">
        <ele>60.4</ele>
        <time>2015-04-27T19:26:37Z</time>
      </trkpt>
      <trkpt lat="37.413298" lon="-122.168158">
        <ele>60.2</ele>
        <time>2015-04-27T19:26:38Z</time>
      </trkpt>
      <trkpt lat="37.413272" lon="-122.168064">
        <ele>60.1</ele>
        <time>2015-04-27T19:26:39Z</time>
      </trkpt>
      <trkpt lat="37.413243" lon="-122.167975">
        <ele>59.9</ele>
        <time>2015-04-27T19:26:40Z</time>
      </trkpt>
      <trkpt lat="37.413212" lon="-122.167889">
        <ele>59.7</ele>
        <time>2015-04-27T19:26:41Z</time>
      </trkpt>
      <trkpt lat="37.413184" lon="-122.167773">
        <ele>59.5</ele>
        <time>2015-04-27T19:26:42Z</time>
      </trkpt>
      <trkpt lat="37.41316" lon="-122.167682">
        <ele>59.3</ele>
        <time>2015-04-27T19:26:43Z</time>
      </trkpt>
      <trkpt lat="37.413138" lon="-122.167594">
        <ele>59.2</ele>
        <time>2015-04-27T19:26:44Z</time>
      </trkpt>
      <trkpt lat="37.413107" lon="-122.167514">
        <ele>59</ele>
        <time>2015-04-27T19:26:45Z</time>
      </trkpt>
      <trkpt lat="37.413083" lon="-122.167425">
        <ele>58.9</ele>
        <time>2015-04-27T19:26:46Z</time>
      </trkpt>
      <trkpt lat="37.41306" lon="-122.167339">
        <ele>58.7</ele>
        <time>2015-04-27T19:26:47Z</time>
      </trkpt>
      <trkpt lat="37.41304" lon="-122.167255">
        <ele>58.6</ele>
        <time>2015-04-27T19:26:48Z</time>
      </trkpt>
      <trkpt lat="37.413015" lon="-122.167173">
        <ele>58.6</ele>
        <time>2015-04-27T19:26:49Z</time>
      </trkpt>
      <trkpt lat="37.412995" lon="-122.167087">
        <ele>58.5</ele>
        <time>2015-04-27T19:26:50Z</time>
      </trkpt>
      <trkpt lat="37.412976" lon="-122.166994">
        <ele>58.3</ele>
        <time>2015-04-27T19:26:51Z</time>
      </trkpt>
      <trkpt lat="37.412965" lon="-122.166908">
        <ele>58.2</ele>
        <time>2015-04-27T19:26:52Z</time>
      </trkpt>
      <trkpt lat="37.41293" lon="-122.166832">
        <ele>58.2</ele>
        <time>2015-04-27T19:26:53Z</time>
      </trkpt>
      <trkpt lat="37.412906" lon="-122.166747">
        <ele>58</ele>
        <time>2015-04-27T19:26:54Z</time>
      </trkpt>
      <trkpt lat="37.412893" lon="-122.166649">
        <ele>57.9</ele>
        <time>2015-04-27T19:26:55Z</time>
      </trkpt>
      <trkpt lat="37.41288" lon="-122.166561">
        <ele>57.8</ele>
        <time>2015-04-27T19:26:56Z</time>
      </trkpt>
      <trkpt lat="37.412855" lon="-122.166478">
        <ele>57.7</ele>
        <time>2015-04-27T19:26:57Z</time>
      </trkpt>
      <trkpt lat="37.412836" lon="-122.166372">
        <ele>57.6</ele>
        <time>2015-04-27T19:26:58Z</time>
      </trkpt>
      <trkpt lat="37.412821" lon="-122.166271">
        <ele>57.4</ele>
        <time>2015-04-27T19:26:59Z</time>
      </trkpt>
      <trkpt lat="37.412805" lon="-122.16616">
        <ele>57.3</ele>
        <time>2015-04-27T19:27:00Z</time>
      </trkpt>
      <trkpt lat="37.412789" lon="-122.166052">
        <ele>57.3</ele>
        <time>2015-04-27T19:27:01Z</time>
      </trkpt>
      <trkpt lat="37.412765" lon="-122.165921">
        <ele>57.1</ele>
        <time>2015-04-27T19:27:02Z</time>
      </trkpt>
      <trkpt lat="37.412755" lon="-122.165809">
        <ele>57.1</ele>
        <time>2015-04-27T19:27:03Z</time>
      </trkpt>
      <trkpt lat="37.412716" lon="-122.165723">
        <ele>56.9</ele>
        <time>2015-04-27T19:27:04Z</time>
      </trkpt>
      <trkpt lat="37.412689" lon="-122.16563">
        <ele>56.8</ele>
        <time>2015-04-27T19:27:05Z</time>
      </trkpt>
      <trkpt lat="37.412652" lon="-122.165543">
        <ele>56.6</ele>
        <time>2015-04-27T19:27:06Z</time>
      </trkpt>
      <trkpt lat="37.412619" lon="-122.165451">
        <ele>56.5</ele>
        <time>2015-04-27T19:27:07Z</time>
      </trkpt>
      <trkpt lat="37.412594" lon="-122.165347">
        <ele>56.5</ele>
        <time>2015-04-27T19:27:08Z</time>
      </trkpt>
      <trkpt lat="37.412561" lon="-122.165251">
        <ele>56.3</ele>
        <time>2015-04-27T19:27:09Z</time>
      </trkpt>
      <trkpt lat="37.412527" lon="-122.165149">
        <ele>56.2</ele>
        <time>2015-04-27T19:27:10Z</time>
      </trkpt>
      <trkpt lat="37.412497" lon="-122.165052">
        <ele>56.1</ele>
        <time>2015-04-27T19:27:11Z</time>
      </trkpt>
      <trkpt lat="37.412473" lon="-122.164958">
        <ele>56</ele>
        <time>2015-04-27T19:27:12Z</time>
      </trkpt>
      <trkpt lat="37.412446" lon="-122.164857">
        <ele>56</ele>
        <time>2015-04-27T19:27:13Z</time>
      </trkpt>
      <trkpt lat="37.412416" lon="-122.164768">
        <ele>55.8</ele>
        <time>2015-04-27T19:27:14Z</time>
      </trkpt>
      <trkpt lat="37.412386" lon="-122.164684">
        <ele>55.8</ele>
        <time>2015-04-27T19:27:15Z</time>
      </trkpt>
      <trkpt lat="37.412352" lon="-122.164602">
        <ele>55.6</ele>
        <time>2015-04-27T19:27:16Z</time>
      </trkpt>
      <trkpt lat="37.412335" lon="-122.164498">
        <ele>55.6</ele>
        <time>2015-04-27T19:27:17Z</time>
      </trkpt>
      <trkpt lat="37.41231" lon="-122.164408">
        <ele>55.5</ele>
        <time>2015-04-27T19:27:18Z</time>
      </trkpt>
      <trkpt lat="37.412283" lon="-122.164323">
        <ele>55.4</ele>
        <time>2015-04-27T19:27:19Z</time>
      </trkpt>
      <trkpt lat="37.412256" lon="-122.164226">
        <ele>55.3</ele>
        <time>2015-04-27T19:27:20Z</time>
      </trkpt>
      <trkpt lat="37.412223" lon="-122.164145">
        <ele>55.1</ele>
        <time>2015-04-27T19:27:21Z</time>
      </trkpt>
      <trkpt lat="37.412203" lon="-122.164042">
        <ele>55</ele>
        <time>2015-04-27T19:27:22Z</time>
      </trkpt>
      <trkpt lat="37.412165" lon="-122.163939">
        <ele>54.8</ele>
        <time>2015-04-27T19:27:23Z</time>
      </trkpt>
      <trkpt lat="37.412118" lon="-122.163867">
        <ele>54.7</ele>
        <time>2015-04-27T19:27:24Z</time>
      </trkpt>
      <trkpt lat="37.412078" lon="-122.163768">
        <ele>54.6</ele>
        <time>2015-04-27T19:27:25Z</time>
      </trkpt>
      <trkpt lat="37.412041" lon="-122.163683">
        <ele>54.4</ele>
        <time>2015-04-27T19:27:26Z</time>
      </trkpt>
      <trkpt lat="37.411981" lon="-122.163621">
        <ele>54.2</ele>
        <time>2015-04-27T19:27:27Z</time>
      </trkpt>
      <trkpt lat="37.411935" lon="-122.163542">
        <ele>54</ele>
        <time>2015-04-27T19:27:28Z</time>
      </trkpt>
      <trkpt lat="37.411887" lon="-122.163463">
        <ele>53.9</ele>
        <time>2015-04-27T19:27:29Z</time>
      </trkpt>
      <trkpt lat="37.411849" lon="-122.163371">
        <ele>53.9</ele>
        <time>2015-04-27T19:27:30Z</time>
      </trkpt>
      <trkpt lat="37.41181" lon="-122.163294">
        <ele>53.8</ele>
        <time>2015-04-27T19:27:31Z</time>
      </trkpt>
      <trkpt lat="37.411761" lon="-122.163198">
        <ele>53.8</ele>
        <time>2015-04-27T19:27:32Z</time>
      </trkpt>
      <trkpt lat="37.411716" lon="-122.163115">
        <ele>53.7</ele>
        <time>2015-04-27T19:27:33Z</time>
      </trkpt>
      <trkpt lat="37.41167" lon="-122.163035">
        <ele>53.7</ele>
        <time>2015-04-27T19:27:34Z</time>
      </trkpt>
      <trkpt lat="37.411626" lon="-122.162958">
        <ele>53.6</ele>
        <time>2015-04-27T19:27:35Z</time>
      </trkpt>
      <trkpt lat="37.411571" lon="-122.162884">
        <ele>53.6</ele>
        <time>2015-04-27T19:27:36Z</time>
      </trkpt>
      <trkpt lat="37.411519" lon="-122.162817">
        <ele>53.6</ele>
        <time>2015-04-27T19:27:37Z</time>
      </trkpt>
      <trkpt lat="37.41148" lon="-122.162753">
        <ele>53.5</ele>
        <time>2015-04-27T19:27:38Z</time>
      </trkpt>
      <trkpt lat="37.411429" lon="-122.162683">
        <ele>53.5</ele>
        <time>2015-04-27T19:27:39Z</time>
      </trkpt>
      <trkpt lat="37.411379" lon="-122.162608">
        <ele>53.5</ele>
        <time>2015-04-27T19:27:40Z</time>
      </trkpt>
      <trkpt lat="37.411325" lon="-122.162541">
        <ele>53.5</ele>
        <time>2015-04-27T19:27:41Z</time>
      </trkpt>
      <trkpt lat="37.411263" lon="-122.162473">
        <ele>53.5</ele>
        <time>2015-04-27T19:27:42Z</time>
      </trkpt>
      <trkpt lat="37.411225" lon="-122.162395">
        <ele>53.5</ele>
        <time>2015-04-27T19:27:43Z</time>
      </trkpt>
      <trkpt lat="37.411172" lon="-122.162326">
        <ele>53.4</ele>
        <time>2015-04-27T19:27:44Z</time>
      </trkpt>
      <trkpt lat="37.411115" lon="-122.162259">
        <ele>53.4</ele>
        <time>2015-04-27T19:27:45Z</time>
      </trkpt>
      <trkpt lat="37.411064" lon="-122.162196">
        <ele>53.3</ele>
        <time>2015-04-27T19:27:46Z</time>
      </trkpt>
      <trkpt lat="37.411013" lon="-122.162131">
        <ele>53.4</ele>
        <time>2015-04-27T19:27:47Z</time>
      </trkpt>
      <trkpt lat="37.410962" lon="-122.162064">
        <ele>53.4</ele>
        <time>2015-04-27T19:27:48Z</time>
      </trkpt>
      <trkpt lat="37.410925" lon="-122.161988">
        <ele>53.4</ele>
        <time>2015-04-27T19:27:49Z</time>
      </trkpt>
      <trkpt lat="37.410868" lon="-122.161921">
        <ele>53.3</ele>
        <time>2015-04-27T19:27:50Z</time>
      </trkpt>
      <trkpt lat="37.410823" lon="-122.161863">
        <ele>53.3</ele>
        <time>2015-04-27T19:27:51Z</time>
      </trkpt>
      <trkpt lat="37.410781" lon="-122.161794">
        <ele>53.3</ele>
        <time>2015-04-27T19:27:52Z</time>
      </trkpt>
      <trkpt lat="37.410726" lon="-122.161747">
        <ele>53.3</ele>
        <time>2015-04-27T19:27:53Z</time>
      </trkpt>
      <trkpt lat="37.410682" lon="-122.161678">
        <ele>53.2</ele>
        <time>2015-04-27T19:27:54Z</time>
      </trkpt>
      <trkpt lat="37.410638" lon="-122.161623">
        <ele>53.3</ele>
        <time>2015-04-27T19:27:55Z</time>
      </trkpt>
      <trkpt lat="37.410594" lon="-122.161558">
        <ele>53.3</ele>
        <time>2015-04-27T19:27:56Z</time>
      </trkpt>
      <trkpt lat="37.41055" lon="-122.161511">
        <ele>53.2</ele>
        <time>2015-04-27T19:27:57Z</time>
      </trkpt>
      <trkpt lat="37.410516" lon="-122.161456">
        <ele>53.2</ele>
        <time>2015-04-27T19:27:58Z</time>
      </trkpt>
      <trkpt lat="37.410474" lon="-122.161406">
        <ele>53.2</ele>
        <time>2015-04-27T19:27:59Z</time>
      </trkpt>
      <trkpt lat="37.410444" lon="-122.161344">
        <ele>53.2</ele>
        <time>2015-04-27T19:28:00Z</time>
      </trkpt>
      <trkpt lat="37.410406" lon="-122.161289">
        <ele>53.3</ele>
        <time>2015-04-27T19:28:01Z</time>
      </trkpt>
      <trkpt lat="37.410387" lon="-122.161258">
        <ele>53.3</ele>
        <time>2015-04-27T19:28:02Z</time>
      </trkpt>
      <trkpt lat="37.410346" lon="-122.161246">
        <ele>53.3</ele>
        <time>2015-04-27T19:28:03Z</time>
      </trkpt>
      <trkpt lat="37.410324" lon="-122.161215">
        <ele>53.3</ele>
        <time>2015-04-27T19:28:04Z</time>
      </trkpt>
      <trkpt lat="37.410308" lon="-122.161186">
        <ele>53.3</ele>
        <time>2015-04-27T19:28:05Z</time>
      </trkpt>
      <trkpt lat="37.410279" lon="-122.161168">
        <ele>53.3</ele>
        <time>2015-04-27T19:28:06Z</time>
      </trkpt>
      <trkpt lat="37.410264" lon="-122.161135">
        <ele>53.3</ele>
        <time>2015-04-27T19:28:07Z</time>
      </trkpt>
      <trkpt lat="37.410242" lon="-122.161111">
        <ele>53.3</ele>
        <time>2015-04-27T19:28:08Z</time>
      </trkpt>
      <trkpt lat="37.410214" lon="-122.161083">
        <ele>53.4</ele>
        <time>2015-04-27T19:28:09Z</time>
      </trkpt>
      <trkpt lat="37.410187" lon="-122.161046">
        <ele>53.4</ele>
        <time>2015-04-27T19:28:10Z</time>
      </trkpt>
      <trkpt lat="37.41015" lon="-122.161009">
        <ele>53.4</ele>
        <time>2015-04-27T19:28:11Z</time>
      </trkpt>
      <trkpt lat="37.410116" lon="-122.160962">
        <ele>53.6</ele>
        <time>2015-04-27T19:28:12Z</time>
      </trkpt>
      <trkpt lat="37.410078" lon="-122.160915">
        <ele>53.6</ele>
        <time>2015-04-27T19:28:13Z</time>
      </trkpt>
      <trkpt lat="37.410046" lon="-122.160873">
        <ele>53.6</ele>
        <time>2015-04-27T19:28:14Z</time>
      </trkpt>
      <trkpt lat="37.410021" lon="-122.160849">
        <ele>53.7</ele>
        <time>2015-04-27T19:28:15Z</time>
      </trkpt>
      <trkpt lat="37.409983" lon="-122.1608">
        <ele>53.8</ele>
        <time>2015-04-27T19:28:16Z</time>
      </trkpt>
      <trkpt lat="37.409944" lon="-122.160751">
        <ele>53.9</ele>
        <time>2015-04-27T19:28:17Z</time>
      </trkpt>
      <trkpt lat="37.409901" lon="-122.160701">
        <ele>53.9</ele>
        <time>2015-04-27T19:28:18Z</time>
      </trkpt>
      <trkpt lat="37.409847" lon="-122.160637">
        <ele>54.1</ele>
        <time>2015-04-27T19:28:19Z</time>
      </trkpt>
      <trkpt lat="37.409812" lon="-122.160588">
        <ele>54.1</ele>
        <time>2015-04-27T19:28:20Z</time>
      </trkpt>
      <trkpt lat="37.409769" lon="-122.160534">
        <ele>54.2</ele>
        <time>2015-04-27T19:28:21Z</time>
      </trkpt>
      <trkpt lat="37.409744" lon="-122.160481">
        <ele>54.3</ele>
        <time>2015-04-27T19:28:22Z</time>
      </trkpt>
      <trkpt lat="37.40971" lon="-122.16042">
        <ele>54.4</ele>
        <time>2015-04-27T19:28:23Z</time>
      </trkpt>
      <trkpt lat="37.409677" lon="-122.160371">
        <ele>54.5</ele>
        <time>2015-04-27T19:28:24Z</time>
      </trkpt>
      <trkpt lat="37.409633" lon="-122.16032">
        <ele>54.5</ele>
        <time>2015-04-27T19:28:25Z</time>
      </trkpt>
      <trkpt lat="37.409601" lon="-122.160246">
        <ele>54.6</ele>
        <time>2015-04-27T19:28:26Z</time>
      </trkpt>
      <trkpt lat="37.409555" lon="-122.160206">
        <ele>54.6</ele>
        <time>2015-04-27T19:28:27Z</time>
      </trkpt>
      <trkpt lat="37.409523" lon="-122.160132">
        <ele>54.6</ele>
        <time>2015-04-27T19:28:28Z</time>
      </trkpt>
      <trkpt lat="37.409485" lon="-122.16007">
        <ele>54.7</ele>
        <time>2015-04-27T19:28:29Z</time>
      </trkpt>
      <trkpt lat="37.409436" lon="-122.160018">
        <ele>54.6</ele>
        <time>2015-04-27T19:28:30Z</time>
      </trkpt>
      <trkpt lat="37.409405" lon="-122.159954">
        <ele>54.7</ele>
        <time>2015-04-27T19:28:31Z</time>
      </trkpt>
      <trkpt lat="37.409355" lon="-122.159906">
        <ele>54.7</ele>
        <time>2015-04-27T19:28:32Z</time>
      </trkpt>
      <trkpt lat="37.409311" lon="-122.159847">
        <ele>54.7</ele>
        <time>2015-04-27T19:28:33Z</time>
      </trkpt>
      <trkpt lat="37.409283" lon="-122.159787">
        <ele>54.7</ele>
        <time>2015-04-27T19:28:34Z</time>
      </trkpt>
      <trkpt lat="37.409243" lon="-122.159736">
        <ele>54.7</ele>
        <time>2015-04-27T19:28:35Z</time>
      </trkpt>
      <trkpt lat="37.409201" lon="-122.159676">
        <ele>54.7</ele>
        <time>2015-04-27T19:28:36Z</time>
      </trkpt>
      <trkpt lat="37.409157" lon="-122.159622">
        <ele>54.7</ele>
        <time>2015-04-27T19:28:37Z</time>
      </trkpt>
      <trkpt lat="37.409123" lon="-122.159571">
        <ele>54.7</ele>
        <time>2015-04-27T19:28:38Z</time>
      </trkpt>
      <trkpt lat="37.409078" lon="-122.159507">
        <ele>54.6</ele>
        <time>2015-04-27T19:28:39Z</time>
      </trkpt>
      <trkpt lat="37.409035" lon="-122.159431">
        <ele>54.6</ele>
        <time>2015-04-27T19:28:40Z</time>
      </trkpt>
      <trkpt lat="37.408974" lon="-122.159385">
        <ele>54.6</ele>
        <time>2015-04-27T19:28:41Z</time>
      </trkpt>
      <trkpt lat="37.408928" lon="-122.159324">
        <ele>54.6</ele>
        <time>2015-04-27T19:28:42Z</time>
      </trkpt>
      <trkpt lat="37.408878" lon="-122.15926">
        <ele>54.5</ele>
        <time>2015-04-27T19:28:43Z</time>
      </trkpt>
      <trkpt lat="37.408831" lon="-122.159202">
        <ele>54.5</ele>
        <time>2015-04-27T19:28:44Z</time>
      </trkpt>
      <trkpt lat="37.408798" lon="-122.159134">
        <ele>54.4</ele>
        <time>2015-04-27T19:28:45Z</time>
      </trkpt>
      <trkpt lat="37.408757" lon="-122.159072">
        <ele>54.4</ele>
        <time>2015-04-27T19:28:46Z</time>
      </trkpt>
      <trkpt lat="37.408713" lon="-122.159016">
        <ele>54.4</ele>
        <time>2015-04-27T19:28:47Z</time>
      </trkpt>
      <trkpt lat="37.408663" lon="-122.158949">
        <ele>54.5</ele>
        <time>2015-04-27T19:28:48Z</time>
      </trkpt>
      <trkpt lat="37.408613" lon="-122.158885">
        <ele>54.4</ele>
        <time>2015-04-27T19:28:49Z</time>
      </trkpt>
      <trkpt lat="37.408565" lon="-122.158822">
        <ele>54.4</ele>
        <time>2015-04-27T19:28:50Z</time>
      </trkpt>
      <trkpt lat="37.408499" lon="-122.158784">
        <ele>54.3</ele>
        <time>2015-04-27T19:28:51Z</time>
      </trkpt>
      <trkpt lat="37.408461" lon="-122.158715">
        <ele>54.3</ele>
        <time>2015-04-27T19:28:52Z</time>
      </trkpt>
      <trkpt lat="37.40841" lon="-122.158623">
        <ele>54.3</ele>
        <time>2015-04-27T19:28:53Z</time>
      </trkpt>
      <trkpt lat="37.408367" lon="-122.158566">
        <ele>54.3</ele>
        <time>2015-04-27T19:28:54Z</time>
      </trkpt>
      <trkpt lat="37.408315" lon="-122.158506">
        <ele>54.2</ele>
        <time>2015-04-27T19:28:55Z</time>
      </trkpt>
      <trkpt lat="37.408255" lon="-122.158453">
        <ele>54.2</ele>
        <time>2015-04-27T19:28:56Z</time>
      </trkpt>
      <trkpt lat="37.408214" lon="-122.158383">
        <ele>54.1</ele>
        <time>2015-04-27T19:28:57Z</time>
      </trkpt>
      <trkpt lat="37.408178" lon="-122.158314">
        <ele>54.2</ele>
        <time>2015-04-27T19:28:58Z</time>
      </trkpt>
      <trkpt lat="37.408134" lon="-122.158242">
        <ele>54.1</ele>
        <time>2015-04-27T19:28:59Z</time>
      </trkpt>
      <trkpt lat="37.408078" lon="-122.158157">
        <ele>54.1</ele>
        <time>2015-04-27T19:29:00Z</time>
      </trkpt>
      <trkpt lat="37.408035" lon="-122.158077">
        <ele>54</ele>
        <time>2015-04-27T19:29:01Z</time>
      </trkpt>
      <trkpt lat="37.407994" lon="-122.158024">
        <ele>54</ele>
        <time>2015-04-27T19:29:02Z</time>
      </trkpt>
      <trkpt lat="37.407952" lon="-122.157961">
        <ele>54</ele>
        <time>2015-04-27T19:29:03Z</time>
      </trkpt>
      <trkpt lat="37.407899" lon="-122.157895">
        <ele>54</ele>
        <time>2015-04-27T19:29:04Z</time>
      </trkpt>
      <trkpt lat="37.40785" lon="-122.157818">
        <ele>54</ele>
        <time>2015-04-27T19:29:05Z</time>
      </trkpt>
      <trkpt lat="37.407817" lon="-122.157737">
        <ele>53.9</ele>
        <time>2015-04-27T19:29:06Z</time>
      </trkpt>
      <trkpt lat="37.407771" lon="-122.157665">
        <ele>53.8</ele>
        <time>2015-04-27T19:29:07Z</time>
      </trkpt>
      <trkpt lat="37.407728" lon="-122.1576">
        <ele>53.7</ele>
        <time>2015-04-27T19:29:08Z</time>
      </trkpt>
      <trkpt lat="37.407686" lon="-122.157543">
        <ele>53.7</ele>
        <time>2015-04-27T19:29:09Z</time>
      </trkpt>
      <trkpt lat="37.407635" lon="-122.157468">
        <ele>53.6</ele>
        <time>2015-04-27T19:29:10Z</time>
      </trkpt>
      <trkpt lat="37.407592" lon="-122.157396">
        <ele>53.5</ele>
        <time>2015-04-27T19:29:11Z</time>
      </trkpt>
      <trkpt lat="37.40754" lon="-122.157346">
        <ele>53.4</ele>
        <time>2015-04-27T19:29:12Z</time>
      </trkpt>
      <trkpt lat="37.407477" lon="-122.157264">
        <ele>53.3</ele>
        <time>2015-04-27T19:29:13Z</time>
      </trkpt>
      <trkpt lat="37.407428" lon="-122.157173">
        <ele>53</ele>
        <time>2015-04-27T19:29:14Z</time>
      </trkpt>
      <trkpt lat="37.407369" lon="-122.157109">
        <ele>52.9</ele>
        <time>2015-04-27T19:29:15Z</time>
      </trkpt>
      <trkpt lat="37.407304" lon="-122.157061">
        <ele>52.8</ele>
        <time>2015-04-27T19:29:16Z</time>
      </trkpt>
      <trkpt lat="37.407238" lon="-122.156998">
        <ele>52.8</ele>
        <time>2015-04-27T19:29:17Z</time>
      </trkpt>
      <trkpt lat="37.407175" lon="-122.15693">
        <ele>52.5</ele>
        <time>2015-04-27T19:29:18Z</time>
      </trkpt>
      <trkpt lat="37.407117" lon="-122.156861">
        <ele>52.2</ele>
        <time>2015-04-27T19:29:19Z</time>
      </trkpt>
      <trkpt lat="37.407056" lon="-122.156794">
        <ele>52</ele>
        <time>2015-04-27T19:29:20Z</time>
      </trkpt>
      <trkpt lat="37.406997" lon="-122.156725">
        <ele>51.7</ele>
        <time>2015-04-27T19:29:21Z</time>
      </trkpt>
      <trkpt lat="37.406943" lon="-122.156675">
        <ele>51.6</ele>
        <time>2015-04-27T19:29:22Z</time>
      </trkpt>
      <trkpt lat="37.406874" lon="-122.156627">
        <ele>51.3</ele>
        <time>2015-04-27T19:29:23Z</time>
      </trkpt>
      <trkpt lat="37.406828" lon="-122.156557">
        <ele>51.1</ele>
        <time>2015-04-27T19:29:24Z</time>
      </trkpt>
      <trkpt lat="37.40678" lon="-122.156477">
        <ele>50.9</ele>
        <time>2015-04-27T19:29:25Z</time>
      </trkpt>
      <trkpt lat="37.406747" lon="-122.15642">
        <ele>50.7</ele>
        <time>2015-04-27T19:29:26Z</time>
      </trkpt>
      <trkpt lat="37.406722" lon="-122.156357">
        <ele>50.6</ele>
        <time>2015-04-27T19:29:27Z</time>
      </trkpt>
      <trkpt lat="37.40668" lon="-122.156305">
        <ele>50.4</ele>
        <time>2015-04-27T19:29:28Z</time>
      </trkpt>
      <trkpt lat="37.406642" lon="-122.15627">
        <ele>50.3</ele>
        <time>2015-04-27T19:29:29Z</time>
      </trkpt>
      <trkpt lat="37.406608" lon="-122.156228">
        <ele>50.2</ele>
        <time>2015-04-27T19:29:30Z</time>
      </trkpt>
      <trkpt lat="37.406585" lon="-122.156192">
        <ele>50.1</ele>
        <time>2015-04-27T19:29:31Z</time>
      </trkpt>
      <trkpt lat="37.406549" lon="-122.15617">
        <ele>49.9</ele>
        <time>2015-04-27T19:29:32Z</time>
      </trkpt>
      <trkpt lat="37.406516" lon="-122.156132">
        <ele>49.9</ele>
        <time>2015-04-27T19:29:34Z</time>
      </trkpt>
      <trkpt lat="37.406509" lon="-122.156099">
        <ele>49.9</ele>
        <time>2015-04-27T19:29:41Z</time>
      </trkpt>
      <trkpt lat="37.406448" lon="-122.15598">
        <ele>49.7</ele>
        <time>2015-04-27T19:30:07Z</time>
      </trkpt>
      <trkpt lat="37.406399" lon="-122.155951">
        <ele>49.5</ele>
        <time>2015-04-27T19:30:09Z</time>
      </trkpt>
      <trkpt lat="37.40637" lon="-122.155934">
        <ele>49.5</ele>
        <time>2015-04-27T19:30:10Z</time>
      </trkpt>
      <trkpt lat="37.406333" lon="-122.155907">
        <ele>49.4</ele>
        <time>2015-04-27T19:30:11Z</time>
      </trkpt>
      <trkpt lat="37.406293" lon="-122.15587">
        <ele>49.3</ele>
        <time>2015-04-27T19:30:12Z</time>
      </trkpt>
      <trkpt lat="37.406255" lon="-122.155818">
        <ele>49.3</ele>
        <time>2015-04-27T19:30:13Z</time>
      </trkpt>
      <trkpt lat="37.406214" lon="-122.155771">
        <ele>49.1</ele>
        <time>2015-04-27T19:30:14Z</time>
      </trkpt>
      <trkpt lat="37.406182" lon="-122.155733">
        <ele>48.9</ele>
        <time>2015-04-27T19:30:15Z</time>
      </trkpt>
      <trkpt lat="37.40616" lon="-122.155689">
        <ele>48.9</ele>
        <time>2015-04-27T19:30:16Z</time>
      </trkpt>
      <trkpt lat="37.406112" lon="-122.15564">
        <ele>48.7</ele>
        <time>2015-04-27T19:30:17Z</time>
      </trkpt>
      <trkpt lat="37.406066" lon="-122.155584">
        <ele>48.5</ele>
        <time>2015-04-27T19:30:18Z</time>
      </trkpt>
      <trkpt lat="37.406023" lon="-122.155521">
        <ele>48.1</ele>
        <time>2015-04-27T19:30:19Z</time>
      </trkpt>
      <trkpt lat="37.405979" lon="-122.155466">
        <ele>47.7</ele>
        <time>2015-04-27T19:30:20Z</time>
      </trkpt>
      <trkpt lat="37.405932" lon="-122.155391">
        <ele>47.5</ele>
        <time>2015-04-27T19:30:21Z</time>
      </trkpt>
      <trkpt lat="37.405885" lon="-122.155314">
        <ele>47</ele>
        <time>2015-04-27T19:30:22Z</time>
      </trkpt>
      <trkpt lat="37.405864" lon="-122.155223">
        <ele>46.7</ele>
        <time>2015-04-27T19:30:23Z</time>
      </trkpt>
      <trkpt lat="37.40582" lon="-122.155127">
        <ele>46.1</ele>
        <time>2015-04-27T19:30:24Z</time>
      </trkpt>
      <trkpt lat="37.405772" lon="-122.155053">
        <ele>45.7</ele>
        <time>2015-04-27T19:30:25Z</time>
      </trkpt>
      <trkpt lat="37.405731" lon="-122.154945">
        <ele>45</ele>
        <time>2015-04-27T19:30:26Z</time>
      </trkpt>
      <trkpt lat="37.40568" lon="-122.154833">
        <ele>44.4</ele>
        <time>2015-04-27T19:30:27Z</time>
      </trkpt>
      <trkpt lat="37.405642" lon="-122.154722">
        <ele>43.9</ele>
        <time>2015-04-27T19:30:28Z</time>
      </trkpt>
      <trkpt lat="37.405602" lon="-122.154608">
        <ele>43.3</ele>
        <time>2015-04-27T19:30:29Z</time>
      </trkpt>
      <trkpt lat="37.405556" lon="-122.154499">
        <ele>42.7</ele>
        <time>2015-04-27T19:30:30Z</time>
      </trkpt>
      <trkpt lat="37.405517" lon="-122.154388">
        <ele>42.3</ele>
        <time>2015-04-27T19:30:31Z</time>
      </trkpt>
      <trkpt lat="37.405483" lon="-122.154272">
        <ele>42</ele>
        <time>2015-04-27T19:30:32Z</time>
      </trkpt>
      <trkpt lat="37.405452" lon="-122.15415">
        <ele>41.6</ele>
        <time>2015-04-27T19:30:33Z</time>
      </trkpt>
      <trkpt lat="37.405418" lon="-122.154029">
        <ele>41.2</ele>
        <time>2015-04-27T19:30:34Z</time>
      </trkpt>
      <trkpt lat="37.405386" lon="-122.153916">
        <ele>40.9</ele>
        <time>2015-04-27T19:30:35Z</time>
      </trkpt>
      <trkpt lat="37.40536" lon="-122.153798">
        <ele>40.7</ele>
        <time>2015-04-27T19:30:36Z</time>
      </trkpt>
      <trkpt lat="37.405341" lon="-122.15368">
        <ele>40.3</ele>
        <time>2015-04-27T19:30:37Z</time>
      </trkpt>
      <trkpt lat="37.40533" lon="-122.153548">
        <ele>40</ele>
        <time>2015-04-27T19:30:38Z</time>
      </trkpt>
      <trkpt lat="37.40531" lon="-122.153424">
        <ele>39.7</ele>
        <time>2015-04-27T19:30:39Z</time>
      </trkpt>
      <trkpt lat="37.405299" lon="-122.153299">
        <ele>39.4</ele>
        <time>2015-04-27T19:30:40Z</time>
      </trkpt>
      <trkpt lat="37.405285" lon="-122.153171">
        <ele>39</ele>
        <time>2015-04-27T19:30:41Z</time>
      </trkpt>
      <trkpt lat="37.405261" lon="-122.153051">
        <ele>39</ele>
        <time>2015-04-27T19:30:42Z</time>
      </trkpt>
      <trkpt lat="37.405246" lon="-122.152939">
        <ele>38.6</ele>
        <time>2015-04-27T19:30:43Z</time>
      </trkpt>
      <trkpt lat="37.405241" lon="-122.15281">
        <ele>38.3</ele>
        <time>2015-04-27T19:30:44Z</time>
      </trkpt>
      <trkpt lat="37.405241" lon="-122.152676">
        <ele>38</ele>
        <time>2015-04-27T19:30:45Z</time>
      </trkpt>
      <trkpt lat="37.405227" lon="-122.15256">
        <ele>37.7</ele>
        <time>2015-04-27T19:30:46Z</time>
      </trkpt>
      <trkpt lat="37.405219" lon="-122.152433">
        <ele>37.5</ele>
        <time>2015-04-27T19:30:47Z</time>
      </trkpt>
      <trkpt lat="37.405202" lon="-122.152316">
        <ele>37.2</ele>
        <time>2015-04-27T19:30:48Z</time>
      </trkpt>
      <trkpt lat="37.40519" lon="-122.152201">
        <ele>36.9</ele>
        <time>2015-04-27T19:30:49Z</time>
      </trkpt>
      <trkpt lat="37.405177" lon="-122.152078">
        <ele>36.6</ele>
        <time>2015-04-27T19:30:50Z</time>
      </trkpt>
      <trkpt lat="37.405169" lon="-122.151951">
        <ele>36.4</ele>
        <time>2015-04-27T19:30:51Z</time>
      </trkpt>
      <trkpt lat="37.405163" lon="-122.15183">
        <ele>36.1</ele>
        <time>2015-04-27T19:30:52Z</time>
      </trkpt>
      <trkpt lat="37.405152" lon="-122.151707">
        <ele>35.8</ele>
        <time>2015-04-27T19:30:53Z</time>
      </trkpt>
      <trkpt lat="37.405141" lon="-122.151583">
        <ele>35.6</ele>
        <time>2015-04-27T19:30:54Z</time>
      </trkpt>
      <trkpt lat="37.405133" lon="-122.151465">
        <ele>35.4</ele>
        <time>2015-04-27T19:30:55Z</time>
      </trkpt>
      <trkpt lat="37.405126" lon="-122.151342">
        <ele>35.1</ele>
        <time>2015-04-27T19:30:56Z</time>
      </trkpt>
      <trkpt lat="37.405116" lon="-122.151226">
        <ele>34.8</ele>
        <time>2015-04-27T19:30:57Z</time>
      </trkpt>
      <trkpt lat="37.405111" lon="-122.151114">
        <ele>34.7</ele>
        <time>2015-04-27T19:30:58Z</time>
      </trkpt>
      <trkpt lat="37.405098" lon="-122.150994">
        <ele>34.5</ele>
        <time>2015-04-27T19:30:59Z</time>
      </trkpt>
      <trkpt lat="37.40509" lon="-122.150873">
        <ele>34.3</ele>
        <time>2015-04-27T19:31:00Z</time>
      </trkpt>
      <trkpt lat="37.405086" lon="-122.150753">
        <ele>34.2</ele>
        <time>2015-04-27T19:31:01Z</time>
      </trkpt>
      <trkpt lat="37.405079" lon="-122.150634">
        <ele>34.2</ele>
        <time>2015-04-27T19:31:02Z</time>
      </trkpt>
      <trkpt lat="37.405071" lon="-122.150508">
        <ele>34</ele>
        <time>2015-04-27T19:31:03Z</time>
      </trkpt>
      <trkpt lat="37.405062" lon="-122.150395">
        <ele>34</ele>
        <time>2015-04-27T19:31:04Z</time>
      </trkpt>
      <trkpt lat="37.405026" lon="-122.150299">
        <ele>33.8</ele>
        <time>2015-04-27T19:31:05Z</time>
      </trkpt>
      <trkpt lat="37.405027" lon="-122.150173">
        <ele>33.7</ele>
        <time>2015-04-27T19:31:06Z</time>
      </trkpt>
      <trkpt lat="37.405017" lon="-122.150039">
        <ele>33.6</ele>
        <time>2015-04-27T19:31:07Z</time>
      </trkpt>
      <trkpt lat="37.405014" lon="-122.149929">
        <ele>33.5</ele>
        <time>2015-04-27T19:31:08Z</time>
      </trkpt>
      <trkpt lat="37.405003" lon="-122.149807">
        <ele>33.5</ele>
        <time>2015-04-27T19:31:09Z</time>
      </trkpt>
      <trkpt lat="37.404997" lon="-122.149691">
        <ele>33.4</ele>
        <time>2015-04-27T19:31:10Z</time>
      </trkpt>
      <trkpt lat="37.404995" lon="-122.149571">
        <ele>33.3</ele>
        <time>2015-04-27T19:31:11Z</time>
      </trkpt>
      <trkpt lat="37.404994" lon="-122.149446">
        <ele>33.3</ele>
        <time>2015-04-27T19:31:12Z</time>
      </trkpt>
      <trkpt lat="37.404981" lon="-122.14933">
        <ele>33.2</ele>
        <time>2015-04-27T19:31:13Z</time>
      </trkpt>
      <trkpt lat="37.404951" lon="-122.149221">
        <ele>33</ele>
        <time>2015-04-27T19:31:14Z</time>
      </trkpt>
      <trkpt lat="37.404936" lon="-122.149127">
        <ele>32.9</ele>
        <time>2015-04-27T19:31:15Z</time>
      </trkpt>
      <trkpt lat="37.404916" lon="-122.149014">
        <ele>32.8</ele>
        <time>2015-04-27T19:31:16Z</time>
      </trkpt>
      <trkpt lat="37.404898" lon="-122.148904">
        <ele>32.7</ele>
        <time>2015-04-27T19:31:17Z</time>
      </trkpt>
      <trkpt lat="37.404883" lon="-122.148799">
        <ele>32.7</ele>
        <time>2015-04-27T19:31:18Z</time>
      </trkpt>
      <trkpt lat="37.404869" lon="-122.148672">
        <ele>32.6</ele>
        <time>2015-04-27T19:31:19Z</time>
      </trkpt>
      <trkpt lat="37.404845" lon="-122.148561">
        <ele>32.4</ele>
        <time>2015-04-27T19:31:20Z</time>
      </trkpt>
      <trkpt lat="37.404837" lon="-122.148454">
        <ele>32.3</ele>
        <time>2015-04-27T19:31:21Z</time>
      </trkpt>
      <trkpt lat="37.404807" lon="-122.148346">
        <ele>32.2</ele>
        <time>2015-04-27T19:31:22Z</time>
      </trkpt>
      <trkpt lat="37.40479" lon="-122.148243">
        <ele>32.1</ele>
        <time>2015-04-27T19:31:23Z</time>
      </trkpt>
      <trkpt lat="37.404767" lon="-122.148141">
        <ele>32</ele>
        <time>2015-04-27T19:31:24Z</time>
      </trkpt>
      <trkpt lat="37.404751" lon="-122.148029">
        <ele>32</ele>
        <time>2015-04-27T19:31:25Z</time>
      </trkpt>
      <trkpt lat="37.404727" lon="-122.147921">
        <ele>31.9</ele>
        <time>2015-04-27T19:31:26Z</time>
      </trkpt>
      <trkpt lat="37.404708" lon="-122.147797">
        <ele>31.8</ele>
        <time>2015-04-27T19:31:27Z</time>
      </trkpt>
      <trkpt lat="37.404685" lon="-122.147695">
        <ele>31.7</ele>
        <time>2015-04-27T19:31:28Z</time>
      </trkpt>
      <trkpt lat="37.404657" lon="-122.147596">
        <ele>31.6</ele>
        <time>2015-04-27T19:31:29Z</time>
      </trkpt>
      <trkpt lat="37.404636" lon="-122.14749">
        <ele>31.6</ele>
        <time>2015-04-27T19:31:30Z</time>
      </trkpt>
      <trkpt lat="37.404629" lon="-122.147383">
        <ele>31.6</ele>
        <time>2015-04-27T19:31:31Z</time>
      </trkpt>
      <trkpt lat="37.404604" lon="-122.147283">
        <ele>31.4</ele>
        <time>2015-04-27T19:31:32Z</time>
      </trkpt>
      <trkpt lat="37.404583" lon="-122.147175">
        <ele>31.4</ele>
        <time>2015-04-27T19:31:33Z</time>
      </trkpt>
      <trkpt lat="37.404566" lon="-122.147073">
        <ele>31.3</ele>
        <time>2015-04-27T19:31:34Z</time>
      </trkpt>
      <trkpt lat="37.404536" lon="-122.146975">
        <ele>31.3</ele>
        <time>2015-04-27T19:31:35Z</time>
      </trkpt>
      <trkpt lat="37.404517" lon="-122.146893">
        <ele>31.3</ele>
        <time>2015-04-27T19:31:36Z</time>
      </trkpt>
      <trkpt lat="37.404497" lon="-122.146788">
        <ele>31.2</ele>
        <time>2015-04-27T19:31:37Z</time>
      </trkpt>
      <trkpt lat="37.404473" lon="-122.146703">
        <ele>31.2</ele>
        <time>2015-04-27T19:31:38Z</time>
      </trkpt>
      <trkpt lat="37.404449" lon="-122.146612">
        <ele>31.1</ele>
        <time>2015-04-27T19:31:39Z</time>
      </trkpt>
      <trkpt lat="37.404416" lon="-122.146524">
        <ele>31.1</ele>
        <time>2015-04-27T19:31:40Z</time>
      </trkpt>
      <trkpt lat="37.404397" lon="-122.146445">
        <ele>31.1</ele>
        <time>2015-04-27T19:31:41Z</time>
      </trkpt>
      <trkpt lat="37.404342" lon="-122.146383">
        <ele>30.9</ele>
        <time>2015-04-27T19:31:42Z</time>
      </trkpt>
      <trkpt lat="37.404302" lon="-122.146326">
        <ele>30.8</ele>
        <time>2015-04-27T19:31:43Z</time>
      </trkpt>
      <trkpt lat="37.404243" lon="-122.146256">
        <ele>30.6</ele>
        <time>2015-04-27T19:31:44Z</time>
      </trkpt>
      <trkpt lat="37.404185" lon="-122.146207">
        <ele>30.4</ele>
        <time>2015-04-27T19:31:45Z</time>
      </trkpt>
      <trkpt lat="37.404124" lon="-122.14617">
        <ele>30.4</ele>
        <time>2015-04-27T19:31:46Z</time>
      </trkpt>
      <trkpt lat="37.404056" lon="-122.146143">
        <ele>30.4</ele>
        <time>2015-04-27T19:31:47Z</time>
      </trkpt>
      <trkpt lat="37.404012" lon="-122.146125">
        <ele>30.5</ele>
        <time>2015-04-27T19:31:48Z</time>
      </trkpt>
      <trkpt lat="37.40377" lon="-122.146112">
        <ele>31.1</ele>
        <time>2015-04-27T19:31:51Z</time>
      </trkpt>
      <trkpt lat="37.403497" lon="-122.146071">
        <ele>32.4</ele>
        <time>2015-04-27T19:31:55Z</time>
      </trkpt>
      <trkpt lat="37.403445" lon="-122.146053">
        <ele>32.7</ele>
        <time>2015-04-27T19:31:56Z</time>
      </trkpt>
      <trkpt lat="37.403388" lon="-122.146032">
        <ele>33.1</ele>
        <time>2015-04-27T19:31:57Z</time>
      </trkpt>
      <trkpt lat="37.403331" lon="-122.14601">
        <ele>33.5</ele>
        <time>2015-04-27T19:31:58Z</time>
      </trkpt>
      <trkpt lat="37.403278" lon="-122.14599">
        <ele>33.9</ele>
        <time>2015-04-27T19:31:59Z</time>
      </trkpt>
      <trkpt lat="37.403223" lon="-122.14597">
        <ele>34.3</ele>
        <time>2015-04-27T19:32:00Z</time>
      </trkpt>
      <trkpt lat="37.403169" lon="-122.14595">
        <ele>34.7</ele>
        <time>2015-04-27T19:32:01Z</time>
      </trkpt>
      <trkpt lat="37.403117" lon="-122.145931">
        <ele>35.2</ele>
        <time>2015-04-27T19:32:02Z</time>
      </trkpt>
      <trkpt lat="37.403066" lon="-122.145913">
        <ele>35.5</ele>
        <time>2015-04-27T19:32:03Z</time>
      </trkpt>
      <trkpt lat="37.403016" lon="-122.145895">
        <ele>36</ele>
        <time>2015-04-27T19:32:04Z</time>
      </trkpt>
      <trkpt lat="37.402972" lon="-122.145878">
        <ele>36.3</ele>
        <time>2015-04-27T19:32:05Z</time>
      </trkpt>
      <trkpt lat="37.402919" lon="-122.145859">
        <ele>36.8</ele>
        <time>2015-04-27T19:32:06Z</time>
      </trkpt>
      <trkpt lat="37.402876" lon="-122.145844">
        <ele>37.1</ele>
        <time>2015-04-27T19:32:07Z</time>
      </trkpt>
      <trkpt lat="37.402835" lon="-122.145829">
        <ele>37.4</ele>
        <time>2015-04-27T19:32:08Z</time>
      </trkpt>
      <trkpt lat="37.402785" lon="-122.145811">
        <ele>37.8</ele>
        <time>2015-04-27T19:32:09Z</time>
      </trkpt>
      <trkpt lat="37.402743" lon="-122.145796">
        <ele>38.2</ele>
        <time>2015-04-27T19:32:10Z</time>
      </trkpt>
      <trkpt lat="37.402683" lon="-122.145774">
        <ele>38.6</ele>
        <time>2015-04-27T19:32:11Z</time>
      </trkpt>
      <trkpt lat="37.402638" lon="-122.145758">
        <ele>39</ele>
        <time>2015-04-27T19:32:12Z</time>
      </trkpt>
      <trkpt lat="37.402599" lon="-122.145744">
        <ele>39.3</ele>
        <time>2015-04-27T19:32:13Z</time>
      </trkpt>
      <trkpt lat="37.402555" lon="-122.145728">
        <ele>39.7</ele>
        <time>2015-04-27T19:32:14Z</time>
      </trkpt>
      <trkpt lat="37.40252" lon="-122.145716">
        <ele>40</ele>
        <time>2015-04-27T19:32:15Z</time>
      </trkpt>
      <trkpt lat="37.402481" lon="-122.145701">
        <ele>40.2</ele>
        <time>2015-04-27T19:32:16Z</time>
      </trkpt>
      <trkpt lat="37.402441" lon="-122.145687">
        <ele>40.6</ele>
        <time>2015-04-27T19:32:17Z</time>
      </trkpt>
      <trkpt lat="37.402384" lon="-122.145666">
        <ele>41</ele>
        <time>2015-04-27T19:32:19Z</time>
      </trkpt>
      <trkpt lat="37.402349" lon="-122.145654">
        <ele>41.3</ele>
        <time>2015-04-27T19:32:20Z</time>
      </trkpt>
      <trkpt lat="37.402314" lon="-122.145692">
        <ele>41.6</ele>
        <time>2015-04-27T19:32:21Z</time>
      </trkpt>
      <trkpt lat="37.402273" lon="-122.14569">
        <ele>42</ele>
        <time>2015-04-27T19:32:22Z</time>
      </trkpt>
      <trkpt lat="37.402206" lon="-122.145675">
        <ele>42.4</ele>
        <time>2015-04-27T19:32:24Z</time>
      </trkpt>
      <trkpt lat="37.402173" lon="-122.145667">
        <ele>42.6</ele>
        <time>2015-04-27T19:32:25Z</time>
      </trkpt>
      <trkpt lat="37.402138" lon="-122.145659">
        <ele>43</ele>
        <time>2015-04-27T19:32:26Z</time>
      </trkpt>
      <trkpt lat="37.402102" lon="-122.145649">
        <ele>43.3</ele>
        <time>2015-04-27T19:32:27Z</time>
      </trkpt>
      <trkpt lat="37.402063" lon="-122.145634">
        <ele>43.6</ele>
        <time>2015-04-27T19:32:28Z</time>
      </trkpt>
      <trkpt lat="37.402024" lon="-122.145616">
        <ele>43.9</ele>
        <time>2015-04-27T19:32:29Z</time>
      </trkpt>
      <trkpt lat="37.40199" lon="-122.145598">
        <ele>44.2</ele>
        <time>2015-04-27T19:32:30Z</time>
      </trkpt>
      <trkpt lat="37.401962" lon="-122.145585">
        <ele>44.4</ele>
        <time>2015-04-27T19:32:31Z</time>
      </trkpt>
      <trkpt lat="37.401936" lon="-122.145572">
        <ele>44.7</ele>
        <time>2015-04-27T19:32:32Z</time>
      </trkpt>
      <trkpt lat="37.401904" lon="-122.145558">
        <ele>44.9</ele>
        <time>2015-04-27T19:32:33Z</time>
      </trkpt>
      <trkpt lat="37.401873" lon="-122.14555">
        <ele>45.1</ele>
        <time>2015-04-27T19:32:34Z</time>
      </trkpt>
      <trkpt lat="37.401843" lon="-122.145544">
        <ele>45.3</ele>
        <time>2015-04-27T19:32:35Z</time>
      </trkpt>
      <trkpt lat="37.401815" lon="-122.145535">
        <ele>45.5</ele>
        <time>2015-04-27T19:32:36Z</time>
      </trkpt>
      <trkpt lat="37.401787" lon="-122.145522">
        <ele>45.7</ele>
        <time>2015-04-27T19:32:37Z</time>
      </trkpt>
      <trkpt lat="37.401758" lon="-122.145508">
        <ele>45.9</ele>
        <time>2015-04-27T19:32:38Z</time>
      </trkpt>
      <trkpt lat="37.40173" lon="-122.145493">
        <ele>46.1</ele>
        <time>2015-04-27T19:32:39Z</time>
      </trkpt>
      <trkpt lat="37.401706" lon="-122.145479">
        <ele>46.3</ele>
        <time>2015-04-27T19:32:40Z</time>
      </trkpt>
      <trkpt lat="37.401677" lon="-122.145465">
        <ele>46.4</ele>
        <time>2015-04-27T19:32:41Z</time>
      </trkpt>
      <trkpt lat="37.401641" lon="-122.14545">
        <ele>46.7</ele>
        <time>2015-04-27T19:32:42Z</time>
      </trkpt>
      <trkpt lat="37.401606" lon="-122.145438">
        <ele>46.9</ele>
        <time>2015-04-27T19:32:43Z</time>
      </trkpt>
      <trkpt lat="37.401573" lon="-122.145429">
        <ele>47.1</ele>
        <time>2015-04-27T19:32:44Z</time>
      </trkpt>
      <trkpt lat="37.40154" lon="-122.145421">
        <ele>47.3</ele>
        <time>2015-04-27T19:32:45Z</time>
      </trkpt>
      <trkpt lat="37.40151" lon="-122.145409">
        <ele>47.5</ele>
        <time>2015-04-27T19:32:46Z</time>
      </trkpt>
      <trkpt lat="37.401481" lon="-122.145396">
        <ele>47.6</ele>
        <time>2015-04-27T19:32:47Z</time>
      </trkpt>
      <trkpt lat="37.401452" lon="-122.145384">
        <ele>47.8</ele>
        <time>2015-04-27T19:32:48Z</time>
      </trkpt>
      <trkpt lat="37.401418" lon="-122.145375">
        <ele>47.9</ele>
        <time>2015-04-27T19:32:49Z</time>
      </trkpt>
      <trkpt lat="37.401384" lon="-122.145366">
        <ele>48</ele>
        <time>2015-04-27T19:32:50Z</time>
      </trkpt>
      <trkpt lat="37.401349" lon="-122.145355">
        <ele>48.1</ele>
        <time>2015-04-27T19:32:51Z</time>
      </trkpt>
      <trkpt lat="37.401314" lon="-122.145344">
        <ele>48.3</ele>
        <time>2015-04-27T19:32:52Z</time>
      </trkpt>
      <trkpt lat="37.401277" lon="-122.145334">
        <ele>48.5</ele>
        <time>2015-04-27T19:32:53Z</time>
      </trkpt>
      <trkpt lat="37.401239" lon="-122.145323">
        <ele>48.5</ele>
        <time>2015-04-27T19:32:54Z</time>
      </trkpt>
      <trkpt lat="37.401201" lon="-122.145312">
        <ele>48.7</ele>
        <time>2015-04-27T19:32:55Z</time>
      </trkpt>
      <trkpt lat="37.401162" lon="-122.145302">
        <ele>48.9</ele>
        <time>2015-04-27T19:32:56Z</time>
      </trkpt>
      <trkpt lat="37.401125" lon="-122.145293">
        <ele>48.9</ele>
        <time>2015-04-27T19:32:57Z</time>
      </trkpt>
      <trkpt lat="37.401088" lon="-122.145284">
        <ele>49</ele>
        <time>2015-04-27T19:32:58Z</time>
      </trkpt>
      <trkpt lat="37.40105" lon="-122.145274">
        <ele>49.2</ele>
        <time>2015-04-27T19:32:59Z</time>
      </trkpt>
      <trkpt lat="37.401014" lon="-122.145263">
        <ele>49.3</ele>
        <time>2015-04-27T19:33:00Z</time>
      </trkpt>
      <trkpt lat="37.400977" lon="-122.14525">
        <ele>49.4</ele>
        <time>2015-04-27T19:33:01Z</time>
      </trkpt>
      <trkpt lat="37.400939" lon="-122.145237">
        <ele>49.3</ele>
        <time>2015-04-27T19:33:02Z</time>
      </trkpt>
      <trkpt lat="37.400899" lon="-122.145222">
        <ele>49.3</ele>
        <time>2015-04-27T19:33:03Z</time>
      </trkpt>
      <trkpt lat="37.400857" lon="-122.145208">
        <ele>49.4</ele>
        <time>2015-04-27T19:33:04Z</time>
      </trkpt>
      <trkpt lat="37.400815" lon="-122.145193">
        <ele>49.5</ele>
        <time>2015-04-27T19:33:05Z</time>
      </trkpt>
      <trkpt lat="37.400772" lon="-122.145179">
        <ele>49.5</ele>
        <time>2015-04-27T19:33:06Z</time>
      </trkpt>
      <trkpt lat="37.400729" lon="-122.145165">
        <ele>49.5</ele>
        <time>2015-04-27T19:33:07Z</time>
      </trkpt>
      <trkpt lat="37.400687" lon="-122.145149">
        <ele>49.5</ele>
        <time>2015-04-27T19:33:08Z</time>
      </trkpt>
      <trkpt lat="37.400644" lon="-122.145134">
        <ele>49.6</ele>
        <time>2015-04-27T19:33:09Z</time>
      </trkpt>
      <trkpt lat="37.400601" lon="-122.14512">
        <ele>49.8</ele>
        <time>2015-04-27T19:33:10Z</time>
      </trkpt>
      <trkpt lat="37.400557" lon="-122.145106">
        <ele>49.8</ele>
        <time>2015-04-27T19:33:11Z</time>
      </trkpt>
      <trkpt lat="37.400514" lon="-122.145091">
        <ele>49.9</ele>
        <time>2015-04-27T19:33:12Z</time>
      </trkpt>
      <trkpt lat="37.400472" lon="-122.145074">
        <ele>49.8</ele>
        <time>2015-04-27T19:33:13Z</time>
      </trkpt>
      <trkpt lat="37.400431" lon="-122.145054">
        <ele>50</ele>
        <time>2015-04-27T19:33:14Z</time>
      </trkpt>
      <trkpt lat="37.400387" lon="-122.145028">
        <ele>50</ele>
        <time>2015-04-27T19:33:15Z</time>
      </trkpt>
      <trkpt lat="37.400344" lon="-122.144998">
        <ele>50.1</ele>
        <time>2015-04-27T19:33:16Z</time>
      </trkpt>
      <trkpt lat="37.400303" lon="-122.144982">
        <ele>50.2</ele>
        <time>2015-04-27T19:33:18Z</time>
      </trkpt>
      <trkpt lat="37.400253" lon="-122.144977">
        <ele>50.3</ele>
        <time>2015-04-27T19:33:19Z</time>
      </trkpt>
      <trkpt lat="37.400168" lon="-122.144906">
        <ele>50.5</ele>
        <time>2015-04-27T19:33:20Z</time>
      </trkpt>
      <trkpt lat="37.400112" lon="-122.144887">
        <ele>50.6</ele>
        <time>2015-04-27T19:33:22Z</time>
      </trkpt>
      <trkpt lat="37.40008" lon="-122.144876">
        <ele>50.8</ele>
        <time>2015-04-27T19:33:23Z</time>
      </trkpt>
      <trkpt lat="37.400044" lon="-122.144863">
        <ele>50.9</ele>
        <time>2015-04-27T19:33:24Z</time>
      </trkpt>
      <trkpt lat="37.400009" lon="-122.144851">
        <ele>51</ele>
        <time>2015-04-27T19:33:25Z</time>
      </trkpt>
      <trkpt lat="37.399955" lon="-122.144832">
        <ele>51.3</ele>
        <time>2015-04-27T19:33:26Z</time>
      </trkpt>
      <trkpt lat="37.399922" lon="-122.144821">
        <ele>51.4</ele>
        <time>2015-04-27T19:33:27Z</time>
      </trkpt>
      <trkpt lat="37.399883" lon="-122.144807">
        <ele>51.6</ele>
        <time>2015-04-27T19:33:28Z</time>
      </trkpt>
      <trkpt lat="37.399843" lon="-122.144793">
        <ele>51.8</ele>
        <time>2015-04-27T19:33:29Z</time>
      </trkpt>
      <trkpt lat="37.399781" lon="-122.144772">
        <ele>52.1</ele>
        <time>2015-04-27T19:33:31Z</time>
      </trkpt>
      <trkpt lat="37.399746" lon="-122.144759">
        <ele>52.3</ele>
        <time>2015-04-27T19:33:32Z</time>
      </trkpt>
      <trkpt lat="37.399713" lon="-122.144747">
        <ele>52.5</ele>
        <time>2015-04-27T19:33:33Z</time>
      </trkpt>
      <trkpt lat="37.399676" lon="-122.144734">
        <ele>52.8</ele>
        <time>2015-04-27T19:33:34Z</time>
      </trkpt>
      <trkpt lat="37.399644" lon="-122.144723">
        <ele>52.9</ele>
        <time>2015-04-27T19:33:35Z</time>
      </trkpt>
      <trkpt lat="37.399612" lon="-122.144711">
        <ele>53.2</ele>
        <time>2015-04-27T19:33:36Z</time>
      </trkpt>
      <trkpt lat="37.39958" lon="-122.1447">
        <ele>53.3</ele>
        <time>2015-04-27T19:33:37Z</time>
      </trkpt>
      <trkpt lat="37.399547" lon="-122.144688">
        <ele>53.5</ele>
        <time>2015-04-27T19:33:38Z</time>
      </trkpt>
      <trkpt lat="37.399516" lon="-122.144677">
        <ele>53.7</ele>
        <time>2015-04-27T19:33:39Z</time>
      </trkpt>
      <trkpt lat="37.399478" lon="-122.144663">
        <ele>53.9</ele>
        <time>2015-04-27T19:33:40Z</time>
      </trkpt>
      <trkpt lat="37.399446" lon="-122.144652">
        <ele>54.1</ele>
        <time>2015-04-27T19:33:41Z</time>
      </trkpt>
      <trkpt lat="37.39941" lon="-122.144639">
        <ele>54.2</ele>
        <time>2015-04-27T19:33:42Z</time>
      </trkpt>
      <trkpt lat="37.399374" lon="-122.144626">
        <ele>54.4</ele>
        <time>2015-04-27T19:33:43Z</time>
      </trkpt>
      <trkpt lat="37.399335" lon="-122.144612">
        <ele>54.5</ele>
        <time>2015-04-27T19:33:44Z</time>
      </trkpt>
      <trkpt lat="37.3993" lon="-122.1446">
        <ele>54.7</ele>
        <time>2015-04-27T19:33:45Z</time>
      </trkpt>
      <trkpt lat="37.399271" lon="-122.144589">
        <ele>54.8</ele>
        <time>2015-04-27T19:33:46Z</time>
      </trkpt>
      <trkpt lat="37.399243" lon="-122.144579">
        <ele>55</ele>
        <time>2015-04-27T19:33:47Z</time>
      </trkpt>
      <trkpt lat="37.39921" lon="-122.144567">
        <ele>55</ele>
        <time>2015-04-27T19:33:48Z</time>
      </trkpt>
      <trkpt lat="37.399173" lon="-122.144554">
        <ele>55.2</ele>
        <time>2015-04-27T19:33:49Z</time>
      </trkpt>
      <trkpt lat="37.399136" lon="-122.144541">
        <ele>55.4</ele>
        <time>2015-04-27T19:33:50Z</time>
      </trkpt>
      <trkpt lat="37.399103" lon="-122.144529">
        <ele>55.4</ele>
        <time>2015-04-27T19:33:51Z</time>
      </trkpt>
      <trkpt lat="37.399068" lon="-122.144516">
        <ele>55.6</ele>
        <time>2015-04-27T19:33:52Z</time>
      </trkpt>
      <trkpt lat="37.399" lon="-122.144492">
        <ele>55.8</ele>
        <time>2015-04-27T19:33:54Z</time>
      </trkpt>
      <trkpt lat="37.398964" lon="-122.144479">
        <ele>55.9</ele>
        <time>2015-04-27T19:33:55Z</time>
      </trkpt>
      <trkpt lat="37.39892" lon="-122.144463">
        <ele>56</ele>
        <time>2015-04-27T19:33:56Z</time>
      </trkpt>
      <trkpt lat="37.398876" lon="-122.144447">
        <ele>56.1</ele>
        <time>2015-04-27T19:33:57Z</time>
      </trkpt>
      <trkpt lat="37.398835" lon="-122.144433">
        <ele>56.2</ele>
        <time>2015-04-27T19:33:58Z</time>
      </trkpt>
      <trkpt lat="37.398796" lon="-122.144419">
        <ele>56.3</ele>
        <time>2015-04-27T19:33:59Z</time>
      </trkpt>
      <trkpt lat="37.398754" lon="-122.144404">
        <ele>56.4</ele>
        <time>2015-04-27T19:34:00Z</time>
      </trkpt>
      <trkpt lat="37.398711" lon="-122.144389">
        <ele>56.4</ele>
        <time>2015-04-27T19:34:01Z</time>
      </trkpt>
      <trkpt lat="37.39867" lon="-122.144374">
        <ele>56.5</ele>
        <time>2015-04-27T19:34:02Z</time>
      </trkpt>
      <trkpt lat="37.398631" lon="-122.14436">
        <ele>56.5</ele>
        <time>2015-04-27T19:34:03Z</time>
      </trkpt>
      <trkpt lat="37.39858" lon="-122.144341">
        <ele>56.6</ele>
        <time>2015-04-27T19:34:04Z</time>
      </trkpt>
      <trkpt lat="37.398548" lon="-122.14433">
        <ele>56.6</ele>
        <time>2015-04-27T19:34:05Z</time>
      </trkpt>
      <trkpt lat="37.39848" lon="-122.144306">
        <ele>56.6</ele>
        <time>2015-04-27T19:34:06Z</time>
      </trkpt>
      <trkpt lat="37.398422" lon="-122.144285">
        <ele>56.6</ele>
        <time>2015-04-27T19:34:07Z</time>
      </trkpt>
      <trkpt lat="37.398215" lon="-122.144213">
        <ele>56.5</ele>
        <time>2015-04-27T19:34:11Z</time>
      </trkpt>
      <trkpt lat="37.398166" lon="-122.144196">
        <ele>56.4</ele>
        <time>2015-04-27T19:34:12Z</time>
      </trkpt>
      <trkpt lat="37.398105" lon="-122.144175">
        <ele>56.5</ele>
        <time>2015-04-27T19:34:13Z</time>
      </trkpt>
      <trkpt lat="37.398034" lon="-122.144151">
        <ele>56.4</ele>
        <time>2015-04-27T19:34:14Z</time>
      </trkpt>
      <trkpt lat="37.397976" lon="-122.144131">
        <ele>56.4</ele>
        <time>2015-04-27T19:34:15Z</time>
      </trkpt>
      <trkpt lat="37.397908" lon="-122.144107">
        <ele>56.3</ele>
        <time>2015-04-27T19:34:16Z</time>
      </trkpt>
      <trkpt lat="37.39787" lon="-122.144094">
        <ele>56.3</ele>
        <time>2015-04-27T19:34:17Z</time>
      </trkpt>
      <trkpt lat="37.397814" lon="-122.144076">
        <ele>56.3</ele>
        <time>2015-04-27T19:34:18Z</time>
      </trkpt>
      <trkpt lat="37.397748" lon="-122.144053">
        <ele>56.2</ele>
        <time>2015-04-27T19:34:19Z</time>
      </trkpt>
      <trkpt lat="37.397685" lon="-122.144032">
        <ele>56.2</ele>
        <time>2015-04-27T19:34:20Z</time>
      </trkpt>
      <trkpt lat="37.397644" lon="-122.144019">
        <ele>56.2</ele>
        <time>2015-04-27T19:34:21Z</time>
      </trkpt>
      <trkpt lat="37.397585" lon="-122.143999">
        <ele>56.2</ele>
        <time>2015-04-27T19:34:22Z</time>
      </trkpt>
      <trkpt lat="37.397523" lon="-122.143979">
        <ele>56.1</ele>
        <time>2015-04-27T19:34:23Z</time>
      </trkpt>
      <trkpt lat="37.397463" lon="-122.14396">
        <ele>56.1</ele>
        <time>2015-04-27T19:34:24Z</time>
      </trkpt>
      <trkpt lat="37.397409" lon="-122.143943">
        <ele>56</ele>
        <time>2015-04-27T19:34:26Z</time>
      </trkpt>
      <trkpt lat="37.397346" lon="-122.143924">
        <ele>56</ele>
        <time>2015-04-27T19:34:27Z</time>
      </trkpt>
      <trkpt lat="37.397231" lon="-122.14389">
        <ele>56</ele>
        <time>2015-04-27T19:34:28Z</time>
      </trkpt>
      <trkpt lat="37.397165" lon="-122.143871">
        <ele>55.9</ele>
        <time>2015-04-27T19:34:29Z</time>
      </trkpt>
      <trkpt lat="37.397098" lon="-122.143851">
        <ele>55.7</ele>
        <time>2015-04-27T19:34:31Z</time>
      </trkpt>
      <trkpt lat="37.397038" lon="-122.143833">
        <ele>55.6</ele>
        <time>2015-04-27T19:34:32Z</time>
      </trkpt>
      <trkpt lat="37.396893" lon="-122.143834">
        <ele>55.3</ele>
        <time>2015-04-27T19:34:33Z</time>
      </trkpt>
      <trkpt lat="37.396825" lon="-122.143815">
        <ele>55.2</ele>
        <time>2015-04-27T19:34:34Z</time>
      </trkpt>
      <trkpt lat="37.39677" lon="-122.143805">
        <ele>55.2</ele>
        <time>2015-04-27T19:34:35Z</time>
      </trkpt>
      <trkpt lat="37.396704" lon="-122.143802">
        <ele>54.7</ele>
        <time>2015-04-27T19:34:36Z</time>
      </trkpt>
      <trkpt lat="37.396637" lon="-122.143765">
        <ele>54.5</ele>
        <time>2015-04-27T19:34:37Z</time>
      </trkpt>
      <trkpt lat="37.396569" lon="-122.143741">
        <ele>54.1</ele>
        <time>2015-04-27T19:34:38Z</time>
      </trkpt>
      <trkpt lat="37.396501" lon="-122.143712">
        <ele>53.9</ele>
        <time>2015-04-27T19:34:39Z</time>
      </trkpt>
      <trkpt lat="37.396417" lon="-122.143708">
        <ele>53.5</ele>
        <time>2015-04-27T19:34:40Z</time>
      </trkpt>
      <trkpt lat="37.396346" lon="-122.143677">
        <ele>53.2</ele>
        <time>2015-04-27T19:34:41Z</time>
      </trkpt>
      <trkpt lat="37.396264" lon="-122.143661">
        <ele>52.9</ele>
        <time>2015-04-27T19:34:42Z</time>
      </trkpt>
      <trkpt lat="37.396178" lon="-122.143651">
        <ele>52.6</ele>
        <time>2015-04-27T19:34:43Z</time>
      </trkpt>
      <trkpt lat="37.396098" lon="-122.143636">
        <ele>52.2</ele>
        <time>2015-04-27T19:34:44Z</time>
      </trkpt>
      <trkpt lat="37.396017" lon="-122.143616">
        <ele>51.8</ele>
        <time>2015-04-27T19:34:45Z</time>
      </trkpt>
      <trkpt lat="37.395939" lon="-122.143602">
        <ele>51.4</ele>
        <time>2015-04-27T19:34:46Z</time>
      </trkpt>
      <trkpt lat="37.395857" lon="-122.143583">
        <ele>50.9</ele>
        <time>2015-04-27T19:34:47Z</time>
      </trkpt>
      <trkpt lat="37.395752" lon="-122.143567">
        <ele>50.3</ele>
        <time>2015-04-27T19:34:48Z</time>
      </trkpt>
      <trkpt lat="37.395668" lon="-122.143543">
        <ele>49.6</ele>
        <time>2015-04-27T19:34:49Z</time>
      </trkpt>
      <trkpt lat="37.395583" lon="-122.143514">
        <ele>48.9</ele>
        <time>2015-04-27T19:34:50Z</time>
      </trkpt>
      <trkpt lat="37.395505" lon="-122.143506">
        <ele>48.3</ele>
        <time>2015-04-27T19:34:51Z</time>
      </trkpt>
      <trkpt lat="37.395418" lon="-122.143489">
        <ele>47.5</ele>
        <time>2015-04-27T19:34:52Z</time>
      </trkpt>
      <trkpt lat="37.395321" lon="-122.143456">
        <ele>46.6</ele>
        <time>2015-04-27T19:34:53Z</time>
      </trkpt>
      <trkpt lat="37.395213" lon="-122.14342">
        <ele>45.7</ele>
        <time>2015-04-27T19:34:54Z</time>
      </trkpt>
      <trkpt lat="37.395116" lon="-122.14339">
        <ele>44.9</ele>
        <time>2015-04-27T19:34:55Z</time>
      </trkpt>
      <trkpt lat="37.395023" lon="-122.14336">
        <ele>44.2</ele>
        <time>2015-04-27T19:34:56Z</time>
      </trkpt>
      <trkpt lat="37.394933" lon="-122.143356">
        <ele>43.8</ele>
        <time>2015-04-27T19:34:57Z</time>
      </trkpt>
      <trkpt lat="37.394865" lon="-122.143343">
        <ele>43.4</ele>
        <time>2015-04-27T19:34:58Z</time>
      </trkpt>
      <trkpt lat="37.394804" lon="-122.143325">
        <ele>43.1</ele>
        <time>2015-04-27T19:34:59Z</time>
      </trkpt>
      <trkpt lat="37.394756" lon="-122.143319">
        <ele>42.9</ele>
        <time>2015-04-27T19:35:00Z</time>
      </trkpt>
      <trkpt lat="37.394713" lon="-122.143317">
        <ele>42.8</ele>
        <time>2015-04-27T19:35:02Z</time>
      </trkpt>
      <trkpt lat="37.394683" lon="-122.143318">
        <ele>42.7</ele>
        <time>2015-04-27T19:35:04Z</time>
      </trkpt>
      <trkpt lat="37.394654" lon="-122.143308">
        <ele>42.7</ele>
        <time>2015-04-27T19:35:06Z</time>
      </trkpt>
      <trkpt lat="37.394615" lon="-122.143309">
        <ele>42.7</ele>
        <time>2015-04-27T19:35:07Z</time>
      </trkpt>
      <trkpt lat="37.394572" lon="-122.143324">
        <ele>42.6</ele>
        <time>2015-04-27T19:35:08Z</time>
      </trkpt>
      <trkpt lat="37.394533" lon="-122.143321">
        <ele>42.6</ele>
        <time>2015-04-27T19:35:09Z</time>
      </trkpt>
      <trkpt lat="37.394492" lon="-122.143301">
        <ele>42.7</ele>
        <time>2015-04-27T19:35:10Z</time>
      </trkpt>
      <trkpt lat="37.394446" lon="-122.143281">
        <ele>42.7</ele>
        <time>2015-04-27T19:35:11Z</time>
      </trkpt>
      <trkpt lat="37.394393" lon="-122.143277">
        <ele>42.8</ele>
        <time>2015-04-27T19:35:13Z</time>
      </trkpt>
      <trkpt lat="37.394285" lon="-122.14325">
        <ele>42.8</ele>
        <time>2015-04-27T19:35:14Z</time>
      </trkpt>
      <trkpt lat="37.394254" lon="-122.143236">
        <ele>42.7</ele>
        <time>2015-04-27T19:35:15Z</time>
      </trkpt>
      <trkpt lat="37.394204" lon="-122.143223">
        <ele>42.5</ele>
        <time>2015-04-27T19:35:16Z</time>
      </trkpt>
      <trkpt lat="37.394149" lon="-122.143216">
        <ele>42.5</ele>
        <time>2015-04-27T19:35:17Z</time>
      </trkpt>
      <trkpt lat="37.394094" lon="-122.143205">
        <ele>42.5</ele>
        <time>2015-04-27T19:35:18Z</time>
      </trkpt>
      <trkpt lat="37.394041" lon="-122.143191">
        <ele>42.6</ele>
        <time>2015-04-27T19:35:19Z</time>
      </trkpt>
      <trkpt lat="37.393982" lon="-122.143178">
        <ele>42.7</ele>
        <time>2015-04-27T19:35:20Z</time>
      </trkpt>
      <trkpt lat="37.39393" lon="-122.143158">
        <ele>42.7</ele>
        <time>2015-04-27T19:35:21Z</time>
      </trkpt>
      <trkpt lat="37.393871" lon="-122.143138">
        <ele>42.8</ele>
        <time>2015-04-27T19:35:22Z</time>
      </trkpt>
      <trkpt lat="37.393816" lon="-122.143121">
        <ele>42.9</ele>
        <time>2015-04-27T19:35:23Z</time>
      </trkpt>
      <trkpt lat="37.393751" lon="-122.143108">
        <ele>42.8</ele>
        <time>2015-04-27T19:35:24Z</time>
      </trkpt>
      <trkpt lat="37.3937" lon="-122.143079">
        <ele>43</ele>
        <time>2015-04-27T19:35:25Z</time>
      </trkpt>
      <trkpt lat="37.39365" lon="-122.143077">
        <ele>43</ele>
        <time>2015-04-27T19:35:26Z</time>
      </trkpt>
      <trkpt lat="37.393604" lon="-122.143054">
        <ele>43.1</ele>
        <time>2015-04-27T19:35:27Z</time>
      </trkpt>
      <trkpt lat="37.39355" lon="-122.143053">
        <ele>43.3</ele>
        <time>2015-04-27T19:35:28Z</time>
      </trkpt>
      <trkpt lat="37.393497" lon="-122.143055">
        <ele>43.5</ele>
        <time>2015-04-27T19:35:29Z</time>
      </trkpt>
      <trkpt lat="37.393451" lon="-122.143041">
        <ele>43.7</ele>
        <time>2015-04-27T19:35:30Z</time>
      </trkpt>
      <trkpt lat="37.393409" lon="-122.143032">
        <ele>43.9</ele>
        <time>2015-04-27T19:35:31Z</time>
      </trkpt>
      <trkpt lat="37.393364" lon="-122.143029">
        <ele>44.1</ele>
        <time>2015-04-27T19:35:32Z</time>
      </trkpt>
      <trkpt lat="37.393328" lon="-122.14303">
        <ele>44.2</ele>
        <time>2015-04-27T19:35:33Z</time>
      </trkpt>
      <trkpt lat="37.39327" lon="-122.143001">
        <ele>44.4</ele>
        <time>2015-04-27T19:35:34Z</time>
      </trkpt>
      <trkpt lat="37.393239" lon="-122.142974">
        <ele>44.5</ele>
        <time>2015-04-27T19:35:36Z</time>
      </trkpt>
      <trkpt lat="37.393183" lon="-122.142991">
        <ele>44.8</ele>
        <time>2015-04-27T19:35:37Z</time>
      </trkpt>
      <trkpt lat="37.393138" lon="-122.142997">
        <ele>44.9</ele>
        <time>2015-04-27T19:35:38Z</time>
      </trkpt>
      <trkpt lat="37.393073" lon="-122.143007">
        <ele>45.1</ele>
        <time>2015-04-27T19:35:39Z</time>
      </trkpt>
      <trkpt lat="37.393008" lon="-122.143008">
        <ele>45.2</ele>
        <time>2015-04-27T19:35:40Z</time>
      </trkpt>
      <trkpt lat="37.39295" lon="-122.143">
        <ele>45.2</ele>
        <time>2015-04-27T19:35:41Z</time>
      </trkpt>
      <trkpt lat="37.392901" lon="-122.142991">
        <ele>45.4</ele>
        <time>2015-04-27T19:35:42Z</time>
      </trkpt>
      <trkpt lat="37.39285" lon="-122.142984">
        <ele>45.6</ele>
        <time>2015-04-27T19:35:43Z</time>
      </trkpt>
      <trkpt lat="37.392798" lon="-122.142983">
        <ele>45.6</ele>
        <time>2015-04-27T19:35:44Z</time>
      </trkpt>
      <trkpt lat="37.392758" lon="-122.143006">
        <ele>45.6</ele>
        <time>2015-04-27T19:35:45Z</time>
      </trkpt>
      <trkpt lat="37.392715" lon="-122.143007">
        <ele>45.8</ele>
        <time>2015-04-27T19:35:46Z</time>
      </trkpt>
      <trkpt lat="37.392655" lon="-122.142999">
        <ele>45.8</ele>
        <time>2015-04-27T19:35:48Z</time>
      </trkpt>
      <trkpt lat="37.392556" lon="-122.143011">
        <ele>46</ele>
        <time>2015-04-27T19:35:49Z</time>
      </trkpt>
      <trkpt lat="37.392496" lon="-122.143013">
        <ele>46.2</ele>
        <time>2015-04-27T19:35:50Z</time>
      </trkpt>
      <trkpt lat="37.392441" lon="-122.143008">
        <ele>46.4</ele>
        <time>2015-04-27T19:35:52Z</time>
      </trkpt>
      <trkpt lat="37.392316" lon="-122.143004">
        <ele>46.6</ele>
        <time>2015-04-27T19:35:53Z</time>
      </trkpt>
      <trkpt lat="37.392269" lon="-122.143013">
        <ele>46.7</ele>
        <time>2015-04-27T19:35:54Z</time>
      </trkpt>
      <trkpt lat="37.392217" lon="-122.143016">
        <ele>46.9</ele>
        <time>2015-04-27T19:35:55Z</time>
      </trkpt>
      <trkpt lat="37.392167" lon="-122.143007">
        <ele>47</ele>
        <time>2015-04-27T19:35:56Z</time>
      </trkpt>
      <trkpt lat="37.392133" lon="-122.143005">
        <ele>47.1</ele>
        <time>2015-04-27T19:35:57Z</time>
      </trkpt>
      <trkpt lat="37.392077" lon="-122.143014">
        <ele>47.3</ele>
        <time>2015-04-27T19:35:58Z</time>
      </trkpt>
      <trkpt lat="37.39203" lon="-122.143005">
        <ele>47.5</ele>
        <time>2015-04-27T19:35:59Z</time>
      </trkpt>
      <trkpt lat="37.391995" lon="-122.142995">
        <ele>47.7</ele>
        <time>2015-04-27T19:36:00Z</time>
      </trkpt>
      <trkpt lat="37.391945" lon="-122.142993">
        <ele>47.9</ele>
        <time>2015-04-27T19:36:01Z</time>
      </trkpt>
      <trkpt lat="37.391897" lon="-122.142988">
        <ele>48.2</ele>
        <time>2015-04-27T19:36:02Z</time>
      </trkpt>
      <trkpt lat="37.391849" lon="-122.142984">
        <ele>48.4</ele>
        <time>2015-04-27T19:36:03Z</time>
      </trkpt>
      <trkpt lat="37.391809" lon="-122.142982">
        <ele>48.6</ele>
        <time>2015-04-27T19:36:04Z</time>
      </trkpt>
      <trkpt lat="37.391755" lon="-122.142981">
        <ele>48.8</ele>
        <time>2015-04-27T19:36:05Z</time>
      </trkpt>
      <trkpt lat="37.391701" lon="-122.142981">
        <ele>49.1</ele>
        <time>2015-04-27T19:36:07Z</time>
      </trkpt>
      <trkpt lat="37.391587" lon="-122.142969">
        <ele>49.6</ele>
        <time>2015-04-27T19:36:08Z</time>
      </trkpt>
      <trkpt lat="37.391543" lon="-122.142969">
        <ele>49.7</ele>
        <time>2015-04-27T19:36:09Z</time>
      </trkpt>
      <trkpt lat="37.39149" lon="-122.142969">
        <ele>50</ele>
        <time>2015-04-27T19:36:10Z</time>
      </trkpt>
      <trkpt lat="37.391437" lon="-122.142972">
        <ele>50.2</ele>
        <time>2015-04-27T19:36:11Z</time>
      </trkpt>
      <trkpt lat="37.391396" lon="-122.142962">
        <ele>50.4</ele>
        <time>2015-04-27T19:36:12Z</time>
      </trkpt>
      <trkpt lat="37.39136" lon="-122.142952">
        <ele>50.5</ele>
        <time>2015-04-27T19:36:13Z</time>
      </trkpt>
      <trkpt lat="37.391313" lon="-122.14296">
        <ele>50.8</ele>
        <time>2015-04-27T19:36:14Z</time>
      </trkpt>
      <trkpt lat="37.391266" lon="-122.142959">
        <ele>51</ele>
        <time>2015-04-27T19:36:15Z</time>
      </trkpt>
      <trkpt lat="37.391207" lon="-122.142977">
        <ele>51.4</ele>
        <time>2015-04-27T19:36:16Z</time>
      </trkpt>
      <trkpt lat="37.391158" lon="-122.143002">
        <ele>51.6</ele>
        <time>2015-04-27T19:36:17Z</time>
      </trkpt>
      <trkpt lat="37.391106" lon="-122.143004">
        <ele>52</ele>
        <time>2015-04-27T19:36:18Z</time>
      </trkpt>
      <trkpt lat="37.391064" lon="-122.142995">
        <ele>52.1</ele>
        <time>2015-04-27T19:36:19Z</time>
      </trkpt>
      <trkpt lat="37.391017" lon="-122.142999">
        <ele>52.3</ele>
        <time>2015-04-27T19:36:20Z</time>
      </trkpt>
      <trkpt lat="37.390959" lon="-122.143015">
        <ele>52.5</ele>
        <time>2015-04-27T19:36:21Z</time>
      </trkpt>
      <trkpt lat="37.390917" lon="-122.143021">
        <ele>52.5</ele>
        <time>2015-04-27T19:36:22Z</time>
      </trkpt>
      <trkpt lat="37.390871" lon="-122.143038">
        <ele>52.4</ele>
        <time>2015-04-27T19:36:23Z</time>
      </trkpt>
      <trkpt lat="37.390815" lon="-122.143044">
        <ele>52.4</ele>
        <time>2015-04-27T19:36:24Z</time>
      </trkpt>
      <trkpt lat="37.390765" lon="-122.143032">
        <ele>52.6</ele>
        <time>2015-04-27T19:36:25Z</time>
      </trkpt>
      <trkpt lat="37.390717" lon="-122.143015">
        <ele>52.7</ele>
        <time>2015-04-27T19:36:26Z</time>
      </trkpt>
      <trkpt lat="37.390666" lon="-122.143009">
        <ele>52.7</ele>
        <time>2015-04-27T19:36:27Z</time>
      </trkpt>
      <trkpt lat="37.390618" lon="-122.143011">
        <ele>52.9</ele>
        <time>2015-04-27T19:36:28Z</time>
      </trkpt>
      <trkpt lat="37.390561" lon="-122.143009">
        <ele>52.9</ele>
        <time>2015-04-27T19:36:29Z</time>
      </trkpt>
      <trkpt lat="37.390528" lon="-122.143024">
        <ele>52.9</ele>
        <time>2015-04-27T19:36:30Z</time>
      </trkpt>
      <trkpt lat="37.390484" lon="-122.143018">
        <ele>53.1</ele>
        <time>2015-04-27T19:36:31Z</time>
      </trkpt>
      <trkpt lat="37.390446" lon="-122.143005">
        <ele>53.2</ele>
        <time>2015-04-27T19:36:32Z</time>
      </trkpt>
      <trkpt lat="37.390401" lon="-122.142994">
        <ele>53.4</ele>
        <time>2015-04-27T19:36:33Z</time>
      </trkpt>
      <trkpt lat="37.390362" lon="-122.142986">
        <ele>53.5</ele>
        <time>2015-04-27T19:36:34Z</time>
      </trkpt>
      <trkpt lat="37.390325" lon="-122.142992">
        <ele>53.6</ele>
        <time>2015-04-27T19:36:35Z</time>
      </trkpt>
      <trkpt lat="37.390273" lon="-122.142991">
        <ele>53.7</ele>
        <time>2015-04-27T19:36:36Z</time>
      </trkpt>
      <trkpt lat="37.390229" lon="-122.142989">
        <ele>53.9</ele>
        <time>2015-04-27T19:36:37Z</time>
      </trkpt>
      <trkpt lat="37.39018" lon="-122.142984">
        <ele>54</ele>
        <time>2015-04-27T19:36:38Z</time>
      </trkpt>
      <trkpt lat="37.390105" lon="-122.142998">
        <ele>54.3</ele>
        <time>2015-04-27T19:36:40Z</time>
      </trkpt>
      <trkpt lat="37.390063" lon="-122.142995">
        <ele>54.5</ele>
        <time>2015-04-27T19:36:41Z</time>
      </trkpt>
      <trkpt lat="37.390023" lon="-122.142992">
        <ele>54.6</ele>
        <time>2015-04-27T19:36:42Z</time>
      </trkpt>
      <trkpt lat="37.389975" lon="-122.142992">
        <ele>54.7</ele>
        <time>2015-04-27T19:36:44Z</time>
      </trkpt>
      <trkpt lat="37.389886" lon="-122.142995">
        <ele>55.1</ele>
        <time>2015-04-27T19:36:45Z</time>
      </trkpt>
      <trkpt lat="37.389842" lon="-122.142998">
        <ele>55.2</ele>
        <time>2015-04-27T19:36:46Z</time>
      </trkpt>
      <trkpt lat="37.389767" lon="-122.143003">
        <ele>55.5</ele>
        <time>2015-04-27T19:36:47Z</time>
      </trkpt>
      <trkpt lat="37.389705" lon="-122.143016">
        <ele>55.5</ele>
        <time>2015-04-27T19:36:49Z</time>
      </trkpt>
      <trkpt lat="37.389609" lon="-122.143">
        <ele>55.8</ele>
        <time>2015-04-27T19:36:50Z</time>
      </trkpt>
      <trkpt lat="37.389557" lon="-122.142994">
        <ele>55.8</ele>
        <time>2015-04-27T19:36:51Z</time>
      </trkpt>
      <trkpt lat="37.389518" lon="-122.142987">
        <ele>55.9</ele>
        <time>2015-04-27T19:36:52Z</time>
      </trkpt>
      <trkpt lat="37.389464" lon="-122.142983">
        <ele>56</ele>
        <time>2015-04-27T19:36:53Z</time>
      </trkpt>
      <trkpt lat="37.389422" lon="-122.142957">
        <ele>56</ele>
        <time>2015-04-27T19:36:54Z</time>
      </trkpt>
      <trkpt lat="37.389378" lon="-122.142943">
        <ele>56.1</ele>
        <time>2015-04-27T19:36:55Z</time>
      </trkpt>
      <trkpt lat="37.389333" lon="-122.142924">
        <ele>56.1</ele>
        <time>2015-04-27T19:36:56Z</time>
      </trkpt>
      <trkpt lat="37.389285" lon="-122.142912">
        <ele>56.2</ele>
        <time>2015-04-27T19:36:57Z</time>
      </trkpt>
      <trkpt lat="37.389241" lon="-122.142877">
        <ele>56.2</ele>
        <time>2015-04-27T19:36:58Z</time>
      </trkpt>
      <trkpt lat="37.3892" lon="-122.142853">
        <ele>56.2</ele>
        <time>2015-04-27T19:36:59Z</time>
      </trkpt>
      <trkpt lat="37.389165" lon="-122.142833">
        <ele>56.3</ele>
        <time>2015-04-27T19:37:00Z</time>
      </trkpt>
      <trkpt lat="37.389142" lon="-122.142814">
        <ele>56.4</ele>
        <time>2015-04-27T19:37:01Z</time>
      </trkpt>
      <trkpt lat="37.389119" lon="-122.142762">
        <ele>56.2</ele>
        <time>2015-04-27T19:37:02Z</time>
      </trkpt>
      <trkpt lat="37.389066" lon="-122.142765">
        <ele>56.6</ele>
        <time>2015-04-27T19:37:03Z</time>
      </trkpt>
      <trkpt lat="37.389034" lon="-122.142739">
        <ele>56.7</ele>
        <time>2015-04-27T19:37:04Z</time>
      </trkpt>
      <trkpt lat="37.389005" lon="-122.14269">
        <ele>56.8</ele>
        <time>2015-04-27T19:37:05Z</time>
      </trkpt>
      <trkpt lat="37.38897" lon="-122.142647">
        <ele>56.9</ele>
        <time>2015-04-27T19:37:06Z</time>
      </trkpt>
      <trkpt lat="37.38894" lon="-122.142609">
        <ele>57</ele>
        <time>2015-04-27T19:37:07Z</time>
      </trkpt>
      <trkpt lat="37.388909" lon="-122.142558">
        <ele>57.2</ele>
        <time>2015-04-27T19:37:08Z</time>
      </trkpt>
      <trkpt lat="37.388898" lon="-122.142499">
        <ele>57.2</ele>
        <time>2015-04-27T19:37:09Z</time>
      </trkpt>
      <trkpt lat="37.388871" lon="-122.142458">
        <ele>57.3</ele>
        <time>2015-04-27T19:37:10Z</time>
      </trkpt>
      <trkpt lat="37.388847" lon="-122.142399">
        <ele>57.4</ele>
        <time>2015-04-27T19:37:12Z</time>
      </trkpt>
      <trkpt lat="37.38879" lon="-122.142316">
        <ele>57.8</ele>
        <time>2015-04-27T19:37:13Z</time>
      </trkpt>
      <trkpt lat="37.388767" lon="-122.14227">
        <ele>57.9</ele>
        <time>2015-04-27T19:37:14Z</time>
      </trkpt>
      <trkpt lat="37.38877" lon="-122.142214">
        <ele>58</ele>
        <time>2015-04-27T19:37:16Z</time>
      </trkpt>
      <trkpt lat="37.388741" lon="-122.142113">
        <ele>58.5</ele>
        <time>2015-04-27T19:37:17Z</time>
      </trkpt>
      <trkpt lat="37.388726" lon="-122.14207">
        <ele>58.6</ele>
        <time>2015-04-27T19:37:18Z</time>
      </trkpt>
      <trkpt lat="37.388704" lon="-122.142031">
        <ele>58.7</ele>
        <time>2015-04-27T19:37:20Z</time>
      </trkpt>
      <trkpt lat="37.388681" lon="-122.141991">
        <ele>58.7</ele>
        <time>2015-04-27T19:37:21Z</time>
      </trkpt>
      <trkpt lat="37.388636" lon="-122.141895">
        <ele>59</ele>
        <time>2015-04-27T19:37:22Z</time>
      </trkpt>
      <trkpt lat="37.388615" lon="-122.141851">
        <ele>59</ele>
        <time>2015-04-27T19:37:23Z</time>
      </trkpt>
      <trkpt lat="37.3886" lon="-122.141791">
        <ele>59.5</ele>
        <time>2015-04-27T19:37:25Z</time>
      </trkpt>
      <trkpt lat="37.388547" lon="-122.14171">
        <ele>59.6</ele>
        <time>2015-04-27T19:37:26Z</time>
      </trkpt>
      <trkpt lat="37.388527" lon="-122.141652">
        <ele>59.7</ele>
        <time>2015-04-27T19:37:27Z</time>
      </trkpt>
      <trkpt lat="37.388498" lon="-122.141594">
        <ele>59.7</ele>
        <time>2015-04-27T19:37:29Z</time>
      </trkpt>
      <trkpt lat="37.38846" lon="-122.141565">
        <ele>59.6</ele>
        <time>2015-04-27T19:37:30Z</time>
      </trkpt>
      <trkpt lat="37.388416" lon="-122.141478">
        <ele>59.8</ele>
        <time>2015-04-27T19:37:31Z</time>
      </trkpt>
      <trkpt lat="37.388399" lon="-122.141408">
        <ele>60.1</ele>
        <time>2015-04-27T19:37:32Z</time>
      </trkpt>
      <trkpt lat="37.388371" lon="-122.141364">
        <ele>60</ele>
        <time>2015-04-27T19:37:33Z</time>
      </trkpt>
      <trkpt lat="37.388345" lon="-122.14132">
        <ele>60</ele>
        <time>2015-04-27T19:37:34Z</time>
      </trkpt>
      <trkpt lat="37.388315" lon="-122.141258">
        <ele>60.1</ele>
        <time>2015-04-27T19:37:35Z</time>
      </trkpt>
      <trkpt lat="37.388286" lon="-122.141206">
        <ele>60</ele>
        <time>2015-04-27T19:37:36Z</time>
      </trkpt>
      <trkpt lat="37.38826" lon="-122.141128">
        <ele>60</ele>
        <time>2015-04-27T19:37:37Z</time>
      </trkpt>
      <trkpt lat="37.388234" lon="-122.141063">
        <ele>60.1</ele>
        <time>2015-04-27T19:37:38Z</time>
      </trkpt>
      <trkpt lat="37.388202" lon="-122.141021">
        <ele>60.1</ele>
        <time>2015-04-27T19:37:39Z</time>
      </trkpt>
      <trkpt lat="37.388175" lon="-122.140981">
        <ele>60.1</ele>
        <time>2015-04-27T19:37:40Z</time>
      </trkpt>
      <trkpt lat="37.388142" lon="-122.140937">
        <ele>60</ele>
        <time>2015-04-27T19:37:41Z</time>
      </trkpt>
      <trkpt lat="37.388126" lon="-122.140888">
        <ele>60</ele>
        <time>2015-04-27T19:37:42Z</time>
      </trkpt>
      <trkpt lat="37.388081" lon="-122.140847">
        <ele>60</ele>
        <time>2015-04-27T19:37:43Z</time>
      </trkpt>
      <trkpt lat="37.388066" lon="-122.14077">
        <ele>60.1</ele>
        <time>2015-04-27T19:37:44Z</time>
      </trkpt>
      <trkpt lat="37.388035" lon="-122.140721">
        <ele>60.1</ele>
        <time>2015-04-27T19:37:45Z</time>
      </trkpt>
      <trkpt lat="37.388009" lon="-122.140647">
        <ele>60.1</ele>
        <time>2015-04-27T19:37:46Z</time>
      </trkpt>
      <trkpt lat="37.387989" lon="-122.140581">
        <ele>60.2</ele>
        <time>2015-04-27T19:37:47Z</time>
      </trkpt>
      <trkpt lat="37.387954" lon="-122.140523">
        <ele>60.3</ele>
        <time>2015-04-27T19:37:48Z</time>
      </trkpt>
      <trkpt lat="37.387915" lon="-122.140481">
        <ele>60.4</ele>
        <time>2015-04-27T19:37:49Z</time>
      </trkpt>
      <trkpt lat="37.38787" lon="-122.140439">
        <ele>60.5</ele>
        <time>2015-04-27T19:37:50Z</time>
      </trkpt>
      <trkpt lat="37.387839" lon="-122.14039">
        <ele>60.6</ele>
        <time>2015-04-27T19:37:51Z</time>
      </trkpt>
      <trkpt lat="37.387799" lon="-122.140326">
        <ele>60.6</ele>
        <time>2015-04-27T19:37:52Z</time>
      </trkpt>
      <trkpt lat="37.387753" lon="-122.140276">
        <ele>60.7</ele>
        <time>2015-04-27T19:37:53Z</time>
      </trkpt>
      <trkpt lat="37.387715" lon="-122.140221">
        <ele>60.6</ele>
        <time>2015-04-27T19:37:54Z</time>
      </trkpt>
      <trkpt lat="37.387662" lon="-122.140178">
        <ele>60.6</ele>
        <time>2015-04-27T19:37:55Z</time>
      </trkpt>
      <trkpt lat="37.38761" lon="-122.140139">
        <ele>60.5</ele>
        <time>2015-04-27T19:37:56Z</time>
      </trkpt>
      <trkpt lat="37.387557" lon="-122.140102">
        <ele>60.3</ele>
        <time>2015-04-27T19:37:57Z</time>
      </trkpt>
      <trkpt lat="37.387501" lon="-122.140057">
        <ele>60.1</ele>
        <time>2015-04-27T19:37:58Z</time>
      </trkpt>
      <trkpt lat="37.387436" lon="-122.140015">
        <ele>59.9</ele>
        <time>2015-04-27T19:37:59Z</time>
      </trkpt>
      <trkpt lat="37.387373" lon="-122.139985">
        <ele>59.7</ele>
        <time>2015-04-27T19:38:00Z</time>
      </trkpt>
      <trkpt lat="37.387306" lon="-122.139956">
        <ele>59.5</ele>
        <time>2015-04-27T19:38:01Z</time>
      </trkpt>
      <trkpt lat="37.387238" lon="-122.139927">
        <ele>59.5</ele>
        <time>2015-04-27T19:38:02Z</time>
      </trkpt>
      <trkpt lat="37.387174" lon="-122.139904">
        <ele>59.3</ele>
        <time>2015-04-27T19:38:03Z</time>
      </trkpt>
      <trkpt lat="37.387109" lon="-122.13987">
        <ele>59.2</ele>
        <time>2015-04-27T19:38:04Z</time>
      </trkpt>
      <trkpt lat="37.387045" lon="-122.139847">
        <ele>59</ele>
        <time>2015-04-27T19:38:05Z</time>
      </trkpt>
      <trkpt lat="37.386974" lon="-122.139822">
        <ele>58.9</ele>
        <time>2015-04-27T19:38:06Z</time>
      </trkpt>
      <trkpt lat="37.386901" lon="-122.139799">
        <ele>58.8</ele>
        <time>2015-04-27T19:38:07Z</time>
      </trkpt>
      <trkpt lat="37.386836" lon="-122.139769">
        <ele>58.7</ele>
        <time>2015-04-27T19:38:08Z</time>
      </trkpt>
      <trkpt lat="37.386771" lon="-122.139722">
        <ele>58.6</ele>
        <time>2015-04-27T19:38:09Z</time>
      </trkpt>
      <trkpt lat="37.386705" lon="-122.139688">
        <ele>58.5</ele>
        <time>2015-04-27T19:38:11Z</time>
      </trkpt>
      <trkpt lat="37.386579" lon="-122.139625">
        <ele>58.2</ele>
        <time>2015-04-27T19:38:12Z</time>
      </trkpt>
      <trkpt lat="37.386519" lon="-122.139582">
        <ele>58.1</ele>
        <time>2015-04-27T19:38:13Z</time>
      </trkpt>
      <trkpt lat="37.386442" lon="-122.139561">
        <ele>58</ele>
        <time>2015-04-27T19:38:15Z</time>
      </trkpt>
      <trkpt lat="37.386312" lon="-122.139486">
        <ele>58</ele>
        <time>2015-04-27T19:38:16Z</time>
      </trkpt>
      <trkpt lat="37.38625" lon="-122.139468">
        <ele>58</ele>
        <time>2015-04-27T19:38:17Z</time>
      </trkpt>
      <trkpt lat="37.386184" lon="-122.139442">
        <ele>58</ele>
        <time>2015-04-27T19:38:18Z</time>
      </trkpt>
      <trkpt lat="37.386135" lon="-122.139413">
        <ele>58.1</ele>
        <time>2015-04-27T19:38:19Z</time>
      </trkpt>
      <trkpt lat="37.386081" lon="-122.139379">
        <ele>58.1</ele>
        <time>2015-04-27T19:38:20Z</time>
      </trkpt>
      <trkpt lat="37.386018" lon="-122.139351">
        <ele>58.2</ele>
        <time>2015-04-27T19:38:21Z</time>
      </trkpt>
      <trkpt lat="37.385958" lon="-122.139322">
        <ele>58.2</ele>
        <time>2015-04-27T19:38:22Z</time>
      </trkpt>
      <trkpt lat="37.385897" lon="-122.13926">
        <ele>58.3</ele>
        <time>2015-04-27T19:38:23Z</time>
      </trkpt>
      <trkpt lat="37.385838" lon="-122.139232">
        <ele>58.4</ele>
        <time>2015-04-27T19:38:24Z</time>
      </trkpt>
      <trkpt lat="37.385777" lon="-122.139201">
        <ele>58.5</ele>
        <time>2015-04-27T19:38:25Z</time>
      </trkpt>
      <trkpt lat="37.385714" lon="-122.139181">
        <ele>58.7</ele>
        <time>2015-04-27T19:38:26Z</time>
      </trkpt>
      <trkpt lat="37.385668" lon="-122.139155">
        <ele>58.8</ele>
        <time>2015-04-27T19:38:27Z</time>
      </trkpt>
      <trkpt lat="37.385617" lon="-122.139139">
        <ele>59</ele>
        <time>2015-04-27T19:38:28Z</time>
      </trkpt>
      <trkpt lat="37.38556" lon="-122.139124">
        <ele>59.2</ele>
        <time>2015-04-27T19:38:29Z</time>
      </trkpt>
      <trkpt lat="37.38551" lon="-122.139085">
        <ele>59.3</ele>
        <time>2015-04-27T19:38:30Z</time>
      </trkpt>
      <trkpt lat="37.385477" lon="-122.139037">
        <ele>59.3</ele>
        <time>2015-04-27T19:38:31Z</time>
      </trkpt>
      <trkpt lat="37.385426" lon="-122.139011">
        <ele>59.5</ele>
        <time>2015-04-27T19:38:32Z</time>
      </trkpt>
      <trkpt lat="37.385397" lon="-122.138983">
        <ele>59.5</ele>
        <time>2015-04-27T19:38:33Z</time>
      </trkpt>
      <trkpt lat="37.385346" lon="-122.138965">
        <ele>59.6</ele>
        <time>2015-04-27T19:38:34Z</time>
      </trkpt>
      <trkpt lat="37.385294" lon="-122.138948">
        <ele>59.8</ele>
        <time>2015-04-27T19:38:35Z</time>
      </trkpt>
      <trkpt lat="37.385246" lon="-122.138931">
        <ele>59.9</ele>
        <time>2015-04-27T19:38:36Z</time>
      </trkpt>
      <trkpt lat="37.385195" lon="-122.138902">
        <ele>60.1</ele>
        <time>2015-04-27T19:38:37Z</time>
      </trkpt>
      <trkpt lat="37.385149" lon="-122.138872">
        <ele>60.2</ele>
        <time>2015-04-27T19:38:38Z</time>
      </trkpt>
      <trkpt lat="37.385078" lon="-122.138869">
        <ele>60.4</ele>
        <time>2015-04-27T19:38:39Z</time>
      </trkpt>
      <trkpt lat="37.385035" lon="-122.13886">
        <ele>60.6</ele>
        <time>2015-04-27T19:38:40Z</time>
      </trkpt>
      <trkpt lat="37.384986" lon="-122.138852">
        <ele>60.8</ele>
        <time>2015-04-27T19:38:41Z</time>
      </trkpt>
      <trkpt lat="37.384943" lon="-122.138825">
        <ele>60.8</ele>
        <time>2015-04-27T19:38:42Z</time>
      </trkpt>
      <trkpt lat="37.384899" lon="-122.138802">
        <ele>61</ele>
        <time>2015-04-27T19:38:43Z</time>
      </trkpt>
      <trkpt lat="37.384843" lon="-122.138765">
        <ele>61.1</ele>
        <time>2015-04-27T19:38:44Z</time>
      </trkpt>
      <trkpt lat="37.384786" lon="-122.138744">
        <ele>61.2</ele>
        <time>2015-04-27T19:38:45Z</time>
      </trkpt>
      <trkpt lat="37.384742" lon="-122.138737">
        <ele>61.3</ele>
        <time>2015-04-27T19:38:46Z</time>
      </trkpt>
      <trkpt lat="37.384707" lon="-122.138701">
        <ele>61.4</ele>
        <time>2015-04-27T19:38:47Z</time>
      </trkpt>
      <trkpt lat="37.38466" lon="-122.138678">
        <ele>61.5</ele>
        <time>2015-04-27T19:38:48Z</time>
      </trkpt>
      <trkpt lat="37.384596" lon="-122.138667">
        <ele>61.7</ele>
        <time>2015-04-27T19:38:49Z</time>
      </trkpt>
      <trkpt lat="37.384546" lon="-122.138633">
        <ele>61.9</ele>
        <time>2015-04-27T19:38:50Z</time>
      </trkpt>
      <trkpt lat="37.384496" lon="-122.138606">
        <ele>62</ele>
        <time>2015-04-27T19:38:51Z</time>
      </trkpt>
      <trkpt lat="37.384457" lon="-122.138584">
        <ele>62.1</ele>
        <time>2015-04-27T19:38:52Z</time>
      </trkpt>
      <trkpt lat="37.384404" lon="-122.13857">
        <ele>62.2</ele>
        <time>2015-04-27T19:38:53Z</time>
      </trkpt>
      <trkpt lat="37.384348" lon="-122.138535">
        <ele>62.3</ele>
        <time>2015-04-27T19:38:54Z</time>
      </trkpt>
      <trkpt lat="37.384297" lon="-122.138486">
        <ele>62.3</ele>
        <time>2015-04-27T19:38:55Z</time>
      </trkpt>
      <trkpt lat="37.384243" lon="-122.138475">
        <ele>62.5</ele>
        <time>2015-04-27T19:38:57Z</time>
      </trkpt>
      <trkpt lat="37.384149" lon="-122.138431">
        <ele>62.7</ele>
        <time>2015-04-27T19:38:58Z</time>
      </trkpt>
      <trkpt lat="37.384096" lon="-122.138402">
        <ele>62.7</ele>
        <time>2015-04-27T19:38:59Z</time>
      </trkpt>
      <trkpt lat="37.384054" lon="-122.138357">
        <ele>62.7</ele>
        <time>2015-04-27T19:39:00Z</time>
      </trkpt>
      <trkpt lat="37.384009" lon="-122.138327">
        <ele>62.7</ele>
        <time>2015-04-27T19:39:01Z</time>
      </trkpt>
      <trkpt lat="37.383958" lon="-122.138286">
        <ele>62.8</ele>
        <time>2015-04-27T19:39:02Z</time>
      </trkpt>
      <trkpt lat="37.383908" lon="-122.138238">
        <ele>62.9</ele>
        <time>2015-04-27T19:39:03Z</time>
      </trkpt>
      <trkpt lat="37.383854" lon="-122.138216">
        <ele>62.9</ele>
        <time>2015-04-27T19:39:04Z</time>
      </trkpt>
      <trkpt lat="37.3838" lon="-122.138204">
        <ele>63.1</ele>
        <time>2015-04-27T19:39:05Z</time>
      </trkpt>
      <trkpt lat="37.383745" lon="-122.138192">
        <ele>63.3</ele>
        <time>2015-04-27T19:39:06Z</time>
      </trkpt>
      <trkpt lat="37.383688" lon="-122.138176">
        <ele>63.5</ele>
        <time>2015-04-27T19:39:07Z</time>
      </trkpt>
      <trkpt lat="37.383642" lon="-122.138148">
        <ele>63.6</ele>
        <time>2015-04-27T19:39:08Z</time>
      </trkpt>
      <trkpt lat="37.383588" lon="-122.138131">
        <ele>63.8</ele>
        <time>2015-04-27T19:39:09Z</time>
      </trkpt>
      <trkpt lat="37.383524" lon="-122.138123">
        <ele>63.9</ele>
        <time>2015-04-27T19:39:10Z</time>
      </trkpt>
      <trkpt lat="37.383496" lon="-122.138066">
        <ele>64</ele>
        <time>2015-04-27T19:39:11Z</time>
      </trkpt>
      <trkpt lat="37.383454" lon="-122.13805">
        <ele>64</ele>
        <time>2015-04-27T19:39:12Z</time>
      </trkpt>
      <trkpt lat="37.38341" lon="-122.138032">
        <ele>64.1</ele>
        <time>2015-04-27T19:39:13Z</time>
      </trkpt>
      <trkpt lat="37.383371" lon="-122.138006">
        <ele>64.2</ele>
        <time>2015-04-27T19:39:14Z</time>
      </trkpt>
      <trkpt lat="37.383324" lon="-122.137993">
        <ele>64.3</ele>
        <time>2015-04-27T19:39:15Z</time>
      </trkpt>
      <trkpt lat="37.383284" lon="-122.137983">
        <ele>64.5</ele>
        <time>2015-04-27T19:39:16Z</time>
      </trkpt>
      <trkpt lat="37.383245" lon="-122.13795">
        <ele>64.5</ele>
        <time>2015-04-27T19:39:17Z</time>
      </trkpt>
      <trkpt lat="37.383196" lon="-122.137926">
        <ele>64.6</ele>
        <time>2015-04-27T19:39:18Z</time>
      </trkpt>
      <trkpt lat="37.383145" lon="-122.137903">
        <ele>64.8</ele>
        <time>2015-04-27T19:39:19Z</time>
      </trkpt>
      <trkpt lat="37.383092" lon="-122.137874">
        <ele>64.8</ele>
        <time>2015-04-27T19:39:20Z</time>
      </trkpt>
      <trkpt lat="37.38305" lon="-122.137859">
        <ele>65</ele>
        <time>2015-04-27T19:39:21Z</time>
      </trkpt>
      <trkpt lat="37.383001" lon="-122.137854">
        <ele>65.3</ele>
        <time>2015-04-27T19:39:22Z</time>
      </trkpt>
      <trkpt lat="37.382958" lon="-122.137836">
        <ele>65.3</ele>
        <time>2015-04-27T19:39:23Z</time>
      </trkpt>
      <trkpt lat="37.382911" lon="-122.137817">
        <ele>65.4</ele>
        <time>2015-04-27T19:39:24Z</time>
      </trkpt>
      <trkpt lat="37.382871" lon="-122.137809">
        <ele>65.5</ele>
        <time>2015-04-27T19:39:25Z</time>
      </trkpt>
      <trkpt lat="37.382829" lon="-122.137785">
        <ele>65.6</ele>
        <time>2015-04-27T19:39:26Z</time>
      </trkpt>
      <trkpt lat="37.382794" lon="-122.13775">
        <ele>65.5</ele>
        <time>2015-04-27T19:39:27Z</time>
      </trkpt>
      <trkpt lat="37.382765" lon="-122.137683">
        <ele>65.4</ele>
        <time>2015-04-27T19:39:28Z</time>
      </trkpt>
      <trkpt lat="37.382722" lon="-122.137634">
        <ele>65.6</ele>
        <time>2015-04-27T19:39:29Z</time>
      </trkpt>
      <trkpt lat="37.382704" lon="-122.137561">
        <ele>65.4</ele>
        <time>2015-04-27T19:39:30Z</time>
      </trkpt>
      <trkpt lat="37.382693" lon="-122.13749">
        <ele>65.4</ele>
        <time>2015-04-27T19:39:31Z</time>
      </trkpt>
      <trkpt lat="37.38268" lon="-122.137447">
        <ele>65.4</ele>
        <time>2015-04-27T19:39:33Z</time>
      </trkpt>
      <trkpt lat="37.382664" lon="-122.137324">
        <ele>65.3</ele>
        <time>2015-04-27T19:39:34Z</time>
      </trkpt>
      <trkpt lat="37.382661" lon="-122.137254">
        <ele>65.2</ele>
        <time>2015-04-27T19:39:35Z</time>
      </trkpt>
      <trkpt lat="37.382659" lon="-122.137189">
        <ele>65.1</ele>
        <time>2015-04-27T19:39:36Z</time>
      </trkpt>
      <trkpt lat="37.382662" lon="-122.137107">
        <ele>65</ele>
        <time>2015-04-27T19:39:37Z</time>
      </trkpt>
      <trkpt lat="37.382656" lon="-122.137019">
        <ele>64.9</ele>
        <time>2015-04-27T19:39:38Z</time>
      </trkpt>
      <trkpt lat="37.382647" lon="-122.136947">
        <ele>64.9</ele>
        <time>2015-04-27T19:39:39Z</time>
      </trkpt>
      <trkpt lat="37.382644" lon="-122.136871">
        <ele>64.8</ele>
        <time>2015-04-27T19:39:40Z</time>
      </trkpt>
      <trkpt lat="37.382653" lon="-122.136771">
        <ele>64.8</ele>
        <time>2015-04-27T19:39:41Z</time>
      </trkpt>
      <trkpt lat="37.382659" lon="-122.136698">
        <ele>64.7</ele>
        <time>2015-04-27T19:39:43Z</time>
      </trkpt>
      <trkpt lat="37.382659" lon="-122.136525">
        <ele>64.4</ele>
        <time>2015-04-27T19:39:44Z</time>
      </trkpt>
      <trkpt lat="37.382658" lon="-122.136444">
        <ele>64.2</ele>
        <time>2015-04-27T19:39:45Z</time>
      </trkpt>
      <trkpt lat="37.382651" lon="-122.136342">
        <ele>63.9</ele>
        <time>2015-04-27T19:39:46Z</time>
      </trkpt>
      <trkpt lat="37.382646" lon="-122.136251">
        <ele>63.8</ele>
        <time>2015-04-27T19:39:47Z</time>
      </trkpt>
      <trkpt lat="37.382654" lon="-122.136143">
        <ele>63.8</ele>
        <time>2015-04-27T19:39:48Z</time>
      </trkpt>
      <trkpt lat="37.382658" lon="-122.136038">
        <ele>63.6</ele>
        <time>2015-04-27T19:39:49Z</time>
      </trkpt>
      <trkpt lat="37.38266" lon="-122.135951">
        <ele>63.3</ele>
        <time>2015-04-27T19:39:50Z</time>
      </trkpt>
      <trkpt lat="37.382646" lon="-122.135869">
        <ele>63.3</ele>
        <time>2015-04-27T19:39:52Z</time>
      </trkpt>
      <trkpt lat="37.382643" lon="-122.135697">
        <ele>64</ele>
        <time>2015-04-27T19:39:53Z</time>
      </trkpt>
      <trkpt lat="37.382643" lon="-122.135605">
        <ele>64.2</ele>
        <time>2015-04-27T19:39:54Z</time>
      </trkpt>
      <trkpt lat="37.382644" lon="-122.135527">
        <ele>64.6</ele>
        <time>2015-04-27T19:39:55Z</time>
      </trkpt>
      <trkpt lat="37.382641" lon="-122.13544">
        <ele>64.9</ele>
        <time>2015-04-27T19:39:56Z</time>
      </trkpt>
      <trkpt lat="37.382628" lon="-122.135373">
        <ele>65.2</ele>
        <time>2015-04-27T19:39:57Z</time>
      </trkpt>
      <trkpt lat="37.382635" lon="-122.135293">
        <ele>65.6</ele>
        <time>2015-04-27T19:39:59Z</time>
      </trkpt>
      <trkpt lat="37.382623" lon="-122.135163">
        <ele>66.2</ele>
        <time>2015-04-27T19:40:00Z</time>
      </trkpt>
      <trkpt lat="37.382628" lon="-122.135099">
        <ele>66.7</ele>
        <time>2015-04-27T19:40:01Z</time>
      </trkpt>
      <trkpt lat="37.382626" lon="-122.135021">
        <ele>67.1</ele>
        <time>2015-04-27T19:40:02Z</time>
      </trkpt>
      <trkpt lat="37.382618" lon="-122.13496">
        <ele>67.2</ele>
        <time>2015-04-27T19:40:03Z</time>
      </trkpt>
      <trkpt lat="37.382606" lon="-122.1349">
        <ele>67.4</ele>
        <time>2015-04-27T19:40:04Z</time>
      </trkpt>
      <trkpt lat="37.382607" lon="-122.134831">
        <ele>67.6</ele>
        <time>2015-04-27T19:40:05Z</time>
      </trkpt>
      <trkpt lat="37.382596" lon="-122.134774">
        <ele>67.7</ele>
        <time>2015-04-27T19:40:06Z</time>
      </trkpt>
      <trkpt lat="37.382587" lon="-122.134714">
        <ele>67.7</ele>
        <time>2015-04-27T19:40:07Z</time>
      </trkpt>
      <trkpt lat="37.382586" lon="-122.134655">
        <ele>67.9</ele>
        <time>2015-04-27T19:40:08Z</time>
      </trkpt>
      <trkpt lat="37.382585" lon="-122.134588">
        <ele>68</ele>
        <time>2015-04-27T19:40:09Z</time>
      </trkpt>
      <trkpt lat="37.382582" lon="-122.134534">
        <ele>68.1</ele>
        <time>2015-04-27T19:40:10Z</time>
      </trkpt>
      <trkpt lat="37.382569" lon="-122.13447">
        <ele>68.2</ele>
        <time>2015-04-27T19:40:11Z</time>
      </trkpt>
      <trkpt lat="37.382564" lon="-122.134406">
        <ele>68.4</ele>
        <time>2015-04-27T19:40:12Z</time>
      </trkpt>
      <trkpt lat="37.382555" lon="-122.134353">
        <ele>68.4</ele>
        <time>2015-04-27T19:40:13Z</time>
      </trkpt>
      <trkpt lat="37.382563" lon="-122.134293">
        <ele>68.6</ele>
        <time>2015-04-27T19:40:14Z</time>
      </trkpt>
      <trkpt lat="37.382564" lon="-122.134223">
        <ele>68.6</ele>
        <time>2015-04-27T19:40:15Z</time>
      </trkpt>
      <trkpt lat="37.382558" lon="-122.134138">
        <ele>68.6</ele>
        <time>2015-04-27T19:40:16Z</time>
      </trkpt>
      <trkpt lat="37.38256" lon="-122.134073">
        <ele>68.5</ele>
        <time>2015-04-27T19:40:17Z</time>
      </trkpt>
      <trkpt lat="37.38249" lon="-122.134016">
        <ele>68.5</ele>
        <time>2015-04-27T19:40:18Z</time>
      </trkpt>
      <trkpt lat="37.382487" lon="-122.133953">
        <ele>68.5</ele>
        <time>2015-04-27T19:40:19Z</time>
      </trkpt>
      <trkpt lat="37.382485" lon="-122.133896">
        <ele>68.5</ele>
        <time>2015-04-27T19:40:20Z</time>
      </trkpt>
      <trkpt lat="37.382482" lon="-122.133835">
        <ele>68.4</ele>
        <time>2015-04-27T19:40:21Z</time>
      </trkpt>
      <trkpt lat="37.382479" lon="-122.133761">
        <ele>68.3</ele>
        <time>2015-04-27T19:40:22Z</time>
      </trkpt>
      <trkpt lat="37.382477" lon="-122.1337">
        <ele>68.3</ele>
        <time>2015-04-27T19:40:23Z</time>
      </trkpt>
      <trkpt lat="37.382474" lon="-122.133628">
        <ele>68.2</ele>
        <time>2015-04-27T19:40:24Z</time>
      </trkpt>
      <trkpt lat="37.382471" lon="-122.133551">
        <ele>68.1</ele>
        <time>2015-04-27T19:40:25Z</time>
      </trkpt>
      <trkpt lat="37.382468" lon="-122.133488">
        <ele>68.1</ele>
        <time>2015-04-27T19:40:26Z</time>
      </trkpt>
      <trkpt lat="37.382465" lon="-122.133423">
        <ele>68.1</ele>
        <time>2015-04-27T19:40:27Z</time>
      </trkpt>
      <trkpt lat="37.382462" lon="-122.133351">
        <ele>68</ele>
        <time>2015-04-27T19:40:28Z</time>
      </trkpt>
      <trkpt lat="37.38246" lon="-122.133282">
        <ele>68</ele>
        <time>2015-04-27T19:40:29Z</time>
      </trkpt>
      <trkpt lat="37.382457" lon="-122.133227">
        <ele>68</ele>
        <time>2015-04-27T19:40:30Z</time>
      </trkpt>
      <trkpt lat="37.382447" lon="-122.132942">
        <ele>67.6</ele>
        <time>2015-04-27T19:40:34Z</time>
      </trkpt>
      <trkpt lat="37.382444" lon="-122.132868">
        <ele>67.5</ele>
        <time>2015-04-27T19:40:35Z</time>
      </trkpt>
      <trkpt lat="37.382442" lon="-122.132812">
        <ele>67.4</ele>
        <time>2015-04-27T19:40:36Z</time>
      </trkpt>
      <trkpt lat="37.382439" lon="-122.13275">
        <ele>67.3</ele>
        <time>2015-04-27T19:40:37Z</time>
      </trkpt>
      <trkpt lat="37.382437" lon="-122.132685">
        <ele>67.1</ele>
        <time>2015-04-27T19:40:38Z</time>
      </trkpt>
      <trkpt lat="37.382434" lon="-122.132618">
        <ele>67</ele>
        <time>2015-04-27T19:40:39Z</time>
      </trkpt>
      <trkpt lat="37.382432" lon="-122.132544">
        <ele>66.8</ele>
        <time>2015-04-27T19:40:40Z</time>
      </trkpt>
      <trkpt lat="37.382429" lon="-122.132471">
        <ele>66.6</ele>
        <time>2015-04-27T19:40:41Z</time>
      </trkpt>
      <trkpt lat="37.382425" lon="-122.132373">
        <ele>66.4</ele>
        <time>2015-04-27T19:40:42Z</time>
      </trkpt>
      <trkpt lat="37.382422" lon="-122.13228">
        <ele>66.2</ele>
        <time>2015-04-27T19:40:43Z</time>
      </trkpt>
      <trkpt lat="37.382418" lon="-122.132194">
        <ele>65.9</ele>
        <time>2015-04-27T19:40:44Z</time>
      </trkpt>
      <trkpt lat="37.382415" lon="-122.132098">
        <ele>65.7</ele>
        <time>2015-04-27T19:40:45Z</time>
      </trkpt>
      <trkpt lat="37.382412" lon="-122.132019">
        <ele>65.5</ele>
        <time>2015-04-27T19:40:47Z</time>
      </trkpt>
      <trkpt lat="37.382406" lon="-122.131857">
        <ele>64.9</ele>
        <time>2015-04-27T19:40:48Z</time>
      </trkpt>
      <trkpt lat="37.382403" lon="-122.131771">
        <ele>64.7</ele>
        <time>2015-04-27T19:40:49Z</time>
      </trkpt>
      <trkpt lat="37.382399" lon="-122.131677">
        <ele>64.5</ele>
        <time>2015-04-27T19:40:50Z</time>
      </trkpt>
      <trkpt lat="37.382396" lon="-122.131585">
        <ele>64.5</ele>
        <time>2015-04-27T19:40:51Z</time>
      </trkpt>
      <trkpt lat="37.382392" lon="-122.131501">
        <ele>64.5</ele>
        <time>2015-04-27T19:40:52Z</time>
      </trkpt>
      <trkpt lat="37.382402" lon="-122.131422">
        <ele>64.5</ele>
        <time>2015-04-27T19:40:53Z</time>
      </trkpt>
      <trkpt lat="37.382397" lon="-122.131346">
        <ele>64.6</ele>
        <time>2015-04-27T19:40:54Z</time>
      </trkpt>
      <trkpt lat="37.382392" lon="-122.131271">
        <ele>64.6</ele>
        <time>2015-04-27T19:40:55Z</time>
      </trkpt>
      <trkpt lat="37.382381" lon="-122.131196">
        <ele>64.6</ele>
        <time>2015-04-27T19:40:56Z</time>
      </trkpt>
      <trkpt lat="37.382378" lon="-122.131126">
        <ele>64.7</ele>
        <time>2015-04-27T19:40:57Z</time>
      </trkpt>
      <trkpt lat="37.382376" lon="-122.131077">
        <ele>64.8</ele>
        <time>2015-04-27T19:40:58Z</time>
      </trkpt>
      <trkpt lat="37.382366" lon="-122.130838">
        <ele>65.1</ele>
        <time>2015-04-27T19:41:01Z</time>
      </trkpt>
      <trkpt lat="37.382364" lon="-122.13078">
        <ele>65.2</ele>
        <time>2015-04-27T19:41:02Z</time>
      </trkpt>
      <trkpt lat="37.382361" lon="-122.130712">
        <ele>65.3</ele>
        <time>2015-04-27T19:41:03Z</time>
      </trkpt>
      <trkpt lat="37.382358" lon="-122.130648">
        <ele>65.4</ele>
        <time>2015-04-27T19:41:04Z</time>
      </trkpt>
      <trkpt lat="37.382356" lon="-122.130585">
        <ele>65.5</ele>
        <time>2015-04-27T19:41:05Z</time>
      </trkpt>
      <trkpt lat="37.382353" lon="-122.130519">
        <ele>65.7</ele>
        <time>2015-04-27T19:41:06Z</time>
      </trkpt>
      <trkpt lat="37.38235" lon="-122.130449">
        <ele>65.9</ele>
        <time>2015-04-27T19:41:07Z</time>
      </trkpt>
      <trkpt lat="37.382347" lon="-122.13039">
        <ele>65.9</ele>
        <time>2015-04-27T19:41:08Z</time>
      </trkpt>
      <trkpt lat="37.382345" lon="-122.130331">
        <ele>66</ele>
        <time>2015-04-27T19:41:09Z</time>
      </trkpt>
      <trkpt lat="37.382341" lon="-122.130254">
        <ele>66.3</ele>
        <time>2015-04-27T19:41:10Z</time>
      </trkpt>
      <trkpt lat="37.382339" lon="-122.130186">
        <ele>66.4</ele>
        <time>2015-04-27T19:41:11Z</time>
      </trkpt>
      <trkpt lat="37.382336" lon="-122.130124">
        <ele>66.5</ele>
        <time>2015-04-27T19:41:12Z</time>
      </trkpt>
      <trkpt lat="37.382333" lon="-122.130059">
        <ele>66.6</ele>
        <time>2015-04-27T19:41:13Z</time>
      </trkpt>
      <trkpt lat="37.38233" lon="-122.129993">
        <ele>66.7</ele>
        <time>2015-04-27T19:41:14Z</time>
      </trkpt>
      <trkpt lat="37.382328" lon="-122.129935">
        <ele>66.8</ele>
        <time>2015-04-27T19:41:15Z</time>
      </trkpt>
      <trkpt lat="37.382325" lon="-122.129863">
        <ele>67.1</ele>
        <time>2015-04-27T19:41:16Z</time>
      </trkpt>
      <trkpt lat="37.382322" lon="-122.129799">
        <ele>67.2</ele>
        <time>2015-04-27T19:41:17Z</time>
      </trkpt>
      <trkpt lat="37.382319" lon="-122.129735">
        <ele>67.4</ele>
        <time>2015-04-27T19:41:18Z</time>
      </trkpt>
      <trkpt lat="37.382317" lon="-122.129678">
        <ele>67.6</ele>
        <time>2015-04-27T19:41:19Z</time>
      </trkpt>
      <trkpt lat="37.382312" lon="-122.129597">
        <ele>67.9</ele>
        <time>2015-04-27T19:41:20Z</time>
      </trkpt>
      <trkpt lat="37.382306" lon="-122.12953">
        <ele>68.1</ele>
        <time>2015-04-27T19:41:21Z</time>
      </trkpt>
      <trkpt lat="37.382298" lon="-122.129463">
        <ele>68.4</ele>
        <time>2015-04-27T19:41:22Z</time>
      </trkpt>
      <trkpt lat="37.382287" lon="-122.129397">
        <ele>68.8</ele>
        <time>2015-04-27T19:41:23Z</time>
      </trkpt>
      <trkpt lat="37.382274" lon="-122.129338">
        <ele>69.1</ele>
        <time>2015-04-27T19:41:24Z</time>
      </trkpt>
      <trkpt lat="37.382258" lon="-122.129272">
        <ele>69.4</ele>
        <time>2015-04-27T19:41:25Z</time>
      </trkpt>
      <trkpt lat="37.382244" lon="-122.129216">
        <ele>69.8</ele>
        <time>2015-04-27T19:41:26Z</time>
      </trkpt>
      <trkpt lat="37.38223" lon="-122.129165">
        <ele>70.1</ele>
        <time>2015-04-27T19:41:27Z</time>
      </trkpt>
      <trkpt lat="37.38222" lon="-122.129132">
        <ele>70.2</ele>
        <time>2015-04-27T19:41:28Z</time>
      </trkpt>
      <trkpt lat="37.382209" lon="-122.129096">
        <ele>70.5</ele>
        <time>2015-04-27T19:41:29Z</time>
      </trkpt>
      <trkpt lat="37.382191" lon="-122.129039">
        <ele>70.8</ele>
        <time>2015-04-27T19:41:30Z</time>
      </trkpt>
      <trkpt lat="37.382173" lon="-122.128985">
        <ele>71.1</ele>
        <time>2015-04-27T19:41:31Z</time>
      </trkpt>
      <trkpt lat="37.382159" lon="-122.128946">
        <ele>71.3</ele>
        <time>2015-04-27T19:41:33Z</time>
      </trkpt>
      <trkpt lat="37.382138" lon="-122.128889">
        <ele>71.7</ele>
        <time>2015-04-27T19:41:34Z</time>
      </trkpt>
      <trkpt lat="37.382123" lon="-122.128845">
        <ele>72</ele>
        <time>2015-04-27T19:41:35Z</time>
      </trkpt>
      <trkpt lat="37.382108" lon="-122.128806">
        <ele>72.3</ele>
        <time>2015-04-27T19:41:36Z</time>
      </trkpt>
      <trkpt lat="37.382097" lon="-122.128774">
        <ele>72.5</ele>
        <time>2015-04-27T19:41:37Z</time>
      </trkpt>
      <trkpt lat="37.382083" lon="-122.128736">
        <ele>72.7</ele>
        <time>2015-04-27T19:41:38Z</time>
      </trkpt>
      <trkpt lat="37.382009" lon="-122.128527">
        <ele>73.6</ele>
        <time>2015-04-27T19:41:43Z</time>
      </trkpt>
      <trkpt lat="37.381991" lon="-122.128465">
        <ele>73.7</ele>
        <time>2015-04-27T19:41:45Z</time>
      </trkpt>
      <trkpt lat="37.381982" lon="-122.128432">
        <ele>73.8</ele>
        <time>2015-04-27T19:41:46Z</time>
      </trkpt>
      <trkpt lat="37.381971" lon="-122.128372">
        <ele>73.9</ele>
        <time>2015-04-27T19:41:47Z</time>
      </trkpt>
      <trkpt lat="37.38196" lon="-122.128312">
        <ele>74</ele>
        <time>2015-04-27T19:41:48Z</time>
      </trkpt>
      <trkpt lat="37.381951" lon="-122.128249">
        <ele>74</ele>
        <time>2015-04-27T19:41:49Z</time>
      </trkpt>
      <trkpt lat="37.381946" lon="-122.12819">
        <ele>73.9</ele>
        <time>2015-04-27T19:41:50Z</time>
      </trkpt>
      <trkpt lat="37.381945" lon="-122.128132">
        <ele>73.8</ele>
        <time>2015-04-27T19:41:51Z</time>
      </trkpt>
      <trkpt lat="37.381941" lon="-122.128078">
        <ele>73.6</ele>
        <time>2015-04-27T19:41:52Z</time>
      </trkpt>
      <trkpt lat="37.381939" lon="-122.128017">
        <ele>73.4</ele>
        <time>2015-04-27T19:41:53Z</time>
      </trkpt>
      <trkpt lat="37.381935" lon="-122.12795">
        <ele>73</ele>
        <time>2015-04-27T19:41:54Z</time>
      </trkpt>
      <trkpt lat="37.38193" lon="-122.127878">
        <ele>72.6</ele>
        <time>2015-04-27T19:41:55Z</time>
      </trkpt>
      <trkpt lat="37.381905" lon="-122.127802">
        <ele>72.3</ele>
        <time>2015-04-27T19:41:56Z</time>
      </trkpt>
      <trkpt lat="37.381901" lon="-122.127725">
        <ele>71.8</ele>
        <time>2015-04-27T19:41:57Z</time>
      </trkpt>
      <trkpt lat="37.381897" lon="-122.127644">
        <ele>71.2</ele>
        <time>2015-04-27T19:41:58Z</time>
      </trkpt>
      <trkpt lat="37.381894" lon="-122.127561">
        <ele>70.8</ele>
        <time>2015-04-27T19:41:59Z</time>
      </trkpt>
      <trkpt lat="37.381889" lon="-122.127444">
        <ele>70</ele>
        <time>2015-04-27T19:42:00Z</time>
      </trkpt>
      <trkpt lat="37.381885" lon="-122.127352">
        <ele>69.4</ele>
        <time>2015-04-27T19:42:01Z</time>
      </trkpt>
      <trkpt lat="37.381881" lon="-122.127252">
        <ele>68.8</ele>
        <time>2015-04-27T19:42:02Z</time>
      </trkpt>
      <trkpt lat="37.381877" lon="-122.12715">
        <ele>68.1</ele>
        <time>2015-04-27T19:42:03Z</time>
      </trkpt>
      <trkpt lat="37.381871" lon="-122.12702">
        <ele>67.3</ele>
        <time>2015-04-27T19:42:04Z</time>
      </trkpt>
      <trkpt lat="37.381866" lon="-122.126896">
        <ele>66.5</ele>
        <time>2015-04-27T19:42:05Z</time>
      </trkpt>
      <trkpt lat="37.381859" lon="-122.126774">
        <ele>65.7</ele>
        <time>2015-04-27T19:42:06Z</time>
      </trkpt>
      <trkpt lat="37.381848" lon="-122.126661">
        <ele>65.2</ele>
        <time>2015-04-27T19:42:07Z</time>
      </trkpt>
      <trkpt lat="37.381823" lon="-122.126547">
        <ele>64.6</ele>
        <time>2015-04-27T19:42:08Z</time>
      </trkpt>
      <trkpt lat="37.381766" lon="-122.126449">
        <ele>63.8</ele>
        <time>2015-04-27T19:42:09Z</time>
      </trkpt>
      <trkpt lat="37.381678" lon="-122.126379">
        <ele>63</ele>
        <time>2015-04-27T19:42:10Z</time>
      </trkpt>
      <trkpt lat="37.381575" lon="-122.126351">
        <ele>62.1</ele>
        <time>2015-04-27T19:42:11Z</time>
      </trkpt>
      <trkpt lat="37.381475" lon="-122.126357">
        <ele>61.3</ele>
        <time>2015-04-27T19:42:12Z</time>
      </trkpt>
      <trkpt lat="37.381346" lon="-122.126365">
        <ele>60.4</ele>
        <time>2015-04-27T19:42:13Z</time>
      </trkpt>
      <trkpt lat="37.381215" lon="-122.126331">
        <ele>59.3</ele>
        <time>2015-04-27T19:42:14Z</time>
      </trkpt>
      <trkpt lat="37.381142" lon="-122.126261">
        <ele>58.5</ele>
        <time>2015-04-27T19:42:15Z</time>
      </trkpt>
      <trkpt lat="37.381074" lon="-122.126125">
        <ele>57.7</ele>
        <time>2015-04-27T19:42:16Z</time>
      </trkpt>
      <trkpt lat="37.381027" lon="-122.125974">
        <ele>57</ele>
        <time>2015-04-27T19:42:17Z</time>
      </trkpt>
      <trkpt lat="37.380993" lon="-122.125873">
        <ele>56.6</ele>
        <time>2015-04-27T19:42:18Z</time>
      </trkpt>
      <trkpt lat="37.380951" lon="-122.125755">
        <ele>56.1</ele>
        <time>2015-04-27T19:42:19Z</time>
      </trkpt>
      <trkpt lat="37.380908" lon="-122.125638">
        <ele>55.5</ele>
        <time>2015-04-27T19:42:20Z</time>
      </trkpt>
      <trkpt lat="37.380856" lon="-122.125507">
        <ele>55</ele>
        <time>2015-04-27T19:42:21Z</time>
      </trkpt>
      <trkpt lat="37.380807" lon="-122.125384">
        <ele>54.5</ele>
        <time>2015-04-27T19:42:22Z</time>
      </trkpt>
      <trkpt lat="37.380753" lon="-122.125256">
        <ele>54.2</ele>
        <time>2015-04-27T19:42:23Z</time>
      </trkpt>
      <trkpt lat="37.380698" lon="-122.125131">
        <ele>54.1</ele>
        <time>2015-04-27T19:42:24Z</time>
      </trkpt>
      <trkpt lat="37.380643" lon="-122.125011">
        <ele>54</ele>
        <time>2015-04-27T19:42:25Z</time>
      </trkpt>
      <trkpt lat="37.380592" lon="-122.1249">
        <ele>54.1</ele>
        <time>2015-04-27T19:42:26Z</time>
      </trkpt>
      <trkpt lat="37.380543" lon="-122.124796">
        <ele>54.2</ele>
        <time>2015-04-27T19:42:27Z</time>
      </trkpt>
      <trkpt lat="37.380503" lon="-122.124711">
        <ele>54.3</ele>
        <time>2015-04-27T19:42:28Z</time>
      </trkpt>
      <trkpt lat="37.380462" lon="-122.124626">
        <ele>54.4</ele>
        <time>2015-04-27T19:42:29Z</time>
      </trkpt>
      <trkpt lat="37.380489" lon="-122.12451">
        <ele>54.3</ele>
        <time>2015-04-27T19:42:30Z</time>
      </trkpt>
      <trkpt lat="37.380539" lon="-122.124441">
        <ele>54.1</ele>
        <time>2015-04-27T19:42:31Z</time>
      </trkpt>
      <trkpt lat="37.380576" lon="-122.124388">
        <ele>54</ele>
        <time>2015-04-27T19:42:32Z</time>
      </trkpt>
      <trkpt lat="37.380627" lon="-122.124318">
        <ele>53.7</ele>
        <time>2015-04-27T19:42:33Z</time>
      </trkpt>
      <trkpt lat="37.380679" lon="-122.124246">
        <ele>53.6</ele>
        <time>2015-04-27T19:42:34Z</time>
      </trkpt>
      <trkpt lat="37.380736" lon="-122.124166">
        <ele>53.5</ele>
        <time>2015-04-27T19:42:35Z</time>
      </trkpt>
      <trkpt lat="37.380783" lon="-122.1241">
        <ele>53.4</ele>
        <time>2015-04-27T19:42:36Z</time>
      </trkpt>
      <trkpt lat="37.380833" lon="-122.12403">
        <ele>53.5</ele>
        <time>2015-04-27T19:42:37Z</time>
      </trkpt>
      <trkpt lat="37.380882" lon="-122.123964">
        <ele>53.5</ele>
        <time>2015-04-27T19:42:38Z</time>
      </trkpt>
      <trkpt lat="37.380929" lon="-122.123899">
        <ele>53.4</ele>
        <time>2015-04-27T19:42:39Z</time>
      </trkpt>
      <trkpt lat="37.380973" lon="-122.123837">
        <ele>53.3</ele>
        <time>2015-04-27T19:42:40Z</time>
      </trkpt>
      <trkpt lat="37.381018" lon="-122.123773">
        <ele>53.4</ele>
        <time>2015-04-27T19:42:41Z</time>
      </trkpt>
      <trkpt lat="37.38105" lon="-122.123724">
        <ele>53.5</ele>
        <time>2015-04-27T19:42:42Z</time>
      </trkpt>
      <trkpt lat="37.38109" lon="-122.123662">
        <ele>53.8</ele>
        <time>2015-04-27T19:42:43Z</time>
      </trkpt>
      <trkpt lat="37.381125" lon="-122.123607">
        <ele>53.9</ele>
        <time>2015-04-27T19:42:44Z</time>
      </trkpt>
      <trkpt lat="37.381161" lon="-122.123551">
        <ele>54.1</ele>
        <time>2015-04-27T19:42:45Z</time>
      </trkpt>
      <trkpt lat="37.381195" lon="-122.123497">
        <ele>54.3</ele>
        <time>2015-04-27T19:42:46Z</time>
      </trkpt>
      <trkpt lat="37.381234" lon="-122.123426">
        <ele>54.4</ele>
        <time>2015-04-27T19:42:47Z</time>
      </trkpt>
      <trkpt lat="37.381259" lon="-122.123375">
        <ele>54.4</ele>
        <time>2015-04-27T19:42:48Z</time>
      </trkpt>
      <trkpt lat="37.381285" lon="-122.12331">
        <ele>54.5</ele>
        <time>2015-04-27T19:42:49Z</time>
      </trkpt>
      <trkpt lat="37.381301" lon="-122.123258">
        <ele>54.6</ele>
        <time>2015-04-27T19:42:50Z</time>
      </trkpt>
      <trkpt lat="37.381316" lon="-122.123152">
        <ele>54.8</ele>
        <time>2015-04-27T19:42:51Z</time>
      </trkpt>
      <trkpt lat="37.381325" lon="-122.123088">
        <ele>55</ele>
        <time>2015-04-27T19:42:52Z</time>
      </trkpt>
      <trkpt lat="37.381324" lon="-122.123044">
        <ele>55.2</ele>
        <time>2015-04-27T19:42:53Z</time>
      </trkpt>
      <trkpt lat="37.381324" lon="-122.122991">
        <ele>55.3</ele>
        <time>2015-04-27T19:42:54Z</time>
      </trkpt>
      <trkpt lat="37.381324" lon="-122.122741">
        <ele>56</ele>
        <time>2015-04-27T19:42:57Z</time>
      </trkpt>
      <trkpt lat="37.381324" lon="-122.122684">
        <ele>56.2</ele>
        <time>2015-04-27T19:42:58Z</time>
      </trkpt>
      <trkpt lat="37.381324" lon="-122.122612">
        <ele>56.4</ele>
        <time>2015-04-27T19:42:59Z</time>
      </trkpt>
      <trkpt lat="37.381323" lon="-122.122547">
        <ele>56.5</ele>
        <time>2015-04-27T19:43:00Z</time>
      </trkpt>
      <trkpt lat="37.381323" lon="-122.122483">
        <ele>56.6</ele>
        <time>2015-04-27T19:43:01Z</time>
      </trkpt>
      <trkpt lat="37.381323" lon="-122.122421">
        <ele>56.8</ele>
        <time>2015-04-27T19:43:03Z</time>
      </trkpt>
      <trkpt lat="37.381323" lon="-122.122302">
        <ele>57</ele>
        <time>2015-04-27T19:43:04Z</time>
      </trkpt>
      <trkpt lat="37.381323" lon="-122.122241">
        <ele>57</ele>
        <time>2015-04-27T19:43:05Z</time>
      </trkpt>
      <trkpt lat="37.381323" lon="-122.122185">
        <ele>57.1</ele>
        <time>2015-04-27T19:43:06Z</time>
      </trkpt>
      <trkpt lat="37.381323" lon="-122.122139">
        <ele>57.2</ele>
        <time>2015-04-27T19:43:07Z</time>
      </trkpt>
      <trkpt lat="37.381323" lon="-122.122078">
        <ele>57.3</ele>
        <time>2015-04-27T19:43:08Z</time>
      </trkpt>
      <trkpt lat="37.381322" lon="-122.122023">
        <ele>57.3</ele>
        <time>2015-04-27T19:43:09Z</time>
      </trkpt>
      <trkpt lat="37.381322" lon="-122.121966">
        <ele>57.4</ele>
        <time>2015-04-27T19:43:10Z</time>
      </trkpt>
      <trkpt lat="37.381322" lon="-122.121898">
        <ele>57.4</ele>
        <time>2015-04-27T19:43:11Z</time>
      </trkpt>
      <trkpt lat="37.381322" lon="-122.121864">
        <ele>57.4</ele>
        <time>2015-04-27T19:43:12Z</time>
      </trkpt>
      <trkpt lat="37.381318" lon="-122.121705">
        <ele>57.3</ele>
        <time>2015-04-27T19:43:15Z</time>
      </trkpt>
      <trkpt lat="37.38132" lon="-122.121488">
        <ele>57.2</ele>
        <time>2015-04-27T19:43:18Z</time>
      </trkpt>
      <trkpt lat="37.381321" lon="-122.121428">
        <ele>57.2</ele>
        <time>2015-04-27T19:43:19Z</time>
      </trkpt>
      <trkpt lat="37.381322" lon="-122.121368">
        <ele>57.2</ele>
        <time>2015-04-27T19:43:20Z</time>
      </trkpt>
      <trkpt lat="37.381333" lon="-122.12117">
        <ele>57.3</ele>
        <time>2015-04-27T19:43:23Z</time>
      </trkpt>
      <trkpt lat="37.381339" lon="-122.12101">
        <ele>57.1</ele>
        <time>2015-04-27T19:43:26Z</time>
      </trkpt>
      <trkpt lat="37.381341" lon="-122.120962">
        <ele>57.1</ele>
        <time>2015-04-27T19:43:27Z</time>
      </trkpt>
      <trkpt lat="37.381342" lon="-122.120911">
        <ele>57.1</ele>
        <time>2015-04-27T19:43:28Z</time>
      </trkpt>
      <trkpt lat="37.381347" lon="-122.1208">
        <ele>57</ele>
        <time>2015-04-27T19:43:30Z</time>
      </trkpt>
      <trkpt lat="37.38135" lon="-122.120758">
        <ele>57</ele>
        <time>2015-04-27T19:43:31Z</time>
      </trkpt>
      <trkpt lat="37.381352" lon="-122.120715">
        <ele>57</ele>
        <time>2015-04-27T19:43:32Z</time>
      </trkpt>
      <trkpt lat="37.381354" lon="-122.120667">
        <ele>57</ele>
        <time>2015-04-27T19:43:33Z</time>
      </trkpt>
      <trkpt lat="37.381355" lon="-122.120625">
        <ele>57</ele>
        <time>2015-04-27T19:43:34Z</time>
      </trkpt>
      <trkpt lat="37.381358" lon="-122.120561">
        <ele>57</ele>
        <time>2015-04-27T19:43:35Z</time>
      </trkpt>
      <trkpt lat="37.38136" lon="-122.12051">
        <ele>56.9</ele>
        <time>2015-04-27T19:43:36Z</time>
      </trkpt>
      <trkpt lat="37.381493" lon="-122.120573">
        <ele>56.6</ele>
        <time>2015-04-27T19:43:39Z</time>
      </trkpt>
      <trkpt lat="37.381573" lon="-122.120623">
        <ele>56.4</ele>
        <time>2015-04-27T19:43:40Z</time>
      </trkpt>
      <trkpt lat="37.381621" lon="-122.120653">
        <ele>56.2</ele>
        <time>2015-04-27T19:43:41Z</time>
      </trkpt>
      <trkpt lat="37.381671" lon="-122.120684">
        <ele>56.1</ele>
        <time>2015-04-27T19:43:42Z</time>
      </trkpt>
      <trkpt lat="37.38189" lon="-122.120764">
        <ele>55.6</ele>
        <time>2015-04-27T19:43:45Z</time>
      </trkpt>
      <trkpt lat="37.38192" lon="-122.120772">
        <ele>55.5</ele>
        <time>2015-04-27T19:43:46Z</time>
      </trkpt>
      <trkpt lat="37.38204" lon="-122.120781">
        <ele>55.3</ele>
        <time>2015-04-27T19:43:47Z</time>
      </trkpt>
      <trkpt lat="37.382104" lon="-122.120782">
        <ele>55.1</ele>
        <time>2015-04-27T19:43:49Z</time>
      </trkpt>
      <trkpt lat="37.382226" lon="-122.120784">
        <ele>54.7</ele>
        <time>2015-04-27T19:43:50Z</time>
      </trkpt>
      <trkpt lat="37.382288" lon="-122.120786">
        <ele>54.6</ele>
        <time>2015-04-27T19:43:51Z</time>
      </trkpt>
      <trkpt lat="37.382354" lon="-122.120787">
        <ele>54.3</ele>
        <time>2015-04-27T19:43:52Z</time>
      </trkpt>
      <trkpt lat="37.38242" lon="-122.120788">
        <ele>54.2</ele>
        <time>2015-04-27T19:43:53Z</time>
      </trkpt>
      <trkpt lat="37.382484" lon="-122.12079">
        <ele>54.1</ele>
        <time>2015-04-27T19:43:54Z</time>
      </trkpt>
      <trkpt lat="37.382694" lon="-122.120791">
        <ele>53.8</ele>
        <time>2015-04-27T19:43:57Z</time>
      </trkpt>
      <trkpt lat="37.38277" lon="-122.120792">
        <ele>53.6</ele>
        <time>2015-04-27T19:43:58Z</time>
      </trkpt>
      <trkpt lat="37.382829" lon="-122.120792">
        <ele>53.5</ele>
        <time>2015-04-27T19:43:59Z</time>
      </trkpt>
      <trkpt lat="37.382899" lon="-122.120792">
        <ele>53.3</ele>
        <time>2015-04-27T19:44:00Z</time>
      </trkpt>
      <trkpt lat="37.382962" lon="-122.120793">
        <ele>53.2</ele>
        <time>2015-04-27T19:44:01Z</time>
      </trkpt>
      <trkpt lat="37.38303" lon="-122.120793">
        <ele>53</ele>
        <time>2015-04-27T19:44:02Z</time>
      </trkpt>
      <trkpt lat="37.383104" lon="-122.120794">
        <ele>52.8</ele>
        <time>2015-04-27T19:44:03Z</time>
      </trkpt>
      <trkpt lat="37.383179" lon="-122.120794">
        <ele>52.6</ele>
        <time>2015-04-27T19:44:04Z</time>
      </trkpt>
      <trkpt lat="37.383261" lon="-122.120795">
        <ele>52.4</ele>
        <time>2015-04-27T19:44:05Z</time>
      </trkpt>
      <trkpt lat="37.383339" lon="-122.120795">
        <ele>52.2</ele>
        <time>2015-04-27T19:44:06Z</time>
      </trkpt>
      <trkpt lat="37.383407" lon="-122.120795">
        <ele>52</ele>
        <time>2015-04-27T19:44:07Z</time>
      </trkpt>
      <trkpt lat="37.383467" lon="-122.120795">
        <ele>51.9</ele>
        <time>2015-04-27T19:44:08Z</time>
      </trkpt>
      <trkpt lat="37.383556" lon="-122.120796">
        <ele>51.6</ele>
        <time>2015-04-27T19:44:09Z</time>
      </trkpt>
      <trkpt lat="37.383652" lon="-122.120796">
        <ele>51.4</ele>
        <time>2015-04-27T19:44:10Z</time>
      </trkpt>
      <trkpt lat="37.383716" lon="-122.120796">
        <ele>51.2</ele>
        <time>2015-04-27T19:44:11Z</time>
      </trkpt>
      <trkpt lat="37.383803" lon="-122.120796">
        <ele>51</ele>
        <time>2015-04-27T19:44:12Z</time>
      </trkpt>
      <trkpt lat="37.383886" lon="-122.120796">
        <ele>50.9</ele>
        <time>2015-04-27T19:44:13Z</time>
      </trkpt>
      <trkpt lat="37.383958" lon="-122.120796">
        <ele>50.6</ele>
        <time>2015-04-27T19:44:14Z</time>
      </trkpt>
      <trkpt lat="37.384051" lon="-122.120797">
        <ele>50.5</ele>
        <time>2015-04-27T19:44:15Z</time>
      </trkpt>
      <trkpt lat="37.384129" lon="-122.120797">
        <ele>50.3</ele>
        <time>2015-04-27T19:44:16Z</time>
      </trkpt>
      <trkpt lat="37.384205" lon="-122.120797">
        <ele>50.1</ele>
        <time>2015-04-27T19:44:17Z</time>
      </trkpt>
      <trkpt lat="37.384281" lon="-122.120797">
        <ele>49.9</ele>
        <time>2015-04-27T19:44:18Z</time>
      </trkpt>
      <trkpt lat="37.384355" lon="-122.120797">
        <ele>49.7</ele>
        <time>2015-04-27T19:44:19Z</time>
      </trkpt>
      <trkpt lat="37.384446" lon="-122.120797">
        <ele>49.4</ele>
        <time>2015-04-27T19:44:20Z</time>
      </trkpt>
      <trkpt lat="37.384523" lon="-122.120798">
        <ele>49.2</ele>
        <time>2015-04-27T19:44:21Z</time>
      </trkpt>
      <trkpt lat="37.384563" lon="-122.120798">
        <ele>49</ele>
        <time>2015-04-27T19:44:22Z</time>
      </trkpt>
      <trkpt lat="37.384687" lon="-122.120798">
        <ele>48.7</ele>
        <time>2015-04-27T19:44:23Z</time>
      </trkpt>
      <trkpt lat="37.384769" lon="-122.120798">
        <ele>48.5</ele>
        <time>2015-04-27T19:44:24Z</time>
      </trkpt>
      <trkpt lat="37.384837" lon="-122.120798">
        <ele>48.3</ele>
        <time>2015-04-27T19:44:25Z</time>
      </trkpt>
      <trkpt lat="37.384915" lon="-122.120798">
        <ele>48.1</ele>
        <time>2015-04-27T19:44:26Z</time>
      </trkpt>
      <trkpt lat="37.38501" lon="-122.120798">
        <ele>47.7</ele>
        <time>2015-04-27T19:44:27Z</time>
      </trkpt>
      <trkpt lat="37.385095" lon="-122.120798">
        <ele>47.5</ele>
        <time>2015-04-27T19:44:28Z</time>
      </trkpt>
      <trkpt lat="37.385184" lon="-122.120799">
        <ele>47.2</ele>
        <time>2015-04-27T19:44:29Z</time>
      </trkpt>
      <trkpt lat="37.38524" lon="-122.120799">
        <ele>47.1</ele>
        <time>2015-04-27T19:44:30Z</time>
      </trkpt>
      <trkpt lat="37.38534" lon="-122.120801">
        <ele>46.8</ele>
        <time>2015-04-27T19:44:31Z</time>
      </trkpt>
      <trkpt lat="37.385431" lon="-122.120802">
        <ele>46.6</ele>
        <time>2015-04-27T19:44:32Z</time>
      </trkpt>
      <trkpt lat="37.385514" lon="-122.120804">
        <ele>46.4</ele>
        <time>2015-04-27T19:44:33Z</time>
      </trkpt>
      <trkpt lat="37.385588" lon="-122.120805">
        <ele>46.2</ele>
        <time>2015-04-27T19:44:34Z</time>
      </trkpt>
      <trkpt lat="37.385672" lon="-122.120806">
        <ele>46</ele>
        <time>2015-04-27T19:44:35Z</time>
      </trkpt>
      <trkpt lat="37.385755" lon="-122.120808">
        <ele>45.8</ele>
        <time>2015-04-27T19:44:36Z</time>
      </trkpt>
      <trkpt lat="37.385837" lon="-122.120809">
        <ele>45.7</ele>
        <time>2015-04-27T19:44:37Z</time>
      </trkpt>
      <trkpt lat="37.385889" lon="-122.12081">
        <ele>45.6</ele>
        <time>2015-04-27T19:44:38Z</time>
      </trkpt>
      <trkpt lat="37.386" lon="-122.12081">
        <ele>45.4</ele>
        <time>2015-04-27T19:44:40Z</time>
      </trkpt>
      <trkpt lat="37.386107" lon="-122.12081">
        <ele>45.2</ele>
        <time>2015-04-27T19:44:41Z</time>
      </trkpt>
      <trkpt lat="37.386259" lon="-122.120807">
        <ele>45</ele>
        <time>2015-04-27T19:44:42Z</time>
      </trkpt>
      <trkpt lat="37.386346" lon="-122.120807">
        <ele>44.8</ele>
        <time>2015-04-27T19:44:44Z</time>
      </trkpt>
      <trkpt lat="37.386497" lon="-122.120808">
        <ele>44.6</ele>
        <time>2015-04-27T19:44:45Z</time>
      </trkpt>
      <trkpt lat="37.386583" lon="-122.120808">
        <ele>44.4</ele>
        <time>2015-04-27T19:44:46Z</time>
      </trkpt>
      <trkpt lat="37.386656" lon="-122.120808">
        <ele>44.3</ele>
        <time>2015-04-27T19:44:47Z</time>
      </trkpt>
      <trkpt lat="37.386738" lon="-122.120808">
        <ele>44.2</ele>
        <time>2015-04-27T19:44:48Z</time>
      </trkpt>
      <trkpt lat="37.386833" lon="-122.120808">
        <ele>44.1</ele>
        <time>2015-04-27T19:44:49Z</time>
      </trkpt>
      <trkpt lat="37.386867" lon="-122.120808">
        <ele>44</ele>
        <time>2015-04-27T19:44:50Z</time>
      </trkpt>
      <trkpt lat="37.387075" lon="-122.120807">
        <ele>43.9</ele>
        <time>2015-04-27T19:44:52Z</time>
      </trkpt>
      <trkpt lat="37.387148" lon="-122.120806">
        <ele>43.9</ele>
        <time>2015-04-27T19:44:53Z</time>
      </trkpt>
      <trkpt lat="37.387232" lon="-122.120806">
        <ele>43.8</ele>
        <time>2015-04-27T19:44:54Z</time>
      </trkpt>
      <trkpt lat="37.387289" lon="-122.120805">
        <ele>43.8</ele>
        <time>2015-04-27T19:44:55Z</time>
      </trkpt>
      <trkpt lat="37.387364" lon="-122.120805">
        <ele>43.7</ele>
        <time>2015-04-27T19:44:56Z</time>
      </trkpt>
      <trkpt lat="37.387443" lon="-122.120804">
        <ele>43.6</ele>
        <time>2015-04-27T19:44:57Z</time>
      </trkpt>
      <trkpt lat="37.38752" lon="-122.120804">
        <ele>43.5</ele>
        <time>2015-04-27T19:44:58Z</time>
      </trkpt>
      <trkpt lat="37.387596" lon="-122.120803">
        <ele>43.4</ele>
        <time>2015-04-27T19:44:59Z</time>
      </trkpt>
      <trkpt lat="37.387673" lon="-122.120802">
        <ele>43.4</ele>
        <time>2015-04-27T19:45:00Z</time>
      </trkpt>
      <trkpt lat="37.387754" lon="-122.120801">
        <ele>43.2</ele>
        <time>2015-04-27T19:45:01Z</time>
      </trkpt>
      <trkpt lat="37.387844" lon="-122.1208">
        <ele>43.1</ele>
        <time>2015-04-27T19:45:02Z</time>
      </trkpt>
      <trkpt lat="37.387908" lon="-122.120799">
        <ele>43</ele>
        <time>2015-04-27T19:45:03Z</time>
      </trkpt>
      <trkpt lat="37.387997" lon="-122.120799">
        <ele>42.9</ele>
        <time>2015-04-27T19:45:04Z</time>
      </trkpt>
      <trkpt lat="37.388075" lon="-122.120799">
        <ele>42.8</ele>
        <time>2015-04-27T19:45:05Z</time>
      </trkpt>
      <trkpt lat="37.388155" lon="-122.120799">
        <ele>42.7</ele>
        <time>2015-04-27T19:45:06Z</time>
      </trkpt>
      <trkpt lat="37.388231" lon="-122.120799">
        <ele>42.6</ele>
        <time>2015-04-27T19:45:07Z</time>
      </trkpt>
      <trkpt lat="37.388316" lon="-122.120799">
        <ele>42.4</ele>
        <time>2015-04-27T19:45:08Z</time>
      </trkpt>
      <trkpt lat="37.388383" lon="-122.120799">
        <ele>42.4</ele>
        <time>2015-04-27T19:45:09Z</time>
      </trkpt>
      <trkpt lat="37.388442" lon="-122.120799">
        <ele>42.3</ele>
        <time>2015-04-27T19:45:10Z</time>
      </trkpt>
      <trkpt lat="37.388486" lon="-122.120799">
        <ele>42.3</ele>
        <time>2015-04-27T19:45:11Z</time>
      </trkpt>
      <trkpt lat="37.388521" lon="-122.120799">
        <ele>42.3</ele>
        <time>2015-04-27T19:45:12Z</time>
      </trkpt>
      <trkpt lat="37.388563" lon="-122.120799">
        <ele>42.3</ele>
        <time>2015-04-27T19:45:14Z</time>
      </trkpt>
      <trkpt lat="37.388798" lon="-122.120797">
        <ele>42</ele>
        <time>2015-04-27T19:45:18Z</time>
      </trkpt>
      <trkpt lat="37.388861" lon="-122.120796">
        <ele>41.9</ele>
        <time>2015-04-27T19:45:19Z</time>
      </trkpt>
      <trkpt lat="37.388921" lon="-122.120795">
        <ele>41.9</ele>
        <time>2015-04-27T19:45:20Z</time>
      </trkpt>
      <trkpt lat="37.388986" lon="-122.120794">
        <ele>41.8</ele>
        <time>2015-04-27T19:45:21Z</time>
      </trkpt>
      <trkpt lat="37.389038" lon="-122.120793">
        <ele>41.7</ele>
        <time>2015-04-27T19:45:22Z</time>
      </trkpt>
      <trkpt lat="37.389107" lon="-122.120792">
        <ele>41.7</ele>
        <time>2015-04-27T19:45:23Z</time>
      </trkpt>
      <trkpt lat="37.389173" lon="-122.120791">
        <ele>41.6</ele>
        <time>2015-04-27T19:45:24Z</time>
      </trkpt>
      <trkpt lat="37.389248" lon="-122.12079">
        <ele>41.6</ele>
        <time>2015-04-27T19:45:25Z</time>
      </trkpt>
      <trkpt lat="37.389318" lon="-122.120789">
        <ele>41.5</ele>
        <time>2015-04-27T19:45:26Z</time>
      </trkpt>
      <trkpt lat="37.389378" lon="-122.120788">
        <ele>41.4</ele>
        <time>2015-04-27T19:45:27Z</time>
      </trkpt>
      <trkpt lat="37.389657" lon="-122.120788">
        <ele>41.1</ele>
        <time>2015-04-27T19:45:31Z</time>
      </trkpt>
      <trkpt lat="37.389725" lon="-122.120788">
        <ele>41</ele>
        <time>2015-04-27T19:45:32Z</time>
      </trkpt>
      <trkpt lat="37.389793" lon="-122.120788">
        <ele>41</ele>
        <time>2015-04-27T19:45:33Z</time>
      </trkpt>
      <trkpt lat="37.389854" lon="-122.120788">
        <ele>41</ele>
        <time>2015-04-27T19:45:34Z</time>
      </trkpt>
      <trkpt lat="37.389912" lon="-122.120788">
        <ele>40.9</ele>
        <time>2015-04-27T19:45:35Z</time>
      </trkpt>
      <trkpt lat="37.389987" lon="-122.120788">
        <ele>40.8</ele>
        <time>2015-04-27T19:45:36Z</time>
      </trkpt>
      <trkpt lat="37.390064" lon="-122.120788">
        <ele>40.8</ele>
        <time>2015-04-27T19:45:37Z</time>
      </trkpt>
      <trkpt lat="37.390128" lon="-122.120788">
        <ele>40.7</ele>
        <time>2015-04-27T19:45:38Z</time>
      </trkpt>
      <trkpt lat="37.390195" lon="-122.120788">
        <ele>40.6</ele>
        <time>2015-04-27T19:45:39Z</time>
      </trkpt>
      <trkpt lat="37.390252" lon="-122.120788">
        <ele>40.4</ele>
        <time>2015-04-27T19:45:40Z</time>
      </trkpt>
      <trkpt lat="37.390307" lon="-122.120788">
        <ele>40.4</ele>
        <time>2015-04-27T19:45:41Z</time>
      </trkpt>
      <trkpt lat="37.390368" lon="-122.120788">
        <ele>40.3</ele>
        <time>2015-04-27T19:45:42Z</time>
      </trkpt>
      <trkpt lat="37.390423" lon="-122.120788">
        <ele>40.2</ele>
        <time>2015-04-27T19:45:43Z</time>
      </trkpt>
      <trkpt lat="37.390474" lon="-122.120791">
        <ele>40.1</ele>
        <time>2015-04-27T19:45:44Z</time>
      </trkpt>
      <trkpt lat="37.390487" lon="-122.120946">
        <ele>40.1</ele>
        <time>2015-04-27T19:45:45Z</time>
      </trkpt>
      <trkpt lat="37.390485" lon="-122.121013">
        <ele>40.2</ele>
        <time>2015-04-27T19:45:46Z</time>
      </trkpt>
      <trkpt lat="37.390483" lon="-122.121091">
        <ele>40.2</ele>
        <time>2015-04-27T19:45:47Z</time>
      </trkpt>
      <trkpt lat="37.390481" lon="-122.121172">
        <ele>40.2</ele>
        <time>2015-04-27T19:45:48Z</time>
      </trkpt>
      <trkpt lat="37.390479" lon="-122.12125">
        <ele>40.2</ele>
        <time>2015-04-27T19:45:49Z</time>
      </trkpt>
      <trkpt lat="37.390476" lon="-122.121323">
        <ele>40.2</ele>
        <time>2015-04-27T19:45:50Z</time>
      </trkpt>
      <trkpt lat="37.390474" lon="-122.121404">
        <ele>40.2</ele>
        <time>2015-04-27T19:45:51Z</time>
      </trkpt>
      <trkpt lat="37.390472" lon="-122.121484">
        <ele>40.1</ele>
        <time>2015-04-27T19:45:52Z</time>
      </trkpt>
      <trkpt lat="37.39047" lon="-122.121559">
        <ele>40.1</ele>
        <time>2015-04-27T19:45:53Z</time>
      </trkpt>
      <trkpt lat="37.390467" lon="-122.121646">
        <ele>40.1</ele>
        <time>2015-04-27T19:45:54Z</time>
      </trkpt>
      <trkpt lat="37.390465" lon="-122.121723">
        <ele>40.1</ele>
        <time>2015-04-27T19:45:55Z</time>
      </trkpt>
      <trkpt lat="37.390463" lon="-122.121801">
        <ele>40.2</ele>
        <time>2015-04-27T19:45:56Z</time>
      </trkpt>
      <trkpt lat="37.390445" lon="-122.122098">
        <ele>40.4</ele>
        <time>2015-04-27T19:46:00Z</time>
      </trkpt>
      <trkpt lat="37.390438" lon="-122.122212">
        <ele>40.6</ele>
        <time>2015-04-27T19:46:01Z</time>
      </trkpt>
      <trkpt lat="37.390428" lon="-122.12225">
        <ele>40.7</ele>
        <time>2015-04-27T19:46:02Z</time>
      </trkpt>
      <trkpt lat="37.390367" lon="-122.122357">
        <ele>40.9</ele>
        <time>2015-04-27T19:46:04Z</time>
      </trkpt>
      <trkpt lat="37.39033" lon="-122.122415">
        <ele>41</ele>
        <time>2015-04-27T19:46:05Z</time>
      </trkpt>
      <trkpt lat="37.390297" lon="-122.122466">
        <ele>41.1</ele>
        <time>2015-04-27T19:46:06Z</time>
      </trkpt>
      <trkpt lat="37.390263" lon="-122.122519">
        <ele>41.2</ele>
        <time>2015-04-27T19:46:07Z</time>
      </trkpt>
      <trkpt lat="37.390225" lon="-122.122581">
        <ele>41.3</ele>
        <time>2015-04-27T19:46:08Z</time>
      </trkpt>
      <trkpt lat="37.390194" lon="-122.122641">
        <ele>41.4</ele>
        <time>2015-04-27T19:46:09Z</time>
      </trkpt>
      <trkpt lat="37.390167" lon="-122.122698">
        <ele>41.6</ele>
        <time>2015-04-27T19:46:10Z</time>
      </trkpt>
      <trkpt lat="37.390141" lon="-122.122763">
        <ele>41.7</ele>
        <time>2015-04-27T19:46:11Z</time>
      </trkpt>
      <trkpt lat="37.390117" lon="-122.122825">
        <ele>41.8</ele>
        <time>2015-04-27T19:46:12Z</time>
      </trkpt>
      <trkpt lat="37.390099" lon="-122.122877">
        <ele>41.8</ele>
        <time>2015-04-27T19:46:13Z</time>
      </trkpt>
      <trkpt lat="37.390038" lon="-122.123116">
        <ele>42.1</ele>
        <time>2015-04-27T19:46:17Z</time>
      </trkpt>
      <trkpt lat="37.390026" lon="-122.123169">
        <ele>42.2</ele>
        <time>2015-04-27T19:46:18Z</time>
      </trkpt>
      <trkpt lat="37.390015" lon="-122.123216">
        <ele>42.2</ele>
        <time>2015-04-27T19:46:19Z</time>
      </trkpt>
      <trkpt lat="37.390002" lon="-122.123272">
        <ele>42.3</ele>
        <time>2015-04-27T19:46:20Z</time>
      </trkpt>
      <trkpt lat="37.38999" lon="-122.123325">
        <ele>42.3</ele>
        <time>2015-04-27T19:46:21Z</time>
      </trkpt>
      <trkpt lat="37.389975" lon="-122.123389">
        <ele>42.4</ele>
        <time>2015-04-27T19:46:24Z</time>
      </trkpt>
      <trkpt lat="37.38998" lon="-122.123422">
        <ele>42.4</ele>
        <time>2015-04-27T19:46:26Z</time>
      </trkpt>
      <trkpt lat="37.390147" lon="-122.123453">
        <ele>42.7</ele>
        <time>2015-04-27T19:46:29Z</time>
      </trkpt>
      <trkpt lat="37.390175" lon="-122.123449">
        <ele>42.7</ele>
        <time>2015-04-27T19:46:44Z</time>
      </trkpt>
      <trkpt lat="37.39019" lon="-122.123417">
        <ele>42.6</ele>
        <time>2015-04-27T19:46:47Z</time>
      </trkpt>
      <trkpt lat="37.390221" lon="-122.123419">
        <ele>42.6</ele>
        <time>2015-04-27T19:46:51Z</time>
      </trkpt>
      <trkpt lat="37.390249" lon="-122.12343">
        <ele>42.5</ele>
        <time>2015-04-27T19:46:55Z</time>
      </trkpt>
      <trkpt lat="37.390224" lon="-122.123459">
        <ele>42.6</ele>
        <time>2015-04-27T19:47:00Z</time>
      </trkpt>
      <trkpt lat="37.390193" lon="-122.123483">
        <ele>42.7</ele>
        <time>2015-04-27T19:47:04Z</time>
      </trkpt>
      <trkpt lat="37.390162" lon="-122.123478">
        <ele>42.7</ele>
        <time>2015-04-27T19:47:11Z</time>
      </trkpt>
      <trkpt lat="37.390192" lon="-122.123463">
        <ele>42.7</ele>
        <time>2015-04-27T19:47:16Z</time>
      </trkpt>
      <trkpt lat="37.390196" lon="-122.123426">
        <ele>42.6</ele>
        <time>2015-04-27T19:47:20Z</time>
      </trkpt>
      <trkpt lat="37.390168" lon="-122.123434">
        <ele>42.7</ele>
        <time>2015-04-27T19:47:32Z</time>
      </trkpt>
    </trkseg>
  </trk>
</gpx>